<?xml version="1.0" encoding="UTF-8" standalone="no" ?>
<gpx xmlns="http://www.topografix.com/GPX/1/1" xmlns:xsi="http://www.w3.org/2001/XMLSchema-instance" xsi:schemaLocation="http://www.topografix.com/GPX/1/1 http://www.topografix.com/GPX/1/1/gpx.xsd" version="1.1" creator="VisuGPX - https://www.visugpx.com">
  <metadata>
    <name>Plan de la Tour - Le San Peïre</name>
    <desc><![CDATA[Plan de la Tour-Le San Peire]]></desc>
  </metadata>
  <wpt lat="43.326" lon="6.55914">
    <ele>62.2</ele>
    <name><![CDATA[Menhir]]></name>
    <type><![CDATA[patrimoine_rural]]></type>
  </wpt>
  <wpt lat="43.31471" lon="6.57262">
    <ele>318.4</ele>
    <name><![CDATA[Dolmen]]></name>
    <type><![CDATA[patrimoine_rural]]></type>
  </wpt>
  <wpt lat="43.32654" lon="6.5575">
    <ele>59.1</ele>
    <name><![CDATA[Menhir]]></name>
    <type><![CDATA[patrimoine_rural]]></type>
  </wpt>
  <wpt lat="43.31112" lon="6.56163">
    <ele>405.5</ele>
    <name><![CDATA[San Peïre]]></name>
    <type><![CDATA[sommet]]></type>
  </wpt>
  <trk>
    <name><![CDATA[Le Plan de la tour]]></name>
    <extensions>
      <line xmlns="http://www.topografix.com/GPX/gpx_style/0/2">
        <color>ff0000</color>
        <opacity>1</opacity>
        <width>4</width>
      </line>
    </extensions>
    <trkseg>
      <trkpt lat="43.32614" lon="6.55015">
        <ele>78.4</ele>
        <time>2024-11-10T08:38:29Z</time>
      </trkpt>
      <trkpt lat="43.32621" lon="6.55008">
        <ele>78.5</ele>
        <time>2024-11-10T08:41:38Z</time>
      </trkpt>
      <trkpt lat="43.32626" lon="6.55005">
        <ele>78.4</ele>
        <time>2024-11-10T08:41:47.500Z</time>
      </trkpt>
      <trkpt lat="43.32631" lon="6.55001">
        <ele>78.3</ele>
        <time>2024-11-10T08:41:57Z</time>
      </trkpt>
      <trkpt lat="43.32637" lon="6.54996">
        <ele>77.9</ele>
        <time>2024-11-10T08:42:08Z</time>
      </trkpt>
      <trkpt lat="43.32642" lon="6.54995">
        <ele>77.8</ele>
        <time>2024-11-10T08:42:11.999Z</time>
      </trkpt>
      <trkpt lat="43.32649" lon="6.54991">
        <ele>77.6</ele>
        <time>2024-11-10T08:42:18Z</time>
      </trkpt>
      <trkpt lat="43.32654" lon="6.54993">
        <ele>77.6</ele>
        <time>2024-11-10T08:42:22.500Z</time>
      </trkpt>
      <trkpt lat="43.32658" lon="6.54994">
        <ele>77.6</ele>
        <time>2024-11-10T08:42:27Z</time>
      </trkpt>
      <trkpt lat="43.32663" lon="6.54995">
        <ele>77.7</ele>
        <time>2024-11-10T08:42:32.000Z</time>
      </trkpt>
      <trkpt lat="43.32667" lon="6.54996">
        <ele>77.7</ele>
        <time>2024-11-10T08:42:37Z</time>
      </trkpt>
      <trkpt lat="43.32672" lon="6.54998">
        <ele>77.3</ele>
        <time>2024-11-10T08:42:43.000Z</time>
      </trkpt>
      <trkpt lat="43.32677" lon="6.55">
        <ele>76.9</ele>
        <time>2024-11-10T08:42:49Z</time>
      </trkpt>
      <trkpt lat="43.32681" lon="6.55004">
        <ele>76.6</ele>
        <time>2024-11-10T08:42:53.500Z</time>
      </trkpt>
      <trkpt lat="43.32685" lon="6.55007">
        <ele>76.3</ele>
        <time>2024-11-10T08:42:58Z</time>
      </trkpt>
      <trkpt lat="43.32688" lon="6.55014">
        <ele>76.2</ele>
        <time>2024-11-10T08:43:02.500Z</time>
      </trkpt>
      <trkpt lat="43.3269" lon="6.5502">
        <ele>76.2</ele>
        <time>2024-11-10T08:43:07Z</time>
      </trkpt>
      <trkpt lat="43.3269" lon="6.55032">
        <ele>76.5</ele>
        <time>2024-11-10T08:43:16Z</time>
      </trkpt>
      <trkpt lat="43.32691" lon="6.55039">
        <ele>76.4</ele>
        <time>2024-11-10T08:43:21.000Z</time>
      </trkpt>
      <trkpt lat="43.32691" lon="6.55045">
        <ele>76.3</ele>
        <time>2024-11-10T08:43:26Z</time>
      </trkpt>
      <trkpt lat="43.32695" lon="6.5505">
        <ele>75.9</ele>
        <time>2024-11-10T08:43:32.500Z</time>
      </trkpt>
      <trkpt lat="43.32699" lon="6.55055">
        <ele>75.3</ele>
        <time>2024-11-10T08:43:39Z</time>
      </trkpt>
      <trkpt lat="43.32698" lon="6.55062">
        <ele>75.8</ele>
        <time>2024-11-10T08:43:46.999Z</time>
      </trkpt>
      <trkpt lat="43.32697" lon="6.55069">
        <ele>76.2</ele>
        <time>2024-11-10T08:43:55Z</time>
      </trkpt>
      <trkpt lat="43.32693" lon="6.5508">
        <ele>76.9</ele>
        <time>2024-11-10T08:44:00.499Z</time>
      </trkpt>
      <trkpt lat="43.32688" lon="6.5509">
        <ele>77.2</ele>
        <time>2024-11-10T08:44:06Z</time>
      </trkpt>
      <trkpt lat="43.32688" lon="6.55098">
        <ele>77.2</ele>
        <time>2024-11-10T08:44:10.999Z</time>
      </trkpt>
      <trkpt lat="43.32687" lon="6.55106">
        <ele>77.3</ele>
        <time>2024-11-10T08:44:16Z</time>
      </trkpt>
      <trkpt lat="43.32688" lon="6.55113">
        <ele>77.2</ele>
        <time>2024-11-10T08:44:20.500Z</time>
      </trkpt>
      <trkpt lat="43.32688" lon="6.5512">
        <ele>77.1</ele>
        <time>2024-11-10T08:44:25Z</time>
      </trkpt>
      <trkpt lat="43.32686" lon="6.55126">
        <ele>77</ele>
        <time>2024-11-10T08:44:28.999Z</time>
      </trkpt>
      <trkpt lat="43.32683" lon="6.55131">
        <ele>76.8</ele>
        <time>2024-11-10T08:44:33Z</time>
      </trkpt>
      <trkpt lat="43.32683" lon="6.5514">
        <ele>76.5</ele>
        <time>2024-11-10T08:44:36.999Z</time>
      </trkpt>
      <trkpt lat="43.32682" lon="6.55148">
        <ele>76.2</ele>
        <time>2024-11-10T08:44:41Z</time>
      </trkpt>
      <trkpt lat="43.3268" lon="6.55154">
        <ele>75.9</ele>
        <time>2024-11-10T08:44:45.499Z</time>
      </trkpt>
      <trkpt lat="43.32678" lon="6.5516">
        <ele>75.6</ele>
        <time>2024-11-10T08:44:50Z</time>
      </trkpt>
      <trkpt lat="43.32676" lon="6.55167">
        <ele>75.3</ele>
        <time>2024-11-10T08:44:54.499Z</time>
      </trkpt>
      <trkpt lat="43.32673" lon="6.55173">
        <ele>75.3</ele>
        <time>2024-11-10T08:44:59Z</time>
      </trkpt>
      <trkpt lat="43.32671" lon="6.5518">
        <ele>75.2</ele>
        <time>2024-11-10T08:45:03.499Z</time>
      </trkpt>
      <trkpt lat="43.32669" lon="6.55187">
        <ele>75.1</ele>
        <time>2024-11-10T08:45:08Z</time>
      </trkpt>
      <trkpt lat="43.32668" lon="6.55199">
        <ele>75.3</ele>
        <time>2024-11-10T08:45:21Z</time>
      </trkpt>
      <trkpt lat="43.32664" lon="6.55209">
        <ele>75.3</ele>
        <time>2024-11-10T08:45:32Z</time>
      </trkpt>
      <trkpt lat="43.32661" lon="6.55215">
        <ele>75.3</ele>
        <time>2024-11-10T08:45:34.749Z</time>
      </trkpt>
      <trkpt lat="43.32658" lon="6.55221">
        <ele>75.3</ele>
        <time>2024-11-10T08:45:37.499Z</time>
      </trkpt>
      <trkpt lat="43.32654" lon="6.55226">
        <ele>75</ele>
        <time>2024-11-10T08:45:40.249Z</time>
      </trkpt>
      <trkpt lat="43.32651" lon="6.55232">
        <ele>74.5</ele>
        <time>2024-11-10T08:45:43Z</time>
      </trkpt>
      <trkpt lat="43.32649" lon="6.55239">
        <ele>74.1</ele>
        <time>2024-11-10T08:45:46.999Z</time>
      </trkpt>
      <trkpt lat="43.32647" lon="6.55246">
        <ele>73.7</ele>
        <time>2024-11-10T08:45:51Z</time>
      </trkpt>
      <trkpt lat="43.32646" lon="6.55254">
        <ele>73.2</ele>
        <time>2024-11-10T08:45:55.999Z</time>
      </trkpt>
      <trkpt lat="43.32645" lon="6.55262">
        <ele>72.3</ele>
        <time>2024-11-10T08:46:01Z</time>
      </trkpt>
      <trkpt lat="43.32643" lon="6.55271">
        <ele>71.2</ele>
        <time>2024-11-10T08:46:05.499Z</time>
      </trkpt>
      <trkpt lat="43.3264" lon="6.55279">
        <ele>70.1</ele>
        <time>2024-11-10T08:46:10Z</time>
      </trkpt>
      <trkpt lat="43.3264" lon="6.55288">
        <ele>69.7</ele>
        <time>2024-11-10T08:46:14.499Z</time>
      </trkpt>
      <trkpt lat="43.32639" lon="6.55296">
        <ele>69.4</ele>
        <time>2024-11-10T08:46:19Z</time>
      </trkpt>
      <trkpt lat="43.32641" lon="6.55303">
        <ele>69.3</ele>
        <time>2024-11-10T08:46:23.500Z</time>
      </trkpt>
      <trkpt lat="43.32643" lon="6.5531">
        <ele>69.3</ele>
        <time>2024-11-10T08:46:28Z</time>
      </trkpt>
      <trkpt lat="43.32645" lon="6.55317">
        <ele>69.1</ele>
        <time>2024-11-10T08:46:32.000Z</time>
      </trkpt>
      <trkpt lat="43.32646" lon="6.55323">
        <ele>69</ele>
        <time>2024-11-10T08:46:36Z</time>
      </trkpt>
      <trkpt lat="43.32646" lon="6.5533">
        <ele>68.6</ele>
        <time>2024-11-10T08:46:39.999Z</time>
      </trkpt>
      <trkpt lat="43.32645" lon="6.55336">
        <ele>68.3</ele>
        <time>2024-11-10T08:46:44Z</time>
      </trkpt>
      <trkpt lat="43.32643" lon="6.55348">
        <ele>67.7</ele>
        <time>2024-11-10T08:46:52Z</time>
      </trkpt>
      <trkpt lat="43.32641" lon="6.55356">
        <ele>67.3</ele>
        <time>2024-11-10T08:46:56.499Z</time>
      </trkpt>
      <trkpt lat="43.32638" lon="6.55364">
        <ele>66.7</ele>
        <time>2024-11-10T08:47:01Z</time>
      </trkpt>
      <trkpt lat="43.32638" lon="6.55371">
        <ele>66.1</ele>
        <time>2024-11-10T08:47:05.499Z</time>
      </trkpt>
      <trkpt lat="43.32637" lon="6.55378">
        <ele>65.5</ele>
        <time>2024-11-10T08:47:10Z</time>
      </trkpt>
      <trkpt lat="43.32636" lon="6.55389">
        <ele>64.6</ele>
        <time>2024-11-10T08:47:19Z</time>
      </trkpt>
      <trkpt lat="43.32633" lon="6.55396">
        <ele>64.2</ele>
        <time>2024-11-10T08:47:22.999Z</time>
      </trkpt>
      <trkpt lat="43.3263" lon="6.55403">
        <ele>63.7</ele>
        <time>2024-11-10T08:47:27Z</time>
      </trkpt>
      <trkpt lat="43.3263" lon="6.5541">
        <ele>63.6</ele>
        <time>2024-11-10T08:47:31.999Z</time>
      </trkpt>
      <trkpt lat="43.32629" lon="6.55417">
        <ele>63.6</ele>
        <time>2024-11-10T08:47:37Z</time>
      </trkpt>
      <trkpt lat="43.32626" lon="6.55425">
        <ele>63.1</ele>
        <time>2024-11-10T08:47:41.499Z</time>
      </trkpt>
      <trkpt lat="43.32623" lon="6.55432">
        <ele>62.7</ele>
        <time>2024-11-10T08:47:46Z</time>
      </trkpt>
      <trkpt lat="43.32624" lon="6.55441">
        <ele>62.9</ele>
        <time>2024-11-10T08:47:50.000Z</time>
      </trkpt>
      <trkpt lat="43.32625" lon="6.55449">
        <ele>63.2</ele>
        <time>2024-11-10T08:47:54Z</time>
      </trkpt>
      <trkpt lat="43.32624" lon="6.55456">
        <ele>63.4</ele>
        <time>2024-11-10T08:47:57.999Z</time>
      </trkpt>
      <trkpt lat="43.32622" lon="6.55462">
        <ele>63.7</ele>
        <time>2024-11-10T08:48:02Z</time>
      </trkpt>
      <trkpt lat="43.32623" lon="6.55474">
        <ele>64.4</ele>
        <time>2024-11-10T08:48:10Z</time>
      </trkpt>
      <trkpt lat="43.32622" lon="6.55481">
        <ele>64.1</ele>
        <time>2024-11-10T08:48:13.999Z</time>
      </trkpt>
      <trkpt lat="43.32621" lon="6.55487">
        <ele>63.8</ele>
        <time>2024-11-10T08:48:18Z</time>
      </trkpt>
      <trkpt lat="43.3262" lon="6.55494">
        <ele>63.5</ele>
        <time>2024-11-10T08:48:22.499Z</time>
      </trkpt>
      <trkpt lat="43.32619" lon="6.55501">
        <ele>63.2</ele>
        <time>2024-11-10T08:48:27Z</time>
      </trkpt>
      <trkpt lat="43.32619" lon="6.55508">
        <ele>62.5</ele>
        <time>2024-11-10T08:48:31.499Z</time>
      </trkpt>
      <trkpt lat="43.32618" lon="6.55515">
        <ele>61.8</ele>
        <time>2024-11-10T08:48:36Z</time>
      </trkpt>
      <trkpt lat="43.32621" lon="6.55522">
        <ele>61.3</ele>
        <time>2024-11-10T08:48:40.500Z</time>
      </trkpt>
      <trkpt lat="43.32624" lon="6.55528">
        <ele>60.9</ele>
        <time>2024-11-10T08:48:45Z</time>
      </trkpt>
      <trkpt lat="43.32627" lon="6.55535">
        <ele>60.4</ele>
        <time>2024-11-10T08:48:49.500Z</time>
      </trkpt>
      <trkpt lat="43.3263" lon="6.55541">
        <ele>59.9</ele>
        <time>2024-11-10T08:48:54Z</time>
      </trkpt>
      <trkpt lat="43.32629" lon="6.55553">
        <ele>58.6</ele>
        <time>2024-11-10T08:49:02Z</time>
      </trkpt>
      <trkpt lat="43.32631" lon="6.55561">
        <ele>58.1</ele>
        <time>2024-11-10T08:49:06.500Z</time>
      </trkpt>
      <trkpt lat="43.32632" lon="6.55568">
        <ele>57.7</ele>
        <time>2024-11-10T08:49:11Z</time>
      </trkpt>
      <trkpt lat="43.32635" lon="6.55575">
        <ele>57.4</ele>
        <time>2024-11-10T08:49:15.500Z</time>
      </trkpt>
      <trkpt lat="43.32637" lon="6.55582">
        <ele>57</ele>
        <time>2024-11-10T08:49:20Z</time>
      </trkpt>
      <trkpt lat="43.32639" lon="6.55589">
        <ele>56.8</ele>
        <time>2024-11-10T08:49:24.000Z</time>
      </trkpt>
      <trkpt lat="43.3264" lon="6.55596">
        <ele>56.6</ele>
        <time>2024-11-10T08:49:28Z</time>
      </trkpt>
      <trkpt lat="43.32643" lon="6.55602">
        <ele>56.6</ele>
        <time>2024-11-10T08:49:32.000Z</time>
      </trkpt>
      <trkpt lat="43.32645" lon="6.55608">
        <ele>56.6</ele>
        <time>2024-11-10T08:49:36Z</time>
      </trkpt>
      <trkpt lat="43.32646" lon="6.55615">
        <ele>56.4</ele>
        <time>2024-11-10T08:49:40.000Z</time>
      </trkpt>
      <trkpt lat="43.32647" lon="6.55621">
        <ele>56.2</ele>
        <time>2024-11-10T08:49:44Z</time>
      </trkpt>
      <trkpt lat="43.32648" lon="6.55628">
        <ele>56</ele>
        <time>2024-11-10T08:49:48.000Z</time>
      </trkpt>
      <trkpt lat="43.32649" lon="6.55635">
        <ele>55.9</ele>
        <time>2024-11-10T08:49:52Z</time>
      </trkpt>
      <trkpt lat="43.32651" lon="6.55642">
        <ele>55.7</ele>
        <time>2024-11-10T08:49:56.000Z</time>
      </trkpt>
      <trkpt lat="43.32652" lon="6.55648">
        <ele>55.3</ele>
        <time>2024-11-10T08:50:00Z</time>
      </trkpt>
      <trkpt lat="43.32653" lon="6.55655">
        <ele>54.8</ele>
        <time>2024-11-10T08:50:04.000Z</time>
      </trkpt>
      <trkpt lat="43.32654" lon="6.55662">
        <ele>54.4</ele>
        <time>2024-11-10T08:50:08Z</time>
      </trkpt>
      <trkpt lat="43.32655" lon="6.55669">
        <ele>54</ele>
        <time>2024-11-10T08:50:12.500Z</time>
      </trkpt>
      <trkpt lat="43.32656" lon="6.55676">
        <ele>53.8</ele>
        <time>2024-11-10T08:50:17Z</time>
      </trkpt>
      <trkpt lat="43.32657" lon="6.55688">
        <ele>53.5</ele>
        <time>2024-11-10T08:50:31Z</time>
      </trkpt>
      <trkpt lat="43.32655" lon="6.55694">
        <ele>53.4</ele>
        <time>2024-11-10T08:50:38.499Z</time>
      </trkpt>
      <trkpt lat="43.32653" lon="6.557">
        <ele>54.1</ele>
        <time>2024-11-10T08:50:46Z</time>
      </trkpt>
      <trkpt lat="43.32652" lon="6.55709">
        <ele>55</ele>
        <time>2024-11-10T08:50:51.499Z</time>
      </trkpt>
      <trkpt lat="43.32651" lon="6.55718">
        <ele>55.9</ele>
        <time>2024-11-10T08:50:57Z</time>
      </trkpt>
      <trkpt lat="43.3265" lon="6.55726">
        <ele>56.6</ele>
        <time>2024-11-10T08:51:02.499Z</time>
      </trkpt>
      <trkpt lat="43.32649" lon="6.55734">
        <ele>57.2</ele>
        <time>2024-11-10T08:51:08Z</time>
      </trkpt>
      <trkpt lat="43.32644" lon="6.55742">
        <ele>57.6</ele>
        <time>2024-11-10T08:51:19Z</time>
      </trkpt>
      <trkpt lat="43.32644" lon="6.55745">
        <ele>57.9</ele>
        <time>2024-11-10T08:51:40Z</time>
      </trkpt>
      <trkpt lat="43.32643" lon="6.55752">
        <ele>58.3</ele>
        <time>2024-11-10T08:51:45.499Z</time>
      </trkpt>
      <trkpt lat="43.32641" lon="6.55759">
        <ele>58.4</ele>
        <time>2024-11-10T08:51:51Z</time>
      </trkpt>
      <trkpt lat="43.32649" lon="6.55758">
        <ele>58.8</ele>
        <time>2024-11-10T08:52:02Z</time>
      </trkpt>
      <trkpt lat="43.32652" lon="6.55751">
        <ele>58.9</ele>
        <time>2024-11-10T08:52:23Z</time>
      </trkpt>
      <trkpt lat="43.32648" lon="6.5576">
        <ele>58.8</ele>
        <time>2024-11-10T08:52:39Z</time>
      </trkpt>
      <trkpt lat="43.32646" lon="6.55767">
        <ele>58.8</ele>
        <time>2024-11-10T08:52:44.999Z</time>
      </trkpt>
      <trkpt lat="43.32643" lon="6.55773">
        <ele>58.9</ele>
        <time>2024-11-10T08:52:51Z</time>
      </trkpt>
      <trkpt lat="43.32642" lon="6.55779">
        <ele>59</ele>
        <time>2024-11-10T08:52:56.499Z</time>
      </trkpt>
      <trkpt lat="43.3264" lon="6.55785">
        <ele>59</ele>
        <time>2024-11-10T08:53:02Z</time>
      </trkpt>
      <trkpt lat="43.32637" lon="6.55796">
        <ele>58.9</ele>
        <time>2024-11-10T08:53:11Z</time>
      </trkpt>
      <trkpt lat="43.32636" lon="6.55802">
        <ele>58.9</ele>
        <time>2024-11-10T08:53:15.499Z</time>
      </trkpt>
      <trkpt lat="43.32634" lon="6.55808">
        <ele>58.8</ele>
        <time>2024-11-10T08:53:20Z</time>
      </trkpt>
      <trkpt lat="43.3263" lon="6.55819">
        <ele>58.8</ele>
        <time>2024-11-10T08:53:29Z</time>
      </trkpt>
      <trkpt lat="43.32627" lon="6.55826">
        <ele>58.9</ele>
        <time>2024-11-10T08:53:33.499Z</time>
      </trkpt>
      <trkpt lat="43.32623" lon="6.55832">
        <ele>59</ele>
        <time>2024-11-10T08:53:38Z</time>
      </trkpt>
      <trkpt lat="43.3262" lon="6.55838">
        <ele>59.2</ele>
        <time>2024-11-10T08:53:42.999Z</time>
      </trkpt>
      <trkpt lat="43.32617" lon="6.55844">
        <ele>59.4</ele>
        <time>2024-11-10T08:53:48Z</time>
      </trkpt>
      <trkpt lat="43.32615" lon="6.55851">
        <ele>59.6</ele>
        <time>2024-11-10T08:53:52.999Z</time>
      </trkpt>
      <trkpt lat="43.32612" lon="6.55857">
        <ele>59.9</ele>
        <time>2024-11-10T08:53:58Z</time>
      </trkpt>
      <trkpt lat="43.32609" lon="6.55864">
        <ele>60</ele>
        <time>2024-11-10T08:54:02.499Z</time>
      </trkpt>
      <trkpt lat="43.32606" lon="6.55871">
        <ele>60.1</ele>
        <time>2024-11-10T08:54:07Z</time>
      </trkpt>
      <trkpt lat="43.32605" lon="6.55878">
        <ele>60.3</ele>
        <time>2024-11-10T08:54:11.499Z</time>
      </trkpt>
      <trkpt lat="43.32604" lon="6.55885">
        <ele>60.4</ele>
        <time>2024-11-10T08:54:16Z</time>
      </trkpt>
      <trkpt lat="43.32604" lon="6.55892">
        <ele>60.7</ele>
        <time>2024-11-10T08:54:20.499Z</time>
      </trkpt>
      <trkpt lat="43.32603" lon="6.55898">
        <ele>61.1</ele>
        <time>2024-11-10T08:54:25Z</time>
      </trkpt>
      <trkpt lat="43.32607" lon="6.55903">
        <ele>61.3</ele>
        <time>2024-11-10T08:54:35.000Z</time>
      </trkpt>
      <trkpt lat="43.3261" lon="6.55908">
        <ele>61.4</ele>
        <time>2024-11-10T08:54:45Z</time>
      </trkpt>
      <trkpt lat="43.32612" lon="6.55914">
        <ele>61.8</ele>
        <time>2024-11-10T08:54:50.000Z</time>
      </trkpt>
      <trkpt lat="43.32614" lon="6.5592">
        <ele>62</ele>
        <time>2024-11-10T08:54:55Z</time>
      </trkpt>
      <trkpt lat="43.32616" lon="6.55927">
        <ele>62.2</ele>
        <time>2024-11-10T08:55:00.000Z</time>
      </trkpt>
      <trkpt lat="43.32617" lon="6.55933">
        <ele>62.4</ele>
        <time>2024-11-10T08:55:05Z</time>
      </trkpt>
      <trkpt lat="43.32619" lon="6.55939">
        <ele>62.5</ele>
        <time>2024-11-10T08:55:09.000Z</time>
      </trkpt>
      <trkpt lat="43.3262" lon="6.55945">
        <ele>62.7</ele>
        <time>2024-11-10T08:55:13Z</time>
      </trkpt>
      <trkpt lat="43.3262" lon="6.55952">
        <ele>62.7</ele>
        <time>2024-11-10T08:55:17.000Z</time>
      </trkpt>
      <trkpt lat="43.3262" lon="6.55958">
        <ele>62.7</ele>
        <time>2024-11-10T08:55:21Z</time>
      </trkpt>
      <trkpt lat="43.32618" lon="6.5597">
        <ele>62.8</ele>
        <time>2024-11-10T08:55:30Z</time>
      </trkpt>
      <trkpt lat="43.32614" lon="6.55981">
        <ele>63.2</ele>
        <time>2024-11-10T08:55:45Z</time>
      </trkpt>
      <trkpt lat="43.32614" lon="6.55988">
        <ele>63.4</ele>
        <time>2024-11-10T08:55:49.499Z</time>
      </trkpt>
      <trkpt lat="43.32613" lon="6.55995">
        <ele>63.7</ele>
        <time>2024-11-10T08:55:54Z</time>
      </trkpt>
      <trkpt lat="43.32615" lon="6.56001">
        <ele>63.8</ele>
        <time>2024-11-10T08:55:58.000Z</time>
      </trkpt>
      <trkpt lat="43.32617" lon="6.56007">
        <ele>63.8</ele>
        <time>2024-11-10T08:56:02Z</time>
      </trkpt>
      <trkpt lat="43.3262" lon="6.56013">
        <ele>63.8</ele>
        <time>2024-11-10T08:56:06.000Z</time>
      </trkpt>
      <trkpt lat="43.32623" lon="6.56018">
        <ele>63.8</ele>
        <time>2024-11-10T08:56:10Z</time>
      </trkpt>
      <trkpt lat="43.32627" lon="6.56028">
        <ele>63.9</ele>
        <time>2024-11-10T08:56:18Z</time>
      </trkpt>
      <trkpt lat="43.3263" lon="6.56039">
        <ele>63.6</ele>
        <time>2024-11-10T08:56:26Z</time>
      </trkpt>
      <trkpt lat="43.32633" lon="6.5605">
        <ele>63.4</ele>
        <time>2024-11-10T08:56:33Z</time>
      </trkpt>
      <trkpt lat="43.32636" lon="6.56061">
        <ele>63.4</ele>
        <time>2024-11-10T08:56:40Z</time>
      </trkpt>
      <trkpt lat="43.3264" lon="6.56072">
        <ele>63.5</ele>
        <time>2024-11-10T08:56:48Z</time>
      </trkpt>
      <trkpt lat="43.3264" lon="6.56079">
        <ele>63.8</ele>
        <time>2024-11-10T08:56:52.500Z</time>
      </trkpt>
      <trkpt lat="43.3264" lon="6.56086">
        <ele>63.9</ele>
        <time>2024-11-10T08:56:57Z</time>
      </trkpt>
      <trkpt lat="43.32646" lon="6.56089">
        <ele>63.5</ele>
        <time>2024-11-10T08:57:02.000Z</time>
      </trkpt>
      <trkpt lat="43.32652" lon="6.56092">
        <ele>63.1</ele>
        <time>2024-11-10T08:57:07Z</time>
      </trkpt>
      <trkpt lat="43.32657" lon="6.56091">
        <ele>62.7</ele>
        <time>2024-11-10T08:57:13.000Z</time>
      </trkpt>
      <trkpt lat="43.32662" lon="6.56089">
        <ele>62.3</ele>
        <time>2024-11-10T08:57:19Z</time>
      </trkpt>
      <trkpt lat="43.32668" lon="6.56088">
        <ele>61.9</ele>
        <time>2024-11-10T08:57:24.000Z</time>
      </trkpt>
      <trkpt lat="43.32674" lon="6.56087">
        <ele>61.5</ele>
        <time>2024-11-10T08:57:29Z</time>
      </trkpt>
      <trkpt lat="43.32679" lon="6.56086">
        <ele>61.2</ele>
        <time>2024-11-10T08:57:33.500Z</time>
      </trkpt>
      <trkpt lat="43.32683" lon="6.56084">
        <ele>60.8</ele>
        <time>2024-11-10T08:57:38Z</time>
      </trkpt>
      <trkpt lat="43.32689" lon="6.56082">
        <ele>60.4</ele>
        <time>2024-11-10T08:57:42.500Z</time>
      </trkpt>
      <trkpt lat="43.32694" lon="6.5608">
        <ele>59.9</ele>
        <time>2024-11-10T08:57:47Z</time>
      </trkpt>
      <trkpt lat="43.32699" lon="6.5608">
        <ele>60</ele>
        <time>2024-11-10T08:57:51.000Z</time>
      </trkpt>
      <trkpt lat="43.32704" lon="6.56079">
        <ele>60.2</ele>
        <time>2024-11-10T08:57:55Z</time>
      </trkpt>
      <trkpt lat="43.32712" lon="6.56075">
        <ele>60.3</ele>
        <time>2024-11-10T08:58:05Z</time>
      </trkpt>
      <trkpt lat="43.32716" lon="6.56081">
        <ele>60.7</ele>
        <time>2024-11-10T08:58:17Z</time>
      </trkpt>
      <trkpt lat="43.32715" lon="6.56089">
        <ele>60.9</ele>
        <time>2024-11-10T08:58:21.499Z</time>
      </trkpt>
      <trkpt lat="43.32714" lon="6.56096">
        <ele>61.2</ele>
        <time>2024-11-10T08:58:26Z</time>
      </trkpt>
      <trkpt lat="43.32712" lon="6.56108">
        <ele>61.5</ele>
        <time>2024-11-10T08:58:35Z</time>
      </trkpt>
      <trkpt lat="43.3271" lon="6.56115">
        <ele>61.6</ele>
        <time>2024-11-10T08:58:40.999Z</time>
      </trkpt>
      <trkpt lat="43.32707" lon="6.56122">
        <ele>61.7</ele>
        <time>2024-11-10T08:58:47Z</time>
      </trkpt>
      <trkpt lat="43.32707" lon="6.56129">
        <ele>61.8</ele>
        <time>2024-11-10T08:58:52.999Z</time>
      </trkpt>
      <trkpt lat="43.32706" lon="6.56136">
        <ele>61.9</ele>
        <time>2024-11-10T08:58:59Z</time>
      </trkpt>
      <trkpt lat="43.32704" lon="6.56144">
        <ele>62.3</ele>
        <time>2024-11-10T08:59:05.999Z</time>
      </trkpt>
      <trkpt lat="43.32702" lon="6.56152">
        <ele>62.8</ele>
        <time>2024-11-10T08:59:13Z</time>
      </trkpt>
      <trkpt lat="43.327" lon="6.56162">
        <ele>63.5</ele>
        <time>2024-11-10T08:59:19.999Z</time>
      </trkpt>
      <trkpt lat="43.32697" lon="6.56171">
        <ele>64.1</ele>
        <time>2024-11-10T08:59:27Z</time>
      </trkpt>
      <trkpt lat="43.32693" lon="6.56181">
        <ele>64.4</ele>
        <time>2024-11-10T08:59:32.499Z</time>
      </trkpt>
      <trkpt lat="43.32688" lon="6.56191">
        <ele>64.6</ele>
        <time>2024-11-10T08:59:38Z</time>
      </trkpt>
      <trkpt lat="43.32685" lon="6.56199">
        <ele>64.7</ele>
        <time>2024-11-10T08:59:42.499Z</time>
      </trkpt>
      <trkpt lat="43.32681" lon="6.56206">
        <ele>64.9</ele>
        <time>2024-11-10T08:59:47Z</time>
      </trkpt>
      <trkpt lat="43.32677" lon="6.56217">
        <ele>65.4</ele>
        <time>2024-11-10T08:59:57Z</time>
      </trkpt>
      <trkpt lat="43.32674" lon="6.56224">
        <ele>65.8</ele>
        <time>2024-11-10T09:00:02.499Z</time>
      </trkpt>
      <trkpt lat="43.32671" lon="6.5623">
        <ele>66.1</ele>
        <time>2024-11-10T09:00:08Z</time>
      </trkpt>
      <trkpt lat="43.32669" lon="6.56236">
        <ele>66.4</ele>
        <time>2024-11-10T09:00:10.999Z</time>
      </trkpt>
      <trkpt lat="43.32666" lon="6.56241">
        <ele>66.6</ele>
        <time>2024-11-10T09:00:13.999Z</time>
      </trkpt>
      <trkpt lat="43.32664" lon="6.56247">
        <ele>66.6</ele>
        <time>2024-11-10T09:00:16.999Z</time>
      </trkpt>
      <trkpt lat="43.32661" lon="6.56252">
        <ele>66.6</ele>
        <time>2024-11-10T09:00:20Z</time>
      </trkpt>
      <trkpt lat="43.32659" lon="6.56264">
        <ele>66.9</ele>
        <time>2024-11-10T09:00:29Z</time>
      </trkpt>
      <trkpt lat="43.32656" lon="6.56271">
        <ele>67.1</ele>
        <time>2024-11-10T09:00:33.499Z</time>
      </trkpt>
      <trkpt lat="43.32653" lon="6.56277">
        <ele>67.5</ele>
        <time>2024-11-10T09:00:38Z</time>
      </trkpt>
      <trkpt lat="43.32649" lon="6.56286">
        <ele>67.9</ele>
        <time>2024-11-10T09:00:47Z</time>
      </trkpt>
      <trkpt lat="43.32646" lon="6.56293">
        <ele>68.3</ele>
        <time>2024-11-10T09:00:51.999Z</time>
      </trkpt>
      <trkpt lat="43.32643" lon="6.563">
        <ele>68.7</ele>
        <time>2024-11-10T09:00:57Z</time>
      </trkpt>
      <trkpt lat="43.32641" lon="6.56306">
        <ele>69</ele>
        <time>2024-11-10T09:01:01.999Z</time>
      </trkpt>
      <trkpt lat="43.32638" lon="6.56312">
        <ele>69.1</ele>
        <time>2024-11-10T09:01:07Z</time>
      </trkpt>
      <trkpt lat="43.32635" lon="6.5632">
        <ele>69</ele>
        <time>2024-11-10T09:01:14.499Z</time>
      </trkpt>
      <trkpt lat="43.32631" lon="6.56327">
        <ele>69.1</ele>
        <time>2024-11-10T09:01:22Z</time>
      </trkpt>
      <trkpt lat="43.32627" lon="6.56336">
        <ele>69.2</ele>
        <time>2024-11-10T09:01:27.999Z</time>
      </trkpt>
      <trkpt lat="43.32622" lon="6.56345">
        <ele>69</ele>
        <time>2024-11-10T09:01:34Z</time>
      </trkpt>
      <trkpt lat="43.3262" lon="6.56353">
        <ele>69.1</ele>
        <time>2024-11-10T09:01:40.499Z</time>
      </trkpt>
      <trkpt lat="43.32617" lon="6.56361">
        <ele>69.2</ele>
        <time>2024-11-10T09:01:47Z</time>
      </trkpt>
      <trkpt lat="43.32613" lon="6.56369">
        <ele>69.6</ele>
        <time>2024-11-10T09:02:06Z</time>
      </trkpt>
      <trkpt lat="43.3261" lon="6.56375">
        <ele>69.9</ele>
        <time>2024-11-10T09:02:10.249Z</time>
      </trkpt>
      <trkpt lat="43.32607" lon="6.5638">
        <ele>70.4</ele>
        <time>2024-11-10T09:02:14.499Z</time>
      </trkpt>
      <trkpt lat="43.32603" lon="6.56386">
        <ele>70.9</ele>
        <time>2024-11-10T09:02:18.749Z</time>
      </trkpt>
      <trkpt lat="43.326" lon="6.56391">
        <ele>71.6</ele>
        <time>2024-11-10T09:02:23Z</time>
      </trkpt>
      <trkpt lat="43.32597" lon="6.56396">
        <ele>72</ele>
        <time>2024-11-10T09:02:26.249Z</time>
      </trkpt>
      <trkpt lat="43.32594" lon="6.56401">
        <ele>72.5</ele>
        <time>2024-11-10T09:02:29.499Z</time>
      </trkpt>
      <trkpt lat="43.32591" lon="6.56406">
        <ele>73</ele>
        <time>2024-11-10T09:02:32.749Z</time>
      </trkpt>
      <trkpt lat="43.32588" lon="6.56411">
        <ele>73.4</ele>
        <time>2024-11-10T09:02:36Z</time>
      </trkpt>
      <trkpt lat="43.32584" lon="6.56421">
        <ele>74.2</ele>
        <time>2024-11-10T09:02:41.999Z</time>
      </trkpt>
      <trkpt lat="43.32579" lon="6.56431">
        <ele>74.6</ele>
        <time>2024-11-10T09:02:48Z</time>
      </trkpt>
      <trkpt lat="43.32575" lon="6.56438">
        <ele>75</ele>
        <time>2024-11-10T09:02:53.499Z</time>
      </trkpt>
      <trkpt lat="43.32571" lon="6.56445">
        <ele>75.5</ele>
        <time>2024-11-10T09:02:59Z</time>
      </trkpt>
      <trkpt lat="43.32569" lon="6.56457">
        <ele>76.4</ele>
        <time>2024-11-10T09:03:11Z</time>
      </trkpt>
      <trkpt lat="43.32566" lon="6.56465">
        <ele>77.1</ele>
        <time>2024-11-10T09:03:17.999Z</time>
      </trkpt>
      <trkpt lat="43.32563" lon="6.56473">
        <ele>77.8</ele>
        <time>2024-11-10T09:03:25Z</time>
      </trkpt>
      <trkpt lat="43.3256" lon="6.56481">
        <ele>78.1</ele>
        <time>2024-11-10T09:03:31.499Z</time>
      </trkpt>
      <trkpt lat="43.32556" lon="6.56489">
        <ele>78.6</ele>
        <time>2024-11-10T09:03:38Z</time>
      </trkpt>
      <trkpt lat="43.32554" lon="6.56495">
        <ele>78.7</ele>
        <time>2024-11-10T09:03:41.499Z</time>
      </trkpt>
      <trkpt lat="43.32551" lon="6.56501">
        <ele>78.8</ele>
        <time>2024-11-10T09:03:44.999Z</time>
      </trkpt>
      <trkpt lat="43.32549" lon="6.56507">
        <ele>78.8</ele>
        <time>2024-11-10T09:03:48.499Z</time>
      </trkpt>
      <trkpt lat="43.32546" lon="6.56513">
        <ele>78.8</ele>
        <time>2024-11-10T09:03:52Z</time>
      </trkpt>
      <trkpt lat="43.3254" lon="6.56521">
        <ele>78.9</ele>
        <time>2024-11-10T09:04:10Z</time>
      </trkpt>
      <trkpt lat="43.32535" lon="6.56528">
        <ele>79</ele>
        <time>2024-11-10T09:04:14.999Z</time>
      </trkpt>
      <trkpt lat="43.32529" lon="6.56535">
        <ele>79.5</ele>
        <time>2024-11-10T09:04:20Z</time>
      </trkpt>
      <trkpt lat="43.32525" lon="6.56546">
        <ele>80.2</ele>
        <time>2024-11-10T09:04:28Z</time>
      </trkpt>
      <trkpt lat="43.32523" lon="6.56552">
        <ele>80.4</ele>
        <time>2024-11-10T09:04:31.999Z</time>
      </trkpt>
      <trkpt lat="43.3252" lon="6.56557">
        <ele>80.5</ele>
        <time>2024-11-10T09:04:36Z</time>
      </trkpt>
      <trkpt lat="43.32519" lon="6.56564">
        <ele>80.7</ele>
        <time>2024-11-10T09:04:39.999Z</time>
      </trkpt>
      <trkpt lat="43.32517" lon="6.5657">
        <ele>80.9</ele>
        <time>2024-11-10T09:04:44Z</time>
      </trkpt>
      <trkpt lat="43.32515" lon="6.56577">
        <ele>81.2</ele>
        <time>2024-11-10T09:04:47.999Z</time>
      </trkpt>
      <trkpt lat="43.32513" lon="6.56584">
        <ele>81.5</ele>
        <time>2024-11-10T09:04:52Z</time>
      </trkpt>
      <trkpt lat="43.32513" lon="6.56591">
        <ele>82</ele>
        <time>2024-11-10T09:04:56.000Z</time>
      </trkpt>
      <trkpt lat="43.32513" lon="6.56597">
        <ele>82.5</ele>
        <time>2024-11-10T09:05:00Z</time>
      </trkpt>
      <trkpt lat="43.32512" lon="6.56609">
        <ele>83.4</ele>
        <time>2024-11-10T09:05:08Z</time>
      </trkpt>
      <trkpt lat="43.32511" lon="6.56616">
        <ele>83.7</ele>
        <time>2024-11-10T09:05:12.499Z</time>
      </trkpt>
      <trkpt lat="43.32509" lon="6.56622">
        <ele>83.8</ele>
        <time>2024-11-10T09:05:17Z</time>
      </trkpt>
      <trkpt lat="43.32507" lon="6.56628">
        <ele>83.9</ele>
        <time>2024-11-10T09:05:21.999Z</time>
      </trkpt>
      <trkpt lat="43.32504" lon="6.56634">
        <ele>84</ele>
        <time>2024-11-10T09:05:27Z</time>
      </trkpt>
      <trkpt lat="43.32499" lon="6.56642">
        <ele>84.2</ele>
        <time>2024-11-10T09:05:37Z</time>
      </trkpt>
      <trkpt lat="43.32494" lon="6.56649">
        <ele>84.8</ele>
        <time>2024-11-10T09:05:43.499Z</time>
      </trkpt>
      <trkpt lat="43.32489" lon="6.56655">
        <ele>85.6</ele>
        <time>2024-11-10T09:05:50Z</time>
      </trkpt>
      <trkpt lat="43.32485" lon="6.56662">
        <ele>86.5</ele>
        <time>2024-11-10T09:05:54.999Z</time>
      </trkpt>
      <trkpt lat="43.32481" lon="6.56668">
        <ele>87.5</ele>
        <time>2024-11-10T09:06:00Z</time>
      </trkpt>
      <trkpt lat="43.3248" lon="6.56675">
        <ele>88.1</ele>
        <time>2024-11-10T09:06:05.499Z</time>
      </trkpt>
      <trkpt lat="43.32478" lon="6.56681">
        <ele>88.7</ele>
        <time>2024-11-10T09:06:11Z</time>
      </trkpt>
      <trkpt lat="43.32476" lon="6.56688">
        <ele>89.4</ele>
        <time>2024-11-10T09:06:15.499Z</time>
      </trkpt>
      <trkpt lat="43.32474" lon="6.56695">
        <ele>90</ele>
        <time>2024-11-10T09:06:20Z</time>
      </trkpt>
      <trkpt lat="43.32473" lon="6.56703">
        <ele>90.6</ele>
        <time>2024-11-10T09:06:24.999Z</time>
      </trkpt>
      <trkpt lat="43.32472" lon="6.5671">
        <ele>91.1</ele>
        <time>2024-11-10T09:06:30Z</time>
      </trkpt>
      <trkpt lat="43.32472" lon="6.56717">
        <ele>91.6</ele>
        <time>2024-11-10T09:06:34.499Z</time>
      </trkpt>
      <trkpt lat="43.32471" lon="6.56723">
        <ele>92.1</ele>
        <time>2024-11-10T09:06:39Z</time>
      </trkpt>
      <trkpt lat="43.3247" lon="6.56735">
        <ele>92.9</ele>
        <time>2024-11-10T09:06:48Z</time>
      </trkpt>
      <trkpt lat="43.32472" lon="6.56742">
        <ele>93.4</ele>
        <time>2024-11-10T09:06:53.000Z</time>
      </trkpt>
      <trkpt lat="43.32474" lon="6.56748">
        <ele>93.8</ele>
        <time>2024-11-10T09:06:58Z</time>
      </trkpt>
      <trkpt lat="43.32476" lon="6.56756">
        <ele>94.3</ele>
        <time>2024-11-10T09:07:04.000Z</time>
      </trkpt>
      <trkpt lat="43.32478" lon="6.56764">
        <ele>94.7</ele>
        <time>2024-11-10T09:07:10Z</time>
      </trkpt>
      <trkpt lat="43.32479" lon="6.56772">
        <ele>95.1</ele>
        <time>2024-11-10T09:07:15.000Z</time>
      </trkpt>
      <trkpt lat="43.3248" lon="6.56779">
        <ele>95.5</ele>
        <time>2024-11-10T09:07:20Z</time>
      </trkpt>
      <trkpt lat="43.3248" lon="6.56786">
        <ele>95.9</ele>
        <time>2024-11-10T09:07:24.499Z</time>
      </trkpt>
      <trkpt lat="43.32479" lon="6.56792">
        <ele>96.3</ele>
        <time>2024-11-10T09:07:29Z</time>
      </trkpt>
      <trkpt lat="43.32479" lon="6.56799">
        <ele>96.6</ele>
        <time>2024-11-10T09:07:33.500Z</time>
      </trkpt>
      <trkpt lat="43.32479" lon="6.56806">
        <ele>97.1</ele>
        <time>2024-11-10T09:07:38Z</time>
      </trkpt>
      <trkpt lat="43.32479" lon="6.56813">
        <ele>97.9</ele>
        <time>2024-11-10T09:07:43.000Z</time>
      </trkpt>
      <trkpt lat="43.32479" lon="6.56819">
        <ele>98.7</ele>
        <time>2024-11-10T09:07:48Z</time>
      </trkpt>
      <trkpt lat="43.32476" lon="6.56825">
        <ele>99.3</ele>
        <time>2024-11-10T09:07:53.499Z</time>
      </trkpt>
      <trkpt lat="43.32473" lon="6.56831">
        <ele>99.8</ele>
        <time>2024-11-10T09:07:59Z</time>
      </trkpt>
      <trkpt lat="43.32469" lon="6.56837">
        <ele>100.6</ele>
        <time>2024-11-10T09:08:04.999Z</time>
      </trkpt>
      <trkpt lat="43.32464" lon="6.56842">
        <ele>101.5</ele>
        <time>2024-11-10T09:08:11Z</time>
      </trkpt>
      <trkpt lat="43.3246" lon="6.56853">
        <ele>103</ele>
        <time>2024-11-10T09:08:23Z</time>
      </trkpt>
      <trkpt lat="43.32457" lon="6.56859">
        <ele>103.5</ele>
        <time>2024-11-10T09:08:28.499Z</time>
      </trkpt>
      <trkpt lat="43.32454" lon="6.56865">
        <ele>104</ele>
        <time>2024-11-10T09:08:34Z</time>
      </trkpt>
      <trkpt lat="43.32451" lon="6.56871">
        <ele>104.5</ele>
        <time>2024-11-10T09:08:38.499Z</time>
      </trkpt>
      <trkpt lat="43.32447" lon="6.56877">
        <ele>104.8</ele>
        <time>2024-11-10T09:08:43Z</time>
      </trkpt>
      <trkpt lat="43.32445" lon="6.56884">
        <ele>105.3</ele>
        <time>2024-11-10T09:08:48.499Z</time>
      </trkpt>
      <trkpt lat="43.32442" lon="6.56891">
        <ele>106.5</ele>
        <time>2024-11-10T09:08:54Z</time>
      </trkpt>
      <trkpt lat="43.3244" lon="6.56899">
        <ele>107.6</ele>
        <time>2024-11-10T09:08:59.999Z</time>
      </trkpt>
      <trkpt lat="43.32438" lon="6.56907">
        <ele>108.6</ele>
        <time>2024-11-10T09:09:06Z</time>
      </trkpt>
      <trkpt lat="43.32437" lon="6.56914">
        <ele>109.4</ele>
        <time>2024-11-10T09:09:11.499Z</time>
      </trkpt>
      <trkpt lat="43.32436" lon="6.56921">
        <ele>110.2</ele>
        <time>2024-11-10T09:09:17Z</time>
      </trkpt>
      <trkpt lat="43.32438" lon="6.56929">
        <ele>110.9</ele>
        <time>2024-11-10T09:09:23.000Z</time>
      </trkpt>
      <trkpt lat="43.3244" lon="6.56936">
        <ele>111.6</ele>
        <time>2024-11-10T09:09:29Z</time>
      </trkpt>
      <trkpt lat="43.32443" lon="6.56943">
        <ele>112</ele>
        <time>2024-11-10T09:09:34.500Z</time>
      </trkpt>
      <trkpt lat="43.32445" lon="6.5695">
        <ele>112.4</ele>
        <time>2024-11-10T09:09:40Z</time>
      </trkpt>
      <trkpt lat="43.32448" lon="6.56961">
        <ele>113.5</ele>
        <time>2024-11-10T09:09:51Z</time>
      </trkpt>
      <trkpt lat="43.32451" lon="6.56968">
        <ele>114.2</ele>
        <time>2024-11-10T09:09:57.500Z</time>
      </trkpt>
      <trkpt lat="43.32453" lon="6.56974">
        <ele>115.1</ele>
        <time>2024-11-10T09:10:04Z</time>
      </trkpt>
      <trkpt lat="43.32456" lon="6.5698">
        <ele>116.4</ele>
        <time>2024-11-10T09:10:10.000Z</time>
      </trkpt>
      <trkpt lat="43.32459" lon="6.56986">
        <ele>117.6</ele>
        <time>2024-11-10T09:10:16Z</time>
      </trkpt>
      <trkpt lat="43.32464" lon="6.5699">
        <ele>118.6</ele>
        <time>2024-11-10T09:10:22.000Z</time>
      </trkpt>
      <trkpt lat="43.32468" lon="6.56994">
        <ele>119.3</ele>
        <time>2024-11-10T09:10:28Z</time>
      </trkpt>
      <trkpt lat="43.32468" lon="6.56994">
        <ele>119.3</ele>
        <time>2024-11-10T09:10:52Z</time>
      </trkpt>
      <trkpt lat="43.3247" lon="6.57002">
        <ele>120</ele>
        <time>2024-11-10T09:11:53Z</time>
      </trkpt>
      <trkpt lat="43.32473" lon="6.57004">
        <ele>120.6</ele>
        <time>2024-11-10T09:12:22Z</time>
      </trkpt>
      <trkpt lat="43.3247" lon="6.57011">
        <ele>120.8</ele>
        <time>2024-11-10T09:12:40Z</time>
      </trkpt>
      <trkpt lat="43.32474" lon="6.57022">
        <ele>122.1</ele>
        <time>2024-11-10T09:12:52Z</time>
      </trkpt>
      <trkpt lat="43.32477" lon="6.57033">
        <ele>124.1</ele>
        <time>2024-11-10T09:13:02Z</time>
      </trkpt>
      <trkpt lat="43.32477" lon="6.57041">
        <ele>125.2</ele>
        <time>2024-11-10T09:13:07.999Z</time>
      </trkpt>
      <trkpt lat="43.32476" lon="6.57048">
        <ele>126.4</ele>
        <time>2024-11-10T09:13:14Z</time>
      </trkpt>
      <trkpt lat="43.32475" lon="6.57054">
        <ele>127.2</ele>
        <time>2024-11-10T09:13:28Z</time>
      </trkpt>
      <trkpt lat="43.32475" lon="6.57062">
        <ele>128.8</ele>
        <time>2024-11-10T09:13:34.000Z</time>
      </trkpt>
      <trkpt lat="43.32475" lon="6.57069">
        <ele>130.4</ele>
        <time>2024-11-10T09:13:40Z</time>
      </trkpt>
      <trkpt lat="43.32475" lon="6.57078">
        <ele>132.2</ele>
        <time>2024-11-10T09:13:45.000Z</time>
      </trkpt>
      <trkpt lat="43.32475" lon="6.57086">
        <ele>133.9</ele>
        <time>2024-11-10T09:13:50Z</time>
      </trkpt>
      <trkpt lat="43.32471" lon="6.57097">
        <ele>135.1</ele>
        <time>2024-11-10T09:17:36Z</time>
      </trkpt>
      <trkpt lat="43.32468" lon="6.57105">
        <ele>136.8</ele>
        <time>2024-11-10T09:17:37.386Z</time>
      </trkpt>
      <trkpt lat="43.32466" lon="6.57111">
        <ele>138.1</ele>
        <time>2024-11-10T09:17:38.403Z</time>
      </trkpt>
      <trkpt lat="43.32462" lon="6.57117">
        <ele>140</ele>
        <time>2024-11-10T09:17:39.657Z</time>
      </trkpt>
      <trkpt lat="43.3246" lon="6.57124">
        <ele>141.7</ele>
        <time>2024-11-10T09:17:40.816Z</time>
      </trkpt>
      <trkpt lat="43.32457" lon="6.57134">
        <ele>144.3</ele>
        <time>2024-11-10T09:17:42.483Z</time>
      </trkpt>
      <trkpt lat="43.32456" lon="6.57141">
        <ele>146</ele>
        <time>2024-11-10T09:17:43.582Z</time>
      </trkpt>
      <trkpt lat="43.32455" lon="6.57148">
        <ele>147.8</ele>
        <time>2024-11-10T09:17:44.681Z</time>
      </trkpt>
      <trkpt lat="43.32454" lon="6.57155">
        <ele>149.6</ele>
        <time>2024-11-10T09:17:45.780Z</time>
      </trkpt>
      <trkpt lat="43.32453" lon="6.57162">
        <ele>151.4</ele>
        <time>2024-11-10T09:17:46.879Z</time>
      </trkpt>
      <trkpt lat="43.3245" lon="6.57168">
        <ele>153.1</ele>
        <time>2024-11-10T09:17:47.939Z</time>
      </trkpt>
      <trkpt lat="43.32447" lon="6.57173">
        <ele>154.5</ele>
        <time>2024-11-10T09:17:49Z</time>
      </trkpt>
      <trkpt lat="43.32443" lon="6.57178">
        <ele>155.9</ele>
        <time>2024-11-10T09:18:22.015Z</time>
      </trkpt>
      <trkpt lat="43.32441" lon="6.57184">
        <ele>157.2</ele>
        <time>2024-11-10T09:18:51.334Z</time>
      </trkpt>
      <trkpt lat="43.32437" lon="6.57192">
        <ele>159</ele>
        <time>2024-11-10T09:19:34.458Z</time>
      </trkpt>
      <trkpt lat="43.32435" lon="6.57202">
        <ele>160.5</ele>
        <time>2024-11-10T09:20:20.530Z</time>
      </trkpt>
      <trkpt lat="43.32434" lon="6.57211">
        <ele>161.7</ele>
        <time>2024-11-10T09:21:00.975Z</time>
      </trkpt>
      <trkpt lat="43.32434" lon="6.5722">
        <ele>162.6</ele>
        <time>2024-11-10T09:21:40.957Z</time>
      </trkpt>
      <trkpt lat="43.32432" lon="6.57226">
        <ele>163.5</ele>
        <time>2024-11-10T09:22:10.276Z</time>
      </trkpt>
      <trkpt lat="43.32432" lon="6.57231">
        <ele>163.7</ele>
        <time>2024-11-10T09:22:32.488Z</time>
      </trkpt>
      <trkpt lat="43.32431" lon="6.5724">
        <ele>164.4</ele>
        <time>2024-11-10T09:23:12.934Z</time>
      </trkpt>
      <trkpt lat="43.3243" lon="6.57245">
        <ele>164.8</ele>
        <time>2024-11-10T09:23:35.970Z</time>
      </trkpt>
      <trkpt lat="43.32428" lon="6.57251">
        <ele>165.4</ele>
        <time>2024-11-10T09:24:05.289Z</time>
      </trkpt>
      <trkpt lat="43.32427" lon="6.57258">
        <ele>165.7</ele>
        <time>2024-11-10T09:24:36.980Z</time>
      </trkpt>
      <trkpt lat="43.32426" lon="6.57265">
        <ele>166</ele>
        <time>2024-11-10T09:25:08.671Z</time>
      </trkpt>
      <trkpt lat="43.32428" lon="6.57273">
        <ele>166</ele>
        <time>2024-11-10T09:25:46.252Z</time>
      </trkpt>
      <trkpt lat="43.32421" lon="6.57273">
        <ele>166.6</ele>
        <time>2024-11-10T09:26:29Z</time>
      </trkpt>
      <trkpt lat="43.32416" lon="6.57272">
        <ele>167.2</ele>
        <time>2024-11-10T09:26:37.999Z</time>
      </trkpt>
      <trkpt lat="43.3241" lon="6.5727">
        <ele>168.2</ele>
        <time>2024-11-10T09:26:47Z</time>
      </trkpt>
      <trkpt lat="43.32405" lon="6.57268">
        <ele>169.2</ele>
        <time>2024-11-10T09:26:54.999Z</time>
      </trkpt>
      <trkpt lat="43.32399" lon="6.57265">
        <ele>170.2</ele>
        <time>2024-11-10T09:27:03Z</time>
      </trkpt>
      <trkpt lat="43.32393" lon="6.57266">
        <ele>171.3</ele>
        <time>2024-11-10T09:27:11.000Z</time>
      </trkpt>
      <trkpt lat="43.32387" lon="6.57266">
        <ele>172.3</ele>
        <time>2024-11-10T09:27:19Z</time>
      </trkpt>
      <trkpt lat="43.32381" lon="6.57265">
        <ele>173.5</ele>
        <time>2024-11-10T09:27:27.000Z</time>
      </trkpt>
      <trkpt lat="43.32374" lon="6.57264">
        <ele>174.7</ele>
        <time>2024-11-10T09:27:35Z</time>
      </trkpt>
      <trkpt lat="43.32369" lon="6.57262">
        <ele>175.7</ele>
        <time>2024-11-10T09:27:42.999Z</time>
      </trkpt>
      <trkpt lat="43.32363" lon="6.57259">
        <ele>176.7</ele>
        <time>2024-11-10T09:27:51Z</time>
      </trkpt>
      <trkpt lat="43.3236" lon="6.57254">
        <ele>177.4</ele>
        <time>2024-11-10T09:27:57.999Z</time>
      </trkpt>
      <trkpt lat="43.32356" lon="6.57248">
        <ele>178.2</ele>
        <time>2024-11-10T09:28:05Z</time>
      </trkpt>
      <trkpt lat="43.32353" lon="6.57243">
        <ele>178.8</ele>
        <time>2024-11-10T09:28:12.499Z</time>
      </trkpt>
      <trkpt lat="43.32349" lon="6.57238">
        <ele>179.4</ele>
        <time>2024-11-10T09:28:20Z</time>
      </trkpt>
      <trkpt lat="43.32342" lon="6.57238">
        <ele>181.1</ele>
        <time>2024-11-10T09:28:26.500Z</time>
      </trkpt>
      <trkpt lat="43.32335" lon="6.57237">
        <ele>182.7</ele>
        <time>2024-11-10T09:28:33Z</time>
      </trkpt>
      <trkpt lat="43.32327" lon="6.57236">
        <ele>184.1</ele>
        <time>2024-11-10T09:28:46Z</time>
      </trkpt>
      <trkpt lat="43.32323" lon="6.57233">
        <ele>184.5</ele>
        <time>2024-11-10T09:28:51.499Z</time>
      </trkpt>
      <trkpt lat="43.32319" lon="6.57229">
        <ele>184.8</ele>
        <time>2024-11-10T09:28:57Z</time>
      </trkpt>
      <trkpt lat="43.32315" lon="6.57226">
        <ele>185.1</ele>
        <time>2024-11-10T09:29:01.499Z</time>
      </trkpt>
      <trkpt lat="43.32311" lon="6.57223">
        <ele>185.3</ele>
        <time>2024-11-10T09:29:06Z</time>
      </trkpt>
      <trkpt lat="43.32307" lon="6.57221">
        <ele>185.7</ele>
        <time>2024-11-10T09:29:10.499Z</time>
      </trkpt>
      <trkpt lat="43.32302" lon="6.57218">
        <ele>185.9</ele>
        <time>2024-11-10T09:29:15Z</time>
      </trkpt>
      <trkpt lat="43.32298" lon="6.57214">
        <ele>186</ele>
        <time>2024-11-10T09:29:19.999Z</time>
      </trkpt>
      <trkpt lat="43.32293" lon="6.57209">
        <ele>186.1</ele>
        <time>2024-11-10T09:29:25Z</time>
      </trkpt>
      <trkpt lat="43.32288" lon="6.57206">
        <ele>186.5</ele>
        <time>2024-11-10T09:29:30.499Z</time>
      </trkpt>
      <trkpt lat="43.32283" lon="6.57203">
        <ele>186.9</ele>
        <time>2024-11-10T09:29:36Z</time>
      </trkpt>
      <trkpt lat="43.32278" lon="6.57204">
        <ele>187.6</ele>
        <time>2024-11-10T09:29:43.500Z</time>
      </trkpt>
      <trkpt lat="43.32273" lon="6.57204">
        <ele>188.3</ele>
        <time>2024-11-10T09:29:51Z</time>
      </trkpt>
      <trkpt lat="43.32265" lon="6.57208">
        <ele>189.3</ele>
        <time>2024-11-10T09:29:58.499Z</time>
      </trkpt>
      <trkpt lat="43.32257" lon="6.57211">
        <ele>190.3</ele>
        <time>2024-11-10T09:30:06Z</time>
      </trkpt>
      <trkpt lat="43.32253" lon="6.57214">
        <ele>190.7</ele>
        <time>2024-11-10T09:30:12.999Z</time>
      </trkpt>
      <trkpt lat="43.32249" lon="6.57217">
        <ele>191.1</ele>
        <time>2024-11-10T09:30:20Z</time>
      </trkpt>
      <trkpt lat="43.32244" lon="6.57219">
        <ele>191.5</ele>
        <time>2024-11-10T09:30:27.000Z</time>
      </trkpt>
      <trkpt lat="43.32238" lon="6.5722">
        <ele>191.9</ele>
        <time>2024-11-10T09:30:34Z</time>
      </trkpt>
      <trkpt lat="43.32233" lon="6.57224">
        <ele>192.1</ele>
        <time>2024-11-10T09:30:40.499Z</time>
      </trkpt>
      <trkpt lat="43.32228" lon="6.57228">
        <ele>192.2</ele>
        <time>2024-11-10T09:30:47Z</time>
      </trkpt>
      <trkpt lat="43.32224" lon="6.57233">
        <ele>192.2</ele>
        <time>2024-11-10T09:30:53.999Z</time>
      </trkpt>
      <trkpt lat="43.3222" lon="6.57237">
        <ele>192.1</ele>
        <time>2024-11-10T09:31:01Z</time>
      </trkpt>
      <trkpt lat="43.32214" lon="6.57242">
        <ele>192.4</ele>
        <time>2024-11-10T09:31:06.999Z</time>
      </trkpt>
      <trkpt lat="43.32208" lon="6.57247">
        <ele>192.7</ele>
        <time>2024-11-10T09:31:13Z</time>
      </trkpt>
      <trkpt lat="43.32203" lon="6.57251">
        <ele>193</ele>
        <time>2024-11-10T09:31:15.499Z</time>
      </trkpt>
      <trkpt lat="43.32199" lon="6.57256">
        <ele>193.2</ele>
        <time>2024-11-10T09:31:17.999Z</time>
      </trkpt>
      <trkpt lat="43.32194" lon="6.5726">
        <ele>193.4</ele>
        <time>2024-11-10T09:31:20.499Z</time>
      </trkpt>
      <trkpt lat="43.32189" lon="6.57264">
        <ele>194.1</ele>
        <time>2024-11-10T09:31:23Z</time>
      </trkpt>
      <trkpt lat="43.32186" lon="6.57271">
        <ele>194.3</ele>
        <time>2024-11-10T09:31:29.999Z</time>
      </trkpt>
      <trkpt lat="43.32183" lon="6.57277">
        <ele>194.5</ele>
        <time>2024-11-10T09:31:37Z</time>
      </trkpt>
      <trkpt lat="43.32178" lon="6.57282">
        <ele>195.2</ele>
        <time>2024-11-10T09:31:43.499Z</time>
      </trkpt>
      <trkpt lat="43.32173" lon="6.57287">
        <ele>196</ele>
        <time>2024-11-10T09:31:50Z</time>
      </trkpt>
      <trkpt lat="43.32168" lon="6.57287">
        <ele>197.2</ele>
        <time>2024-11-10T09:31:58.000Z</time>
      </trkpt>
      <trkpt lat="43.32162" lon="6.57286">
        <ele>198.5</ele>
        <time>2024-11-10T09:32:06Z</time>
      </trkpt>
      <trkpt lat="43.32155" lon="6.5728">
        <ele>200.7</ele>
        <time>2024-11-10T09:32:23Z</time>
      </trkpt>
      <trkpt lat="43.32149" lon="6.57271">
        <ele>202.9</ele>
        <time>2024-11-10T09:32:37Z</time>
      </trkpt>
      <trkpt lat="43.32146" lon="6.57267">
        <ele>204</ele>
        <time>2024-11-10T09:32:44.499Z</time>
      </trkpt>
      <trkpt lat="43.32142" lon="6.57263">
        <ele>205.2</ele>
        <time>2024-11-10T09:32:52Z</time>
      </trkpt>
      <trkpt lat="43.3214" lon="6.57257">
        <ele>206.2</ele>
        <time>2024-11-10T09:32:58.999Z</time>
      </trkpt>
      <trkpt lat="43.32138" lon="6.57251">
        <ele>207.1</ele>
        <time>2024-11-10T09:33:06Z</time>
      </trkpt>
      <trkpt lat="43.32136" lon="6.57245">
        <ele>207.7</ele>
        <time>2024-11-10T09:33:13.499Z</time>
      </trkpt>
      <trkpt lat="43.32133" lon="6.57239">
        <ele>208.3</ele>
        <time>2024-11-10T09:33:21Z</time>
      </trkpt>
      <trkpt lat="43.3213" lon="6.57235">
        <ele>209.3</ele>
        <time>2024-11-10T09:33:28.999Z</time>
      </trkpt>
      <trkpt lat="43.32126" lon="6.5723">
        <ele>210.3</ele>
        <time>2024-11-10T09:33:37Z</time>
      </trkpt>
      <trkpt lat="43.32123" lon="6.57226">
        <ele>211.5</ele>
        <time>2024-11-10T09:33:46.999Z</time>
      </trkpt>
      <trkpt lat="43.32119" lon="6.57222">
        <ele>212.7</ele>
        <time>2024-11-10T09:33:57Z</time>
      </trkpt>
      <trkpt lat="43.32116" lon="6.57217">
        <ele>213.4</ele>
        <time>2024-11-10T09:34:04.499Z</time>
      </trkpt>
      <trkpt lat="43.32113" lon="6.57212">
        <ele>214.1</ele>
        <time>2024-11-10T09:34:12Z</time>
      </trkpt>
      <trkpt lat="43.32109" lon="6.57207">
        <ele>214.7</ele>
        <time>2024-11-10T09:34:17.999Z</time>
      </trkpt>
      <trkpt lat="43.32105" lon="6.57202">
        <ele>214.9</ele>
        <time>2024-11-10T09:34:24Z</time>
      </trkpt>
      <trkpt lat="43.32101" lon="6.57197">
        <ele>215.2</ele>
        <time>2024-11-10T09:34:29.499Z</time>
      </trkpt>
      <trkpt lat="43.32096" lon="6.57191">
        <ele>215.1</ele>
        <time>2024-11-10T09:34:35Z</time>
      </trkpt>
      <trkpt lat="43.32092" lon="6.57187">
        <ele>215.1</ele>
        <time>2024-11-10T09:34:40.499Z</time>
      </trkpt>
      <trkpt lat="43.32088" lon="6.57183">
        <ele>215.1</ele>
        <time>2024-11-10T09:34:46Z</time>
      </trkpt>
      <trkpt lat="43.32083" lon="6.5718">
        <ele>215.4</ele>
        <time>2024-11-10T09:34:50.999Z</time>
      </trkpt>
      <trkpt lat="43.32078" lon="6.57176">
        <ele>216</ele>
        <time>2024-11-10T09:34:56Z</time>
      </trkpt>
      <trkpt lat="43.32075" lon="6.5717">
        <ele>216</ele>
        <time>2024-11-10T09:35:01.999Z</time>
      </trkpt>
      <trkpt lat="43.32072" lon="6.57163">
        <ele>216</ele>
        <time>2024-11-10T09:35:08Z</time>
      </trkpt>
      <trkpt lat="43.32068" lon="6.57159">
        <ele>216.3</ele>
        <time>2024-11-10T09:35:13.999Z</time>
      </trkpt>
      <trkpt lat="43.32064" lon="6.57154">
        <ele>216.7</ele>
        <time>2024-11-10T09:35:20Z</time>
      </trkpt>
      <trkpt lat="43.3206" lon="6.57155">
        <ele>217.8</ele>
        <time>2024-11-10T09:35:29.500Z</time>
      </trkpt>
      <trkpt lat="43.32055" lon="6.57155">
        <ele>218.9</ele>
        <time>2024-11-10T09:35:39Z</time>
      </trkpt>
      <trkpt lat="43.3205" lon="6.57157">
        <ele>220.2</ele>
        <time>2024-11-10T09:35:46.999Z</time>
      </trkpt>
      <trkpt lat="43.32044" lon="6.57158">
        <ele>221.6</ele>
        <time>2024-11-10T09:35:55Z</time>
      </trkpt>
      <trkpt lat="43.32038" lon="6.57158">
        <ele>222.9</ele>
        <time>2024-11-10T09:36:05.000Z</time>
      </trkpt>
      <trkpt lat="43.32032" lon="6.57158">
        <ele>224.2</ele>
        <time>2024-11-10T09:36:15Z</time>
      </trkpt>
      <trkpt lat="43.32027" lon="6.5716">
        <ele>225.4</ele>
        <time>2024-11-10T09:36:22.999Z</time>
      </trkpt>
      <trkpt lat="43.32022" lon="6.57162">
        <ele>226.7</ele>
        <time>2024-11-10T09:36:31Z</time>
      </trkpt>
      <trkpt lat="43.32019" lon="6.57166">
        <ele>227.9</ele>
        <time>2024-11-10T09:36:40.999Z</time>
      </trkpt>
      <trkpt lat="43.32015" lon="6.5717">
        <ele>228.9</ele>
        <time>2024-11-10T09:36:51Z</time>
      </trkpt>
      <trkpt lat="43.32011" lon="6.5717">
        <ele>229.9</ele>
        <time>2024-11-10T09:36:59.000Z</time>
      </trkpt>
      <trkpt lat="43.32006" lon="6.57169">
        <ele>230.9</ele>
        <time>2024-11-10T09:37:07Z</time>
      </trkpt>
      <trkpt lat="43.32002" lon="6.57171">
        <ele>232</ele>
        <time>2024-11-10T09:37:16.999Z</time>
      </trkpt>
      <trkpt lat="43.31997" lon="6.57173">
        <ele>233.2</ele>
        <time>2024-11-10T09:37:27Z</time>
      </trkpt>
      <trkpt lat="43.31992" lon="6.57173">
        <ele>234.3</ele>
        <time>2024-11-10T09:37:36.000Z</time>
      </trkpt>
      <trkpt lat="43.31987" lon="6.57172">
        <ele>235.5</ele>
        <time>2024-11-10T09:37:45Z</time>
      </trkpt>
      <trkpt lat="43.31982" lon="6.57171">
        <ele>236.8</ele>
        <time>2024-11-10T09:37:52.999Z</time>
      </trkpt>
      <trkpt lat="43.31976" lon="6.57169">
        <ele>238.1</ele>
        <time>2024-11-10T09:38:01Z</time>
      </trkpt>
      <trkpt lat="43.31972" lon="6.57164">
        <ele>238.8</ele>
        <time>2024-11-10T09:38:08.499Z</time>
      </trkpt>
      <trkpt lat="43.31968" lon="6.57159">
        <ele>239.3</ele>
        <time>2024-11-10T09:38:16Z</time>
      </trkpt>
      <trkpt lat="43.31965" lon="6.57154">
        <ele>239.7</ele>
        <time>2024-11-10T09:38:22.999Z</time>
      </trkpt>
      <trkpt lat="43.31961" lon="6.57148">
        <ele>240.1</ele>
        <time>2024-11-10T09:38:30Z</time>
      </trkpt>
      <trkpt lat="43.31958" lon="6.57142">
        <ele>240.4</ele>
        <time>2024-11-10T09:38:37.499Z</time>
      </trkpt>
      <trkpt lat="43.31955" lon="6.57136">
        <ele>240.4</ele>
        <time>2024-11-10T09:38:45Z</time>
      </trkpt>
      <trkpt lat="43.3195" lon="6.57135">
        <ele>241.6</ele>
        <time>2024-11-10T09:38:52.499Z</time>
      </trkpt>
      <trkpt lat="43.31945" lon="6.57133">
        <ele>242.8</ele>
        <time>2024-11-10T09:39:00Z</time>
      </trkpt>
      <trkpt lat="43.3194" lon="6.57135">
        <ele>244.2</ele>
        <time>2024-11-10T09:39:09.999Z</time>
      </trkpt>
      <trkpt lat="43.31935" lon="6.57137">
        <ele>245.7</ele>
        <time>2024-11-10T09:39:20Z</time>
      </trkpt>
      <trkpt lat="43.31931" lon="6.57138">
        <ele>246.8</ele>
        <time>2024-11-10T09:39:29.000Z</time>
      </trkpt>
      <trkpt lat="43.31926" lon="6.57139">
        <ele>248</ele>
        <time>2024-11-10T09:39:38Z</time>
      </trkpt>
      <trkpt lat="43.31922" lon="6.57141">
        <ele>249.1</ele>
        <time>2024-11-10T09:39:47.999Z</time>
      </trkpt>
      <trkpt lat="43.31917" lon="6.57143">
        <ele>250.2</ele>
        <time>2024-11-10T09:39:58Z</time>
      </trkpt>
      <trkpt lat="43.3191" lon="6.57149">
        <ele>252.1</ele>
        <time>2024-11-10T09:40:23Z</time>
      </trkpt>
      <trkpt lat="43.31904" lon="6.57156">
        <ele>254.1</ele>
        <time>2024-11-10T09:40:41Z</time>
      </trkpt>
      <trkpt lat="43.31903" lon="6.57156">
        <ele>254.3</ele>
        <time>2024-11-10T09:41:22Z</time>
      </trkpt>
      <trkpt lat="43.31907" lon="6.57155">
        <ele>253.3</ele>
        <time>2024-11-10T09:41:44Z</time>
      </trkpt>
      <trkpt lat="43.31906" lon="6.57157">
        <ele>253.7</ele>
        <time>2024-11-10T09:42:09Z</time>
      </trkpt>
      <trkpt lat="43.31899" lon="6.57158">
        <ele>255.4</ele>
        <time>2024-11-10T09:42:44Z</time>
      </trkpt>
      <trkpt lat="43.31895" lon="6.57164">
        <ele>257.1</ele>
        <time>2024-11-10T09:43:18Z</time>
      </trkpt>
      <trkpt lat="43.319" lon="6.57164">
        <ele>255.9</ele>
        <time>2024-11-10T09:43:27.000Z</time>
      </trkpt>
      <trkpt lat="43.31905" lon="6.57164">
        <ele>254.7</ele>
        <time>2024-11-10T09:43:36Z</time>
      </trkpt>
      <trkpt lat="43.31902" lon="6.57165">
        <ele>255.5</ele>
        <time>2024-11-10T09:44:02Z</time>
      </trkpt>
      <trkpt lat="43.31903" lon="6.5716">
        <ele>254.7</ele>
        <time>2024-11-10T09:44:33Z</time>
      </trkpt>
      <trkpt lat="43.319" lon="6.57171">
        <ele>256.4</ele>
        <time>2024-11-10T09:44:56Z</time>
      </trkpt>
      <trkpt lat="43.31896" lon="6.57175">
        <ele>257.7</ele>
        <time>2024-11-10T09:45:02.999Z</time>
      </trkpt>
      <trkpt lat="43.31892" lon="6.57179">
        <ele>259.1</ele>
        <time>2024-11-10T09:45:10Z</time>
      </trkpt>
      <trkpt lat="43.31889" lon="6.57184">
        <ele>260.3</ele>
        <time>2024-11-10T09:45:18.499Z</time>
      </trkpt>
      <trkpt lat="43.31885" lon="6.57189">
        <ele>261.6</ele>
        <time>2024-11-10T09:45:27Z</time>
      </trkpt>
      <trkpt lat="43.31882" lon="6.57195">
        <ele>263.1</ele>
        <time>2024-11-10T09:45:37.999Z</time>
      </trkpt>
      <trkpt lat="43.31878" lon="6.572">
        <ele>264.3</ele>
        <time>2024-11-10T09:45:49Z</time>
      </trkpt>
      <trkpt lat="43.31871" lon="6.57206">
        <ele>266.7</ele>
        <time>2024-11-10T09:46:10Z</time>
      </trkpt>
      <trkpt lat="43.31864" lon="6.5721">
        <ele>269.2</ele>
        <time>2024-11-10T09:46:28Z</time>
      </trkpt>
      <trkpt lat="43.31858" lon="6.57218">
        <ele>271.6</ele>
        <time>2024-11-10T09:46:48Z</time>
      </trkpt>
      <trkpt lat="43.31854" lon="6.57218">
        <ele>273</ele>
        <time>2024-11-10T09:46:57.000Z</time>
      </trkpt>
      <trkpt lat="43.31849" lon="6.57218">
        <ele>274.4</ele>
        <time>2024-11-10T09:47:06Z</time>
      </trkpt>
      <trkpt lat="43.31843" lon="6.5722">
        <ele>276.4</ele>
        <time>2024-11-10T09:47:16.999Z</time>
      </trkpt>
      <trkpt lat="43.31837" lon="6.57221">
        <ele>278.6</ele>
        <time>2024-11-10T09:47:28Z</time>
      </trkpt>
      <trkpt lat="43.31833" lon="6.57225">
        <ele>280.2</ele>
        <time>2024-11-10T09:47:38.499Z</time>
      </trkpt>
      <trkpt lat="43.31829" lon="6.57228">
        <ele>281.4</ele>
        <time>2024-11-10T09:47:49Z</time>
      </trkpt>
      <trkpt lat="43.31826" lon="6.57234">
        <ele>282.5</ele>
        <time>2024-11-10T09:48:18Z</time>
      </trkpt>
      <trkpt lat="43.31824" lon="6.57223">
        <ele>282.4</ele>
        <time>2024-11-10T09:48:43Z</time>
      </trkpt>
      <trkpt lat="43.31822" lon="6.57228">
        <ele>283.2</ele>
        <time>2024-11-10T09:49:27Z</time>
      </trkpt>
      <trkpt lat="43.31819" lon="6.57238">
        <ele>284.8</ele>
        <time>2024-11-10T09:49:47Z</time>
      </trkpt>
      <trkpt lat="43.31814" lon="6.57242">
        <ele>286.5</ele>
        <time>2024-11-10T09:49:54.499Z</time>
      </trkpt>
      <trkpt lat="43.31809" lon="6.57245">
        <ele>288.4</ele>
        <time>2024-11-10T09:50:02Z</time>
      </trkpt>
      <trkpt lat="43.31803" lon="6.57252">
        <ele>290.9</ele>
        <time>2024-11-10T09:50:20Z</time>
      </trkpt>
      <trkpt lat="43.31799" lon="6.57251">
        <ele>292.1</ele>
        <time>2024-11-10T09:50:29.500Z</time>
      </trkpt>
      <trkpt lat="43.31794" lon="6.5725">
        <ele>293.3</ele>
        <time>2024-11-10T09:50:39Z</time>
      </trkpt>
      <trkpt lat="43.3179" lon="6.57252">
        <ele>294.9</ele>
        <time>2024-11-10T09:50:46.999Z</time>
      </trkpt>
      <trkpt lat="43.31785" lon="6.57254">
        <ele>296.4</ele>
        <time>2024-11-10T09:50:55Z</time>
      </trkpt>
      <trkpt lat="43.3178" lon="6.57255">
        <ele>298.2</ele>
        <time>2024-11-10T09:51:03.500Z</time>
      </trkpt>
      <trkpt lat="43.31774" lon="6.57256">
        <ele>300.1</ele>
        <time>2024-11-10T09:51:12Z</time>
      </trkpt>
      <trkpt lat="43.31766" lon="6.57259">
        <ele>303</ele>
        <time>2024-11-10T09:51:27Z</time>
      </trkpt>
      <trkpt lat="43.31761" lon="6.57261">
        <ele>304.7</ele>
        <time>2024-11-10T09:51:34.999Z</time>
      </trkpt>
      <trkpt lat="43.31756" lon="6.57262">
        <ele>306.4</ele>
        <time>2024-11-10T09:51:43Z</time>
      </trkpt>
      <trkpt lat="43.31751" lon="6.57265">
        <ele>308.3</ele>
        <time>2024-11-10T09:51:52.499Z</time>
      </trkpt>
      <trkpt lat="43.31746" lon="6.57267">
        <ele>309</ele>
        <time>2024-11-10T09:52:02Z</time>
      </trkpt>
      <trkpt lat="43.31741" lon="6.57269">
        <ele>309.4</ele>
        <time>2024-11-10T09:52:08.999Z</time>
      </trkpt>
      <trkpt lat="43.31736" lon="6.57271">
        <ele>309.9</ele>
        <time>2024-11-10T09:52:16Z</time>
      </trkpt>
      <trkpt lat="43.31731" lon="6.57273">
        <ele>310.5</ele>
        <time>2024-11-10T09:52:21.999Z</time>
      </trkpt>
      <trkpt lat="43.31726" lon="6.57275">
        <ele>311.2</ele>
        <time>2024-11-10T09:52:28Z</time>
      </trkpt>
      <trkpt lat="43.31721" lon="6.57277">
        <ele>311.7</ele>
        <time>2024-11-10T09:52:34.000Z</time>
      </trkpt>
      <trkpt lat="43.31715" lon="6.57278">
        <ele>311.8</ele>
        <time>2024-11-10T09:52:40Z</time>
      </trkpt>
      <trkpt lat="43.31708" lon="6.5728">
        <ele>311.7</ele>
        <time>2024-11-10T09:52:46.000Z</time>
      </trkpt>
      <trkpt lat="43.317" lon="6.57281">
        <ele>311.5</ele>
        <time>2024-11-10T09:52:52Z</time>
      </trkpt>
      <trkpt lat="43.31695" lon="6.57284">
        <ele>311.5</ele>
        <time>2024-11-10T09:52:57.499Z</time>
      </trkpt>
      <trkpt lat="43.31689" lon="6.57287">
        <ele>312.2</ele>
        <time>2024-11-10T09:53:03Z</time>
      </trkpt>
      <trkpt lat="43.31685" lon="6.57292">
        <ele>312.9</ele>
        <time>2024-11-10T09:53:07.999Z</time>
      </trkpt>
      <trkpt lat="43.31681" lon="6.57297">
        <ele>313.5</ele>
        <time>2024-11-10T09:53:13Z</time>
      </trkpt>
      <trkpt lat="43.31677" lon="6.57301">
        <ele>314</ele>
        <time>2024-11-10T09:53:18.499Z</time>
      </trkpt>
      <trkpt lat="43.31673" lon="6.57304">
        <ele>314.5</ele>
        <time>2024-11-10T09:53:24Z</time>
      </trkpt>
      <trkpt lat="43.31668" lon="6.57306">
        <ele>314.9</ele>
        <time>2024-11-10T09:53:30.000Z</time>
      </trkpt>
      <trkpt lat="43.31662" lon="6.57307">
        <ele>315.2</ele>
        <time>2024-11-10T09:53:36Z</time>
      </trkpt>
      <trkpt lat="43.31657" lon="6.57308">
        <ele>315.4</ele>
        <time>2024-11-10T09:53:41.000Z</time>
      </trkpt>
      <trkpt lat="43.31651" lon="6.57309">
        <ele>315.5</ele>
        <time>2024-11-10T09:53:46Z</time>
      </trkpt>
      <trkpt lat="43.31645" lon="6.57309">
        <ele>315.7</ele>
        <time>2024-11-10T09:53:51.000Z</time>
      </trkpt>
      <trkpt lat="43.31638" lon="6.57308">
        <ele>315.9</ele>
        <time>2024-11-10T09:53:56Z</time>
      </trkpt>
      <trkpt lat="43.31633" lon="6.57306">
        <ele>316.5</ele>
        <time>2024-11-10T09:54:01.499Z</time>
      </trkpt>
      <trkpt lat="43.31627" lon="6.57303">
        <ele>316.9</ele>
        <time>2024-11-10T09:54:07Z</time>
      </trkpt>
      <trkpt lat="43.31621" lon="6.57302">
        <ele>317.3</ele>
        <time>2024-11-10T09:54:12.500Z</time>
      </trkpt>
      <trkpt lat="43.31614" lon="6.57301">
        <ele>317.7</ele>
        <time>2024-11-10T09:54:18Z</time>
      </trkpt>
      <trkpt lat="43.31609" lon="6.573">
        <ele>318</ele>
        <time>2024-11-10T09:54:23.000Z</time>
      </trkpt>
      <trkpt lat="43.31603" lon="6.57299">
        <ele>318.6</ele>
        <time>2024-11-10T09:54:28Z</time>
      </trkpt>
      <trkpt lat="43.31599" lon="6.57298">
        <ele>319</ele>
        <time>2024-11-10T09:54:33.500Z</time>
      </trkpt>
      <trkpt lat="43.31594" lon="6.57297">
        <ele>319.5</ele>
        <time>2024-11-10T09:54:39Z</time>
      </trkpt>
      <trkpt lat="43.3159" lon="6.57295">
        <ele>320.1</ele>
        <time>2024-11-10T09:54:44.999Z</time>
      </trkpt>
      <trkpt lat="43.31585" lon="6.57293">
        <ele>320.7</ele>
        <time>2024-11-10T09:54:51Z</time>
      </trkpt>
      <trkpt lat="43.3158" lon="6.57292">
        <ele>321.1</ele>
        <time>2024-11-10T09:54:57.000Z</time>
      </trkpt>
      <trkpt lat="43.31575" lon="6.57291">
        <ele>321.4</ele>
        <time>2024-11-10T09:55:03Z</time>
      </trkpt>
      <trkpt lat="43.31569" lon="6.5729">
        <ele>321.7</ele>
        <time>2024-11-10T09:55:08.500Z</time>
      </trkpt>
      <trkpt lat="43.31563" lon="6.57289">
        <ele>322.1</ele>
        <time>2024-11-10T09:55:14Z</time>
      </trkpt>
      <trkpt lat="43.31569" lon="6.5729">
        <ele>321.7</ele>
        <time>2024-11-10T09:57:09Z</time>
      </trkpt>
      <trkpt lat="43.31574" lon="6.57291">
        <ele>321.4</ele>
        <time>2024-11-10T09:57:15.000Z</time>
      </trkpt>
      <trkpt lat="43.31578" lon="6.57292">
        <ele>321.2</ele>
        <time>2024-11-10T09:57:21Z</time>
      </trkpt>
      <trkpt lat="43.31572" lon="6.57291">
        <ele>321.5</ele>
        <time>2024-11-10T09:57:27.000Z</time>
      </trkpt>
      <trkpt lat="43.31566" lon="6.57289">
        <ele>321.9</ele>
        <time>2024-11-10T09:57:33Z</time>
      </trkpt>
      <trkpt lat="43.31561" lon="6.5729">
        <ele>322</ele>
        <time>2024-11-10T09:57:37.750Z</time>
      </trkpt>
      <trkpt lat="43.31556" lon="6.57291">
        <ele>322.1</ele>
        <time>2024-11-10T09:57:42.500Z</time>
      </trkpt>
      <trkpt lat="43.31551" lon="6.57292">
        <ele>321.5</ele>
        <time>2024-11-10T09:57:47.250Z</time>
      </trkpt>
      <trkpt lat="43.31546" lon="6.57293">
        <ele>320.8</ele>
        <time>2024-11-10T09:57:52Z</time>
      </trkpt>
      <trkpt lat="43.31541" lon="6.57295">
        <ele>320</ele>
        <time>2024-11-10T09:57:57.500Z</time>
      </trkpt>
      <trkpt lat="43.31536" lon="6.57296">
        <ele>319.3</ele>
        <time>2024-11-10T09:58:03Z</time>
      </trkpt>
      <trkpt lat="43.31531" lon="6.57298">
        <ele>318.5</ele>
        <time>2024-11-10T09:58:07.500Z</time>
      </trkpt>
      <trkpt lat="43.31526" lon="6.57299">
        <ele>317.9</ele>
        <time>2024-11-10T09:58:12Z</time>
      </trkpt>
      <trkpt lat="43.31521" lon="6.57299">
        <ele>317.6</ele>
        <time>2024-11-10T09:58:17.000Z</time>
      </trkpt>
      <trkpt lat="43.31516" lon="6.57299">
        <ele>317.4</ele>
        <time>2024-11-10T09:58:22Z</time>
      </trkpt>
      <trkpt lat="43.31511" lon="6.57297">
        <ele>317.4</ele>
        <time>2024-11-10T09:59:11Z</time>
      </trkpt>
      <trkpt lat="43.31505" lon="6.57299">
        <ele>317</ele>
        <time>2024-11-10T09:59:17.000Z</time>
      </trkpt>
      <trkpt lat="43.31499" lon="6.573">
        <ele>316.6</ele>
        <time>2024-11-10T09:59:23Z</time>
      </trkpt>
      <trkpt lat="43.31494" lon="6.573">
        <ele>316.8</ele>
        <time>2024-11-10T09:59:28.000Z</time>
      </trkpt>
      <trkpt lat="43.31488" lon="6.573">
        <ele>316.9</ele>
        <time>2024-11-10T09:59:33Z</time>
      </trkpt>
      <trkpt lat="43.31484" lon="6.57298">
        <ele>317.3</ele>
        <time>2024-11-10T09:59:38.499Z</time>
      </trkpt>
      <trkpt lat="43.31479" lon="6.57295">
        <ele>317.6</ele>
        <time>2024-11-10T09:59:44Z</time>
      </trkpt>
      <trkpt lat="43.31472" lon="6.57293">
        <ele>317.9</ele>
        <time>2024-11-10T10:00:05Z</time>
      </trkpt>
      <trkpt lat="43.31468" lon="6.57289">
        <ele>318</ele>
        <time>2024-11-10T10:00:10.999Z</time>
      </trkpt>
      <trkpt lat="43.31463" lon="6.57285">
        <ele>318.2</ele>
        <time>2024-11-10T10:00:17Z</time>
      </trkpt>
      <trkpt lat="43.31464" lon="6.57276">
        <ele>318.9</ele>
        <time>2024-11-10T10:00:34Z</time>
      </trkpt>
      <trkpt lat="43.31466" lon="6.5727">
        <ele>318.7</ele>
        <time>2024-11-10T10:00:48.000Z</time>
      </trkpt>
      <trkpt lat="43.31468" lon="6.57263">
        <ele>318.5</ele>
        <time>2024-11-10T10:01:02Z</time>
      </trkpt>
      <trkpt lat="43.31474" lon="6.57259">
        <ele>318.3</ele>
        <time>2024-11-10T10:01:47Z</time>
      </trkpt>
      <trkpt lat="43.31473" lon="6.57264">
        <ele>318.5</ele>
        <time>2024-11-10T10:02:46Z</time>
      </trkpt>
      <trkpt lat="43.31468" lon="6.57271">
        <ele>318.8</ele>
        <time>2024-11-10T10:03:18Z</time>
      </trkpt>
      <trkpt lat="43.31465" lon="6.57276">
        <ele>318.9</ele>
        <time>2024-11-10T10:03:25.499Z</time>
      </trkpt>
      <trkpt lat="43.31461" lon="6.5728">
        <ele>318.7</ele>
        <time>2024-11-10T10:03:33Z</time>
      </trkpt>
      <trkpt lat="43.31455" lon="6.57278">
        <ele>319</ele>
        <time>2024-11-10T10:03:38.499Z</time>
      </trkpt>
      <trkpt lat="43.31448" lon="6.57275">
        <ele>318.9</ele>
        <time>2024-11-10T10:03:44Z</time>
      </trkpt>
      <trkpt lat="43.31443" lon="6.57274">
        <ele>319.1</ele>
        <time>2024-11-10T10:03:48.500Z</time>
      </trkpt>
      <trkpt lat="43.31437" lon="6.57273">
        <ele>319.6</ele>
        <time>2024-11-10T10:03:53Z</time>
      </trkpt>
      <trkpt lat="43.31432" lon="6.57273">
        <ele>320.2</ele>
        <time>2024-11-10T10:03:59.000Z</time>
      </trkpt>
      <trkpt lat="43.31426" lon="6.57272">
        <ele>320.8</ele>
        <time>2024-11-10T10:04:05Z</time>
      </trkpt>
      <trkpt lat="43.3142" lon="6.57271">
        <ele>321.4</ele>
        <time>2024-11-10T10:04:11.000Z</time>
      </trkpt>
      <trkpt lat="43.31414" lon="6.57269">
        <ele>321.8</ele>
        <time>2024-11-10T10:04:17Z</time>
      </trkpt>
      <trkpt lat="43.31406" lon="6.57264">
        <ele>322.1</ele>
        <time>2024-11-10T10:04:27Z</time>
      </trkpt>
      <trkpt lat="43.31401" lon="6.57263">
        <ele>322.4</ele>
        <time>2024-11-10T10:04:32.500Z</time>
      </trkpt>
      <trkpt lat="43.31395" lon="6.57262">
        <ele>322.7</ele>
        <time>2024-11-10T10:04:38Z</time>
      </trkpt>
      <trkpt lat="43.3139" lon="6.57261">
        <ele>322.9</ele>
        <time>2024-11-10T10:04:44.000Z</time>
      </trkpt>
      <trkpt lat="43.31385" lon="6.5726">
        <ele>322.9</ele>
        <time>2024-11-10T10:04:50Z</time>
      </trkpt>
      <trkpt lat="43.31381" lon="6.57259">
        <ele>322.8</ele>
        <time>2024-11-10T10:04:55.500Z</time>
      </trkpt>
      <trkpt lat="43.31376" lon="6.57257">
        <ele>322.8</ele>
        <time>2024-11-10T10:05:01Z</time>
      </trkpt>
      <trkpt lat="43.3137" lon="6.57257">
        <ele>322.7</ele>
        <time>2024-11-10T10:05:06.500Z</time>
      </trkpt>
      <trkpt lat="43.31364" lon="6.57257">
        <ele>322.5</ele>
        <time>2024-11-10T10:05:12Z</time>
      </trkpt>
      <trkpt lat="43.31359" lon="6.57257">
        <ele>322.7</ele>
        <time>2024-11-10T10:05:17.000Z</time>
      </trkpt>
      <trkpt lat="43.31354" lon="6.57256">
        <ele>323</ele>
        <time>2024-11-10T10:05:22Z</time>
      </trkpt>
      <trkpt lat="43.31349" lon="6.57257">
        <ele>323.3</ele>
        <time>2024-11-10T10:05:26.500Z</time>
      </trkpt>
      <trkpt lat="43.31344" lon="6.57257">
        <ele>323.6</ele>
        <time>2024-11-10T10:05:31Z</time>
      </trkpt>
      <trkpt lat="43.31339" lon="6.57256">
        <ele>324</ele>
        <time>2024-11-10T10:05:36.500Z</time>
      </trkpt>
      <trkpt lat="43.31334" lon="6.57254">
        <ele>324.5</ele>
        <time>2024-11-10T10:05:42Z</time>
      </trkpt>
      <trkpt lat="43.3133" lon="6.57254">
        <ele>325.1</ele>
        <time>2024-11-10T10:05:47.500Z</time>
      </trkpt>
      <trkpt lat="43.31325" lon="6.57253">
        <ele>325.7</ele>
        <time>2024-11-10T10:05:53Z</time>
      </trkpt>
      <trkpt lat="43.3132" lon="6.57251">
        <ele>326.8</ele>
        <time>2024-11-10T10:05:58.999Z</time>
      </trkpt>
      <trkpt lat="43.31315" lon="6.57248">
        <ele>327.5</ele>
        <time>2024-11-10T10:06:05Z</time>
      </trkpt>
      <trkpt lat="43.31311" lon="6.57245">
        <ele>327.9</ele>
        <time>2024-11-10T10:06:10.999Z</time>
      </trkpt>
      <trkpt lat="43.31307" lon="6.57241">
        <ele>328.2</ele>
        <time>2024-11-10T10:06:17Z</time>
      </trkpt>
      <trkpt lat="43.31301" lon="6.57234">
        <ele>328.3</ele>
        <time>2024-11-10T10:06:28Z</time>
      </trkpt>
      <trkpt lat="43.31297" lon="6.57232">
        <ele>328.6</ele>
        <time>2024-11-10T10:06:32.999Z</time>
      </trkpt>
      <trkpt lat="43.31292" lon="6.5723">
        <ele>328.9</ele>
        <time>2024-11-10T10:06:38Z</time>
      </trkpt>
      <trkpt lat="43.31287" lon="6.57231">
        <ele>329.4</ele>
        <time>2024-11-10T10:06:43.000Z</time>
      </trkpt>
      <trkpt lat="43.31282" lon="6.57231">
        <ele>329.9</ele>
        <time>2024-11-10T10:06:48Z</time>
      </trkpt>
      <trkpt lat="43.31278" lon="6.57232">
        <ele>330.3</ele>
        <time>2024-11-10T10:06:52.500Z</time>
      </trkpt>
      <trkpt lat="43.31273" lon="6.57232">
        <ele>330.4</ele>
        <time>2024-11-10T10:06:57Z</time>
      </trkpt>
      <trkpt lat="43.31268" lon="6.57232">
        <ele>330.4</ele>
        <time>2024-11-10T10:07:01.500Z</time>
      </trkpt>
      <trkpt lat="43.31263" lon="6.57232">
        <ele>330.4</ele>
        <time>2024-11-10T10:07:06Z</time>
      </trkpt>
      <trkpt lat="43.31258" lon="6.57232">
        <ele>330.4</ele>
        <time>2024-11-10T10:07:10.500Z</time>
      </trkpt>
      <trkpt lat="43.31252" lon="6.57232">
        <ele>330.4</ele>
        <time>2024-11-10T10:07:15Z</time>
      </trkpt>
      <trkpt lat="43.31247" lon="6.5723">
        <ele>330.2</ele>
        <time>2024-11-10T10:07:18.999Z</time>
      </trkpt>
      <trkpt lat="43.31242" lon="6.57228">
        <ele>330</ele>
        <time>2024-11-10T10:07:23Z</time>
      </trkpt>
      <trkpt lat="43.31238" lon="6.57223">
        <ele>330</ele>
        <time>2024-11-10T10:07:26.999Z</time>
      </trkpt>
      <trkpt lat="43.31233" lon="6.57218">
        <ele>329.7</ele>
        <time>2024-11-10T10:07:31Z</time>
      </trkpt>
      <trkpt lat="43.3123" lon="6.57213">
        <ele>329.5</ele>
        <time>2024-11-10T10:07:34.999Z</time>
      </trkpt>
      <trkpt lat="43.31227" lon="6.57208">
        <ele>329.3</ele>
        <time>2024-11-10T10:07:39Z</time>
      </trkpt>
      <trkpt lat="43.31224" lon="6.57203">
        <ele>329.2</ele>
        <time>2024-11-10T10:07:43.499Z</time>
      </trkpt>
      <trkpt lat="43.31221" lon="6.57198">
        <ele>329.2</ele>
        <time>2024-11-10T10:07:48Z</time>
      </trkpt>
      <trkpt lat="43.31217" lon="6.57194">
        <ele>329.2</ele>
        <time>2024-11-10T10:07:52.499Z</time>
      </trkpt>
      <trkpt lat="43.31213" lon="6.5719">
        <ele>329.1</ele>
        <time>2024-11-10T10:07:57Z</time>
      </trkpt>
      <trkpt lat="43.31209" lon="6.57188">
        <ele>329.1</ele>
        <time>2024-11-10T10:08:01.499Z</time>
      </trkpt>
      <trkpt lat="43.31204" lon="6.57185">
        <ele>329.2</ele>
        <time>2024-11-10T10:08:06Z</time>
      </trkpt>
      <trkpt lat="43.312" lon="6.57184">
        <ele>329.4</ele>
        <time>2024-11-10T10:08:10.500Z</time>
      </trkpt>
      <trkpt lat="43.31195" lon="6.57183">
        <ele>329.6</ele>
        <time>2024-11-10T10:08:15Z</time>
      </trkpt>
      <trkpt lat="43.3119" lon="6.57183">
        <ele>329.9</ele>
        <time>2024-11-10T10:08:20.000Z</time>
      </trkpt>
      <trkpt lat="43.31185" lon="6.57182">
        <ele>330.3</ele>
        <time>2024-11-10T10:08:25Z</time>
      </trkpt>
      <trkpt lat="43.3118" lon="6.5718">
        <ele>330.8</ele>
        <time>2024-11-10T10:08:31.999Z</time>
      </trkpt>
      <trkpt lat="43.31175" lon="6.57177">
        <ele>331.4</ele>
        <time>2024-11-10T10:08:39Z</time>
      </trkpt>
      <trkpt lat="43.31173" lon="6.57171">
        <ele>331.9</ele>
        <time>2024-11-10T10:09:27Z</time>
      </trkpt>
      <trkpt lat="43.31175" lon="6.57175">
        <ele>331.5</ele>
        <time>2024-11-10T10:10:46Z</time>
      </trkpt>
      <trkpt lat="43.31176" lon="6.57172">
        <ele>331.5</ele>
        <time>2024-11-10T10:13:17Z</time>
      </trkpt>
      <trkpt lat="43.31175" lon="6.57173">
        <ele>331.5</ele>
        <time>2024-11-10T10:14:57Z</time>
      </trkpt>
      <trkpt lat="43.31179" lon="6.57174">
        <ele>331</ele>
        <time>2024-11-10T10:15:44Z</time>
      </trkpt>
      <trkpt lat="43.31176" lon="6.57174">
        <ele>331.4</ele>
        <time>2024-11-10T10:17:05Z</time>
      </trkpt>
      <trkpt lat="43.31169" lon="6.57167">
        <ele>332.6</ele>
        <time>2024-11-10T10:17:38Z</time>
      </trkpt>
      <trkpt lat="43.31164" lon="6.57165">
        <ele>332.1</ele>
        <time>2024-11-10T10:17:43.999Z</time>
      </trkpt>
      <trkpt lat="43.31158" lon="6.57162">
        <ele>330.9</ele>
        <time>2024-11-10T10:17:50Z</time>
      </trkpt>
      <trkpt lat="43.31153" lon="6.57163">
        <ele>330.1</ele>
        <time>2024-11-10T10:17:55.500Z</time>
      </trkpt>
      <trkpt lat="43.31148" lon="6.57163">
        <ele>329.3</ele>
        <time>2024-11-10T10:18:01Z</time>
      </trkpt>
      <trkpt lat="43.31144" lon="6.57167">
        <ele>328.8</ele>
        <time>2024-11-10T10:18:07.499Z</time>
      </trkpt>
      <trkpt lat="43.31139" lon="6.5717">
        <ele>327.8</ele>
        <time>2024-11-10T10:18:14Z</time>
      </trkpt>
      <trkpt lat="43.31134" lon="6.57171">
        <ele>326.4</ele>
        <time>2024-11-10T10:18:21.000Z</time>
      </trkpt>
      <trkpt lat="43.31128" lon="6.57171">
        <ele>325.1</ele>
        <time>2024-11-10T10:18:28Z</time>
      </trkpt>
      <trkpt lat="43.31124" lon="6.57171">
        <ele>324</ele>
        <time>2024-11-10T10:18:35.500Z</time>
      </trkpt>
      <trkpt lat="43.31119" lon="6.57171">
        <ele>322.9</ele>
        <time>2024-11-10T10:18:43Z</time>
      </trkpt>
      <trkpt lat="43.31114" lon="6.57173">
        <ele>321.7</ele>
        <time>2024-11-10T10:18:50.499Z</time>
      </trkpt>
      <trkpt lat="43.31109" lon="6.57175">
        <ele>320.3</ele>
        <time>2024-11-10T10:18:58Z</time>
      </trkpt>
      <trkpt lat="43.31105" lon="6.57179">
        <ele>318.9</ele>
        <time>2024-11-10T10:19:06.499Z</time>
      </trkpt>
      <trkpt lat="43.31101" lon="6.57182">
        <ele>317.5</ele>
        <time>2024-11-10T10:19:15Z</time>
      </trkpt>
      <trkpt lat="43.31097" lon="6.5718">
        <ele>316</ele>
        <time>2024-11-10T10:19:21.499Z</time>
      </trkpt>
      <trkpt lat="43.31092" lon="6.57177">
        <ele>314.6</ele>
        <time>2024-11-10T10:19:28Z</time>
      </trkpt>
      <trkpt lat="43.31087" lon="6.57175">
        <ele>312.8</ele>
        <time>2024-11-10T10:19:35.999Z</time>
      </trkpt>
      <trkpt lat="43.31081" lon="6.57172">
        <ele>311.1</ele>
        <time>2024-11-10T10:19:44Z</time>
      </trkpt>
      <trkpt lat="43.31077" lon="6.57172">
        <ele>309.6</ele>
        <time>2024-11-10T10:19:51.500Z</time>
      </trkpt>
      <trkpt lat="43.31072" lon="6.57171">
        <ele>308.2</ele>
        <time>2024-11-10T10:19:59Z</time>
      </trkpt>
      <trkpt lat="43.31068" lon="6.57173">
        <ele>306.6</ele>
        <time>2024-11-10T10:20:05.999Z</time>
      </trkpt>
      <trkpt lat="43.31063" lon="6.57175">
        <ele>305.1</ele>
        <time>2024-11-10T10:20:13Z</time>
      </trkpt>
      <trkpt lat="43.31058" lon="6.57177">
        <ele>303.4</ele>
        <time>2024-11-10T10:20:20.499Z</time>
      </trkpt>
      <trkpt lat="43.31053" lon="6.57179">
        <ele>301.6</ele>
        <time>2024-11-10T10:20:28Z</time>
      </trkpt>
      <trkpt lat="43.31048" lon="6.57178">
        <ele>299.9</ele>
        <time>2024-11-10T10:20:34.500Z</time>
      </trkpt>
      <trkpt lat="43.31043" lon="6.57177">
        <ele>298.1</ele>
        <time>2024-11-10T10:20:41Z</time>
      </trkpt>
      <trkpt lat="43.31037" lon="6.57168">
        <ele>296.3</ele>
        <time>2024-11-10T10:20:55Z</time>
      </trkpt>
      <trkpt lat="43.31032" lon="6.57165">
        <ele>294.5</ele>
        <time>2024-11-10T10:21:03.999Z</time>
      </trkpt>
      <trkpt lat="43.31027" lon="6.57161">
        <ele>292.7</ele>
        <time>2024-11-10T10:21:13Z</time>
      </trkpt>
      <trkpt lat="43.31022" lon="6.57161">
        <ele>291</ele>
        <time>2024-11-10T10:21:20.000Z</time>
      </trkpt>
      <trkpt lat="43.31017" lon="6.5716">
        <ele>289.2</ele>
        <time>2024-11-10T10:21:27Z</time>
      </trkpt>
      <trkpt lat="43.31012" lon="6.57161">
        <ele>287.3</ele>
        <time>2024-11-10T10:21:34.000Z</time>
      </trkpt>
      <trkpt lat="43.31006" lon="6.57161">
        <ele>285.3</ele>
        <time>2024-11-10T10:21:41Z</time>
      </trkpt>
      <trkpt lat="43.31001" lon="6.57162">
        <ele>283.5</ele>
        <time>2024-11-10T10:21:47.500Z</time>
      </trkpt>
      <trkpt lat="43.30996" lon="6.57162">
        <ele>282.3</ele>
        <time>2024-11-10T10:21:54Z</time>
      </trkpt>
      <trkpt lat="43.30991" lon="6.57163">
        <ele>281.1</ele>
        <time>2024-11-10T10:21:59.500Z</time>
      </trkpt>
      <trkpt lat="43.30986" lon="6.57164">
        <ele>280</ele>
        <time>2024-11-10T10:22:05Z</time>
      </trkpt>
      <trkpt lat="43.30981" lon="6.57164">
        <ele>278.9</ele>
        <time>2024-11-10T10:22:10.500Z</time>
      </trkpt>
      <trkpt lat="43.30976" lon="6.57163">
        <ele>277.8</ele>
        <time>2024-11-10T10:22:16Z</time>
      </trkpt>
      <trkpt lat="43.30972" lon="6.5716">
        <ele>276.9</ele>
        <time>2024-11-10T10:22:20.999Z</time>
      </trkpt>
      <trkpt lat="43.30968" lon="6.57156">
        <ele>276.1</ele>
        <time>2024-11-10T10:22:26Z</time>
      </trkpt>
      <trkpt lat="43.30963" lon="6.57154">
        <ele>275</ele>
        <time>2024-11-10T10:22:31.499Z</time>
      </trkpt>
      <trkpt lat="43.30958" lon="6.57152">
        <ele>274</ele>
        <time>2024-11-10T10:22:37Z</time>
      </trkpt>
      <trkpt lat="43.30953" lon="6.57148">
        <ele>273.1</ele>
        <time>2024-11-10T10:22:42.499Z</time>
      </trkpt>
      <trkpt lat="43.30948" lon="6.57144">
        <ele>272.3</ele>
        <time>2024-11-10T10:22:48Z</time>
      </trkpt>
      <trkpt lat="43.30944" lon="6.5714">
        <ele>271.8</ele>
        <time>2024-11-10T10:22:53.499Z</time>
      </trkpt>
      <trkpt lat="43.3094" lon="6.57135">
        <ele>270.2</ele>
        <time>2024-11-10T10:22:59Z</time>
      </trkpt>
      <trkpt lat="43.30938" lon="6.57125">
        <ele>269.1</ele>
        <time>2024-11-10T10:23:16Z</time>
      </trkpt>
      <trkpt lat="43.30943" lon="6.57129">
        <ele>270.8</ele>
        <time>2024-11-10T10:23:53Z</time>
      </trkpt>
      <trkpt lat="43.30947" lon="6.57133">
        <ele>272</ele>
        <time>2024-11-10T10:24:00.000Z</time>
      </trkpt>
      <trkpt lat="43.30951" lon="6.57136">
        <ele>273</ele>
        <time>2024-11-10T10:24:07Z</time>
      </trkpt>
      <trkpt lat="43.30949" lon="6.57137">
        <ele>272.7</ele>
        <time>2024-11-10T10:24:47Z</time>
      </trkpt>
      <trkpt lat="43.30944" lon="6.5713">
        <ele>271.2</ele>
        <time>2024-11-10T10:25:41Z</time>
      </trkpt>
      <trkpt lat="43.30941" lon="6.57125">
        <ele>269.8</ele>
        <time>2024-11-10T10:25:48.499Z</time>
      </trkpt>
      <trkpt lat="43.30937" lon="6.57119">
        <ele>268.7</ele>
        <time>2024-11-10T10:25:56Z</time>
      </trkpt>
      <trkpt lat="43.30931" lon="6.5711">
        <ele>267</ele>
        <time>2024-11-10T10:26:07Z</time>
      </trkpt>
      <trkpt lat="43.30924" lon="6.57103">
        <ele>265.2</ele>
        <time>2024-11-10T10:26:19Z</time>
      </trkpt>
      <trkpt lat="43.30922" lon="6.57097">
        <ele>264.4</ele>
        <time>2024-11-10T10:26:24.499Z</time>
      </trkpt>
      <trkpt lat="43.30919" lon="6.57091">
        <ele>263.7</ele>
        <time>2024-11-10T10:26:30Z</time>
      </trkpt>
      <trkpt lat="43.30914" lon="6.57082">
        <ele>262.4</ele>
        <time>2024-11-10T10:26:41Z</time>
      </trkpt>
      <trkpt lat="43.30907" lon="6.57089">
        <ele>261.2</ele>
        <time>2024-11-10T10:26:53Z</time>
      </trkpt>
      <trkpt lat="43.30906" lon="6.57083">
        <ele>261</ele>
        <time>2024-11-10T10:27:03.499Z</time>
      </trkpt>
      <trkpt lat="43.30904" lon="6.57076">
        <ele>260.6</ele>
        <time>2024-11-10T10:27:14Z</time>
      </trkpt>
      <trkpt lat="43.30904" lon="6.5707">
        <ele>260.3</ele>
        <time>2024-11-10T10:27:19.499Z</time>
      </trkpt>
      <trkpt lat="43.30903" lon="6.57063">
        <ele>260.2</ele>
        <time>2024-11-10T10:27:25Z</time>
      </trkpt>
      <trkpt lat="43.30905" lon="6.57063">
        <ele>260.4</ele>
        <time>2024-11-10T10:28:05Z</time>
      </trkpt>
      <trkpt lat="43.30908" lon="6.57067">
        <ele>260.8</ele>
        <time>2024-11-10T10:29:22Z</time>
      </trkpt>
      <trkpt lat="43.30906" lon="6.57059">
        <ele>260.3</ele>
        <time>2024-11-10T10:29:52Z</time>
      </trkpt>
      <trkpt lat="43.30911" lon="6.57053">
        <ele>260.4</ele>
        <time>2024-11-10T10:30:01.500Z</time>
      </trkpt>
      <trkpt lat="43.30916" lon="6.57047">
        <ele>260</ele>
        <time>2024-11-10T10:30:11Z</time>
      </trkpt>
      <trkpt lat="43.30919" lon="6.57041">
        <ele>259.7</ele>
        <time>2024-11-10T10:30:18.000Z</time>
      </trkpt>
      <trkpt lat="43.30922" lon="6.57035">
        <ele>259.4</ele>
        <time>2024-11-10T10:30:25Z</time>
      </trkpt>
      <trkpt lat="43.30926" lon="6.57029">
        <ele>259.1</ele>
        <time>2024-11-10T10:30:31.000Z</time>
      </trkpt>
      <trkpt lat="43.30929" lon="6.57023">
        <ele>258.7</ele>
        <time>2024-11-10T10:30:37Z</time>
      </trkpt>
      <trkpt lat="43.30931" lon="6.57017">
        <ele>258</ele>
        <time>2024-11-10T10:30:43.000Z</time>
      </trkpt>
      <trkpt lat="43.30933" lon="6.57011">
        <ele>257.2</ele>
        <time>2024-11-10T10:30:49Z</time>
      </trkpt>
      <trkpt lat="43.30936" lon="6.57006">
        <ele>256.6</ele>
        <time>2024-11-10T10:30:55.500Z</time>
      </trkpt>
      <trkpt lat="43.30939" lon="6.57">
        <ele>255.8</ele>
        <time>2024-11-10T10:31:02Z</time>
      </trkpt>
      <trkpt lat="43.30943" lon="6.56995">
        <ele>254.8</ele>
        <time>2024-11-10T10:31:07.500Z</time>
      </trkpt>
      <trkpt lat="43.30947" lon="6.56989">
        <ele>254</ele>
        <time>2024-11-10T10:31:13Z</time>
      </trkpt>
      <trkpt lat="43.30952" lon="6.56985">
        <ele>253.8</ele>
        <time>2024-11-10T10:31:19.000Z</time>
      </trkpt>
      <trkpt lat="43.30957" lon="6.56981">
        <ele>253.5</ele>
        <time>2024-11-10T10:31:25Z</time>
      </trkpt>
      <trkpt lat="43.30963" lon="6.56977">
        <ele>253.1</ele>
        <time>2024-11-10T10:31:30.000Z</time>
      </trkpt>
      <trkpt lat="43.30968" lon="6.56972">
        <ele>252.5</ele>
        <time>2024-11-10T10:31:35Z</time>
      </trkpt>
      <trkpt lat="43.30972" lon="6.56969">
        <ele>251.6</ele>
        <time>2024-11-10T10:31:39.500Z</time>
      </trkpt>
      <trkpt lat="43.30976" lon="6.56965">
        <ele>250.7</ele>
        <time>2024-11-10T10:31:44Z</time>
      </trkpt>
      <trkpt lat="43.30981" lon="6.56962">
        <ele>250</ele>
        <time>2024-11-10T10:31:49.000Z</time>
      </trkpt>
      <trkpt lat="43.30985" lon="6.56959">
        <ele>249.4</ele>
        <time>2024-11-10T10:31:54Z</time>
      </trkpt>
      <trkpt lat="43.3099" lon="6.56957">
        <ele>249.2</ele>
        <time>2024-11-10T10:31:59.000Z</time>
      </trkpt>
      <trkpt lat="43.30995" lon="6.56955">
        <ele>248.9</ele>
        <time>2024-11-10T10:32:04Z</time>
      </trkpt>
      <trkpt lat="43.31002" lon="6.56948">
        <ele>247.6</ele>
        <time>2024-11-10T10:32:15Z</time>
      </trkpt>
      <trkpt lat="43.31007" lon="6.56944">
        <ele>247.3</ele>
        <time>2024-11-10T10:32:20.500Z</time>
      </trkpt>
      <trkpt lat="43.31012" lon="6.56939">
        <ele>247.2</ele>
        <time>2024-11-10T10:32:26Z</time>
      </trkpt>
      <trkpt lat="43.31016" lon="6.56934">
        <ele>246.8</ele>
        <time>2024-11-10T10:32:32.000Z</time>
      </trkpt>
      <trkpt lat="43.3102" lon="6.56928">
        <ele>246.4</ele>
        <time>2024-11-10T10:32:38Z</time>
      </trkpt>
      <trkpt lat="43.31023" lon="6.5692">
        <ele>245.4</ele>
        <time>2024-11-10T10:32:53Z</time>
      </trkpt>
      <trkpt lat="43.31028" lon="6.56914">
        <ele>245.4</ele>
        <time>2024-11-10T10:33:12Z</time>
      </trkpt>
      <trkpt lat="43.31032" lon="6.56909">
        <ele>245.1</ele>
        <time>2024-11-10T10:33:17.500Z</time>
      </trkpt>
      <trkpt lat="43.31035" lon="6.56903">
        <ele>244.8</ele>
        <time>2024-11-10T10:33:23Z</time>
      </trkpt>
      <trkpt lat="43.31039" lon="6.56899">
        <ele>244.9</ele>
        <time>2024-11-10T10:33:28.000Z</time>
      </trkpt>
      <trkpt lat="43.31043" lon="6.56895">
        <ele>245</ele>
        <time>2024-11-10T10:33:33Z</time>
      </trkpt>
      <trkpt lat="43.31046" lon="6.5689">
        <ele>244.6</ele>
        <time>2024-11-10T10:33:38.000Z</time>
      </trkpt>
      <trkpt lat="43.31049" lon="6.56885">
        <ele>244.1</ele>
        <time>2024-11-10T10:33:43Z</time>
      </trkpt>
      <trkpt lat="43.31052" lon="6.5688">
        <ele>243.4</ele>
        <time>2024-11-10T10:33:48.000Z</time>
      </trkpt>
      <trkpt lat="43.31054" lon="6.56874">
        <ele>242.7</ele>
        <time>2024-11-10T10:33:53Z</time>
      </trkpt>
      <trkpt lat="43.31056" lon="6.56862">
        <ele>240.4</ele>
        <time>2024-11-10T10:34:02Z</time>
      </trkpt>
      <trkpt lat="43.31058" lon="6.56856">
        <ele>240.1</ele>
        <time>2024-11-10T10:34:06.500Z</time>
      </trkpt>
      <trkpt lat="43.31059" lon="6.56849">
        <ele>239.9</ele>
        <time>2024-11-10T10:34:11Z</time>
      </trkpt>
      <trkpt lat="43.31061" lon="6.56837">
        <ele>238.9</ele>
        <time>2024-11-10T10:34:20Z</time>
      </trkpt>
      <trkpt lat="43.31063" lon="6.56831">
        <ele>238.3</ele>
        <time>2024-11-10T10:34:25.000Z</time>
      </trkpt>
      <trkpt lat="43.31064" lon="6.56824">
        <ele>237.2</ele>
        <time>2024-11-10T10:34:30Z</time>
      </trkpt>
      <trkpt lat="43.31067" lon="6.56819">
        <ele>236.8</ele>
        <time>2024-11-10T10:34:34.500Z</time>
      </trkpt>
      <trkpt lat="43.31069" lon="6.56813">
        <ele>236.3</ele>
        <time>2024-11-10T10:34:39Z</time>
      </trkpt>
      <trkpt lat="43.31072" lon="6.56807">
        <ele>235.6</ele>
        <time>2024-11-10T10:34:45.000Z</time>
      </trkpt>
      <trkpt lat="43.31074" lon="6.568">
        <ele>235.2</ele>
        <time>2024-11-10T10:34:51Z</time>
      </trkpt>
      <trkpt lat="43.31076" lon="6.56794">
        <ele>234.6</ele>
        <time>2024-11-10T10:34:56.000Z</time>
      </trkpt>
      <trkpt lat="43.31078" lon="6.56787">
        <ele>234</ele>
        <time>2024-11-10T10:35:01Z</time>
      </trkpt>
      <trkpt lat="43.31082" lon="6.56782">
        <ele>234.1</ele>
        <time>2024-11-10T10:35:06.500Z</time>
      </trkpt>
      <trkpt lat="43.31085" lon="6.56776">
        <ele>233.8</ele>
        <time>2024-11-10T10:35:12Z</time>
      </trkpt>
      <trkpt lat="43.31091" lon="6.56767">
        <ele>232.4</ele>
        <time>2024-11-10T10:35:21Z</time>
      </trkpt>
      <trkpt lat="43.31096" lon="6.56763">
        <ele>232.2</ele>
        <time>2024-11-10T10:35:25.500Z</time>
      </trkpt>
      <trkpt lat="43.311" lon="6.56759">
        <ele>232</ele>
        <time>2024-11-10T10:35:30Z</time>
      </trkpt>
      <trkpt lat="43.31105" lon="6.56757">
        <ele>232.5</ele>
        <time>2024-11-10T10:35:34.500Z</time>
      </trkpt>
      <trkpt lat="43.3111" lon="6.56755">
        <ele>233</ele>
        <time>2024-11-10T10:35:39Z</time>
      </trkpt>
      <trkpt lat="43.31113" lon="6.5675">
        <ele>232</ele>
        <time>2024-11-10T10:35:44.000Z</time>
      </trkpt>
      <trkpt lat="43.31115" lon="6.56744">
        <ele>232.1</ele>
        <time>2024-11-10T10:35:49Z</time>
      </trkpt>
      <trkpt lat="43.31117" lon="6.56732">
        <ele>232.1</ele>
        <time>2024-11-10T10:35:58Z</time>
      </trkpt>
      <trkpt lat="43.31115" lon="6.5672">
        <ele>232.2</ele>
        <time>2024-11-10T10:36:07Z</time>
      </trkpt>
      <trkpt lat="43.31118" lon="6.56709">
        <ele>233.1</ele>
        <time>2024-11-10T10:36:22Z</time>
      </trkpt>
      <trkpt lat="43.31123" lon="6.56699">
        <ele>234</ele>
        <time>2024-11-10T10:36:41Z</time>
      </trkpt>
      <trkpt lat="43.31128" lon="6.56695">
        <ele>234.6</ele>
        <time>2024-11-10T10:36:47.000Z</time>
      </trkpt>
      <trkpt lat="43.31133" lon="6.56691">
        <ele>235.7</ele>
        <time>2024-11-10T10:36:53Z</time>
      </trkpt>
      <trkpt lat="43.31137" lon="6.56687">
        <ele>236.9</ele>
        <time>2024-11-10T10:36:58.000Z</time>
      </trkpt>
      <trkpt lat="43.31141" lon="6.56682">
        <ele>237.9</ele>
        <time>2024-11-10T10:37:03Z</time>
      </trkpt>
      <trkpt lat="43.31144" lon="6.56677">
        <ele>238.7</ele>
        <time>2024-11-10T10:37:08.500Z</time>
      </trkpt>
      <trkpt lat="43.31147" lon="6.56672">
        <ele>239.5</ele>
        <time>2024-11-10T10:37:14Z</time>
      </trkpt>
      <trkpt lat="43.31152" lon="6.56668">
        <ele>240</ele>
        <time>2024-11-10T10:37:20.000Z</time>
      </trkpt>
      <trkpt lat="43.31156" lon="6.56663">
        <ele>240.8</ele>
        <time>2024-11-10T10:37:26Z</time>
      </trkpt>
      <trkpt lat="43.31161" lon="6.56659">
        <ele>241.5</ele>
        <time>2024-11-10T10:37:31.500Z</time>
      </trkpt>
      <trkpt lat="43.31165" lon="6.56655">
        <ele>242.4</ele>
        <time>2024-11-10T10:37:37Z</time>
      </trkpt>
      <trkpt lat="43.3117" lon="6.56652">
        <ele>242.8</ele>
        <time>2024-11-10T10:37:42.500Z</time>
      </trkpt>
      <trkpt lat="43.31174" lon="6.56649">
        <ele>243</ele>
        <time>2024-11-10T10:37:48Z</time>
      </trkpt>
      <trkpt lat="43.31178" lon="6.56645">
        <ele>243.5</ele>
        <time>2024-11-10T10:37:54.000Z</time>
      </trkpt>
      <trkpt lat="43.31182" lon="6.56641">
        <ele>244</ele>
        <time>2024-11-10T10:38:00Z</time>
      </trkpt>
      <trkpt lat="43.31187" lon="6.56638">
        <ele>244.1</ele>
        <time>2024-11-10T10:38:05.500Z</time>
      </trkpt>
      <trkpt lat="43.31192" lon="6.56634">
        <ele>244.4</ele>
        <time>2024-11-10T10:38:11Z</time>
      </trkpt>
      <trkpt lat="43.31197" lon="6.56631">
        <ele>244.8</ele>
        <time>2024-11-10T10:38:17.500Z</time>
      </trkpt>
      <trkpt lat="43.31202" lon="6.56627">
        <ele>245.1</ele>
        <time>2024-11-10T10:38:24Z</time>
      </trkpt>
      <trkpt lat="43.31206" lon="6.56624">
        <ele>245.6</ele>
        <time>2024-11-10T10:38:29.000Z</time>
      </trkpt>
      <trkpt lat="43.3121" lon="6.5662">
        <ele>245.9</ele>
        <time>2024-11-10T10:38:34Z</time>
      </trkpt>
      <trkpt lat="43.31214" lon="6.56616">
        <ele>246.7</ele>
        <time>2024-11-10T10:38:39.000Z</time>
      </trkpt>
      <trkpt lat="43.31217" lon="6.56611">
        <ele>247.4</ele>
        <time>2024-11-10T10:38:44Z</time>
      </trkpt>
      <trkpt lat="43.31222" lon="6.56606">
        <ele>247.7</ele>
        <time>2024-11-10T10:38:49.500Z</time>
      </trkpt>
      <trkpt lat="43.31227" lon="6.56601">
        <ele>247.7</ele>
        <time>2024-11-10T10:38:55Z</time>
      </trkpt>
      <trkpt lat="43.3123" lon="6.56595">
        <ele>248.7</ele>
        <time>2024-11-10T10:39:00.500Z</time>
      </trkpt>
      <trkpt lat="43.31232" lon="6.56589">
        <ele>249.7</ele>
        <time>2024-11-10T10:39:06Z</time>
      </trkpt>
      <trkpt lat="43.31235" lon="6.56583">
        <ele>250.5</ele>
        <time>2024-11-10T10:39:12.000Z</time>
      </trkpt>
      <trkpt lat="43.31238" lon="6.56577">
        <ele>250.9</ele>
        <time>2024-11-10T10:39:18Z</time>
      </trkpt>
      <trkpt lat="43.31242" lon="6.56571">
        <ele>251</ele>
        <time>2024-11-10T10:39:24.000Z</time>
      </trkpt>
      <trkpt lat="43.31245" lon="6.56565">
        <ele>251</ele>
        <time>2024-11-10T10:39:30Z</time>
      </trkpt>
      <trkpt lat="43.31248" lon="6.56559">
        <ele>251.2</ele>
        <time>2024-11-10T10:39:35.500Z</time>
      </trkpt>
      <trkpt lat="43.31251" lon="6.56552">
        <ele>251.4</ele>
        <time>2024-11-10T10:39:41Z</time>
      </trkpt>
      <trkpt lat="43.31253" lon="6.56546">
        <ele>252.3</ele>
        <time>2024-11-10T10:39:46.500Z</time>
      </trkpt>
      <trkpt lat="43.31254" lon="6.56539">
        <ele>253.1</ele>
        <time>2024-11-10T10:39:52Z</time>
      </trkpt>
      <trkpt lat="43.31256" lon="6.56532">
        <ele>253.8</ele>
        <time>2024-11-10T10:39:58.000Z</time>
      </trkpt>
      <trkpt lat="43.31258" lon="6.56525">
        <ele>254.3</ele>
        <time>2024-11-10T10:40:04Z</time>
      </trkpt>
      <trkpt lat="43.3126" lon="6.56518">
        <ele>254.9</ele>
        <time>2024-11-10T10:40:11.000Z</time>
      </trkpt>
      <trkpt lat="43.31261" lon="6.56511">
        <ele>255.4</ele>
        <time>2024-11-10T10:40:18Z</time>
      </trkpt>
      <trkpt lat="43.31263" lon="6.56505">
        <ele>255.9</ele>
        <time>2024-11-10T10:40:25.000Z</time>
      </trkpt>
      <trkpt lat="43.31264" lon="6.56498">
        <ele>256.3</ele>
        <time>2024-11-10T10:40:32Z</time>
      </trkpt>
      <trkpt lat="43.31266" lon="6.56491">
        <ele>257.1</ele>
        <time>2024-11-10T10:40:39.000Z</time>
      </trkpt>
      <trkpt lat="43.31267" lon="6.56484">
        <ele>257.8</ele>
        <time>2024-11-10T10:40:46Z</time>
      </trkpt>
      <trkpt lat="43.3127" lon="6.56478">
        <ele>257.6</ele>
        <time>2024-11-10T10:40:52.500Z</time>
      </trkpt>
      <trkpt lat="43.31273" lon="6.56471">
        <ele>257.5</ele>
        <time>2024-11-10T10:40:59Z</time>
      </trkpt>
      <trkpt lat="43.31274" lon="6.56463">
        <ele>258.5</ele>
        <time>2024-11-10T10:41:06.000Z</time>
      </trkpt>
      <trkpt lat="43.31275" lon="6.56455">
        <ele>259.5</ele>
        <time>2024-11-10T10:41:13Z</time>
      </trkpt>
      <trkpt lat="43.31276" lon="6.56447">
        <ele>260.8</ele>
        <time>2024-11-10T10:41:20.000Z</time>
      </trkpt>
      <trkpt lat="43.31276" lon="6.56438">
        <ele>261.6</ele>
        <time>2024-11-10T10:41:27Z</time>
      </trkpt>
      <trkpt lat="43.31278" lon="6.5643">
        <ele>261.4</ele>
        <time>2024-11-10T10:41:33.500Z</time>
      </trkpt>
      <trkpt lat="43.3128" lon="6.56422">
        <ele>261.3</ele>
        <time>2024-11-10T10:41:40Z</time>
      </trkpt>
      <trkpt lat="43.31279" lon="6.56414">
        <ele>262.8</ele>
        <time>2024-11-10T10:41:47.499Z</time>
      </trkpt>
      <trkpt lat="43.31278" lon="6.56405">
        <ele>264.2</ele>
        <time>2024-11-10T10:41:55Z</time>
      </trkpt>
      <trkpt lat="43.31282" lon="6.56399">
        <ele>263.3</ele>
        <time>2024-11-10T10:42:02.000Z</time>
      </trkpt>
      <trkpt lat="43.31285" lon="6.56392">
        <ele>262.5</ele>
        <time>2024-11-10T10:42:09Z</time>
      </trkpt>
      <trkpt lat="43.31285" lon="6.56386">
        <ele>263.5</ele>
        <time>2024-11-10T10:42:16.000Z</time>
      </trkpt>
      <trkpt lat="43.31285" lon="6.56379">
        <ele>264.8</ele>
        <time>2024-11-10T10:42:23Z</time>
      </trkpt>
      <trkpt lat="43.31288" lon="6.56373">
        <ele>264.8</ele>
        <time>2024-11-10T10:42:29.500Z</time>
      </trkpt>
      <trkpt lat="43.31291" lon="6.56366">
        <ele>264.8</ele>
        <time>2024-11-10T10:42:36Z</time>
      </trkpt>
      <trkpt lat="43.31294" lon="6.56361">
        <ele>264.9</ele>
        <time>2024-11-10T10:42:42.000Z</time>
      </trkpt>
      <trkpt lat="43.31296" lon="6.56355">
        <ele>265.4</ele>
        <time>2024-11-10T10:42:48Z</time>
      </trkpt>
      <trkpt lat="43.31298" lon="6.56349">
        <ele>266.6</ele>
        <time>2024-11-10T10:42:54.500Z</time>
      </trkpt>
      <trkpt lat="43.31299" lon="6.56342">
        <ele>267.8</ele>
        <time>2024-11-10T10:43:01Z</time>
      </trkpt>
      <trkpt lat="43.31304" lon="6.56335">
        <ele>268.2</ele>
        <time>2024-11-10T10:43:09.000Z</time>
      </trkpt>
      <trkpt lat="43.31309" lon="6.56327">
        <ele>269.3</ele>
        <time>2024-11-10T10:43:17Z</time>
      </trkpt>
      <trkpt lat="43.31313" lon="6.56321">
        <ele>270.3</ele>
        <time>2024-11-10T10:43:25.000Z</time>
      </trkpt>
      <trkpt lat="43.31316" lon="6.56315">
        <ele>271.2</ele>
        <time>2024-11-10T10:43:33Z</time>
      </trkpt>
      <trkpt lat="43.31319" lon="6.56308">
        <ele>272.4</ele>
        <time>2024-11-10T10:43:40.500Z</time>
      </trkpt>
      <trkpt lat="43.31322" lon="6.56301">
        <ele>273.2</ele>
        <time>2024-11-10T10:43:48Z</time>
      </trkpt>
      <trkpt lat="43.31325" lon="6.56295">
        <ele>273.7</ele>
        <time>2024-11-10T10:43:54.500Z</time>
      </trkpt>
      <trkpt lat="43.31327" lon="6.56289">
        <ele>274.1</ele>
        <time>2024-11-10T10:44:01Z</time>
      </trkpt>
      <trkpt lat="43.31327" lon="6.56281">
        <ele>275.9</ele>
        <time>2024-11-10T10:44:07.499Z</time>
      </trkpt>
      <trkpt lat="43.31326" lon="6.56272">
        <ele>277.5</ele>
        <time>2024-11-10T10:44:14Z</time>
      </trkpt>
      <trkpt lat="43.31328" lon="6.56265">
        <ele>278.1</ele>
        <time>2024-11-10T10:44:21.000Z</time>
      </trkpt>
      <trkpt lat="43.31329" lon="6.56257">
        <ele>278.7</ele>
        <time>2024-11-10T10:44:28Z</time>
      </trkpt>
      <trkpt lat="43.31333" lon="6.56246">
        <ele>278.4</ele>
        <time>2024-11-10T10:44:41Z</time>
      </trkpt>
      <trkpt lat="43.31334" lon="6.56238">
        <ele>278.5</ele>
        <time>2024-11-10T10:44:47.500Z</time>
      </trkpt>
      <trkpt lat="43.31335" lon="6.5623">
        <ele>278.6</ele>
        <time>2024-11-10T10:44:54Z</time>
      </trkpt>
      <trkpt lat="43.31335" lon="6.56223">
        <ele>279.1</ele>
        <time>2024-11-10T10:45:01.000Z</time>
      </trkpt>
      <trkpt lat="43.31335" lon="6.56215">
        <ele>280</ele>
        <time>2024-11-10T10:45:08Z</time>
      </trkpt>
      <trkpt lat="43.31335" lon="6.56208">
        <ele>281.1</ele>
        <time>2024-11-10T10:45:13.999Z</time>
      </trkpt>
      <trkpt lat="43.31334" lon="6.56201">
        <ele>282.1</ele>
        <time>2024-11-10T10:45:20Z</time>
      </trkpt>
      <trkpt lat="43.31333" lon="6.56193">
        <ele>283.2</ele>
        <time>2024-11-10T10:45:26.499Z</time>
      </trkpt>
      <trkpt lat="43.31332" lon="6.56185">
        <ele>284.3</ele>
        <time>2024-11-10T10:45:33Z</time>
      </trkpt>
      <trkpt lat="43.31331" lon="6.56177">
        <ele>285.3</ele>
        <time>2024-11-10T10:45:39.999Z</time>
      </trkpt>
      <trkpt lat="43.3133" lon="6.56169">
        <ele>286.4</ele>
        <time>2024-11-10T10:45:47Z</time>
      </trkpt>
      <trkpt lat="43.31331" lon="6.56162">
        <ele>287.3</ele>
        <time>2024-11-10T10:45:53.000Z</time>
      </trkpt>
      <trkpt lat="43.31331" lon="6.56155">
        <ele>288.5</ele>
        <time>2024-11-10T10:45:59Z</time>
      </trkpt>
      <trkpt lat="43.31334" lon="6.5615">
        <ele>288.7</ele>
        <time>2024-11-10T10:46:05.500Z</time>
      </trkpt>
      <trkpt lat="43.31337" lon="6.56145">
        <ele>290.4</ele>
        <time>2024-11-10T10:46:12Z</time>
      </trkpt>
      <trkpt lat="43.31342" lon="6.56147">
        <ele>290.8</ele>
        <time>2024-11-10T10:46:19.000Z</time>
      </trkpt>
      <trkpt lat="43.31346" lon="6.56149">
        <ele>291</ele>
        <time>2024-11-10T10:46:26Z</time>
      </trkpt>
      <trkpt lat="43.31353" lon="6.5615">
        <ele>291.9</ele>
        <time>2024-11-10T10:46:33.000Z</time>
      </trkpt>
      <trkpt lat="43.3136" lon="6.56151">
        <ele>292.6</ele>
        <time>2024-11-10T10:46:40Z</time>
      </trkpt>
      <trkpt lat="43.31366" lon="6.56152">
        <ele>293</ele>
        <time>2024-11-10T10:46:47.000Z</time>
      </trkpt>
      <trkpt lat="43.31372" lon="6.56153">
        <ele>293.5</ele>
        <time>2024-11-10T10:46:54Z</time>
      </trkpt>
      <trkpt lat="43.31378" lon="6.56152">
        <ele>294.7</ele>
        <time>2024-11-10T10:47:02.000Z</time>
      </trkpt>
      <trkpt lat="43.31384" lon="6.56151">
        <ele>296</ele>
        <time>2024-11-10T10:47:10Z</time>
      </trkpt>
      <trkpt lat="43.3139" lon="6.56149">
        <ele>297.3</ele>
        <time>2024-11-10T10:47:17.000Z</time>
      </trkpt>
      <trkpt lat="43.31396" lon="6.56147">
        <ele>297.8</ele>
        <time>2024-11-10T10:47:24Z</time>
      </trkpt>
      <trkpt lat="43.31401" lon="6.56144">
        <ele>298.7</ele>
        <time>2024-11-10T10:47:30.000Z</time>
      </trkpt>
      <trkpt lat="43.31406" lon="6.56141">
        <ele>299.6</ele>
        <time>2024-11-10T10:47:36Z</time>
      </trkpt>
      <trkpt lat="43.31412" lon="6.5614">
        <ele>300</ele>
        <time>2024-11-10T10:47:42.500Z</time>
      </trkpt>
      <trkpt lat="43.31417" lon="6.56138">
        <ele>300.3</ele>
        <time>2024-11-10T10:47:49Z</time>
      </trkpt>
      <trkpt lat="43.31423" lon="6.56137">
        <ele>300.9</ele>
        <time>2024-11-10T10:47:56.500Z</time>
      </trkpt>
      <trkpt lat="43.31429" lon="6.56135">
        <ele>301.5</ele>
        <time>2024-11-10T10:48:04Z</time>
      </trkpt>
      <trkpt lat="43.31437" lon="6.56134">
        <ele>302.1</ele>
        <time>2024-11-10T10:48:12.000Z</time>
      </trkpt>
      <trkpt lat="43.31444" lon="6.56132">
        <ele>302.7</ele>
        <time>2024-11-10T10:48:20Z</time>
      </trkpt>
      <trkpt lat="43.3145" lon="6.56129">
        <ele>303.5</ele>
        <time>2024-11-10T10:48:27.500Z</time>
      </trkpt>
      <trkpt lat="43.31455" lon="6.56125">
        <ele>304</ele>
        <time>2024-11-10T10:48:35Z</time>
      </trkpt>
      <trkpt lat="43.3146" lon="6.56122">
        <ele>304.4</ele>
        <time>2024-11-10T10:48:41.000Z</time>
      </trkpt>
      <trkpt lat="43.31464" lon="6.56118">
        <ele>304.7</ele>
        <time>2024-11-10T10:48:47Z</time>
      </trkpt>
      <trkpt lat="43.31468" lon="6.56112">
        <ele>305.9</ele>
        <time>2024-11-10T10:48:53.000Z</time>
      </trkpt>
      <trkpt lat="43.31471" lon="6.56105">
        <ele>306.6</ele>
        <time>2024-11-10T10:48:59Z</time>
      </trkpt>
      <trkpt lat="43.31474" lon="6.56099">
        <ele>307.3</ele>
        <time>2024-11-10T10:49:05.000Z</time>
      </trkpt>
      <trkpt lat="43.31476" lon="6.56093">
        <ele>308</ele>
        <time>2024-11-10T10:49:11Z</time>
      </trkpt>
      <trkpt lat="43.31479" lon="6.56088">
        <ele>308.6</ele>
        <time>2024-11-10T10:49:17.500Z</time>
      </trkpt>
      <trkpt lat="43.31482" lon="6.56082">
        <ele>309.2</ele>
        <time>2024-11-10T10:49:24Z</time>
      </trkpt>
      <trkpt lat="43.31487" lon="6.56076">
        <ele>309.8</ele>
        <time>2024-11-10T10:49:31.500Z</time>
      </trkpt>
      <trkpt lat="43.31492" lon="6.5607">
        <ele>310.6</ele>
        <time>2024-11-10T10:49:39Z</time>
      </trkpt>
      <trkpt lat="43.31497" lon="6.56067">
        <ele>311</ele>
        <time>2024-11-10T10:49:45.000Z</time>
      </trkpt>
      <trkpt lat="43.31501" lon="6.56063">
        <ele>311.6</ele>
        <time>2024-11-10T10:49:51Z</time>
      </trkpt>
      <trkpt lat="43.31507" lon="6.5606">
        <ele>312.5</ele>
        <time>2024-11-10T10:49:57.000Z</time>
      </trkpt>
      <trkpt lat="43.31512" lon="6.56056">
        <ele>313.4</ele>
        <time>2024-11-10T10:50:03Z</time>
      </trkpt>
      <trkpt lat="43.31518" lon="6.56056">
        <ele>313.4</ele>
        <time>2024-11-10T10:50:09.500Z</time>
      </trkpt>
      <trkpt lat="43.31523" lon="6.56055">
        <ele>313.3</ele>
        <time>2024-11-10T10:50:16Z</time>
      </trkpt>
      <trkpt lat="43.31529" lon="6.56052">
        <ele>314.1</ele>
        <time>2024-11-10T10:50:23.000Z</time>
      </trkpt>
      <trkpt lat="43.31534" lon="6.56049">
        <ele>315</ele>
        <time>2024-11-10T10:50:30Z</time>
      </trkpt>
      <trkpt lat="43.3154" lon="6.56046">
        <ele>315.8</ele>
        <time>2024-11-10T10:50:36.000Z</time>
      </trkpt>
      <trkpt lat="43.31545" lon="6.56042">
        <ele>316.5</ele>
        <time>2024-11-10T10:50:42Z</time>
      </trkpt>
      <trkpt lat="43.3155" lon="6.56038">
        <ele>317.2</ele>
        <time>2024-11-10T10:50:48.000Z</time>
      </trkpt>
      <trkpt lat="43.31554" lon="6.56034">
        <ele>317.8</ele>
        <time>2024-11-10T10:50:54Z</time>
      </trkpt>
      <trkpt lat="43.31558" lon="6.56031">
        <ele>318.1</ele>
        <time>2024-11-10T10:50:59.500Z</time>
      </trkpt>
      <trkpt lat="43.31562" lon="6.56028">
        <ele>318.5</ele>
        <time>2024-11-10T10:51:05Z</time>
      </trkpt>
      <trkpt lat="43.31566" lon="6.56023">
        <ele>319.5</ele>
        <time>2024-11-10T10:51:11.500Z</time>
      </trkpt>
      <trkpt lat="43.31569" lon="6.56018">
        <ele>320.5</ele>
        <time>2024-11-10T10:51:18Z</time>
      </trkpt>
      <trkpt lat="43.31573" lon="6.56013">
        <ele>321.5</ele>
        <time>2024-11-10T10:51:24.000Z</time>
      </trkpt>
      <trkpt lat="43.31576" lon="6.56007">
        <ele>322.4</ele>
        <time>2024-11-10T10:51:30Z</time>
      </trkpt>
      <trkpt lat="43.3158" lon="6.56002">
        <ele>323.2</ele>
        <time>2024-11-10T10:51:35.500Z</time>
      </trkpt>
      <trkpt lat="43.31583" lon="6.55996">
        <ele>323.8</ele>
        <time>2024-11-10T10:51:41Z</time>
      </trkpt>
      <trkpt lat="43.31587" lon="6.55992">
        <ele>324.1</ele>
        <time>2024-11-10T10:51:46.500Z</time>
      </trkpt>
      <trkpt lat="43.3159" lon="6.55987">
        <ele>324.6</ele>
        <time>2024-11-10T10:51:52Z</time>
      </trkpt>
      <trkpt lat="43.31595" lon="6.55983">
        <ele>324.9</ele>
        <time>2024-11-10T10:51:58.500Z</time>
      </trkpt>
      <trkpt lat="43.31599" lon="6.55979">
        <ele>325.4</ele>
        <time>2024-11-10T10:52:05Z</time>
      </trkpt>
      <trkpt lat="43.31598" lon="6.55973">
        <ele>326.9</ele>
        <time>2024-11-10T10:52:12.499Z</time>
      </trkpt>
      <trkpt lat="43.31597" lon="6.55966">
        <ele>328.1</ele>
        <time>2024-11-10T10:52:20Z</time>
      </trkpt>
      <trkpt lat="43.31593" lon="6.55969">
        <ele>328</ele>
        <time>2024-11-10T10:52:25.499Z</time>
      </trkpt>
      <trkpt lat="43.31589" lon="6.55972">
        <ele>327.6</ele>
        <time>2024-11-10T10:52:31Z</time>
      </trkpt>
      <trkpt lat="43.31584" lon="6.55975">
        <ele>327.5</ele>
        <time>2024-11-10T10:52:37.499Z</time>
      </trkpt>
      <trkpt lat="43.31578" lon="6.55978">
        <ele>328</ele>
        <time>2024-11-10T10:52:44Z</time>
      </trkpt>
      <trkpt lat="43.31573" lon="6.55981">
        <ele>328.6</ele>
        <time>2024-11-10T10:52:49.999Z</time>
      </trkpt>
      <trkpt lat="43.31567" lon="6.55983">
        <ele>329.1</ele>
        <time>2024-11-10T10:52:56Z</time>
      </trkpt>
      <trkpt lat="43.31562" lon="6.55985">
        <ele>329.8</ele>
        <time>2024-11-10T10:53:01.000Z</time>
      </trkpt>
      <trkpt lat="43.31556" lon="6.55986">
        <ele>330.4</ele>
        <time>2024-11-10T10:53:06Z</time>
      </trkpt>
      <trkpt lat="43.31551" lon="6.55988">
        <ele>330.8</ele>
        <time>2024-11-10T10:53:11.000Z</time>
      </trkpt>
      <trkpt lat="43.31546" lon="6.55989">
        <ele>331.1</ele>
        <time>2024-11-10T10:53:16Z</time>
      </trkpt>
      <trkpt lat="43.31542" lon="6.55989">
        <ele>331.8</ele>
        <time>2024-11-10T10:53:21.500Z</time>
      </trkpt>
      <trkpt lat="43.31537" lon="6.55989">
        <ele>332.4</ele>
        <time>2024-11-10T10:53:27Z</time>
      </trkpt>
      <trkpt lat="43.31532" lon="6.55989">
        <ele>333.3</ele>
        <time>2024-11-10T10:53:33.000Z</time>
      </trkpt>
      <trkpt lat="43.31527" lon="6.55988">
        <ele>334</ele>
        <time>2024-11-10T10:53:39Z</time>
      </trkpt>
      <trkpt lat="43.31521" lon="6.55988">
        <ele>334.2</ele>
        <time>2024-11-10T10:53:45.500Z</time>
      </trkpt>
      <trkpt lat="43.31515" lon="6.55988">
        <ele>334.4</ele>
        <time>2024-11-10T10:53:52Z</time>
      </trkpt>
      <trkpt lat="43.3151" lon="6.55988">
        <ele>334.7</ele>
        <time>2024-11-10T10:53:58.000Z</time>
      </trkpt>
      <trkpt lat="43.31505" lon="6.55987">
        <ele>335</ele>
        <time>2024-11-10T10:54:04Z</time>
      </trkpt>
      <trkpt lat="43.315" lon="6.55987">
        <ele>335.4</ele>
        <time>2024-11-10T10:54:10.000Z</time>
      </trkpt>
      <trkpt lat="43.31495" lon="6.55986">
        <ele>336.1</ele>
        <time>2024-11-10T10:54:16Z</time>
      </trkpt>
      <trkpt lat="43.3149" lon="6.55987">
        <ele>336.5</ele>
        <time>2024-11-10T10:54:22.000Z</time>
      </trkpt>
      <trkpt lat="43.31484" lon="6.55987">
        <ele>336.9</ele>
        <time>2024-11-10T10:54:28Z</time>
      </trkpt>
      <trkpt lat="43.31479" lon="6.55987">
        <ele>337.5</ele>
        <time>2024-11-10T10:54:33.000Z</time>
      </trkpt>
      <trkpt lat="43.31474" lon="6.55987">
        <ele>338</ele>
        <time>2024-11-10T10:54:38Z</time>
      </trkpt>
      <trkpt lat="43.3147" lon="6.55987">
        <ele>338.6</ele>
        <time>2024-11-10T10:54:43.500Z</time>
      </trkpt>
      <trkpt lat="43.31465" lon="6.55987">
        <ele>339.3</ele>
        <time>2024-11-10T10:54:49Z</time>
      </trkpt>
      <trkpt lat="43.3146" lon="6.55988">
        <ele>339.8</ele>
        <time>2024-11-10T10:54:54.500Z</time>
      </trkpt>
      <trkpt lat="43.31455" lon="6.55988">
        <ele>340.4</ele>
        <time>2024-11-10T10:55:00Z</time>
      </trkpt>
      <trkpt lat="43.3145" lon="6.55988">
        <ele>341.1</ele>
        <time>2024-11-10T10:55:06.000Z</time>
      </trkpt>
      <trkpt lat="43.31445" lon="6.55988">
        <ele>341.8</ele>
        <time>2024-11-10T10:55:12Z</time>
      </trkpt>
      <trkpt lat="43.3144" lon="6.55988">
        <ele>342.8</ele>
        <time>2024-11-10T10:55:18.000Z</time>
      </trkpt>
      <trkpt lat="43.31435" lon="6.55988">
        <ele>343.8</ele>
        <time>2024-11-10T10:55:24Z</time>
      </trkpt>
      <trkpt lat="43.3143" lon="6.5599">
        <ele>344.2</ele>
        <time>2024-11-10T10:55:29.999Z</time>
      </trkpt>
      <trkpt lat="43.31425" lon="6.55992">
        <ele>344.6</ele>
        <time>2024-11-10T10:55:36Z</time>
      </trkpt>
      <trkpt lat="43.3142" lon="6.55992">
        <ele>345.9</ele>
        <time>2024-11-10T10:55:42.000Z</time>
      </trkpt>
      <trkpt lat="43.31414" lon="6.55991">
        <ele>346.8</ele>
        <time>2024-11-10T10:55:48Z</time>
      </trkpt>
      <trkpt lat="43.31409" lon="6.55991">
        <ele>347.1</ele>
        <time>2024-11-10T10:55:53.500Z</time>
      </trkpt>
      <trkpt lat="43.31404" lon="6.55991">
        <ele>347.4</ele>
        <time>2024-11-10T10:55:59Z</time>
      </trkpt>
      <trkpt lat="43.314" lon="6.55991">
        <ele>347.8</ele>
        <time>2024-11-10T10:56:04.500Z</time>
      </trkpt>
      <trkpt lat="43.31395" lon="6.5599">
        <ele>348.2</ele>
        <time>2024-11-10T10:56:10Z</time>
      </trkpt>
      <trkpt lat="43.3139" lon="6.55989">
        <ele>348.8</ele>
        <time>2024-11-10T10:56:16.000Z</time>
      </trkpt>
      <trkpt lat="43.31385" lon="6.55987">
        <ele>349.2</ele>
        <time>2024-11-10T10:56:22Z</time>
      </trkpt>
      <trkpt lat="43.3138" lon="6.55983">
        <ele>350.2</ele>
        <time>2024-11-10T10:56:27.999Z</time>
      </trkpt>
      <trkpt lat="43.31374" lon="6.55979">
        <ele>351.2</ele>
        <time>2024-11-10T10:56:34Z</time>
      </trkpt>
      <trkpt lat="43.31366" lon="6.55975">
        <ele>352.2</ele>
        <time>2024-11-10T10:56:46Z</time>
      </trkpt>
      <trkpt lat="43.31362" lon="6.55971">
        <ele>353.3</ele>
        <time>2024-11-10T10:56:51.499Z</time>
      </trkpt>
      <trkpt lat="43.31358" lon="6.55967">
        <ele>354.1</ele>
        <time>2024-11-10T10:56:57Z</time>
      </trkpt>
      <trkpt lat="43.31354" lon="6.55963">
        <ele>354.8</ele>
        <time>2024-11-10T10:57:02.999Z</time>
      </trkpt>
      <trkpt lat="43.3135" lon="6.55958">
        <ele>355.6</ele>
        <time>2024-11-10T10:57:09Z</time>
      </trkpt>
      <trkpt lat="43.31346" lon="6.55954">
        <ele>356.3</ele>
        <time>2024-11-10T10:57:14.999Z</time>
      </trkpt>
      <trkpt lat="43.31342" lon="6.55949">
        <ele>356.9</ele>
        <time>2024-11-10T10:57:21Z</time>
      </trkpt>
      <trkpt lat="43.31338" lon="6.55945">
        <ele>357.4</ele>
        <time>2024-11-10T10:57:26.499Z</time>
      </trkpt>
      <trkpt lat="43.31333" lon="6.5594">
        <ele>357.8</ele>
        <time>2024-11-10T10:57:32Z</time>
      </trkpt>
      <trkpt lat="43.3133" lon="6.55935">
        <ele>358.8</ele>
        <time>2024-11-10T10:57:38.499Z</time>
      </trkpt>
      <trkpt lat="43.31326" lon="6.55929">
        <ele>359.8</ele>
        <time>2024-11-10T10:57:45Z</time>
      </trkpt>
      <trkpt lat="43.31324" lon="6.55922">
        <ele>361</ele>
        <time>2024-11-10T10:57:50.999Z</time>
      </trkpt>
      <trkpt lat="43.31321" lon="6.55915">
        <ele>362</ele>
        <time>2024-11-10T10:57:57Z</time>
      </trkpt>
      <trkpt lat="43.31323" lon="6.55907">
        <ele>362.2</ele>
        <time>2024-11-10T10:58:29Z</time>
      </trkpt>
      <trkpt lat="43.31328" lon="6.55897">
        <ele>362.6</ele>
        <time>2024-11-10T10:58:39Z</time>
      </trkpt>
      <trkpt lat="43.31331" lon="6.55892">
        <ele>362.8</ele>
        <time>2024-11-10T10:58:44.500Z</time>
      </trkpt>
      <trkpt lat="43.31334" lon="6.55886">
        <ele>363.1</ele>
        <time>2024-11-10T10:58:50Z</time>
      </trkpt>
      <trkpt lat="43.31339" lon="6.55876">
        <ele>364.3</ele>
        <time>2024-11-10T10:59:02Z</time>
      </trkpt>
      <trkpt lat="43.31343" lon="6.5587">
        <ele>365.2</ele>
        <time>2024-11-10T10:59:08.000Z</time>
      </trkpt>
      <trkpt lat="43.31346" lon="6.55864">
        <ele>366.2</ele>
        <time>2024-11-10T10:59:14Z</time>
      </trkpt>
      <trkpt lat="43.3135" lon="6.5586">
        <ele>367.2</ele>
        <time>2024-11-10T10:59:20.000Z</time>
      </trkpt>
      <trkpt lat="43.31354" lon="6.55855">
        <ele>368</ele>
        <time>2024-11-10T10:59:26Z</time>
      </trkpt>
      <trkpt lat="43.31357" lon="6.55849">
        <ele>368.4</ele>
        <time>2024-11-10T10:59:31.500Z</time>
      </trkpt>
      <trkpt lat="43.3136" lon="6.55843">
        <ele>368.7</ele>
        <time>2024-11-10T10:59:37Z</time>
      </trkpt>
      <trkpt lat="43.31364" lon="6.55837">
        <ele>369.6</ele>
        <time>2024-11-10T10:59:43.000Z</time>
      </trkpt>
      <trkpt lat="43.31367" lon="6.55831">
        <ele>370.7</ele>
        <time>2024-11-10T10:59:49Z</time>
      </trkpt>
      <trkpt lat="43.31372" lon="6.55821">
        <ele>371.8</ele>
        <time>2024-11-10T11:00:01Z</time>
      </trkpt>
      <trkpt lat="43.31376" lon="6.55816">
        <ele>372.7</ele>
        <time>2024-11-10T11:00:07.000Z</time>
      </trkpt>
      <trkpt lat="43.31379" lon="6.55811">
        <ele>373.6</ele>
        <time>2024-11-10T11:00:13Z</time>
      </trkpt>
      <trkpt lat="43.31384" lon="6.55808">
        <ele>375</ele>
        <time>2024-11-10T11:00:19.000Z</time>
      </trkpt>
      <trkpt lat="43.31388" lon="6.55804">
        <ele>376.3</ele>
        <time>2024-11-10T11:00:25Z</time>
      </trkpt>
      <trkpt lat="43.31392" lon="6.55799">
        <ele>376.6</ele>
        <time>2024-11-10T11:00:31.000Z</time>
      </trkpt>
      <trkpt lat="43.31395" lon="6.55794">
        <ele>376.9</ele>
        <time>2024-11-10T11:00:37Z</time>
      </trkpt>
      <trkpt lat="43.314" lon="6.5579">
        <ele>377.7</ele>
        <time>2024-11-10T11:00:43.000Z</time>
      </trkpt>
      <trkpt lat="43.31404" lon="6.55785">
        <ele>378.5</ele>
        <time>2024-11-10T11:00:49Z</time>
      </trkpt>
      <trkpt lat="43.31408" lon="6.55781">
        <ele>379.3</ele>
        <time>2024-11-10T11:00:55.000Z</time>
      </trkpt>
      <trkpt lat="43.31412" lon="6.55777">
        <ele>380</ele>
        <time>2024-11-10T11:01:01Z</time>
      </trkpt>
      <trkpt lat="43.31415" lon="6.55771">
        <ele>379.8</ele>
        <time>2024-11-10T11:01:07.000Z</time>
      </trkpt>
      <trkpt lat="43.31417" lon="6.55764">
        <ele>379.7</ele>
        <time>2024-11-10T11:01:13Z</time>
      </trkpt>
      <trkpt lat="43.31422" lon="6.55761">
        <ele>380.9</ele>
        <time>2024-11-10T11:01:18.500Z</time>
      </trkpt>
      <trkpt lat="43.31426" lon="6.55757">
        <ele>382</ele>
        <time>2024-11-10T11:01:24Z</time>
      </trkpt>
      <trkpt lat="43.3143" lon="6.55753">
        <ele>382.6</ele>
        <time>2024-11-10T11:01:30.000Z</time>
      </trkpt>
      <trkpt lat="43.31433" lon="6.55748">
        <ele>383.2</ele>
        <time>2024-11-10T11:01:36Z</time>
      </trkpt>
      <trkpt lat="43.31436" lon="6.55742">
        <ele>383.2</ele>
        <time>2024-11-10T11:01:42.000Z</time>
      </trkpt>
      <trkpt lat="43.31438" lon="6.55736">
        <ele>383.3</ele>
        <time>2024-11-10T11:01:48Z</time>
      </trkpt>
      <trkpt lat="43.31441" lon="6.55731">
        <ele>383.7</ele>
        <time>2024-11-10T11:01:53.500Z</time>
      </trkpt>
      <trkpt lat="43.31444" lon="6.55725">
        <ele>384.2</ele>
        <time>2024-11-10T11:01:59Z</time>
      </trkpt>
      <trkpt lat="43.31447" lon="6.55719">
        <ele>383.7</ele>
        <time>2024-11-10T11:02:05.500Z</time>
      </trkpt>
      <trkpt lat="43.31449" lon="6.55713">
        <ele>383.2</ele>
        <time>2024-11-10T11:02:12Z</time>
      </trkpt>
      <trkpt lat="43.31453" lon="6.55708">
        <ele>382.7</ele>
        <time>2024-11-10T11:02:18.500Z</time>
      </trkpt>
      <trkpt lat="43.31456" lon="6.55702">
        <ele>382.2</ele>
        <time>2024-11-10T11:02:25Z</time>
      </trkpt>
      <trkpt lat="43.31462" lon="6.55709">
        <ele>383.2</ele>
        <time>2024-11-10T11:02:38Z</time>
      </trkpt>
      <trkpt lat="43.31461" lon="6.55716">
        <ele>383.9</ele>
        <time>2024-11-10T11:02:44.999Z</time>
      </trkpt>
      <trkpt lat="43.31459" lon="6.55722">
        <ele>384.5</ele>
        <time>2024-11-10T11:02:52Z</time>
      </trkpt>
      <trkpt lat="43.31458" lon="6.5573">
        <ele>385.7</ele>
        <time>2024-11-10T11:02:58.499Z</time>
      </trkpt>
      <trkpt lat="43.31457" lon="6.55737">
        <ele>386.8</ele>
        <time>2024-11-10T11:03:05Z</time>
      </trkpt>
      <trkpt lat="43.31455" lon="6.55744">
        <ele>387.8</ele>
        <time>2024-11-10T11:03:11.999Z</time>
      </trkpt>
      <trkpt lat="43.31452" lon="6.55751">
        <ele>388.7</ele>
        <time>2024-11-10T11:03:19Z</time>
      </trkpt>
      <trkpt lat="43.31449" lon="6.55758">
        <ele>389.8</ele>
        <time>2024-11-10T11:03:25.499Z</time>
      </trkpt>
      <trkpt lat="43.31445" lon="6.55764">
        <ele>391</ele>
        <time>2024-11-10T11:03:32Z</time>
      </trkpt>
      <trkpt lat="43.31443" lon="6.55773">
        <ele>392.2</ele>
        <time>2024-11-10T11:03:39.499Z</time>
      </trkpt>
      <trkpt lat="43.31441" lon="6.55781">
        <ele>393</ele>
        <time>2024-11-10T11:03:47Z</time>
      </trkpt>
      <trkpt lat="43.3144" lon="6.55789">
        <ele>393.5</ele>
        <time>2024-11-10T11:03:53.499Z</time>
      </trkpt>
      <trkpt lat="43.31438" lon="6.55796">
        <ele>394.1</ele>
        <time>2024-11-10T11:04:00Z</time>
      </trkpt>
      <trkpt lat="43.31437" lon="6.55803">
        <ele>394.7</ele>
        <time>2024-11-10T11:04:05.999Z</time>
      </trkpt>
      <trkpt lat="43.31435" lon="6.5581">
        <ele>394.9</ele>
        <time>2024-11-10T11:04:12Z</time>
      </trkpt>
      <trkpt lat="43.31435" lon="6.55817">
        <ele>395.3</ele>
        <time>2024-11-10T11:04:18.499Z</time>
      </trkpt>
      <trkpt lat="43.31434" lon="6.55824">
        <ele>395.7</ele>
        <time>2024-11-10T11:04:25Z</time>
      </trkpt>
      <trkpt lat="43.31437" lon="6.5583">
        <ele>396.7</ele>
        <time>2024-11-10T11:04:32.000Z</time>
      </trkpt>
      <trkpt lat="43.31439" lon="6.55835">
        <ele>397.2</ele>
        <time>2024-11-10T11:04:39Z</time>
      </trkpt>
      <trkpt lat="43.31446" lon="6.55834">
        <ele>398.8</ele>
        <time>2024-11-10T11:04:46.000Z</time>
      </trkpt>
      <trkpt lat="43.31452" lon="6.55833">
        <ele>399.3</ele>
        <time>2024-11-10T11:04:53Z</time>
      </trkpt>
      <trkpt lat="43.31454" lon="6.55822">
        <ele>399.1</ele>
        <time>2024-11-10T11:05:05Z</time>
      </trkpt>
      <trkpt lat="43.31456" lon="6.55812">
        <ele>399</ele>
        <time>2024-11-10T11:05:43Z</time>
      </trkpt>
      <trkpt lat="43.31461" lon="6.55809">
        <ele>399.2</ele>
        <time>2024-11-10T11:05:52.500Z</time>
      </trkpt>
      <trkpt lat="43.31465" lon="6.55806">
        <ele>399.5</ele>
        <time>2024-11-10T11:06:02Z</time>
      </trkpt>
      <trkpt lat="43.3147" lon="6.55806">
        <ele>399.8</ele>
        <time>2024-11-10T11:06:16.000Z</time>
      </trkpt>
      <trkpt lat="43.31475" lon="6.55806">
        <ele>398.9</ele>
        <time>2024-11-10T11:06:30Z</time>
      </trkpt>
      <trkpt lat="43.31479" lon="6.55816">
        <ele>397.3</ele>
        <time>2024-11-10T11:07:04Z</time>
      </trkpt>
      <trkpt lat="43.3148" lon="6.55817">
        <ele>396.9</ele>
        <time>2024-11-10T11:08:17Z</time>
      </trkpt>
      <trkpt lat="43.3148" lon="6.55827">
        <ele>396.9</ele>
        <time>2024-11-10T11:08:35Z</time>
      </trkpt>
      <trkpt lat="43.31482" lon="6.5583">
        <ele>396.1</ele>
        <time>2024-11-10T11:09:46Z</time>
      </trkpt>
      <trkpt lat="43.31479" lon="6.5583">
        <ele>397.3</ele>
        <time>2024-11-10T11:12:09Z</time>
      </trkpt>
      <trkpt lat="43.31481" lon="6.55821">
        <ele>396.5</ele>
        <time>2024-11-10T11:13:09Z</time>
      </trkpt>
      <trkpt lat="43.31482" lon="6.55816">
        <ele>396.1</ele>
        <time>2024-11-10T11:13:40Z</time>
      </trkpt>
      <trkpt lat="43.31489" lon="6.55809">
        <ele>393.4</ele>
        <time>2024-11-10T11:13:56Z</time>
      </trkpt>
      <trkpt lat="43.31487" lon="6.55815">
        <ele>394.1</ele>
        <time>2024-11-10T11:14:53Z</time>
      </trkpt>
      <trkpt lat="43.3148" lon="6.55818">
        <ele>396.9</ele>
        <time>2024-11-10T11:15:21Z</time>
      </trkpt>
      <trkpt lat="43.31477" lon="6.55814">
        <ele>398.3</ele>
        <time>2024-11-10T11:15:27.999Z</time>
      </trkpt>
      <trkpt lat="43.31473" lon="6.55809">
        <ele>399.7</ele>
        <time>2024-11-10T11:15:35Z</time>
      </trkpt>
      <trkpt lat="43.31466" lon="6.5581">
        <ele>399.6</ele>
        <time>2024-11-10T11:15:40.000Z</time>
      </trkpt>
      <trkpt lat="43.31459" lon="6.5581">
        <ele>399.1</ele>
        <time>2024-11-10T11:15:45Z</time>
      </trkpt>
      <trkpt lat="43.31455" lon="6.55815">
        <ele>398.9</ele>
        <time>2024-11-10T11:15:49.999Z</time>
      </trkpt>
      <trkpt lat="43.3145" lon="6.5582">
        <ele>398.8</ele>
        <time>2024-11-10T11:15:55Z</time>
      </trkpt>
      <trkpt lat="43.31447" lon="6.55827">
        <ele>398.8</ele>
        <time>2024-11-10T11:16:00.499Z</time>
      </trkpt>
      <trkpt lat="43.31443" lon="6.55833">
        <ele>398.6</ele>
        <time>2024-11-10T11:16:06Z</time>
      </trkpt>
      <trkpt lat="43.31439" lon="6.55832">
        <ele>397.4</ele>
        <time>2024-11-10T11:16:11.500Z</time>
      </trkpt>
      <trkpt lat="43.31434" lon="6.5583">
        <ele>396.1</ele>
        <time>2024-11-10T11:16:17Z</time>
      </trkpt>
      <trkpt lat="43.31432" lon="6.55824">
        <ele>394.9</ele>
        <time>2024-11-10T11:16:22.999Z</time>
      </trkpt>
      <trkpt lat="43.31429" lon="6.55818">
        <ele>393.6</ele>
        <time>2024-11-10T11:16:29Z</time>
      </trkpt>
      <trkpt lat="43.31431" lon="6.55812">
        <ele>393.7</ele>
        <time>2024-11-10T11:16:34.500Z</time>
      </trkpt>
      <trkpt lat="43.31433" lon="6.55806">
        <ele>393.9</ele>
        <time>2024-11-10T11:16:40Z</time>
      </trkpt>
      <trkpt lat="43.31436" lon="6.55799">
        <ele>393.6</ele>
        <time>2024-11-10T11:16:47.500Z</time>
      </trkpt>
      <trkpt lat="43.31438" lon="6.55791">
        <ele>393.3</ele>
        <time>2024-11-10T11:16:55Z</time>
      </trkpt>
      <trkpt lat="43.3144" lon="6.55784">
        <ele>393</ele>
        <time>2024-11-10T11:17:00.000Z</time>
      </trkpt>
      <trkpt lat="43.31442" lon="6.55777">
        <ele>392.8</ele>
        <time>2024-11-10T11:17:05Z</time>
      </trkpt>
      <trkpt lat="43.31444" lon="6.5577">
        <ele>392.1</ele>
        <time>2024-11-10T11:17:09.500Z</time>
      </trkpt>
      <trkpt lat="43.31446" lon="6.55763">
        <ele>390.8</ele>
        <time>2024-11-10T11:17:14Z</time>
      </trkpt>
      <trkpt lat="43.31449" lon="6.55757">
        <ele>389.7</ele>
        <time>2024-11-10T11:17:19.500Z</time>
      </trkpt>
      <trkpt lat="43.31452" lon="6.55751">
        <ele>388.7</ele>
        <time>2024-11-10T11:17:25Z</time>
      </trkpt>
      <trkpt lat="43.31454" lon="6.55745">
        <ele>387.8</ele>
        <time>2024-11-10T11:17:30.000Z</time>
      </trkpt>
      <trkpt lat="43.31456" lon="6.55738">
        <ele>386.9</ele>
        <time>2024-11-10T11:17:35Z</time>
      </trkpt>
      <trkpt lat="43.31458" lon="6.55731">
        <ele>385.9</ele>
        <time>2024-11-10T11:17:40.500Z</time>
      </trkpt>
      <trkpt lat="43.3146" lon="6.55724">
        <ele>384.9</ele>
        <time>2024-11-10T11:17:46Z</time>
      </trkpt>
      <trkpt lat="43.3146" lon="6.55716">
        <ele>383.8</ele>
        <time>2024-11-10T11:17:51.499Z</time>
      </trkpt>
      <trkpt lat="43.31459" lon="6.55707">
        <ele>382.9</ele>
        <time>2024-11-10T11:17:57Z</time>
      </trkpt>
      <trkpt lat="43.31454" lon="6.55707">
        <ele>382.7</ele>
        <time>2024-11-10T11:18:02.500Z</time>
      </trkpt>
      <trkpt lat="43.31449" lon="6.55707">
        <ele>382.5</ele>
        <time>2024-11-10T11:18:08Z</time>
      </trkpt>
      <trkpt lat="43.31446" lon="6.55714">
        <ele>383.1</ele>
        <time>2024-11-10T11:18:12.499Z</time>
      </trkpt>
      <trkpt lat="43.31442" lon="6.5572">
        <ele>382.7</ele>
        <time>2024-11-10T11:18:17Z</time>
      </trkpt>
      <trkpt lat="43.31439" lon="6.55725">
        <ele>381.9</ele>
        <time>2024-11-10T11:18:21.499Z</time>
      </trkpt>
      <trkpt lat="43.31435" lon="6.5573">
        <ele>381.1</ele>
        <time>2024-11-10T11:18:26Z</time>
      </trkpt>
      <trkpt lat="43.31429" lon="6.55739">
        <ele>380.1</ele>
        <time>2024-11-10T11:18:36Z</time>
      </trkpt>
      <trkpt lat="43.31426" lon="6.55745">
        <ele>379.7</ele>
        <time>2024-11-10T11:18:40.999Z</time>
      </trkpt>
      <trkpt lat="43.31422" lon="6.55751">
        <ele>379.3</ele>
        <time>2024-11-10T11:18:46Z</time>
      </trkpt>
      <trkpt lat="43.31418" lon="6.55756">
        <ele>378.4</ele>
        <time>2024-11-10T11:18:50.999Z</time>
      </trkpt>
      <trkpt lat="43.31413" lon="6.55761">
        <ele>377.4</ele>
        <time>2024-11-10T11:18:56Z</time>
      </trkpt>
      <trkpt lat="43.31409" lon="6.55767">
        <ele>376.8</ele>
        <time>2024-11-10T11:19:00.999Z</time>
      </trkpt>
      <trkpt lat="43.31405" lon="6.55772">
        <ele>376.3</ele>
        <time>2024-11-10T11:19:06Z</time>
      </trkpt>
      <trkpt lat="43.31401" lon="6.55776">
        <ele>375.1</ele>
        <time>2024-11-10T11:19:10.999Z</time>
      </trkpt>
      <trkpt lat="43.31396" lon="6.55779">
        <ele>374.1</ele>
        <time>2024-11-10T11:19:16Z</time>
      </trkpt>
      <trkpt lat="43.31392" lon="6.55784">
        <ele>373.4</ele>
        <time>2024-11-10T11:19:21.999Z</time>
      </trkpt>
      <trkpt lat="43.31387" lon="6.55789">
        <ele>372.6</ele>
        <time>2024-11-10T11:19:28Z</time>
      </trkpt>
      <trkpt lat="43.31383" lon="6.55794">
        <ele>371.9</ele>
        <time>2024-11-10T11:19:33.499Z</time>
      </trkpt>
      <trkpt lat="43.31379" lon="6.55798">
        <ele>371.1</ele>
        <time>2024-11-10T11:19:39Z</time>
      </trkpt>
      <trkpt lat="43.31375" lon="6.55806">
        <ele>371.1</ele>
        <time>2024-11-10T11:19:43.999Z</time>
      </trkpt>
      <trkpt lat="43.31371" lon="6.55814">
        <ele>370.4</ele>
        <time>2024-11-10T11:19:49Z</time>
      </trkpt>
      <trkpt lat="43.31368" lon="6.55819">
        <ele>369.4</ele>
        <time>2024-11-10T11:19:53.999Z</time>
      </trkpt>
      <trkpt lat="43.31364" lon="6.55824">
        <ele>368.4</ele>
        <time>2024-11-10T11:19:59Z</time>
      </trkpt>
      <trkpt lat="43.31361" lon="6.55831">
        <ele>367.7</ele>
        <time>2024-11-10T11:20:03.999Z</time>
      </trkpt>
      <trkpt lat="43.31358" lon="6.55837">
        <ele>367.4</ele>
        <time>2024-11-10T11:20:09Z</time>
      </trkpt>
      <trkpt lat="43.31355" lon="6.55843">
        <ele>366.8</ele>
        <time>2024-11-10T11:20:14.499Z</time>
      </trkpt>
      <trkpt lat="43.31351" lon="6.55848">
        <ele>366.3</ele>
        <time>2024-11-10T11:20:20Z</time>
      </trkpt>
      <trkpt lat="43.31348" lon="6.55854">
        <ele>365.8</ele>
        <time>2024-11-10T11:20:24.999Z</time>
      </trkpt>
      <trkpt lat="43.31344" lon="6.55859">
        <ele>365.2</ele>
        <time>2024-11-10T11:20:30Z</time>
      </trkpt>
      <trkpt lat="43.3134" lon="6.55865">
        <ele>364.3</ele>
        <time>2024-11-10T11:20:35.499Z</time>
      </trkpt>
      <trkpt lat="43.31336" lon="6.5587">
        <ele>363.2</ele>
        <time>2024-11-10T11:20:41Z</time>
      </trkpt>
      <trkpt lat="43.31333" lon="6.55878">
        <ele>362.6</ele>
        <time>2024-11-10T11:20:46.499Z</time>
      </trkpt>
      <trkpt lat="43.3133" lon="6.55885">
        <ele>362.7</ele>
        <time>2024-11-10T11:20:52Z</time>
      </trkpt>
      <trkpt lat="43.31327" lon="6.55891">
        <ele>362.7</ele>
        <time>2024-11-10T11:20:56.499Z</time>
      </trkpt>
      <trkpt lat="43.31324" lon="6.55897">
        <ele>362.5</ele>
        <time>2024-11-10T11:21:01Z</time>
      </trkpt>
      <trkpt lat="43.31322" lon="6.55906">
        <ele>362.2</ele>
        <time>2024-11-10T11:21:06.499Z</time>
      </trkpt>
      <trkpt lat="43.31319" lon="6.55914">
        <ele>362</ele>
        <time>2024-11-10T11:21:12Z</time>
      </trkpt>
      <trkpt lat="43.31311" lon="6.55912">
        <ele>362</ele>
        <time>2024-11-10T11:21:35Z</time>
      </trkpt>
      <trkpt lat="43.31306" lon="6.55911">
        <ele>362</ele>
        <time>2024-11-10T11:21:41.000Z</time>
      </trkpt>
      <trkpt lat="43.313" lon="6.55909">
        <ele>362.7</ele>
        <time>2024-11-10T11:21:47Z</time>
      </trkpt>
      <trkpt lat="43.31295" lon="6.55909">
        <ele>363.3</ele>
        <time>2024-11-10T11:21:52.500Z</time>
      </trkpt>
      <trkpt lat="43.31289" lon="6.55909">
        <ele>364</ele>
        <time>2024-11-10T11:21:58Z</time>
      </trkpt>
      <trkpt lat="43.31285" lon="6.55906">
        <ele>364.5</ele>
        <time>2024-11-10T11:22:03.499Z</time>
      </trkpt>
      <trkpt lat="43.31281" lon="6.55903">
        <ele>365.1</ele>
        <time>2024-11-10T11:22:09Z</time>
      </trkpt>
      <trkpt lat="43.31275" lon="6.55902">
        <ele>365.9</ele>
        <time>2024-11-10T11:22:15.000Z</time>
      </trkpt>
      <trkpt lat="43.31269" lon="6.55901">
        <ele>366.8</ele>
        <time>2024-11-10T11:22:21Z</time>
      </trkpt>
      <trkpt lat="43.31264" lon="6.55899">
        <ele>367.5</ele>
        <time>2024-11-10T11:22:27.499Z</time>
      </trkpt>
      <trkpt lat="43.31259" lon="6.55896">
        <ele>368.1</ele>
        <time>2024-11-10T11:22:34Z</time>
      </trkpt>
      <trkpt lat="43.31251" lon="6.55901">
        <ele>369.3</ele>
        <time>2024-11-10T11:22:50Z</time>
      </trkpt>
      <trkpt lat="43.31246" lon="6.55906">
        <ele>369.6</ele>
        <time>2024-11-10T11:22:56.999Z</time>
      </trkpt>
      <trkpt lat="43.3124" lon="6.55911">
        <ele>370.3</ele>
        <time>2024-11-10T11:23:04Z</time>
      </trkpt>
      <trkpt lat="43.31235" lon="6.55915">
        <ele>371.3</ele>
        <time>2024-11-10T11:23:09.499Z</time>
      </trkpt>
      <trkpt lat="43.3123" lon="6.55919">
        <ele>372.4</ele>
        <time>2024-11-10T11:23:15Z</time>
      </trkpt>
      <trkpt lat="43.31225" lon="6.55921">
        <ele>373.3</ele>
        <time>2024-11-10T11:23:21.999Z</time>
      </trkpt>
      <trkpt lat="43.3122" lon="6.55922">
        <ele>374.5</ele>
        <time>2024-11-10T11:23:29Z</time>
      </trkpt>
      <trkpt lat="43.31215" lon="6.55924">
        <ele>376.1</ele>
        <time>2024-11-10T11:23:38.999Z</time>
      </trkpt>
      <trkpt lat="43.3121" lon="6.55926">
        <ele>377.8</ele>
        <time>2024-11-10T11:23:49Z</time>
      </trkpt>
      <trkpt lat="43.31208" lon="6.55935">
        <ele>380.4</ele>
        <time>2024-11-10T11:24:25Z</time>
      </trkpt>
      <trkpt lat="43.31201" lon="6.5593">
        <ele>381.1</ele>
        <time>2024-11-10T11:24:53Z</time>
      </trkpt>
      <trkpt lat="43.31194" lon="6.55933">
        <ele>383.7</ele>
        <time>2024-11-10T11:25:19Z</time>
      </trkpt>
      <trkpt lat="43.31192" lon="6.55944">
        <ele>387</ele>
        <time>2024-11-10T11:25:43Z</time>
      </trkpt>
      <trkpt lat="43.31191" lon="6.55951">
        <ele>387.9</ele>
        <time>2024-11-10T11:25:53.499Z</time>
      </trkpt>
      <trkpt lat="43.31189" lon="6.55957">
        <ele>388.7</ele>
        <time>2024-11-10T11:26:04Z</time>
      </trkpt>
      <trkpt lat="43.31182" lon="6.55962">
        <ele>390.6</ele>
        <time>2024-11-10T11:26:19Z</time>
      </trkpt>
      <trkpt lat="43.31178" lon="6.55965">
        <ele>391.9</ele>
        <time>2024-11-10T11:26:28.499Z</time>
      </trkpt>
      <trkpt lat="43.31174" lon="6.55968">
        <ele>393.3</ele>
        <time>2024-11-10T11:26:38Z</time>
      </trkpt>
      <trkpt lat="43.31169" lon="6.55969">
        <ele>394.5</ele>
        <time>2024-11-10T11:26:45.000Z</time>
      </trkpt>
      <trkpt lat="43.31164" lon="6.55969">
        <ele>394.7</ele>
        <time>2024-11-10T11:26:52Z</time>
      </trkpt>
      <trkpt lat="43.3116" lon="6.55979">
        <ele>395.1</ele>
        <time>2024-11-10T11:27:18Z</time>
      </trkpt>
      <trkpt lat="43.31161" lon="6.55987">
        <ele>395.5</ele>
        <time>2024-11-10T11:28:36Z</time>
      </trkpt>
      <trkpt lat="43.31157" lon="6.55987">
        <ele>395.2</ele>
        <time>2024-11-10T11:29:04Z</time>
      </trkpt>
      <trkpt lat="43.31153" lon="6.5599">
        <ele>395.1</ele>
        <time>2024-11-10T11:29:08.999Z</time>
      </trkpt>
      <trkpt lat="43.31148" lon="6.55993">
        <ele>395.2</ele>
        <time>2024-11-10T11:29:14Z</time>
      </trkpt>
      <trkpt lat="43.31141" lon="6.55998">
        <ele>395.7</ele>
        <time>2024-11-10T11:29:26Z</time>
      </trkpt>
      <trkpt lat="43.31138" lon="6.56004">
        <ele>395.7</ele>
        <time>2024-11-10T11:29:31.999Z</time>
      </trkpt>
      <trkpt lat="43.31134" lon="6.56009">
        <ele>395.2</ele>
        <time>2024-11-10T11:29:38Z</time>
      </trkpt>
      <trkpt lat="43.31134" lon="6.56017">
        <ele>395.4</ele>
        <time>2024-11-10T11:29:45.999Z</time>
      </trkpt>
      <trkpt lat="43.31133" lon="6.56025">
        <ele>395.7</ele>
        <time>2024-11-10T11:29:54Z</time>
      </trkpt>
      <trkpt lat="43.31134" lon="6.56034">
        <ele>396.4</ele>
        <time>2024-11-10T11:30:03.000Z</time>
      </trkpt>
      <trkpt lat="43.31135" lon="6.56043">
        <ele>397.3</ele>
        <time>2024-11-10T11:30:12Z</time>
      </trkpt>
      <trkpt lat="43.31135" lon="6.56051">
        <ele>398</ele>
        <time>2024-11-10T11:30:20.000Z</time>
      </trkpt>
      <trkpt lat="43.31135" lon="6.56059">
        <ele>399.1</ele>
        <time>2024-11-10T11:30:28Z</time>
      </trkpt>
      <trkpt lat="43.31135" lon="6.56066">
        <ele>400.5</ele>
        <time>2024-11-10T11:30:38.499Z</time>
      </trkpt>
      <trkpt lat="43.31134" lon="6.56072">
        <ele>401.8</ele>
        <time>2024-11-10T11:30:49Z</time>
      </trkpt>
      <trkpt lat="43.31135" lon="6.5608">
        <ele>403.2</ele>
        <time>2024-11-10T11:30:57.500Z</time>
      </trkpt>
      <trkpt lat="43.31136" lon="6.56087">
        <ele>404.6</ele>
        <time>2024-11-10T11:31:06Z</time>
      </trkpt>
      <trkpt lat="43.31135" lon="6.56097">
        <ele>406.3</ele>
        <time>2024-11-10T11:31:31Z</time>
      </trkpt>
      <trkpt lat="43.31136" lon="6.56104">
        <ele>407.4</ele>
        <time>2024-11-10T11:31:41.500Z</time>
      </trkpt>
      <trkpt lat="43.31136" lon="6.56111">
        <ele>408.7</ele>
        <time>2024-11-10T11:31:52Z</time>
      </trkpt>
      <trkpt lat="43.31135" lon="6.56112">
        <ele>408.6</ele>
        <time>2024-11-10T11:32:20Z</time>
      </trkpt>
      <trkpt lat="43.31129" lon="6.56119">
        <ele>408.4</ele>
        <time>2024-11-10T11:32:41Z</time>
      </trkpt>
      <trkpt lat="43.31135" lon="6.56123">
        <ele>409.1</ele>
        <time>2024-11-10T11:33:07Z</time>
      </trkpt>
      <trkpt lat="43.31129" lon="6.56131">
        <ele>409.2</ele>
        <time>2024-11-10T11:33:21Z</time>
      </trkpt>
      <trkpt lat="43.31125" lon="6.56141">
        <ele>408.9</ele>
        <time>2024-11-10T11:33:37Z</time>
      </trkpt>
      <trkpt lat="43.31121" lon="6.56145">
        <ele>407.9</ele>
        <time>2024-11-10T11:33:48.499Z</time>
      </trkpt>
      <trkpt lat="43.31117" lon="6.56148">
        <ele>407.3</ele>
        <time>2024-11-10T11:34:00Z</time>
      </trkpt>
      <trkpt lat="43.31116" lon="6.56155">
        <ele>406</ele>
        <time>2024-11-10T11:34:34.499Z</time>
      </trkpt>
      <trkpt lat="43.31115" lon="6.56161">
        <ele>405</ele>
        <time>2024-11-10T11:35:09Z</time>
      </trkpt>
      <trkpt lat="43.31114" lon="6.56151">
        <ele>407</ele>
        <time>2024-11-10T11:36:03Z</time>
      </trkpt>
      <trkpt lat="43.31115" lon="6.56152">
        <ele>406.7</ele>
        <time>2024-11-10T11:40:04Z</time>
      </trkpt>
      <trkpt lat="43.31115" lon="6.56151">
        <ele>406.8</ele>
        <time>2024-11-10T11:41:02Z</time>
      </trkpt>
      <trkpt lat="43.31119" lon="6.56148">
        <ele>407.3</ele>
        <time>2024-11-10T11:41:28.500Z</time>
      </trkpt>
      <trkpt lat="43.31123" lon="6.56144">
        <ele>408</ele>
        <time>2024-11-10T11:41:55Z</time>
      </trkpt>
      <trkpt lat="43.31127" lon="6.56141">
        <ele>409</ele>
        <time>2024-11-10T11:42:03.000Z</time>
      </trkpt>
      <trkpt lat="43.31131" lon="6.56137">
        <ele>409.6</ele>
        <time>2024-11-10T11:42:11Z</time>
      </trkpt>
      <trkpt lat="43.31133" lon="6.56126">
        <ele>409.1</ele>
        <time>2024-11-10T11:42:23Z</time>
      </trkpt>
      <trkpt lat="43.31131" lon="6.56116">
        <ele>408.4</ele>
        <time>2024-11-10T11:42:44Z</time>
      </trkpt>
      <trkpt lat="43.31137" lon="6.56116">
        <ele>409</ele>
        <time>2024-11-10T11:44:01Z</time>
      </trkpt>
      <trkpt lat="43.31135" lon="6.56114">
        <ele>408.7</ele>
        <time>2024-11-10T11:46:11Z</time>
      </trkpt>
      <trkpt lat="43.31135" lon="6.56114">
        <ele>408.7</ele>
        <time>2024-11-10T11:50:28Z</time>
      </trkpt>
      <trkpt lat="43.31136" lon="6.56112">
        <ele>408.7</ele>
        <time>2024-11-10T11:56:07Z</time>
      </trkpt>
      <trkpt lat="43.31137" lon="6.56113">
        <ele>408.9</ele>
        <time>2024-11-10T12:01:07Z</time>
      </trkpt>
      <trkpt lat="43.31137" lon="6.56114">
        <ele>408.9</ele>
        <time>2024-11-10T12:04:28Z</time>
      </trkpt>
      <trkpt lat="43.31136" lon="6.56116">
        <ele>408.9</ele>
        <time>2024-11-10T12:08:38Z</time>
      </trkpt>
      <trkpt lat="43.31136" lon="6.56117">
        <ele>408.9</ele>
        <time>2024-11-10T12:14:49Z</time>
      </trkpt>
      <trkpt lat="43.31133" lon="6.56115">
        <ele>408.6</ele>
        <time>2024-11-10T12:19:20Z</time>
      </trkpt>
      <trkpt lat="43.3114" lon="6.56108">
        <ele>407.6</ele>
        <time>2024-11-10T12:19:45Z</time>
      </trkpt>
      <trkpt lat="43.31139" lon="6.56102">
        <ele>407.2</ele>
        <time>2024-11-10T12:19:55.499Z</time>
      </trkpt>
      <trkpt lat="43.31137" lon="6.56095">
        <ele>406</ele>
        <time>2024-11-10T12:20:06Z</time>
      </trkpt>
      <trkpt lat="43.31136" lon="6.56088">
        <ele>404.8</ele>
        <time>2024-11-10T12:20:14.499Z</time>
      </trkpt>
      <trkpt lat="43.31135" lon="6.56081">
        <ele>403.5</ele>
        <time>2024-11-10T12:20:23Z</time>
      </trkpt>
      <trkpt lat="43.31136" lon="6.56074">
        <ele>402.1</ele>
        <time>2024-11-10T12:20:32.000Z</time>
      </trkpt>
      <trkpt lat="43.31136" lon="6.56067">
        <ele>400.7</ele>
        <time>2024-11-10T12:20:41Z</time>
      </trkpt>
      <trkpt lat="43.31136" lon="6.56061">
        <ele>399.3</ele>
        <time>2024-11-10T12:20:53.000Z</time>
      </trkpt>
      <trkpt lat="43.31136" lon="6.56054">
        <ele>398.2</ele>
        <time>2024-11-10T12:21:05Z</time>
      </trkpt>
      <trkpt lat="43.31135" lon="6.56048">
        <ele>397.8</ele>
        <time>2024-11-10T12:21:12.999Z</time>
      </trkpt>
      <trkpt lat="43.31133" lon="6.56042">
        <ele>397.2</ele>
        <time>2024-11-10T12:21:21Z</time>
      </trkpt>
      <trkpt lat="43.31133" lon="6.56034">
        <ele>396.4</ele>
        <time>2024-11-10T12:21:28.999Z</time>
      </trkpt>
      <trkpt lat="43.31132" lon="6.56025">
        <ele>395.6</ele>
        <time>2024-11-10T12:21:37Z</time>
      </trkpt>
      <trkpt lat="43.31133" lon="6.56013">
        <ele>395.2</ele>
        <time>2024-11-10T12:21:50Z</time>
      </trkpt>
      <trkpt lat="43.31138" lon="6.56003">
        <ele>395.8</ele>
        <time>2024-11-10T12:22:09Z</time>
      </trkpt>
      <trkpt lat="43.31143" lon="6.56">
        <ele>395.9</ele>
        <time>2024-11-10T12:22:16.500Z</time>
      </trkpt>
      <trkpt lat="43.31147" lon="6.55996">
        <ele>395.5</ele>
        <time>2024-11-10T12:22:24Z</time>
      </trkpt>
      <trkpt lat="43.31152" lon="6.55994">
        <ele>395.4</ele>
        <time>2024-11-10T12:22:30.000Z</time>
      </trkpt>
      <trkpt lat="43.31157" lon="6.55991">
        <ele>395.4</ele>
        <time>2024-11-10T12:22:36Z</time>
      </trkpt>
      <trkpt lat="43.31154" lon="6.55987">
        <ele>394.9</ele>
        <time>2024-11-10T12:22:48.499Z</time>
      </trkpt>
      <trkpt lat="43.3115" lon="6.55983">
        <ele>394.2</ele>
        <time>2024-11-10T12:23:01Z</time>
      </trkpt>
      <trkpt lat="43.31145" lon="6.55984">
        <ele>393.6</ele>
        <time>2024-11-10T12:23:07.500Z</time>
      </trkpt>
      <trkpt lat="43.31139" lon="6.55984">
        <ele>393.1</ele>
        <time>2024-11-10T12:23:14Z</time>
      </trkpt>
      <trkpt lat="43.31135" lon="6.55984">
        <ele>392.1</ele>
        <time>2024-11-10T12:23:23.000Z</time>
      </trkpt>
      <trkpt lat="43.3113" lon="6.55983">
        <ele>391</ele>
        <time>2024-11-10T12:23:32Z</time>
      </trkpt>
      <trkpt lat="43.31125" lon="6.55981">
        <ele>389.6</ele>
        <time>2024-11-10T12:23:42.499Z</time>
      </trkpt>
      <trkpt lat="43.3112" lon="6.55979">
        <ele>388.1</ele>
        <time>2024-11-10T12:23:53Z</time>
      </trkpt>
      <trkpt lat="43.31116" lon="6.5598">
        <ele>387.3</ele>
        <time>2024-11-10T12:24:01.000Z</time>
      </trkpt>
      <trkpt lat="43.31111" lon="6.5598">
        <ele>386.4</ele>
        <time>2024-11-10T12:24:09Z</time>
      </trkpt>
      <trkpt lat="43.31107" lon="6.55985">
        <ele>385.6</ele>
        <time>2024-11-10T12:24:16.999Z</time>
      </trkpt>
      <trkpt lat="43.31102" lon="6.5599">
        <ele>384.9</ele>
        <time>2024-11-10T12:24:25Z</time>
      </trkpt>
      <trkpt lat="43.31098" lon="6.55994">
        <ele>384</ele>
        <time>2024-11-10T12:24:36.499Z</time>
      </trkpt>
      <trkpt lat="43.31093" lon="6.55998">
        <ele>383.1</ele>
        <time>2024-11-10T12:24:48Z</time>
      </trkpt>
      <trkpt lat="43.31088" lon="6.56001">
        <ele>381.8</ele>
        <time>2024-11-10T12:24:58.999Z</time>
      </trkpt>
      <trkpt lat="43.31083" lon="6.56003">
        <ele>380.7</ele>
        <time>2024-11-10T12:25:10Z</time>
      </trkpt>
      <trkpt lat="43.31078" lon="6.56004">
        <ele>379</ele>
        <time>2024-11-10T12:25:22.500Z</time>
      </trkpt>
      <trkpt lat="43.31072" lon="6.56005">
        <ele>377.2</ele>
        <time>2024-11-10T12:25:35Z</time>
      </trkpt>
      <trkpt lat="43.31067" lon="6.56009">
        <ele>376.2</ele>
        <time>2024-11-10T12:25:43.499Z</time>
      </trkpt>
      <trkpt lat="43.31062" lon="6.56012">
        <ele>375.1</ele>
        <time>2024-11-10T12:25:52Z</time>
      </trkpt>
      <trkpt lat="43.31057" lon="6.56012">
        <ele>373</ele>
        <time>2024-11-10T12:26:02.500Z</time>
      </trkpt>
      <trkpt lat="43.31051" lon="6.56012">
        <ele>370.9</ele>
        <time>2024-11-10T12:26:13Z</time>
      </trkpt>
      <trkpt lat="43.31045" lon="6.56017">
        <ele>369.5</ele>
        <time>2024-11-10T12:26:20.999Z</time>
      </trkpt>
      <trkpt lat="43.31039" lon="6.56021">
        <ele>368.1</ele>
        <time>2024-11-10T12:26:29Z</time>
      </trkpt>
      <trkpt lat="43.31035" lon="6.5603">
        <ele>368.1</ele>
        <time>2024-11-10T12:26:34.999Z</time>
      </trkpt>
      <trkpt lat="43.3103" lon="6.56038">
        <ele>368.1</ele>
        <time>2024-11-10T12:26:41Z</time>
      </trkpt>
      <trkpt lat="43.31027" lon="6.56043">
        <ele>368</ele>
        <time>2024-11-10T12:26:48.999Z</time>
      </trkpt>
      <trkpt lat="43.31024" lon="6.56048">
        <ele>367.7</ele>
        <time>2024-11-10T12:26:57Z</time>
      </trkpt>
      <trkpt lat="43.31018" lon="6.56052">
        <ele>366</ele>
        <time>2024-11-10T12:27:23Z</time>
      </trkpt>
      <trkpt lat="43.31014" lon="6.56058">
        <ele>365.4</ele>
        <time>2024-11-10T12:27:28.999Z</time>
      </trkpt>
      <trkpt lat="43.3101" lon="6.56063">
        <ele>364.8</ele>
        <time>2024-11-10T12:27:35Z</time>
      </trkpt>
      <trkpt lat="43.31007" lon="6.56068">
        <ele>364.4</ele>
        <time>2024-11-10T12:27:41.499Z</time>
      </trkpt>
      <trkpt lat="43.31004" lon="6.56073">
        <ele>364</ele>
        <time>2024-11-10T12:27:48Z</time>
      </trkpt>
      <trkpt lat="43.31001" lon="6.56079">
        <ele>363.6</ele>
        <time>2024-11-10T12:27:53.499Z</time>
      </trkpt>
      <trkpt lat="43.30998" lon="6.56084">
        <ele>363.3</ele>
        <time>2024-11-10T12:27:59Z</time>
      </trkpt>
      <trkpt lat="43.30994" lon="6.56087">
        <ele>361.8</ele>
        <time>2024-11-10T12:28:06.999Z</time>
      </trkpt>
      <trkpt lat="43.3099" lon="6.5609">
        <ele>360.3</ele>
        <time>2024-11-10T12:28:15Z</time>
      </trkpt>
      <trkpt lat="43.30986" lon="6.56092">
        <ele>358.7</ele>
        <time>2024-11-10T12:28:22.999Z</time>
      </trkpt>
      <trkpt lat="43.30981" lon="6.56093">
        <ele>357.1</ele>
        <time>2024-11-10T12:28:31Z</time>
      </trkpt>
      <trkpt lat="43.30976" lon="6.56092">
        <ele>355.6</ele>
        <time>2024-11-10T12:28:40.000Z</time>
      </trkpt>
      <trkpt lat="43.30971" lon="6.56091">
        <ele>354.2</ele>
        <time>2024-11-10T12:28:49Z</time>
      </trkpt>
      <trkpt lat="43.30967" lon="6.56092">
        <ele>353</ele>
        <time>2024-11-10T12:28:55.000Z</time>
      </trkpt>
      <trkpt lat="43.30962" lon="6.56092">
        <ele>351.9</ele>
        <time>2024-11-10T12:29:01Z</time>
      </trkpt>
      <trkpt lat="43.30958" lon="6.56095">
        <ele>350.8</ele>
        <time>2024-11-10T12:29:12.499Z</time>
      </trkpt>
      <trkpt lat="43.30954" lon="6.56098">
        <ele>349.7</ele>
        <time>2024-11-10T12:29:24Z</time>
      </trkpt>
      <trkpt lat="43.30949" lon="6.56097">
        <ele>348.6</ele>
        <time>2024-11-10T12:29:33.000Z</time>
      </trkpt>
      <trkpt lat="43.30944" lon="6.56096">
        <ele>347.4</ele>
        <time>2024-11-10T12:29:42Z</time>
      </trkpt>
      <trkpt lat="43.30941" lon="6.56101">
        <ele>346.2</ele>
        <time>2024-11-10T12:29:49.999Z</time>
      </trkpt>
      <trkpt lat="43.30938" lon="6.56106">
        <ele>344.9</ele>
        <time>2024-11-10T12:29:58Z</time>
      </trkpt>
      <trkpt lat="43.30935" lon="6.56117">
        <ele>342.6</ele>
        <time>2024-11-10T12:30:15Z</time>
      </trkpt>
      <trkpt lat="43.30934" lon="6.56117">
        <ele>342.3</ele>
        <time>2024-11-10T12:32:05Z</time>
      </trkpt>
      <trkpt lat="43.30931" lon="6.5612">
        <ele>340.9</ele>
        <time>2024-11-10T12:33:09Z</time>
      </trkpt>
      <trkpt lat="43.30927" lon="6.5612">
        <ele>339.4</ele>
        <time>2024-11-10T12:33:20.000Z</time>
      </trkpt>
      <trkpt lat="43.30922" lon="6.5612">
        <ele>338</ele>
        <time>2024-11-10T12:33:31Z</time>
      </trkpt>
      <trkpt lat="43.30917" lon="6.56124">
        <ele>336.2</ele>
        <time>2024-11-10T12:33:49Z</time>
      </trkpt>
      <trkpt lat="43.30914" lon="6.5613">
        <ele>334.9</ele>
        <time>2024-11-10T12:33:55.499Z</time>
      </trkpt>
      <trkpt lat="43.3091" lon="6.56135">
        <ele>333.8</ele>
        <time>2024-11-10T12:34:02Z</time>
      </trkpt>
      <trkpt lat="43.30906" lon="6.56145">
        <ele>331.6</ele>
        <time>2024-11-10T12:34:12Z</time>
      </trkpt>
      <trkpt lat="43.30899" lon="6.56141">
        <ele>330.9</ele>
        <time>2024-11-10T12:34:27Z</time>
      </trkpt>
      <trkpt lat="43.30896" lon="6.56147">
        <ele>329.6</ele>
        <time>2024-11-10T12:34:31.999Z</time>
      </trkpt>
      <trkpt lat="43.30893" lon="6.56152">
        <ele>328.6</ele>
        <time>2024-11-10T12:34:37Z</time>
      </trkpt>
      <trkpt lat="43.30888" lon="6.56155">
        <ele>327.8</ele>
        <time>2024-11-10T12:34:41.499Z</time>
      </trkpt>
      <trkpt lat="43.30882" lon="6.56157">
        <ele>327.3</ele>
        <time>2024-11-10T12:34:46Z</time>
      </trkpt>
      <trkpt lat="43.30878" lon="6.56159">
        <ele>326.9</ele>
        <time>2024-11-10T12:34:51.500Z</time>
      </trkpt>
      <trkpt lat="43.30873" lon="6.5616">
        <ele>326.6</ele>
        <time>2024-11-10T12:34:57Z</time>
      </trkpt>
      <trkpt lat="43.30868" lon="6.56163">
        <ele>326.3</ele>
        <time>2024-11-10T12:35:02.499Z</time>
      </trkpt>
      <trkpt lat="43.30862" lon="6.56165">
        <ele>326</ele>
        <time>2024-11-10T12:35:08Z</time>
      </trkpt>
      <trkpt lat="43.30857" lon="6.56169">
        <ele>325.9</ele>
        <time>2024-11-10T12:35:13.999Z</time>
      </trkpt>
      <trkpt lat="43.30851" lon="6.56172">
        <ele>325.6</ele>
        <time>2024-11-10T12:35:20Z</time>
      </trkpt>
      <trkpt lat="43.30844" lon="6.56166">
        <ele>326.6</ele>
        <time>2024-11-10T12:35:29Z</time>
      </trkpt>
      <trkpt lat="43.30839" lon="6.56168">
        <ele>326.7</ele>
        <time>2024-11-10T12:35:33.500Z</time>
      </trkpt>
      <trkpt lat="43.30833" lon="6.56169">
        <ele>326.7</ele>
        <time>2024-11-10T12:35:38Z</time>
      </trkpt>
      <trkpt lat="43.30825" lon="6.56173">
        <ele>326.2</ele>
        <time>2024-11-10T12:35:46Z</time>
      </trkpt>
      <trkpt lat="43.30818" lon="6.56173">
        <ele>326.3</ele>
        <time>2024-11-10T12:35:55Z</time>
      </trkpt>
      <trkpt lat="43.30813" lon="6.56176">
        <ele>326.4</ele>
        <time>2024-11-10T12:36:00.999Z</time>
      </trkpt>
      <trkpt lat="43.30807" lon="6.56179">
        <ele>326.8</ele>
        <time>2024-11-10T12:36:07Z</time>
      </trkpt>
      <trkpt lat="43.30802" lon="6.56178">
        <ele>326.4</ele>
        <time>2024-11-10T12:36:15.499Z</time>
      </trkpt>
      <trkpt lat="43.30796" lon="6.56176">
        <ele>325.8</ele>
        <time>2024-11-10T12:36:24Z</time>
      </trkpt>
      <trkpt lat="43.30793" lon="6.56181">
        <ele>325.9</ele>
        <time>2024-11-10T12:36:29.999Z</time>
      </trkpt>
      <trkpt lat="43.3079" lon="6.56186">
        <ele>326.1</ele>
        <time>2024-11-10T12:36:36Z</time>
      </trkpt>
      <trkpt lat="43.30785" lon="6.56188">
        <ele>325.8</ele>
        <time>2024-11-10T12:36:42.999Z</time>
      </trkpt>
      <trkpt lat="43.3078" lon="6.56189">
        <ele>325.6</ele>
        <time>2024-11-10T12:36:50Z</time>
      </trkpt>
      <trkpt lat="43.30776" lon="6.56188">
        <ele>324.9</ele>
        <time>2024-11-10T12:36:56.999Z</time>
      </trkpt>
      <trkpt lat="43.30771" lon="6.56186">
        <ele>324</ele>
        <time>2024-11-10T12:37:04Z</time>
      </trkpt>
      <trkpt lat="43.30766" lon="6.56186">
        <ele>323.2</ele>
        <time>2024-11-10T12:37:10.000Z</time>
      </trkpt>
      <trkpt lat="43.30761" lon="6.56186">
        <ele>322.4</ele>
        <time>2024-11-10T12:37:16Z</time>
      </trkpt>
      <trkpt lat="43.30755" lon="6.56192">
        <ele>321.8</ele>
        <time>2024-11-10T12:37:32Z</time>
      </trkpt>
      <trkpt lat="43.30747" lon="6.56192">
        <ele>320</ele>
        <time>2024-11-10T12:40:09Z</time>
      </trkpt>
      <trkpt lat="43.30743" lon="6.56196">
        <ele>318.8</ele>
        <time>2024-11-10T12:40:16.499Z</time>
      </trkpt>
      <trkpt lat="43.30739" lon="6.562">
        <ele>317.2</ele>
        <time>2024-11-10T12:40:24Z</time>
      </trkpt>
      <trkpt lat="43.30735" lon="6.56198">
        <ele>316.1</ele>
        <time>2024-11-10T12:40:30.499Z</time>
      </trkpt>
      <trkpt lat="43.3073" lon="6.56195">
        <ele>315.2</ele>
        <time>2024-11-10T12:40:37Z</time>
      </trkpt>
      <trkpt lat="43.30725" lon="6.56198">
        <ele>313.4</ele>
        <time>2024-11-10T12:40:42.999Z</time>
      </trkpt>
      <trkpt lat="43.3072" lon="6.562">
        <ele>311.6</ele>
        <time>2024-11-10T12:40:49Z</time>
      </trkpt>
      <trkpt lat="43.30716" lon="6.56201">
        <ele>310.2</ele>
        <time>2024-11-10T12:40:57.500Z</time>
      </trkpt>
      <trkpt lat="43.30711" lon="6.56201">
        <ele>308.9</ele>
        <time>2024-11-10T12:41:06Z</time>
      </trkpt>
      <trkpt lat="43.30707" lon="6.56199">
        <ele>307.9</ele>
        <time>2024-11-10T12:41:12.999Z</time>
      </trkpt>
      <trkpt lat="43.30702" lon="6.56197">
        <ele>306.9</ele>
        <time>2024-11-10T12:41:20Z</time>
      </trkpt>
      <trkpt lat="43.30696" lon="6.56203">
        <ele>304.5</ele>
        <time>2024-11-10T12:41:33Z</time>
      </trkpt>
      <trkpt lat="43.30693" lon="6.56209">
        <ele>303.3</ele>
        <time>2024-11-10T12:41:38.999Z</time>
      </trkpt>
      <trkpt lat="43.3069" lon="6.56215">
        <ele>302.3</ele>
        <time>2024-11-10T12:41:45Z</time>
      </trkpt>
      <trkpt lat="43.30687" lon="6.56224">
        <ele>301</ele>
        <time>2024-11-10T12:41:55Z</time>
      </trkpt>
      <trkpt lat="43.30686" lon="6.56231">
        <ele>299.9</ele>
        <time>2024-11-10T12:42:00.499Z</time>
      </trkpt>
      <trkpt lat="43.30685" lon="6.56237">
        <ele>298.8</ele>
        <time>2024-11-10T12:42:06Z</time>
      </trkpt>
      <trkpt lat="43.30679" lon="6.56246">
        <ele>296.3</ele>
        <time>2024-11-10T12:42:28Z</time>
      </trkpt>
      <trkpt lat="43.30675" lon="6.5625">
        <ele>294.7</ele>
        <time>2024-11-10T12:42:34.999Z</time>
      </trkpt>
      <trkpt lat="43.3067" lon="6.56254">
        <ele>293</ele>
        <time>2024-11-10T12:42:42Z</time>
      </trkpt>
      <trkpt lat="43.30668" lon="6.56263">
        <ele>290.9</ele>
        <time>2024-11-10T12:42:49.499Z</time>
      </trkpt>
      <trkpt lat="43.30666" lon="6.56272">
        <ele>289</ele>
        <time>2024-11-10T12:42:57Z</time>
      </trkpt>
      <trkpt lat="43.30668" lon="6.5628">
        <ele>288</ele>
        <time>2024-11-10T12:43:03.500Z</time>
      </trkpt>
      <trkpt lat="43.3067" lon="6.56287">
        <ele>287.2</ele>
        <time>2024-11-10T12:43:10Z</time>
      </trkpt>
      <trkpt lat="43.30672" lon="6.56294">
        <ele>286.3</ele>
        <time>2024-11-10T12:43:15.500Z</time>
      </trkpt>
      <trkpt lat="43.30673" lon="6.563">
        <ele>285.4</ele>
        <time>2024-11-10T12:43:21Z</time>
      </trkpt>
      <trkpt lat="43.30674" lon="6.56308">
        <ele>283.9</ele>
        <time>2024-11-10T12:43:27.000Z</time>
      </trkpt>
      <trkpt lat="43.30675" lon="6.56316">
        <ele>282</ele>
        <time>2024-11-10T12:43:33Z</time>
      </trkpt>
      <trkpt lat="43.30673" lon="6.56322">
        <ele>280.3</ele>
        <time>2024-11-10T12:43:43.499Z</time>
      </trkpt>
      <trkpt lat="43.3067" lon="6.56328">
        <ele>278.6</ele>
        <time>2024-11-10T12:43:54Z</time>
      </trkpt>
      <trkpt lat="43.30673" lon="6.56338">
        <ele>275.9</ele>
        <time>2024-11-10T12:44:16Z</time>
      </trkpt>
      <trkpt lat="43.3067" lon="6.56346">
        <ele>273.1</ele>
        <time>2024-11-10T12:44:24.999Z</time>
      </trkpt>
      <trkpt lat="43.30667" lon="6.56354">
        <ele>270.3</ele>
        <time>2024-11-10T12:44:34Z</time>
      </trkpt>
      <trkpt lat="43.30668" lon="6.56364">
        <ele>266.9</ele>
        <time>2024-11-10T12:44:59Z</time>
      </trkpt>
      <trkpt lat="43.30664" lon="6.56368">
        <ele>264.8</ele>
        <time>2024-11-10T12:45:06.499Z</time>
      </trkpt>
      <trkpt lat="43.3066" lon="6.56372">
        <ele>262.7</ele>
        <time>2024-11-10T12:45:14Z</time>
      </trkpt>
      <trkpt lat="43.30656" lon="6.56375">
        <ele>261</ele>
        <time>2024-11-10T12:45:22.999Z</time>
      </trkpt>
      <trkpt lat="43.30652" lon="6.56378">
        <ele>259.3</ele>
        <time>2024-11-10T12:45:32Z</time>
      </trkpt>
      <trkpt lat="43.30644" lon="6.56383">
        <ele>256.5</ele>
        <time>2024-11-10T12:45:50Z</time>
      </trkpt>
      <trkpt lat="43.30639" lon="6.56383">
        <ele>255.9</ele>
        <time>2024-11-10T12:45:58.500Z</time>
      </trkpt>
      <trkpt lat="43.30634" lon="6.56383">
        <ele>254.3</ele>
        <time>2024-11-10T12:46:07Z</time>
      </trkpt>
      <trkpt lat="43.30632" lon="6.56388">
        <ele>252.1</ele>
        <time>2024-11-10T12:46:29Z</time>
      </trkpt>
      <trkpt lat="43.30629" lon="6.56387">
        <ele>251.4</ele>
        <time>2024-11-10T12:47:13Z</time>
      </trkpt>
      <trkpt lat="43.30625" lon="6.56386">
        <ele>250.3</ele>
        <time>2024-11-10T12:47:21.000Z</time>
      </trkpt>
      <trkpt lat="43.3062" lon="6.56385">
        <ele>249.1</ele>
        <time>2024-11-10T12:47:29Z</time>
      </trkpt>
      <trkpt lat="43.30614" lon="6.56385">
        <ele>247.2</ele>
        <time>2024-11-10T12:47:35.000Z</time>
      </trkpt>
      <trkpt lat="43.30608" lon="6.56385">
        <ele>245.1</ele>
        <time>2024-11-10T12:47:41Z</time>
      </trkpt>
      <trkpt lat="43.30602" lon="6.5638">
        <ele>244.6</ele>
        <time>2024-11-10T12:47:57Z</time>
      </trkpt>
      <trkpt lat="43.30594" lon="6.56385">
        <ele>240.1</ele>
        <time>2024-11-10T12:48:33Z</time>
      </trkpt>
      <trkpt lat="43.30589" lon="6.56385">
        <ele>238.3</ele>
        <time>2024-11-10T12:48:44.000Z</time>
      </trkpt>
      <trkpt lat="43.30584" lon="6.56385">
        <ele>236.5</ele>
        <time>2024-11-10T12:48:55Z</time>
      </trkpt>
      <trkpt lat="43.30577" lon="6.56382">
        <ele>236.4</ele>
        <time>2024-11-10T12:49:36Z</time>
      </trkpt>
      <trkpt lat="43.30574" lon="6.56378">
        <ele>237.6</ele>
        <time>2024-11-10T12:49:42.499Z</time>
      </trkpt>
      <trkpt lat="43.3057" lon="6.56373">
        <ele>238.8</ele>
        <time>2024-11-10T12:49:49Z</time>
      </trkpt>
      <trkpt lat="43.30567" lon="6.56369">
        <ele>240.1</ele>
        <time>2024-11-10T12:49:57.999Z</time>
      </trkpt>
      <trkpt lat="43.30563" lon="6.56364">
        <ele>241.4</ele>
        <time>2024-11-10T12:50:07Z</time>
      </trkpt>
      <trkpt lat="43.30559" lon="6.56364">
        <ele>241.3</ele>
        <time>2024-11-10T12:50:14.500Z</time>
      </trkpt>
      <trkpt lat="43.30554" lon="6.56363">
        <ele>241.2</ele>
        <time>2024-11-10T12:50:22Z</time>
      </trkpt>
      <trkpt lat="43.30549" lon="6.56366">
        <ele>239.9</ele>
        <time>2024-11-10T12:50:28.999Z</time>
      </trkpt>
      <trkpt lat="43.30543" lon="6.56369">
        <ele>238.6</ele>
        <time>2024-11-10T12:50:36Z</time>
      </trkpt>
      <trkpt lat="43.30538" lon="6.56371">
        <ele>237.9</ele>
        <time>2024-11-10T12:50:40.500Z</time>
      </trkpt>
      <trkpt lat="43.30533" lon="6.56372">
        <ele>237.2</ele>
        <time>2024-11-10T12:50:45Z</time>
      </trkpt>
      <trkpt lat="43.30528" lon="6.56373">
        <ele>236.9</ele>
        <time>2024-11-10T12:50:50.000Z</time>
      </trkpt>
      <trkpt lat="43.30523" lon="6.56373">
        <ele>236.7</ele>
        <time>2024-11-10T12:50:55Z</time>
      </trkpt>
      <trkpt lat="43.30518" lon="6.56375">
        <ele>236.2</ele>
        <time>2024-11-10T12:50:59.500Z</time>
      </trkpt>
      <trkpt lat="43.30513" lon="6.56376">
        <ele>235.6</ele>
        <time>2024-11-10T12:51:04Z</time>
      </trkpt>
      <trkpt lat="43.30507" lon="6.56377">
        <ele>235.5</ele>
        <time>2024-11-10T12:51:08.500Z</time>
      </trkpt>
      <trkpt lat="43.305" lon="6.56377">
        <ele>235.3</ele>
        <time>2024-11-10T12:51:13Z</time>
      </trkpt>
      <trkpt lat="43.30495" lon="6.56377">
        <ele>234.9</ele>
        <time>2024-11-10T12:51:17.500Z</time>
      </trkpt>
      <trkpt lat="43.3049" lon="6.56376">
        <ele>234.6</ele>
        <time>2024-11-10T12:51:22Z</time>
      </trkpt>
      <trkpt lat="43.30485" lon="6.56375">
        <ele>234.4</ele>
        <time>2024-11-10T12:51:27.000Z</time>
      </trkpt>
      <trkpt lat="43.3048" lon="6.56374">
        <ele>234.2</ele>
        <time>2024-11-10T12:51:32Z</time>
      </trkpt>
      <trkpt lat="43.30474" lon="6.56372">
        <ele>234.5</ele>
        <time>2024-11-10T12:51:36.499Z</time>
      </trkpt>
      <trkpt lat="43.30468" lon="6.56369">
        <ele>234.3</ele>
        <time>2024-11-10T12:51:41Z</time>
      </trkpt>
      <trkpt lat="43.30463" lon="6.56367">
        <ele>234.1</ele>
        <time>2024-11-10T12:51:45.499Z</time>
      </trkpt>
      <trkpt lat="43.30458" lon="6.56364">
        <ele>233.9</ele>
        <time>2024-11-10T12:51:50Z</time>
      </trkpt>
      <trkpt lat="43.30454" lon="6.56361">
        <ele>234.2</ele>
        <time>2024-11-10T12:51:54.499Z</time>
      </trkpt>
      <trkpt lat="43.30449" lon="6.56357">
        <ele>234.4</ele>
        <time>2024-11-10T12:51:59Z</time>
      </trkpt>
      <trkpt lat="43.30445" lon="6.56354">
        <ele>234.6</ele>
        <time>2024-11-10T12:52:02.999Z</time>
      </trkpt>
      <trkpt lat="43.30441" lon="6.5635">
        <ele>234.7</ele>
        <time>2024-11-10T12:52:07Z</time>
      </trkpt>
      <trkpt lat="43.30437" lon="6.56347">
        <ele>234.4</ele>
        <time>2024-11-10T12:52:11.999Z</time>
      </trkpt>
      <trkpt lat="43.30432" lon="6.56344">
        <ele>234</ele>
        <time>2024-11-10T12:52:17Z</time>
      </trkpt>
      <trkpt lat="43.30428" lon="6.56341">
        <ele>233.5</ele>
        <time>2024-11-10T12:52:21.999Z</time>
      </trkpt>
      <trkpt lat="43.30423" lon="6.56338">
        <ele>232.9</ele>
        <time>2024-11-10T12:52:27Z</time>
      </trkpt>
      <trkpt lat="43.30419" lon="6.56335">
        <ele>232.3</ele>
        <time>2024-11-10T12:52:31.999Z</time>
      </trkpt>
      <trkpt lat="43.30414" lon="6.56331">
        <ele>231.7</ele>
        <time>2024-11-10T12:52:37Z</time>
      </trkpt>
      <trkpt lat="43.30409" lon="6.56328">
        <ele>230.8</ele>
        <time>2024-11-10T12:52:41.999Z</time>
      </trkpt>
      <trkpt lat="43.30403" lon="6.56325">
        <ele>229.9</ele>
        <time>2024-11-10T12:52:47Z</time>
      </trkpt>
      <trkpt lat="43.30399" lon="6.56324">
        <ele>228.9</ele>
        <time>2024-11-10T12:52:52.999Z</time>
      </trkpt>
      <trkpt lat="43.30394" lon="6.56322">
        <ele>227.9</ele>
        <time>2024-11-10T12:52:59Z</time>
      </trkpt>
      <trkpt lat="43.30389" lon="6.5632">
        <ele>227</ele>
        <time>2024-11-10T12:53:03.499Z</time>
      </trkpt>
      <trkpt lat="43.30384" lon="6.56317">
        <ele>227</ele>
        <time>2024-11-10T12:53:08Z</time>
      </trkpt>
      <trkpt lat="43.30376" lon="6.56318">
        <ele>225.9</ele>
        <time>2024-11-10T12:53:18Z</time>
      </trkpt>
      <trkpt lat="43.30371" lon="6.56321">
        <ele>224.8</ele>
        <time>2024-11-10T12:53:23.999Z</time>
      </trkpt>
      <trkpt lat="43.30366" lon="6.56323">
        <ele>223.8</ele>
        <time>2024-11-10T12:53:30Z</time>
      </trkpt>
      <trkpt lat="43.30361" lon="6.56323">
        <ele>223.3</ele>
        <time>2024-11-10T12:53:36.000Z</time>
      </trkpt>
      <trkpt lat="43.30356" lon="6.56322">
        <ele>223</ele>
        <time>2024-11-10T12:53:42Z</time>
      </trkpt>
      <trkpt lat="43.30352" lon="6.56322">
        <ele>222.6</ele>
        <time>2024-11-10T12:53:50.000Z</time>
      </trkpt>
      <trkpt lat="43.30347" lon="6.56321">
        <ele>222.3</ele>
        <time>2024-11-10T12:53:58Z</time>
      </trkpt>
      <trkpt lat="43.30342" lon="6.56323">
        <ele>221.6</ele>
        <time>2024-11-10T12:54:04.000Z</time>
      </trkpt>
      <trkpt lat="43.30337" lon="6.56324">
        <ele>221</ele>
        <time>2024-11-10T12:54:10Z</time>
      </trkpt>
      <trkpt lat="43.30329" lon="6.56323">
        <ele>219.9</ele>
        <time>2024-11-10T12:54:22Z</time>
      </trkpt>
      <trkpt lat="43.30324" lon="6.56324">
        <ele>219</ele>
        <time>2024-11-10T12:54:29.500Z</time>
      </trkpt>
      <trkpt lat="43.30319" lon="6.56325">
        <ele>218.1</ele>
        <time>2024-11-10T12:54:37Z</time>
      </trkpt>
      <trkpt lat="43.30314" lon="6.56327">
        <ele>217.2</ele>
        <time>2024-11-10T12:54:43.000Z</time>
      </trkpt>
      <trkpt lat="43.30309" lon="6.56328">
        <ele>216.4</ele>
        <time>2024-11-10T12:54:49Z</time>
      </trkpt>
      <trkpt lat="43.30305" lon="6.56324">
        <ele>215.5</ele>
        <time>2024-11-10T12:54:55.499Z</time>
      </trkpt>
      <trkpt lat="43.30301" lon="6.5632">
        <ele>214.4</ele>
        <time>2024-11-10T12:55:02Z</time>
      </trkpt>
      <trkpt lat="43.30302" lon="6.56311">
        <ele>214.2</ele>
        <time>2024-11-10T12:55:12.500Z</time>
      </trkpt>
      <trkpt lat="43.30303" lon="6.56302">
        <ele>213.9</ele>
        <time>2024-11-10T12:55:23Z</time>
      </trkpt>
      <trkpt lat="43.30303" lon="6.56294">
        <ele>213</ele>
        <time>2024-11-10T12:55:28.500Z</time>
      </trkpt>
      <trkpt lat="43.30303" lon="6.56285">
        <ele>212.1</ele>
        <time>2024-11-10T12:55:34Z</time>
      </trkpt>
      <trkpt lat="43.30302" lon="6.56277">
        <ele>210.9</ele>
        <time>2024-11-10T12:55:41.999Z</time>
      </trkpt>
      <trkpt lat="43.303" lon="6.56269">
        <ele>209.8</ele>
        <time>2024-11-10T12:55:50Z</time>
      </trkpt>
      <trkpt lat="43.303" lon="6.56263">
        <ele>209.1</ele>
        <time>2024-11-10T12:55:55.999Z</time>
      </trkpt>
      <trkpt lat="43.30299" lon="6.56256">
        <ele>208.4</ele>
        <time>2024-11-10T12:56:02Z</time>
      </trkpt>
      <trkpt lat="43.30299" lon="6.56248">
        <ele>207.8</ele>
        <time>2024-11-10T12:56:07.500Z</time>
      </trkpt>
      <trkpt lat="43.30299" lon="6.5624">
        <ele>207.7</ele>
        <time>2024-11-10T12:56:13Z</time>
      </trkpt>
      <trkpt lat="43.30299" lon="6.56233">
        <ele>207.4</ele>
        <time>2024-11-10T12:56:17.999Z</time>
      </trkpt>
      <trkpt lat="43.30298" lon="6.56225">
        <ele>207.1</ele>
        <time>2024-11-10T12:56:23Z</time>
      </trkpt>
      <trkpt lat="43.30298" lon="6.56218">
        <ele>206.7</ele>
        <time>2024-11-10T12:56:31.000Z</time>
      </trkpt>
      <trkpt lat="43.30298" lon="6.5621">
        <ele>206.2</ele>
        <time>2024-11-10T12:56:39Z</time>
      </trkpt>
      <trkpt lat="43.30298" lon="6.5621">
        <ele>206.2</ele>
        <time>2024-11-10T12:59:41Z</time>
      </trkpt>
      <trkpt lat="43.303" lon="6.56203">
        <ele>206.6</ele>
        <time>2024-11-10T13:00:30.000Z</time>
      </trkpt>
      <trkpt lat="43.30302" lon="6.56196">
        <ele>206.8</ele>
        <time>2024-11-10T13:01:19Z</time>
      </trkpt>
      <trkpt lat="43.30305" lon="6.5619">
        <ele>207</ele>
        <time>2024-11-10T13:01:24.500Z</time>
      </trkpt>
      <trkpt lat="43.30307" lon="6.56184">
        <ele>206.9</ele>
        <time>2024-11-10T13:01:30Z</time>
      </trkpt>
      <trkpt lat="43.3031" lon="6.56179">
        <ele>207</ele>
        <time>2024-11-10T13:01:35.000Z</time>
      </trkpt>
      <trkpt lat="43.30313" lon="6.56173">
        <ele>207.1</ele>
        <time>2024-11-10T13:01:40Z</time>
      </trkpt>
      <trkpt lat="43.30314" lon="6.56167">
        <ele>206.4</ele>
        <time>2024-11-10T13:01:45.500Z</time>
      </trkpt>
      <trkpt lat="43.30315" lon="6.5616">
        <ele>205.8</ele>
        <time>2024-11-10T13:01:51Z</time>
      </trkpt>
      <trkpt lat="43.30317" lon="6.56153">
        <ele>205.5</ele>
        <time>2024-11-10T13:01:56.000Z</time>
      </trkpt>
      <trkpt lat="43.30319" lon="6.56146">
        <ele>205.3</ele>
        <time>2024-11-10T13:02:01Z</time>
      </trkpt>
      <trkpt lat="43.30321" lon="6.5614">
        <ele>205</ele>
        <time>2024-11-10T13:02:06.000Z</time>
      </trkpt>
      <trkpt lat="43.30322" lon="6.56134">
        <ele>204.4</ele>
        <time>2024-11-10T13:02:11Z</time>
      </trkpt>
      <trkpt lat="43.30324" lon="6.56128">
        <ele>204</ele>
        <time>2024-11-10T13:02:16.000Z</time>
      </trkpt>
      <trkpt lat="43.30326" lon="6.56122">
        <ele>203.6</ele>
        <time>2024-11-10T13:02:21Z</time>
      </trkpt>
      <trkpt lat="43.30329" lon="6.56116">
        <ele>203.4</ele>
        <time>2024-11-10T13:02:27.500Z</time>
      </trkpt>
      <trkpt lat="43.30332" lon="6.56109">
        <ele>203.2</ele>
        <time>2024-11-10T13:02:34Z</time>
      </trkpt>
      <trkpt lat="43.30336" lon="6.56102">
        <ele>203.1</ele>
        <time>2024-11-10T13:02:40.500Z</time>
      </trkpt>
      <trkpt lat="43.30339" lon="6.56094">
        <ele>203.1</ele>
        <time>2024-11-10T13:02:47Z</time>
      </trkpt>
      <trkpt lat="43.30342" lon="6.56087">
        <ele>203.1</ele>
        <time>2024-11-10T13:02:52.500Z</time>
      </trkpt>
      <trkpt lat="43.30345" lon="6.5608">
        <ele>203</ele>
        <time>2024-11-10T13:02:58Z</time>
      </trkpt>
      <trkpt lat="43.30348" lon="6.56073">
        <ele>202.7</ele>
        <time>2024-11-10T13:03:03.500Z</time>
      </trkpt>
      <trkpt lat="43.30351" lon="6.56065">
        <ele>202.3</ele>
        <time>2024-11-10T13:03:09Z</time>
      </trkpt>
      <trkpt lat="43.30353" lon="6.56058">
        <ele>201.3</ele>
        <time>2024-11-10T13:03:14.500Z</time>
      </trkpt>
      <trkpt lat="43.30354" lon="6.5605">
        <ele>200.4</ele>
        <time>2024-11-10T13:03:20Z</time>
      </trkpt>
      <trkpt lat="43.30356" lon="6.56043">
        <ele>199.8</ele>
        <time>2024-11-10T13:03:25.500Z</time>
      </trkpt>
      <trkpt lat="43.30358" lon="6.56036">
        <ele>199.3</ele>
        <time>2024-11-10T13:03:31Z</time>
      </trkpt>
      <trkpt lat="43.30359" lon="6.56029">
        <ele>198.4</ele>
        <time>2024-11-10T13:03:36.000Z</time>
      </trkpt>
      <trkpt lat="43.3036" lon="6.56022">
        <ele>197.5</ele>
        <time>2024-11-10T13:03:41Z</time>
      </trkpt>
      <trkpt lat="43.30362" lon="6.56016">
        <ele>196.9</ele>
        <time>2024-11-10T13:03:46.000Z</time>
      </trkpt>
      <trkpt lat="43.30363" lon="6.56009">
        <ele>196.3</ele>
        <time>2024-11-10T13:03:51Z</time>
      </trkpt>
      <trkpt lat="43.30366" lon="6.56003">
        <ele>196.1</ele>
        <time>2024-11-10T13:03:55.500Z</time>
      </trkpt>
      <trkpt lat="43.30369" lon="6.55996">
        <ele>195.7</ele>
        <time>2024-11-10T13:04:00Z</time>
      </trkpt>
      <trkpt lat="43.30372" lon="6.5599">
        <ele>195.2</ele>
        <time>2024-11-10T13:04:04.500Z</time>
      </trkpt>
      <trkpt lat="43.30375" lon="6.55984">
        <ele>194.8</ele>
        <time>2024-11-10T13:04:09Z</time>
      </trkpt>
      <trkpt lat="43.30379" lon="6.55979">
        <ele>194.6</ele>
        <time>2024-11-10T13:04:14.000Z</time>
      </trkpt>
      <trkpt lat="43.30382" lon="6.55974">
        <ele>194.4</ele>
        <time>2024-11-10T13:04:19Z</time>
      </trkpt>
      <trkpt lat="43.30386" lon="6.5597">
        <ele>194.2</ele>
        <time>2024-11-10T13:04:23.500Z</time>
      </trkpt>
      <trkpt lat="43.30389" lon="6.55965">
        <ele>193.7</ele>
        <time>2024-11-10T13:04:28Z</time>
      </trkpt>
      <trkpt lat="43.30395" lon="6.55956">
        <ele>192.7</ele>
        <time>2024-11-10T13:04:37Z</time>
      </trkpt>
      <trkpt lat="43.30399" lon="6.55951">
        <ele>192.1</ele>
        <time>2024-11-10T13:04:41.500Z</time>
      </trkpt>
      <trkpt lat="43.30402" lon="6.55946">
        <ele>191.3</ele>
        <time>2024-11-10T13:04:46Z</time>
      </trkpt>
      <trkpt lat="43.30405" lon="6.55941">
        <ele>190.5</ele>
        <time>2024-11-10T13:04:50.500Z</time>
      </trkpt>
      <trkpt lat="43.30408" lon="6.55936">
        <ele>189.7</ele>
        <time>2024-11-10T13:04:55Z</time>
      </trkpt>
      <trkpt lat="43.30412" lon="6.55931">
        <ele>189.2</ele>
        <time>2024-11-10T13:05:00.000Z</time>
      </trkpt>
      <trkpt lat="43.30416" lon="6.55926">
        <ele>188.8</ele>
        <time>2024-11-10T13:05:05Z</time>
      </trkpt>
      <trkpt lat="43.30421" lon="6.55923">
        <ele>188.5</ele>
        <time>2024-11-10T13:05:09.500Z</time>
      </trkpt>
      <trkpt lat="43.30425" lon="6.55919">
        <ele>188</ele>
        <time>2024-11-10T13:05:14Z</time>
      </trkpt>
      <trkpt lat="43.30429" lon="6.55916">
        <ele>187.5</ele>
        <time>2024-11-10T13:05:18.500Z</time>
      </trkpt>
      <trkpt lat="43.30433" lon="6.55913">
        <ele>186.9</ele>
        <time>2024-11-10T13:05:23Z</time>
      </trkpt>
      <trkpt lat="43.30438" lon="6.55911">
        <ele>186.8</ele>
        <time>2024-11-10T13:05:27.000Z</time>
      </trkpt>
      <trkpt lat="43.30442" lon="6.55909">
        <ele>186.6</ele>
        <time>2024-11-10T13:05:31Z</time>
      </trkpt>
      <trkpt lat="43.30448" lon="6.55902">
        <ele>184.3</ele>
        <time>2024-11-10T13:05:49Z</time>
      </trkpt>
      <trkpt lat="43.30453" lon="6.55899">
        <ele>183.4</ele>
        <time>2024-11-10T13:05:55.000Z</time>
      </trkpt>
      <trkpt lat="43.30457" lon="6.55896">
        <ele>182.5</ele>
        <time>2024-11-10T13:06:01Z</time>
      </trkpt>
      <trkpt lat="43.30462" lon="6.55894">
        <ele>181.9</ele>
        <time>2024-11-10T13:06:07.000Z</time>
      </trkpt>
      <trkpt lat="43.30467" lon="6.55891">
        <ele>181.3</ele>
        <time>2024-11-10T13:06:13Z</time>
      </trkpt>
      <trkpt lat="43.30472" lon="6.5589">
        <ele>181.3</ele>
        <time>2024-11-10T13:06:18.500Z</time>
      </trkpt>
      <trkpt lat="43.30477" lon="6.55889">
        <ele>181</ele>
        <time>2024-11-10T13:06:24Z</time>
      </trkpt>
      <trkpt lat="43.30482" lon="6.55887">
        <ele>180.3</ele>
        <time>2024-11-10T13:06:29.500Z</time>
      </trkpt>
      <trkpt lat="43.30486" lon="6.55885">
        <ele>179.7</ele>
        <time>2024-11-10T13:06:35Z</time>
      </trkpt>
      <trkpt lat="43.30491" lon="6.55883">
        <ele>179</ele>
        <time>2024-11-10T13:06:48.000Z</time>
      </trkpt>
      <trkpt lat="43.30495" lon="6.55881">
        <ele>178.4</ele>
        <time>2024-11-10T13:07:01Z</time>
      </trkpt>
      <trkpt lat="43.30503" lon="6.55876">
        <ele>177</ele>
        <time>2024-11-10T13:07:15Z</time>
      </trkpt>
      <trkpt lat="43.30511" lon="6.55872">
        <ele>176.2</ele>
        <time>2024-11-10T13:07:30Z</time>
      </trkpt>
      <trkpt lat="43.30516" lon="6.55872">
        <ele>176.4</ele>
        <time>2024-11-10T13:07:38.000Z</time>
      </trkpt>
      <trkpt lat="43.30521" lon="6.55871">
        <ele>176.5</ele>
        <time>2024-11-10T13:07:46Z</time>
      </trkpt>
      <trkpt lat="43.30528" lon="6.5587">
        <ele>176.5</ele>
        <time>2024-11-10T13:07:58Z</time>
      </trkpt>
      <trkpt lat="43.30532" lon="6.5587">
        <ele>176.7</ele>
        <time>2024-11-10T13:08:22Z</time>
      </trkpt>
      <trkpt lat="43.30539" lon="6.55865">
        <ele>175</ele>
        <time>2024-11-10T13:08:35Z</time>
      </trkpt>
      <trkpt lat="43.30544" lon="6.55863">
        <ele>174.1</ele>
        <time>2024-11-10T13:08:40.000Z</time>
      </trkpt>
      <trkpt lat="43.30548" lon="6.5586">
        <ele>173.4</ele>
        <time>2024-11-10T13:08:45Z</time>
      </trkpt>
      <trkpt lat="43.30552" lon="6.55857">
        <ele>172.5</ele>
        <time>2024-11-10T13:08:50.000Z</time>
      </trkpt>
      <trkpt lat="43.30556" lon="6.55854">
        <ele>171.8</ele>
        <time>2024-11-10T13:08:55Z</time>
      </trkpt>
      <trkpt lat="43.3056" lon="6.55851">
        <ele>171.4</ele>
        <time>2024-11-10T13:09:00.000Z</time>
      </trkpt>
      <trkpt lat="43.30564" lon="6.55847">
        <ele>170.9</ele>
        <time>2024-11-10T13:09:05Z</time>
      </trkpt>
      <trkpt lat="43.30568" lon="6.55842">
        <ele>170</ele>
        <time>2024-11-10T13:09:10.500Z</time>
      </trkpt>
      <trkpt lat="43.30572" lon="6.55837">
        <ele>169.1</ele>
        <time>2024-11-10T13:09:16Z</time>
      </trkpt>
      <trkpt lat="43.3058" lon="6.55833">
        <ele>169.3</ele>
        <time>2024-11-10T13:09:33Z</time>
      </trkpt>
      <trkpt lat="43.30582" lon="6.55827">
        <ele>168.6</ele>
        <time>2024-11-10T13:10:07Z</time>
      </trkpt>
      <trkpt lat="43.30584" lon="6.55823">
        <ele>168.3</ele>
        <time>2024-11-10T13:10:31Z</time>
      </trkpt>
      <trkpt lat="43.30584" lon="6.55827">
        <ele>169</ele>
        <time>2024-11-10T13:11:52Z</time>
      </trkpt>
      <trkpt lat="43.30586" lon="6.55823">
        <ele>168.9</ele>
        <time>2024-11-10T13:12:55Z</time>
      </trkpt>
      <trkpt lat="43.30584" lon="6.55829">
        <ele>169.4</ele>
        <time>2024-11-10T13:14:07Z</time>
      </trkpt>
      <trkpt lat="43.30586" lon="6.55825">
        <ele>169.2</ele>
        <time>2024-11-10T13:14:37Z</time>
      </trkpt>
      <trkpt lat="43.30587" lon="6.55817">
        <ele>168</ele>
        <time>2024-11-10T13:14:43.000Z</time>
      </trkpt>
      <trkpt lat="43.30587" lon="6.55808">
        <ele>166.8</ele>
        <time>2024-11-10T13:14:49Z</time>
      </trkpt>
      <trkpt lat="43.30587" lon="6.55801">
        <ele>166.5</ele>
        <time>2024-11-10T13:14:54.499Z</time>
      </trkpt>
      <trkpt lat="43.30586" lon="6.55794">
        <ele>166.6</ele>
        <time>2024-11-10T13:15:00Z</time>
      </trkpt>
      <trkpt lat="43.30588" lon="6.55782">
        <ele>168</ele>
        <time>2024-11-10T13:15:09Z</time>
      </trkpt>
      <trkpt lat="43.30591" lon="6.55776">
        <ele>169.3</ele>
        <time>2024-11-10T13:15:14.000Z</time>
      </trkpt>
      <trkpt lat="43.30594" lon="6.5577">
        <ele>169.8</ele>
        <time>2024-11-10T13:15:19Z</time>
      </trkpt>
      <trkpt lat="43.30598" lon="6.55764">
        <ele>170.4</ele>
        <time>2024-11-10T13:15:24.000Z</time>
      </trkpt>
      <trkpt lat="43.30601" lon="6.55758">
        <ele>170.8</ele>
        <time>2024-11-10T13:15:29Z</time>
      </trkpt>
      <trkpt lat="43.30605" lon="6.55752">
        <ele>171</ele>
        <time>2024-11-10T13:15:34.000Z</time>
      </trkpt>
      <trkpt lat="43.30608" lon="6.55746">
        <ele>171</ele>
        <time>2024-11-10T13:15:39Z</time>
      </trkpt>
      <trkpt lat="43.30613" lon="6.55741">
        <ele>171.6</ele>
        <time>2024-11-10T13:15:44.000Z</time>
      </trkpt>
      <trkpt lat="43.30617" lon="6.55736">
        <ele>172.3</ele>
        <time>2024-11-10T13:15:49Z</time>
      </trkpt>
      <trkpt lat="43.30622" lon="6.55731">
        <ele>172.7</ele>
        <time>2024-11-10T13:15:54.000Z</time>
      </trkpt>
      <trkpt lat="43.30626" lon="6.55726">
        <ele>172.9</ele>
        <time>2024-11-10T13:15:59Z</time>
      </trkpt>
      <trkpt lat="43.3063" lon="6.55723">
        <ele>173.2</ele>
        <time>2024-11-10T13:16:03.500Z</time>
      </trkpt>
      <trkpt lat="43.30634" lon="6.55719">
        <ele>173.5</ele>
        <time>2024-11-10T13:16:08Z</time>
      </trkpt>
      <trkpt lat="43.30638" lon="6.55715">
        <ele>173.6</ele>
        <time>2024-11-10T13:16:12.500Z</time>
      </trkpt>
      <trkpt lat="43.30642" lon="6.55711">
        <ele>173.8</ele>
        <time>2024-11-10T13:16:17Z</time>
      </trkpt>
      <trkpt lat="43.30647" lon="6.55707">
        <ele>173.9</ele>
        <time>2024-11-10T13:16:21.500Z</time>
      </trkpt>
      <trkpt lat="43.30651" lon="6.55703">
        <ele>173.9</ele>
        <time>2024-11-10T13:16:26Z</time>
      </trkpt>
      <trkpt lat="43.30656" lon="6.557">
        <ele>174</ele>
        <time>2024-11-10T13:16:30.500Z</time>
      </trkpt>
      <trkpt lat="43.3066" lon="6.55696">
        <ele>173.9</ele>
        <time>2024-11-10T13:16:35Z</time>
      </trkpt>
      <trkpt lat="43.30664" lon="6.55692">
        <ele>173.7</ele>
        <time>2024-11-10T13:16:39.500Z</time>
      </trkpt>
      <trkpt lat="43.30668" lon="6.55688">
        <ele>173.9</ele>
        <time>2024-11-10T13:16:44Z</time>
      </trkpt>
      <trkpt lat="43.30672" lon="6.55682">
        <ele>173.8</ele>
        <time>2024-11-10T13:16:48.500Z</time>
      </trkpt>
      <trkpt lat="43.30676" lon="6.55676">
        <ele>173.7</ele>
        <time>2024-11-10T13:16:53Z</time>
      </trkpt>
      <trkpt lat="43.3068" lon="6.55671">
        <ele>173.7</ele>
        <time>2024-11-10T13:16:57.500Z</time>
      </trkpt>
      <trkpt lat="43.30683" lon="6.55666">
        <ele>173.7</ele>
        <time>2024-11-10T13:17:02Z</time>
      </trkpt>
      <trkpt lat="43.30686" lon="6.5566">
        <ele>173.5</ele>
        <time>2024-11-10T13:17:07.000Z</time>
      </trkpt>
      <trkpt lat="43.30689" lon="6.55653">
        <ele>173.2</ele>
        <time>2024-11-10T13:17:12Z</time>
      </trkpt>
      <trkpt lat="43.30693" lon="6.55648">
        <ele>173.5</ele>
        <time>2024-11-10T13:17:16.500Z</time>
      </trkpt>
      <trkpt lat="43.30697" lon="6.55643">
        <ele>174</ele>
        <time>2024-11-10T13:17:21Z</time>
      </trkpt>
      <trkpt lat="43.30701" lon="6.55638">
        <ele>174.4</ele>
        <time>2024-11-10T13:17:25.500Z</time>
      </trkpt>
      <trkpt lat="43.30704" lon="6.55632">
        <ele>174.8</ele>
        <time>2024-11-10T13:17:30Z</time>
      </trkpt>
      <trkpt lat="43.30707" lon="6.55626">
        <ele>174.8</ele>
        <time>2024-11-10T13:17:35.000Z</time>
      </trkpt>
      <trkpt lat="43.3071" lon="6.55619">
        <ele>174.7</ele>
        <time>2024-11-10T13:17:40Z</time>
      </trkpt>
      <trkpt lat="43.30714" lon="6.55614">
        <ele>175</ele>
        <time>2024-11-10T13:17:45.000Z</time>
      </trkpt>
      <trkpt lat="43.30717" lon="6.55608">
        <ele>175.3</ele>
        <time>2024-11-10T13:17:50Z</time>
      </trkpt>
      <trkpt lat="43.30721" lon="6.55604">
        <ele>176</ele>
        <time>2024-11-10T13:17:55.500Z</time>
      </trkpt>
      <trkpt lat="43.30725" lon="6.556">
        <ele>176.6</ele>
        <time>2024-11-10T13:18:01Z</time>
      </trkpt>
      <trkpt lat="43.3073" lon="6.55594">
        <ele>176.8</ele>
        <time>2024-11-10T13:18:06.500Z</time>
      </trkpt>
      <trkpt lat="43.30734" lon="6.55588">
        <ele>176.9</ele>
        <time>2024-11-10T13:18:12Z</time>
      </trkpt>
      <trkpt lat="43.30738" lon="6.55584">
        <ele>177</ele>
        <time>2024-11-10T13:18:21.000Z</time>
      </trkpt>
      <trkpt lat="43.30741" lon="6.55579">
        <ele>177.1</ele>
        <time>2024-11-10T13:18:30Z</time>
      </trkpt>
      <trkpt lat="43.30747" lon="6.55573">
        <ele>177.8</ele>
        <time>2024-11-10T13:18:36.000Z</time>
      </trkpt>
      <trkpt lat="43.30753" lon="6.55567">
        <ele>178.1</ele>
        <time>2024-11-10T13:18:42Z</time>
      </trkpt>
      <trkpt lat="43.30758" lon="6.55563">
        <ele>178.1</ele>
        <time>2024-11-10T13:18:47.500Z</time>
      </trkpt>
      <trkpt lat="43.30763" lon="6.55559">
        <ele>178.1</ele>
        <time>2024-11-10T13:18:53Z</time>
      </trkpt>
      <trkpt lat="43.30768" lon="6.55557">
        <ele>178.4</ele>
        <time>2024-11-10T13:18:57.500Z</time>
      </trkpt>
      <trkpt lat="43.30772" lon="6.55554">
        <ele>178.6</ele>
        <time>2024-11-10T13:19:02Z</time>
      </trkpt>
      <trkpt lat="43.30777" lon="6.55551">
        <ele>178.9</ele>
        <time>2024-11-10T13:19:07.000Z</time>
      </trkpt>
      <trkpt lat="43.30782" lon="6.55548">
        <ele>179.2</ele>
        <time>2024-11-10T13:19:12Z</time>
      </trkpt>
      <trkpt lat="43.30789" lon="6.55547">
        <ele>180.3</ele>
        <time>2024-11-10T13:19:17.500Z</time>
      </trkpt>
      <trkpt lat="43.30796" lon="6.55546">
        <ele>181.4</ele>
        <time>2024-11-10T13:19:23Z</time>
      </trkpt>
      <trkpt lat="43.308" lon="6.55543">
        <ele>181.2</ele>
        <time>2024-11-10T13:19:27.500Z</time>
      </trkpt>
      <trkpt lat="43.30804" lon="6.55539">
        <ele>181</ele>
        <time>2024-11-10T13:19:32Z</time>
      </trkpt>
      <trkpt lat="43.3081" lon="6.55532">
        <ele>179.9</ele>
        <time>2024-11-10T13:19:38.000Z</time>
      </trkpt>
      <trkpt lat="43.30816" lon="6.55524">
        <ele>179.2</ele>
        <time>2024-11-10T13:19:44Z</time>
      </trkpt>
      <trkpt lat="43.30822" lon="6.5552">
        <ele>179.6</ele>
        <time>2024-11-10T13:19:49.500Z</time>
      </trkpt>
      <trkpt lat="43.30828" lon="6.55516">
        <ele>179.9</ele>
        <time>2024-11-10T13:19:55Z</time>
      </trkpt>
      <trkpt lat="43.30833" lon="6.55507">
        <ele>179.2</ele>
        <time>2024-11-10T13:20:01.000Z</time>
      </trkpt>
      <trkpt lat="43.30838" lon="6.55498">
        <ele>179.2</ele>
        <time>2024-11-10T13:20:07Z</time>
      </trkpt>
      <trkpt lat="43.30842" lon="6.55493">
        <ele>179.6</ele>
        <time>2024-11-10T13:20:12.000Z</time>
      </trkpt>
      <trkpt lat="43.30845" lon="6.55488">
        <ele>180</ele>
        <time>2024-11-10T13:20:17Z</time>
      </trkpt>
      <trkpt lat="43.30849" lon="6.55485">
        <ele>180.5</ele>
        <time>2024-11-10T13:20:21.500Z</time>
      </trkpt>
      <trkpt lat="43.30853" lon="6.55482">
        <ele>181</ele>
        <time>2024-11-10T13:20:26Z</time>
      </trkpt>
      <trkpt lat="43.30858" lon="6.55479">
        <ele>181.4</ele>
        <time>2024-11-10T13:20:32.500Z</time>
      </trkpt>
      <trkpt lat="43.30862" lon="6.55475">
        <ele>181.6</ele>
        <time>2024-11-10T13:20:39Z</time>
      </trkpt>
      <trkpt lat="43.30866" lon="6.55472">
        <ele>181.5</ele>
        <time>2024-11-10T13:20:44.500Z</time>
      </trkpt>
      <trkpt lat="43.3087" lon="6.55469">
        <ele>181.4</ele>
        <time>2024-11-10T13:20:50Z</time>
      </trkpt>
      <trkpt lat="43.30876" lon="6.55464">
        <ele>181.2</ele>
        <time>2024-11-10T13:20:55.500Z</time>
      </trkpt>
      <trkpt lat="43.30881" lon="6.55459">
        <ele>181.1</ele>
        <time>2024-11-10T13:21:01Z</time>
      </trkpt>
      <trkpt lat="43.30887" lon="6.55456">
        <ele>181.3</ele>
        <time>2024-11-10T13:21:07.500Z</time>
      </trkpt>
      <trkpt lat="43.30892" lon="6.55452">
        <ele>181.3</ele>
        <time>2024-11-10T13:21:14Z</time>
      </trkpt>
      <trkpt lat="43.30898" lon="6.55448">
        <ele>181.1</ele>
        <time>2024-11-10T13:21:20.000Z</time>
      </trkpt>
      <trkpt lat="43.30904" lon="6.55443">
        <ele>180.9</ele>
        <time>2024-11-10T13:21:26Z</time>
      </trkpt>
      <trkpt lat="43.30911" lon="6.55438">
        <ele>180.5</ele>
        <time>2024-11-10T13:21:31.500Z</time>
      </trkpt>
      <trkpt lat="43.30917" lon="6.55432">
        <ele>180.3</ele>
        <time>2024-11-10T13:21:37Z</time>
      </trkpt>
      <trkpt lat="43.30923" lon="6.55427">
        <ele>180.3</ele>
        <time>2024-11-10T13:21:42.500Z</time>
      </trkpt>
      <trkpt lat="43.30928" lon="6.55421">
        <ele>180.3</ele>
        <time>2024-11-10T13:21:48Z</time>
      </trkpt>
      <trkpt lat="43.30933" lon="6.55412">
        <ele>179.9</ele>
        <time>2024-11-10T13:21:54.500Z</time>
      </trkpt>
      <trkpt lat="43.30938" lon="6.55403">
        <ele>180</ele>
        <time>2024-11-10T13:22:01Z</time>
      </trkpt>
      <trkpt lat="43.30941" lon="6.55397">
        <ele>179.9</ele>
        <time>2024-11-10T13:22:06.500Z</time>
      </trkpt>
      <trkpt lat="43.30943" lon="6.55391">
        <ele>179.9</ele>
        <time>2024-11-10T13:22:12Z</time>
      </trkpt>
      <trkpt lat="43.30939" lon="6.55398">
        <ele>179.7</ele>
        <time>2024-11-10T13:22:17.499Z</time>
      </trkpt>
      <trkpt lat="43.30935" lon="6.55405">
        <ele>179.7</ele>
        <time>2024-11-10T13:22:23Z</time>
      </trkpt>
      <trkpt lat="43.30932" lon="6.55412">
        <ele>179.8</ele>
        <time>2024-11-10T13:22:48Z</time>
      </trkpt>
      <trkpt lat="43.30936" lon="6.55405">
        <ele>179.8</ele>
        <time>2024-11-10T13:23:01.500Z</time>
      </trkpt>
      <trkpt lat="43.3094" lon="6.55397">
        <ele>179.8</ele>
        <time>2024-11-10T13:23:15Z</time>
      </trkpt>
      <trkpt lat="43.30944" lon="6.55387">
        <ele>179.8</ele>
        <time>2024-11-10T13:23:26Z</time>
      </trkpt>
      <trkpt lat="43.30946" lon="6.5538">
        <ele>179.6</ele>
        <time>2024-11-10T13:23:32.000Z</time>
      </trkpt>
      <trkpt lat="43.30948" lon="6.55373">
        <ele>179.3</ele>
        <time>2024-11-10T13:23:38Z</time>
      </trkpt>
      <trkpt lat="43.30951" lon="6.55367">
        <ele>179.2</ele>
        <time>2024-11-10T13:23:43.500Z</time>
      </trkpt>
      <trkpt lat="43.30954" lon="6.5536">
        <ele>178.9</ele>
        <time>2024-11-10T13:23:49Z</time>
      </trkpt>
      <trkpt lat="43.30958" lon="6.55352">
        <ele>178.1</ele>
        <time>2024-11-10T13:23:54.500Z</time>
      </trkpt>
      <trkpt lat="43.30962" lon="6.55343">
        <ele>177.3</ele>
        <time>2024-11-10T13:24:00Z</time>
      </trkpt>
      <trkpt lat="43.30964" lon="6.55335">
        <ele>176.3</ele>
        <time>2024-11-10T13:24:05.000Z</time>
      </trkpt>
      <trkpt lat="43.30966" lon="6.55326">
        <ele>176.2</ele>
        <time>2024-11-10T13:24:10Z</time>
      </trkpt>
      <trkpt lat="43.30966" lon="6.55318">
        <ele>176</ele>
        <time>2024-11-10T13:24:14.999Z</time>
      </trkpt>
      <trkpt lat="43.30965" lon="6.55309">
        <ele>175.8</ele>
        <time>2024-11-10T13:24:20Z</time>
      </trkpt>
      <trkpt lat="43.30966" lon="6.55303">
        <ele>175.8</ele>
        <time>2024-11-10T13:24:24.500Z</time>
      </trkpt>
      <trkpt lat="43.30967" lon="6.55296">
        <ele>175.8</ele>
        <time>2024-11-10T13:24:29Z</time>
      </trkpt>
      <trkpt lat="43.30968" lon="6.5529">
        <ele>175.7</ele>
        <time>2024-11-10T13:24:34.000Z</time>
      </trkpt>
      <trkpt lat="43.30969" lon="6.55283">
        <ele>175.7</ele>
        <time>2024-11-10T13:24:39Z</time>
      </trkpt>
      <trkpt lat="43.30972" lon="6.55277">
        <ele>175.9</ele>
        <time>2024-11-10T13:24:44.000Z</time>
      </trkpt>
      <trkpt lat="43.30975" lon="6.5527">
        <ele>176</ele>
        <time>2024-11-10T13:24:49Z</time>
      </trkpt>
      <trkpt lat="43.30978" lon="6.55263">
        <ele>176.1</ele>
        <time>2024-11-10T13:24:54.000Z</time>
      </trkpt>
      <trkpt lat="43.30981" lon="6.55256">
        <ele>176.2</ele>
        <time>2024-11-10T13:24:59Z</time>
      </trkpt>
      <trkpt lat="43.30983" lon="6.55249">
        <ele>176.1</ele>
        <time>2024-11-10T13:25:07.000Z</time>
      </trkpt>
      <trkpt lat="43.30984" lon="6.55241">
        <ele>176.4</ele>
        <time>2024-11-10T13:25:15Z</time>
      </trkpt>
      <trkpt lat="43.3098" lon="6.55238">
        <ele>176</ele>
        <time>2024-11-10T13:25:37Z</time>
      </trkpt>
      <trkpt lat="43.30988" lon="6.55235">
        <ele>177</ele>
        <time>2024-11-10T13:26:03Z</time>
      </trkpt>
      <trkpt lat="43.30991" lon="6.55228">
        <ele>177.6</ele>
        <time>2024-11-10T13:26:08.000Z</time>
      </trkpt>
      <trkpt lat="43.30994" lon="6.55221">
        <ele>178.1</ele>
        <time>2024-11-10T13:26:13Z</time>
      </trkpt>
      <trkpt lat="43.30997" lon="6.55215">
        <ele>178.5</ele>
        <time>2024-11-10T13:26:18.000Z</time>
      </trkpt>
      <trkpt lat="43.30999" lon="6.55209">
        <ele>178.9</ele>
        <time>2024-11-10T13:26:23Z</time>
      </trkpt>
      <trkpt lat="43.31001" lon="6.55201">
        <ele>179.1</ele>
        <time>2024-11-10T13:26:28.500Z</time>
      </trkpt>
      <trkpt lat="43.31003" lon="6.55193">
        <ele>179.4</ele>
        <time>2024-11-10T13:26:34Z</time>
      </trkpt>
      <trkpt lat="43.31006" lon="6.55186">
        <ele>179.9</ele>
        <time>2024-11-10T13:26:39.000Z</time>
      </trkpt>
      <trkpt lat="43.31009" lon="6.55178">
        <ele>180.5</ele>
        <time>2024-11-10T13:26:44Z</time>
      </trkpt>
      <trkpt lat="43.31012" lon="6.55172">
        <ele>181.1</ele>
        <time>2024-11-10T13:26:50.000Z</time>
      </trkpt>
      <trkpt lat="43.31015" lon="6.55165">
        <ele>181.7</ele>
        <time>2024-11-10T13:26:56Z</time>
      </trkpt>
      <trkpt lat="43.31018" lon="6.55158">
        <ele>182.2</ele>
        <time>2024-11-10T13:27:01.000Z</time>
      </trkpt>
      <trkpt lat="43.3102" lon="6.5515">
        <ele>182.6</ele>
        <time>2024-11-10T13:27:06Z</time>
      </trkpt>
      <trkpt lat="43.31022" lon="6.55141">
        <ele>183</ele>
        <time>2024-11-10T13:27:12.000Z</time>
      </trkpt>
      <trkpt lat="43.31024" lon="6.55132">
        <ele>183.1</ele>
        <time>2024-11-10T13:27:18Z</time>
      </trkpt>
      <trkpt lat="43.31027" lon="6.55124">
        <ele>183.3</ele>
        <time>2024-11-10T13:27:23.000Z</time>
      </trkpt>
      <trkpt lat="43.3103" lon="6.55116">
        <ele>183.4</ele>
        <time>2024-11-10T13:27:28Z</time>
      </trkpt>
      <trkpt lat="43.31034" lon="6.55111">
        <ele>183.4</ele>
        <time>2024-11-10T13:27:32.000Z</time>
      </trkpt>
      <trkpt lat="43.31037" lon="6.55105">
        <ele>183.4</ele>
        <time>2024-11-10T13:27:36Z</time>
      </trkpt>
      <trkpt lat="43.3104" lon="6.551">
        <ele>183.5</ele>
        <time>2024-11-10T13:27:41.000Z</time>
      </trkpt>
      <trkpt lat="43.31043" lon="6.55094">
        <ele>183.5</ele>
        <time>2024-11-10T13:27:46Z</time>
      </trkpt>
      <trkpt lat="43.31048" lon="6.55088">
        <ele>183.6</ele>
        <time>2024-11-10T13:27:51.000Z</time>
      </trkpt>
      <trkpt lat="43.31052" lon="6.55082">
        <ele>183.6</ele>
        <time>2024-11-10T13:27:56Z</time>
      </trkpt>
      <trkpt lat="43.31058" lon="6.55077">
        <ele>183.4</ele>
        <time>2024-11-10T13:28:01.000Z</time>
      </trkpt>
      <trkpt lat="43.31063" lon="6.55072">
        <ele>183.2</ele>
        <time>2024-11-10T13:28:06Z</time>
      </trkpt>
      <trkpt lat="43.31066" lon="6.55067">
        <ele>182.8</ele>
        <time>2024-11-10T13:28:10.500Z</time>
      </trkpt>
      <trkpt lat="43.31069" lon="6.55061">
        <ele>182.5</ele>
        <time>2024-11-10T13:28:15Z</time>
      </trkpt>
      <trkpt lat="43.31075" lon="6.55056">
        <ele>182.4</ele>
        <time>2024-11-10T13:29:06Z</time>
      </trkpt>
      <trkpt lat="43.31078" lon="6.55051">
        <ele>182.6</ele>
        <time>2024-11-10T13:29:12.500Z</time>
      </trkpt>
      <trkpt lat="43.3108" lon="6.55045">
        <ele>182.8</ele>
        <time>2024-11-10T13:29:19Z</time>
      </trkpt>
      <trkpt lat="43.31082" lon="6.55039">
        <ele>182.9</ele>
        <time>2024-11-10T13:29:23.500Z</time>
      </trkpt>
      <trkpt lat="43.31084" lon="6.55033">
        <ele>183</ele>
        <time>2024-11-10T13:29:28Z</time>
      </trkpt>
      <trkpt lat="43.31087" lon="6.55027">
        <ele>183.2</ele>
        <time>2024-11-10T13:29:33.000Z</time>
      </trkpt>
      <trkpt lat="43.3109" lon="6.55021">
        <ele>183.6</ele>
        <time>2024-11-10T13:29:38Z</time>
      </trkpt>
      <trkpt lat="43.31094" lon="6.55016">
        <ele>183.9</ele>
        <time>2024-11-10T13:29:47.500Z</time>
      </trkpt>
      <trkpt lat="43.31097" lon="6.55011">
        <ele>184.1</ele>
        <time>2024-11-10T13:29:57Z</time>
      </trkpt>
      <trkpt lat="43.31103" lon="6.55006">
        <ele>184.2</ele>
        <time>2024-11-10T13:30:02.500Z</time>
      </trkpt>
      <trkpt lat="43.31108" lon="6.55">
        <ele>184.1</ele>
        <time>2024-11-10T13:30:08Z</time>
      </trkpt>
      <trkpt lat="43.31111" lon="6.54994">
        <ele>184.7</ele>
        <time>2024-11-10T13:30:13.000Z</time>
      </trkpt>
      <trkpt lat="43.31113" lon="6.54988">
        <ele>185.1</ele>
        <time>2024-11-10T13:30:18Z</time>
      </trkpt>
      <trkpt lat="43.31118" lon="6.54984">
        <ele>185.2</ele>
        <time>2024-11-10T13:30:22.500Z</time>
      </trkpt>
      <trkpt lat="43.31122" lon="6.54979">
        <ele>185.2</ele>
        <time>2024-11-10T13:30:27Z</time>
      </trkpt>
      <trkpt lat="43.31126" lon="6.54975">
        <ele>185.1</ele>
        <time>2024-11-10T13:30:31.500Z</time>
      </trkpt>
      <trkpt lat="43.3113" lon="6.54971">
        <ele>185.2</ele>
        <time>2024-11-10T13:30:36Z</time>
      </trkpt>
      <trkpt lat="43.31135" lon="6.54961">
        <ele>186.1</ele>
        <time>2024-11-10T13:30:45Z</time>
      </trkpt>
      <trkpt lat="43.31139" lon="6.54958">
        <ele>186.1</ele>
        <time>2024-11-10T13:30:50.000Z</time>
      </trkpt>
      <trkpt lat="43.31143" lon="6.54954">
        <ele>186.3</ele>
        <time>2024-11-10T13:30:55Z</time>
      </trkpt>
      <trkpt lat="43.31147" lon="6.54948">
        <ele>186.9</ele>
        <time>2024-11-10T13:31:00.500Z</time>
      </trkpt>
      <trkpt lat="43.31151" lon="6.54942">
        <ele>187.4</ele>
        <time>2024-11-10T13:31:06Z</time>
      </trkpt>
      <trkpt lat="43.31156" lon="6.54937">
        <ele>187.5</ele>
        <time>2024-11-10T13:31:11.500Z</time>
      </trkpt>
      <trkpt lat="43.31161" lon="6.54932">
        <ele>187.5</ele>
        <time>2024-11-10T13:31:17Z</time>
      </trkpt>
      <trkpt lat="43.31166" lon="6.54927">
        <ele>187.4</ele>
        <time>2024-11-10T13:31:22.000Z</time>
      </trkpt>
      <trkpt lat="43.3117" lon="6.54921">
        <ele>187.3</ele>
        <time>2024-11-10T13:31:27Z</time>
      </trkpt>
      <trkpt lat="43.31175" lon="6.54915">
        <ele>187.2</ele>
        <time>2024-11-10T13:31:32.500Z</time>
      </trkpt>
      <trkpt lat="43.3118" lon="6.54908">
        <ele>187</ele>
        <time>2024-11-10T13:31:38Z</time>
      </trkpt>
      <trkpt lat="43.31182" lon="6.549">
        <ele>187.2</ele>
        <time>2024-11-10T13:31:44.500Z</time>
      </trkpt>
      <trkpt lat="43.31184" lon="6.54892">
        <ele>187.3</ele>
        <time>2024-11-10T13:31:51Z</time>
      </trkpt>
      <trkpt lat="43.31186" lon="6.54883">
        <ele>187.4</ele>
        <time>2024-11-10T13:31:57.000Z</time>
      </trkpt>
      <trkpt lat="43.31187" lon="6.54874">
        <ele>187.2</ele>
        <time>2024-11-10T13:32:03Z</time>
      </trkpt>
      <trkpt lat="43.31188" lon="6.54866">
        <ele>187.2</ele>
        <time>2024-11-10T13:32:08.500Z</time>
      </trkpt>
      <trkpt lat="43.31188" lon="6.54858">
        <ele>187</ele>
        <time>2024-11-10T13:32:14Z</time>
      </trkpt>
      <trkpt lat="43.31189" lon="6.54848">
        <ele>186.5</ele>
        <time>2024-11-10T13:32:20.000Z</time>
      </trkpt>
      <trkpt lat="43.3119" lon="6.54838">
        <ele>186</ele>
        <time>2024-11-10T13:32:26Z</time>
      </trkpt>
      <trkpt lat="43.31192" lon="6.54831">
        <ele>185.5</ele>
        <time>2024-11-10T13:32:31.000Z</time>
      </trkpt>
      <trkpt lat="43.31194" lon="6.54823">
        <ele>185.5</ele>
        <time>2024-11-10T13:32:36Z</time>
      </trkpt>
      <trkpt lat="43.31194" lon="6.54813">
        <ele>185.8</ele>
        <time>2024-11-10T13:32:41.500Z</time>
      </trkpt>
      <trkpt lat="43.31194" lon="6.54803">
        <ele>186.2</ele>
        <time>2024-11-10T13:32:47Z</time>
      </trkpt>
      <trkpt lat="43.31197" lon="6.54795">
        <ele>186</ele>
        <time>2024-11-10T13:32:52.500Z</time>
      </trkpt>
      <trkpt lat="43.31199" lon="6.54786">
        <ele>185.8</ele>
        <time>2024-11-10T13:32:58Z</time>
      </trkpt>
      <trkpt lat="43.31201" lon="6.54778">
        <ele>185.8</ele>
        <time>2024-11-10T13:33:03.000Z</time>
      </trkpt>
      <trkpt lat="43.31203" lon="6.5477">
        <ele>186</ele>
        <time>2024-11-10T13:33:08Z</time>
      </trkpt>
      <trkpt lat="43.31205" lon="6.54759">
        <ele>186.5</ele>
        <time>2024-11-10T13:33:18Z</time>
      </trkpt>
      <trkpt lat="43.31207" lon="6.54752">
        <ele>186.9</ele>
        <time>2024-11-10T13:33:22.500Z</time>
      </trkpt>
      <trkpt lat="43.31209" lon="6.54745">
        <ele>187.7</ele>
        <time>2024-11-10T13:33:27Z</time>
      </trkpt>
      <trkpt lat="43.31213" lon="6.54734">
        <ele>188.8</ele>
        <time>2024-11-10T13:33:36Z</time>
      </trkpt>
      <trkpt lat="43.31218" lon="6.54724">
        <ele>189.4</ele>
        <time>2024-11-10T13:33:45Z</time>
      </trkpt>
      <trkpt lat="43.31224" lon="6.54719">
        <ele>189.4</ele>
        <time>2024-11-10T13:33:50.000Z</time>
      </trkpt>
      <trkpt lat="43.31229" lon="6.54713">
        <ele>189.6</ele>
        <time>2024-11-10T13:33:55Z</time>
      </trkpt>
      <trkpt lat="43.31233" lon="6.54709">
        <ele>189.9</ele>
        <time>2024-11-10T13:33:59.500Z</time>
      </trkpt>
      <trkpt lat="43.31236" lon="6.54704">
        <ele>190.1</ele>
        <time>2024-11-10T13:34:04Z</time>
      </trkpt>
      <trkpt lat="43.3124" lon="6.54701">
        <ele>190.2</ele>
        <time>2024-11-10T13:34:09.000Z</time>
      </trkpt>
      <trkpt lat="43.31244" lon="6.54697">
        <ele>190.3</ele>
        <time>2024-11-10T13:34:14Z</time>
      </trkpt>
      <trkpt lat="43.3125" lon="6.54695">
        <ele>190</ele>
        <time>2024-11-10T13:34:20.000Z</time>
      </trkpt>
      <trkpt lat="43.31256" lon="6.54692">
        <ele>191.1</ele>
        <time>2024-11-10T13:34:26Z</time>
      </trkpt>
      <trkpt lat="43.31262" lon="6.54692">
        <ele>191.4</ele>
        <time>2024-11-10T13:34:31.500Z</time>
      </trkpt>
      <trkpt lat="43.31267" lon="6.54692">
        <ele>191.8</ele>
        <time>2024-11-10T13:34:37Z</time>
      </trkpt>
      <trkpt lat="43.31274" lon="6.54689">
        <ele>192.9</ele>
        <time>2024-11-10T13:34:43.000Z</time>
      </trkpt>
      <trkpt lat="43.3128" lon="6.54685">
        <ele>193.3</ele>
        <time>2024-11-10T13:34:49Z</time>
      </trkpt>
      <trkpt lat="43.31285" lon="6.54678">
        <ele>193.4</ele>
        <time>2024-11-10T13:34:54.000Z</time>
      </trkpt>
      <trkpt lat="43.31289" lon="6.54671">
        <ele>193.2</ele>
        <time>2024-11-10T13:34:59Z</time>
      </trkpt>
      <trkpt lat="43.31292" lon="6.54665">
        <ele>193.2</ele>
        <time>2024-11-10T13:35:03.500Z</time>
      </trkpt>
      <trkpt lat="43.31294" lon="6.54658">
        <ele>193</ele>
        <time>2024-11-10T13:35:08Z</time>
      </trkpt>
      <trkpt lat="43.31296" lon="6.54652">
        <ele>192.8</ele>
        <time>2024-11-10T13:35:12.500Z</time>
      </trkpt>
      <trkpt lat="43.31298" lon="6.54646">
        <ele>192.7</ele>
        <time>2024-11-10T13:35:17Z</time>
      </trkpt>
      <trkpt lat="43.313" lon="6.54638">
        <ele>192.6</ele>
        <time>2024-11-10T13:35:22.000Z</time>
      </trkpt>
      <trkpt lat="43.31302" lon="6.5463">
        <ele>192.4</ele>
        <time>2024-11-10T13:35:27Z</time>
      </trkpt>
      <trkpt lat="43.31304" lon="6.54624">
        <ele>192.2</ele>
        <time>2024-11-10T13:35:31.500Z</time>
      </trkpt>
      <trkpt lat="43.31305" lon="6.54617">
        <ele>192</ele>
        <time>2024-11-10T13:35:36Z</time>
      </trkpt>
      <trkpt lat="43.31307" lon="6.5461">
        <ele>191.9</ele>
        <time>2024-11-10T13:35:40.500Z</time>
      </trkpt>
      <trkpt lat="43.31309" lon="6.54602">
        <ele>192.2</ele>
        <time>2024-11-10T13:35:45Z</time>
      </trkpt>
      <trkpt lat="43.31311" lon="6.54595">
        <ele>192.3</ele>
        <time>2024-11-10T13:35:49.500Z</time>
      </trkpt>
      <trkpt lat="43.31313" lon="6.54588">
        <ele>192.4</ele>
        <time>2024-11-10T13:35:54Z</time>
      </trkpt>
      <trkpt lat="43.31314" lon="6.54581">
        <ele>192.9</ele>
        <time>2024-11-10T13:35:58.500Z</time>
      </trkpt>
      <trkpt lat="43.31314" lon="6.54574">
        <ele>193.2</ele>
        <time>2024-11-10T13:36:03Z</time>
      </trkpt>
      <trkpt lat="43.31318" lon="6.54563">
        <ele>192.9</ele>
        <time>2024-11-10T13:36:12Z</time>
      </trkpt>
      <trkpt lat="43.3132" lon="6.54557">
        <ele>192.8</ele>
        <time>2024-11-10T13:36:16.500Z</time>
      </trkpt>
      <trkpt lat="43.31322" lon="6.5455">
        <ele>192.7</ele>
        <time>2024-11-10T13:36:21Z</time>
      </trkpt>
      <trkpt lat="43.31324" lon="6.54543">
        <ele>192.9</ele>
        <time>2024-11-10T13:36:26.500Z</time>
      </trkpt>
      <trkpt lat="43.31325" lon="6.54535">
        <ele>193.1</ele>
        <time>2024-11-10T13:36:32Z</time>
      </trkpt>
      <trkpt lat="43.31327" lon="6.54528">
        <ele>193</ele>
        <time>2024-11-10T13:36:36.500Z</time>
      </trkpt>
      <trkpt lat="43.31329" lon="6.54521">
        <ele>192.7</ele>
        <time>2024-11-10T13:36:41Z</time>
      </trkpt>
      <trkpt lat="43.31329" lon="6.54514">
        <ele>193</ele>
        <time>2024-11-10T13:36:45.500Z</time>
      </trkpt>
      <trkpt lat="43.31329" lon="6.54507">
        <ele>193.3</ele>
        <time>2024-11-10T13:36:50Z</time>
      </trkpt>
      <trkpt lat="43.3133" lon="6.54501">
        <ele>193.4</ele>
        <time>2024-11-10T13:36:54.500Z</time>
      </trkpt>
      <trkpt lat="43.3133" lon="6.54494">
        <ele>193.4</ele>
        <time>2024-11-10T13:36:59Z</time>
      </trkpt>
      <trkpt lat="43.31331" lon="6.54488">
        <ele>193.3</ele>
        <time>2024-11-10T13:37:04.000Z</time>
      </trkpt>
      <trkpt lat="43.31332" lon="6.54481">
        <ele>193.2</ele>
        <time>2024-11-10T13:37:09Z</time>
      </trkpt>
      <trkpt lat="43.31331" lon="6.54474">
        <ele>193.8</ele>
        <time>2024-11-10T13:37:13.999Z</time>
      </trkpt>
      <trkpt lat="43.3133" lon="6.54466">
        <ele>194.2</ele>
        <time>2024-11-10T13:37:19Z</time>
      </trkpt>
      <trkpt lat="43.31328" lon="6.54456">
        <ele>195.2</ele>
        <time>2024-11-10T13:37:24.499Z</time>
      </trkpt>
      <trkpt lat="43.31325" lon="6.54445">
        <ele>196.3</ele>
        <time>2024-11-10T13:37:30Z</time>
      </trkpt>
      <trkpt lat="43.31325" lon="6.54437">
        <ele>196.8</ele>
        <time>2024-11-10T13:37:35.000Z</time>
      </trkpt>
      <trkpt lat="43.31325" lon="6.54429">
        <ele>197.2</ele>
        <time>2024-11-10T13:37:40Z</time>
      </trkpt>
      <trkpt lat="43.31325" lon="6.54423">
        <ele>197.8</ele>
        <time>2024-11-10T13:37:44.999Z</time>
      </trkpt>
      <trkpt lat="43.31324" lon="6.54416">
        <ele>198.4</ele>
        <time>2024-11-10T13:37:50Z</time>
      </trkpt>
      <trkpt lat="43.31323" lon="6.5441">
        <ele>199.3</ele>
        <time>2024-11-10T13:37:54.499Z</time>
      </trkpt>
      <trkpt lat="43.31322" lon="6.54403">
        <ele>200.2</ele>
        <time>2024-11-10T13:37:59Z</time>
      </trkpt>
      <trkpt lat="43.31323" lon="6.54396">
        <ele>200.4</ele>
        <time>2024-11-10T13:38:05.000Z</time>
      </trkpt>
      <trkpt lat="43.31324" lon="6.54389">
        <ele>200.7</ele>
        <time>2024-11-10T13:38:11Z</time>
      </trkpt>
      <trkpt lat="43.31326" lon="6.54382">
        <ele>201.2</ele>
        <time>2024-11-10T13:38:16.500Z</time>
      </trkpt>
      <trkpt lat="43.31327" lon="6.54374">
        <ele>201.8</ele>
        <time>2024-11-10T13:38:22Z</time>
      </trkpt>
      <trkpt lat="43.31331" lon="6.54369">
        <ele>201.5</ele>
        <time>2024-11-10T13:38:27.000Z</time>
      </trkpt>
      <trkpt lat="43.31335" lon="6.54363">
        <ele>201.8</ele>
        <time>2024-11-10T13:38:32Z</time>
      </trkpt>
      <trkpt lat="43.3134" lon="6.54358">
        <ele>202.4</ele>
        <time>2024-11-10T13:38:36.500Z</time>
      </trkpt>
      <trkpt lat="43.31345" lon="6.54353">
        <ele>202.6</ele>
        <time>2024-11-10T13:38:41Z</time>
      </trkpt>
      <trkpt lat="43.31351" lon="6.54344">
        <ele>202.7</ele>
        <time>2024-11-10T13:38:50Z</time>
      </trkpt>
      <trkpt lat="43.31354" lon="6.54338">
        <ele>202.6</ele>
        <time>2024-11-10T13:38:55.000Z</time>
      </trkpt>
      <trkpt lat="43.31356" lon="6.54331">
        <ele>202.2</ele>
        <time>2024-11-10T13:39:00Z</time>
      </trkpt>
      <trkpt lat="43.31354" lon="6.5432">
        <ele>201.8</ele>
        <time>2024-11-10T13:39:12Z</time>
      </trkpt>
      <trkpt lat="43.31354" lon="6.54311">
        <ele>201.3</ele>
        <time>2024-11-10T13:39:37Z</time>
      </trkpt>
      <trkpt lat="43.31352" lon="6.54304">
        <ele>201.3</ele>
        <time>2024-11-10T13:39:43.499Z</time>
      </trkpt>
      <trkpt lat="43.3135" lon="6.54296">
        <ele>201.3</ele>
        <time>2024-11-10T13:39:50Z</time>
      </trkpt>
      <trkpt lat="43.31346" lon="6.5429">
        <ele>201.5</ele>
        <time>2024-11-10T13:39:55.499Z</time>
      </trkpt>
      <trkpt lat="43.31342" lon="6.54283">
        <ele>201.6</ele>
        <time>2024-11-10T13:40:01Z</time>
      </trkpt>
      <trkpt lat="43.31339" lon="6.54279">
        <ele>201.7</ele>
        <time>2024-11-10T13:40:05.999Z</time>
      </trkpt>
      <trkpt lat="43.31335" lon="6.54274">
        <ele>201.3</ele>
        <time>2024-11-10T13:40:11Z</time>
      </trkpt>
      <trkpt lat="43.31331" lon="6.5427">
        <ele>201.2</ele>
        <time>2024-11-10T13:40:15.999Z</time>
      </trkpt>
      <trkpt lat="43.31327" lon="6.54265">
        <ele>201.2</ele>
        <time>2024-11-10T13:40:21Z</time>
      </trkpt>
      <trkpt lat="43.31323" lon="6.5426">
        <ele>201.2</ele>
        <time>2024-11-10T13:40:25.499Z</time>
      </trkpt>
      <trkpt lat="43.31319" lon="6.54255">
        <ele>201.2</ele>
        <time>2024-11-10T13:40:30Z</time>
      </trkpt>
      <trkpt lat="43.31316" lon="6.54251">
        <ele>201.3</ele>
        <time>2024-11-10T13:40:34.499Z</time>
      </trkpt>
      <trkpt lat="43.31312" lon="6.54246">
        <ele>201.3</ele>
        <time>2024-11-10T13:40:39Z</time>
      </trkpt>
      <trkpt lat="43.31307" lon="6.54242">
        <ele>201.6</ele>
        <time>2024-11-10T13:40:44.999Z</time>
      </trkpt>
      <trkpt lat="43.31302" lon="6.54238">
        <ele>202.1</ele>
        <time>2024-11-10T13:40:51Z</time>
      </trkpt>
      <trkpt lat="43.31298" lon="6.54234">
        <ele>202.4</ele>
        <time>2024-11-10T13:40:56.499Z</time>
      </trkpt>
      <trkpt lat="43.31293" lon="6.5423">
        <ele>202.6</ele>
        <time>2024-11-10T13:41:02Z</time>
      </trkpt>
      <trkpt lat="43.31289" lon="6.54226">
        <ele>202.6</ele>
        <time>2024-11-10T13:41:08.499Z</time>
      </trkpt>
      <trkpt lat="43.31285" lon="6.54221">
        <ele>202.5</ele>
        <time>2024-11-10T13:41:15Z</time>
      </trkpt>
      <trkpt lat="43.31284" lon="6.54209">
        <ele>200.8</ele>
        <time>2024-11-10T13:41:34Z</time>
      </trkpt>
      <trkpt lat="43.31285" lon="6.54199">
        <ele>199</ele>
        <time>2024-11-10T13:41:39.000Z</time>
      </trkpt>
      <trkpt lat="43.31285" lon="6.54188">
        <ele>199</ele>
        <time>2024-11-10T13:41:44Z</time>
      </trkpt>
      <trkpt lat="43.31289" lon="6.54182">
        <ele>198.5</ele>
        <time>2024-11-10T13:41:48.500Z</time>
      </trkpt>
      <trkpt lat="43.31292" lon="6.54175">
        <ele>197.8</ele>
        <time>2024-11-10T13:41:53Z</time>
      </trkpt>
      <trkpt lat="43.31295" lon="6.54169">
        <ele>197.1</ele>
        <time>2024-11-10T13:41:57.500Z</time>
      </trkpt>
      <trkpt lat="43.31297" lon="6.54163">
        <ele>196.7</ele>
        <time>2024-11-10T13:42:02Z</time>
      </trkpt>
      <trkpt lat="43.313" lon="6.54158">
        <ele>196.4</ele>
        <time>2024-11-10T13:42:06.000Z</time>
      </trkpt>
      <trkpt lat="43.31303" lon="6.54152">
        <ele>196.3</ele>
        <time>2024-11-10T13:42:10Z</time>
      </trkpt>
      <trkpt lat="43.31305" lon="6.54146">
        <ele>197</ele>
        <time>2024-11-10T13:42:14.000Z</time>
      </trkpt>
      <trkpt lat="43.31306" lon="6.54139">
        <ele>197.8</ele>
        <time>2024-11-10T13:42:18Z</time>
      </trkpt>
      <trkpt lat="43.31307" lon="6.54132">
        <ele>197.8</ele>
        <time>2024-11-10T13:42:22.000Z</time>
      </trkpt>
      <trkpt lat="43.31307" lon="6.54125">
        <ele>197.9</ele>
        <time>2024-11-10T13:42:26Z</time>
      </trkpt>
      <trkpt lat="43.31308" lon="6.54118">
        <ele>197.9</ele>
        <time>2024-11-10T13:42:30.500Z</time>
      </trkpt>
      <trkpt lat="43.31308" lon="6.54111">
        <ele>197.9</ele>
        <time>2024-11-10T13:42:35Z</time>
      </trkpt>
      <trkpt lat="43.31309" lon="6.54105">
        <ele>197.8</ele>
        <time>2024-11-10T13:42:39.000Z</time>
      </trkpt>
      <trkpt lat="43.31309" lon="6.54098">
        <ele>197.6</ele>
        <time>2024-11-10T13:42:43Z</time>
      </trkpt>
      <trkpt lat="43.31309" lon="6.54091">
        <ele>197.6</ele>
        <time>2024-11-10T13:42:47.500Z</time>
      </trkpt>
      <trkpt lat="43.31309" lon="6.54084">
        <ele>197.6</ele>
        <time>2024-11-10T13:42:52Z</time>
      </trkpt>
      <trkpt lat="43.31308" lon="6.54076">
        <ele>198.5</ele>
        <time>2024-11-10T13:42:56.499Z</time>
      </trkpt>
      <trkpt lat="43.31306" lon="6.54067">
        <ele>199.4</ele>
        <time>2024-11-10T13:43:01Z</time>
      </trkpt>
      <trkpt lat="43.31302" lon="6.54056">
        <ele>200.8</ele>
        <time>2024-11-10T13:43:09Z</time>
      </trkpt>
      <trkpt lat="43.31299" lon="6.54052">
        <ele>200.6</ele>
        <time>2024-11-10T13:43:12.999Z</time>
      </trkpt>
      <trkpt lat="43.31295" lon="6.54047">
        <ele>200.4</ele>
        <time>2024-11-10T13:43:17Z</time>
      </trkpt>
      <trkpt lat="43.31291" lon="6.54043">
        <ele>200.6</ele>
        <time>2024-11-10T13:43:21.499Z</time>
      </trkpt>
      <trkpt lat="43.31286" lon="6.54039">
        <ele>200.9</ele>
        <time>2024-11-10T13:43:26Z</time>
      </trkpt>
      <trkpt lat="43.31284" lon="6.54033">
        <ele>200.2</ele>
        <time>2024-11-10T13:43:30.499Z</time>
      </trkpt>
      <trkpt lat="43.31282" lon="6.54027">
        <ele>199.8</ele>
        <time>2024-11-10T13:43:35Z</time>
      </trkpt>
      <trkpt lat="43.31283" lon="6.5402">
        <ele>199.5</ele>
        <time>2024-11-10T13:43:39.500Z</time>
      </trkpt>
      <trkpt lat="43.31283" lon="6.54012">
        <ele>199.2</ele>
        <time>2024-11-10T13:43:44Z</time>
      </trkpt>
      <trkpt lat="43.31285" lon="6.54006">
        <ele>198.5</ele>
        <time>2024-11-10T13:43:48.000Z</time>
      </trkpt>
      <trkpt lat="43.31286" lon="6.53999">
        <ele>197.9</ele>
        <time>2024-11-10T13:43:52Z</time>
      </trkpt>
      <trkpt lat="43.31287" lon="6.53991">
        <ele>198.7</ele>
        <time>2024-11-10T13:43:56.500Z</time>
      </trkpt>
      <trkpt lat="43.31287" lon="6.53983">
        <ele>199.6</ele>
        <time>2024-11-10T13:44:01Z</time>
      </trkpt>
      <trkpt lat="43.31289" lon="6.53977">
        <ele>199.8</ele>
        <time>2024-11-10T13:44:05.500Z</time>
      </trkpt>
      <trkpt lat="43.3129" lon="6.5397">
        <ele>199.9</ele>
        <time>2024-11-10T13:44:10Z</time>
      </trkpt>
      <trkpt lat="43.31292" lon="6.53963">
        <ele>199.7</ele>
        <time>2024-11-10T13:44:15.000Z</time>
      </trkpt>
      <trkpt lat="43.31293" lon="6.53956">
        <ele>199.6</ele>
        <time>2024-11-10T13:44:20Z</time>
      </trkpt>
      <trkpt lat="43.31295" lon="6.53948">
        <ele>199.5</ele>
        <time>2024-11-10T13:44:25.000Z</time>
      </trkpt>
      <trkpt lat="43.31296" lon="6.5394">
        <ele>199.3</ele>
        <time>2024-11-10T13:44:30Z</time>
      </trkpt>
      <trkpt lat="43.31297" lon="6.53933">
        <ele>199.3</ele>
        <time>2024-11-10T13:44:35.000Z</time>
      </trkpt>
      <trkpt lat="43.31297" lon="6.53925">
        <ele>199.4</ele>
        <time>2024-11-10T13:44:40Z</time>
      </trkpt>
      <trkpt lat="43.31297" lon="6.53917">
        <ele>199.7</ele>
        <time>2024-11-10T13:44:45.000Z</time>
      </trkpt>
      <trkpt lat="43.31297" lon="6.53909">
        <ele>199.7</ele>
        <time>2024-11-10T13:44:50Z</time>
      </trkpt>
      <trkpt lat="43.31297" lon="6.53902">
        <ele>199.9</ele>
        <time>2024-11-10T13:44:55.499Z</time>
      </trkpt>
      <trkpt lat="43.31296" lon="6.53894">
        <ele>200.1</ele>
        <time>2024-11-10T13:45:01Z</time>
      </trkpt>
      <trkpt lat="43.31294" lon="6.53887">
        <ele>200.8</ele>
        <time>2024-11-10T13:45:05.999Z</time>
      </trkpt>
      <trkpt lat="43.31292" lon="6.5388">
        <ele>200.9</ele>
        <time>2024-11-10T13:45:11Z</time>
      </trkpt>
      <trkpt lat="43.31292" lon="6.53873">
        <ele>200.3</ele>
        <time>2024-11-10T13:45:16.499Z</time>
      </trkpt>
      <trkpt lat="43.31291" lon="6.53865">
        <ele>199.7</ele>
        <time>2024-11-10T13:45:22Z</time>
      </trkpt>
      <trkpt lat="43.31291" lon="6.53854">
        <ele>199.7</ele>
        <time>2024-11-10T13:45:31Z</time>
      </trkpt>
      <trkpt lat="43.31289" lon="6.53847">
        <ele>201.1</ele>
        <time>2024-11-10T13:45:50.999Z</time>
      </trkpt>
      <trkpt lat="43.31286" lon="6.5384">
        <ele>202.4</ele>
        <time>2024-11-10T13:46:11Z</time>
      </trkpt>
      <trkpt lat="43.3129" lon="6.53835">
        <ele>201.1</ele>
        <time>2024-11-10T13:46:38Z</time>
      </trkpt>
      <trkpt lat="43.31292" lon="6.53829">
        <ele>201</ele>
        <time>2024-11-10T13:46:42.500Z</time>
      </trkpt>
      <trkpt lat="43.31294" lon="6.53823">
        <ele>201</ele>
        <time>2024-11-10T13:46:47Z</time>
      </trkpt>
      <trkpt lat="43.31295" lon="6.53817">
        <ele>201.7</ele>
        <time>2024-11-10T13:46:52.000Z</time>
      </trkpt>
      <trkpt lat="43.31295" lon="6.5381">
        <ele>202.3</ele>
        <time>2024-11-10T13:46:57Z</time>
      </trkpt>
      <trkpt lat="43.31297" lon="6.53803">
        <ele>202.4</ele>
        <time>2024-11-10T13:47:05.000Z</time>
      </trkpt>
      <trkpt lat="43.31298" lon="6.53795">
        <ele>202</ele>
        <time>2024-11-10T13:47:13Z</time>
      </trkpt>
      <trkpt lat="43.31298" lon="6.53788">
        <ele>202.4</ele>
        <time>2024-11-10T13:47:19.000Z</time>
      </trkpt>
      <trkpt lat="43.31298" lon="6.5378">
        <ele>202.7</ele>
        <time>2024-11-10T13:47:25Z</time>
      </trkpt>
      <trkpt lat="43.313" lon="6.53773">
        <ele>201.9</ele>
        <time>2024-11-10T13:47:31.500Z</time>
      </trkpt>
      <trkpt lat="43.31301" lon="6.53765">
        <ele>200.8</ele>
        <time>2024-11-10T13:47:38Z</time>
      </trkpt>
      <trkpt lat="43.31299" lon="6.53759">
        <ele>201.5</ele>
        <time>2024-11-10T13:47:40.999Z</time>
      </trkpt>
      <trkpt lat="43.31298" lon="6.53753">
        <ele>202.1</ele>
        <time>2024-11-10T13:47:43.999Z</time>
      </trkpt>
      <trkpt lat="43.31296" lon="6.53746">
        <ele>203.3</ele>
        <time>2024-11-10T13:47:46.999Z</time>
      </trkpt>
      <trkpt lat="43.31294" lon="6.5374">
        <ele>204.7</ele>
        <time>2024-11-10T13:47:50Z</time>
      </trkpt>
      <trkpt lat="43.31296" lon="6.53733">
        <ele>204.6</ele>
        <time>2024-11-10T13:47:56.000Z</time>
      </trkpt>
      <trkpt lat="43.31297" lon="6.53725">
        <ele>204.4</ele>
        <time>2024-11-10T13:48:02Z</time>
      </trkpt>
      <trkpt lat="43.313" lon="6.53719">
        <ele>203.5</ele>
        <time>2024-11-10T13:48:07.000Z</time>
      </trkpt>
      <trkpt lat="43.31302" lon="6.53713">
        <ele>202.6</ele>
        <time>2024-11-10T13:48:12Z</time>
      </trkpt>
      <trkpt lat="43.31303" lon="6.53706">
        <ele>202.6</ele>
        <time>2024-11-10T13:48:17.000Z</time>
      </trkpt>
      <trkpt lat="43.31304" lon="6.53698">
        <ele>202.6</ele>
        <time>2024-11-10T13:48:22Z</time>
      </trkpt>
      <trkpt lat="43.31307" lon="6.53692">
        <ele>201.7</ele>
        <time>2024-11-10T13:48:27.000Z</time>
      </trkpt>
      <trkpt lat="43.31309" lon="6.53686">
        <ele>201</ele>
        <time>2024-11-10T13:48:32Z</time>
      </trkpt>
      <trkpt lat="43.31309" lon="6.53678">
        <ele>201.6</ele>
        <time>2024-11-10T13:48:37.000Z</time>
      </trkpt>
      <trkpt lat="43.31309" lon="6.5367">
        <ele>202.1</ele>
        <time>2024-11-10T13:48:42Z</time>
      </trkpt>
      <trkpt lat="43.31308" lon="6.53661">
        <ele>203.7</ele>
        <time>2024-11-10T13:48:46.999Z</time>
      </trkpt>
      <trkpt lat="43.31307" lon="6.53651">
        <ele>205.6</ele>
        <time>2024-11-10T13:48:52Z</time>
      </trkpt>
      <trkpt lat="43.31309" lon="6.53645">
        <ele>205.7</ele>
        <time>2024-11-10T13:48:56.500Z</time>
      </trkpt>
      <trkpt lat="43.3131" lon="6.53638">
        <ele>205.8</ele>
        <time>2024-11-10T13:49:01Z</time>
      </trkpt>
      <trkpt lat="43.31312" lon="6.53632">
        <ele>205.4</ele>
        <time>2024-11-10T13:49:05.500Z</time>
      </trkpt>
      <trkpt lat="43.31314" lon="6.53626">
        <ele>205.1</ele>
        <time>2024-11-10T13:49:10Z</time>
      </trkpt>
      <trkpt lat="43.31315" lon="6.53619">
        <ele>205.7</ele>
        <time>2024-11-10T13:49:15.000Z</time>
      </trkpt>
      <trkpt lat="43.31315" lon="6.53611">
        <ele>206.3</ele>
        <time>2024-11-10T13:49:20Z</time>
      </trkpt>
      <trkpt lat="43.31317" lon="6.53605">
        <ele>207.2</ele>
        <time>2024-11-10T13:49:24.500Z</time>
      </trkpt>
      <trkpt lat="43.31318" lon="6.53598">
        <ele>208.1</ele>
        <time>2024-11-10T13:49:29Z</time>
      </trkpt>
      <trkpt lat="43.31321" lon="6.53592">
        <ele>208.6</ele>
        <time>2024-11-10T13:49:33.000Z</time>
      </trkpt>
      <trkpt lat="43.31323" lon="6.53586">
        <ele>209.1</ele>
        <time>2024-11-10T13:49:37Z</time>
      </trkpt>
      <trkpt lat="43.31326" lon="6.53581">
        <ele>209.1</ele>
        <time>2024-11-10T13:49:41.000Z</time>
      </trkpt>
      <trkpt lat="43.31329" lon="6.53576">
        <ele>209</ele>
        <time>2024-11-10T13:49:45Z</time>
      </trkpt>
      <trkpt lat="43.31331" lon="6.5357">
        <ele>209.6</ele>
        <time>2024-11-10T13:49:49.500Z</time>
      </trkpt>
      <trkpt lat="43.31332" lon="6.53563">
        <ele>210.2</ele>
        <time>2024-11-10T13:49:54Z</time>
      </trkpt>
      <trkpt lat="43.31335" lon="6.53558">
        <ele>210.2</ele>
        <time>2024-11-10T13:49:58.500Z</time>
      </trkpt>
      <trkpt lat="43.31337" lon="6.53552">
        <ele>210</ele>
        <time>2024-11-10T13:50:03Z</time>
      </trkpt>
      <trkpt lat="43.3134" lon="6.53547">
        <ele>209.4</ele>
        <time>2024-11-10T13:50:08.000Z</time>
      </trkpt>
      <trkpt lat="43.31343" lon="6.53542">
        <ele>208.6</ele>
        <time>2024-11-10T13:50:13Z</time>
      </trkpt>
      <trkpt lat="43.31343" lon="6.53533">
        <ele>209.4</ele>
        <time>2024-11-10T13:50:19.000Z</time>
      </trkpt>
      <trkpt lat="43.31343" lon="6.53524">
        <ele>209.6</ele>
        <time>2024-11-10T13:50:25Z</time>
      </trkpt>
      <trkpt lat="43.31341" lon="6.53515">
        <ele>210.3</ele>
        <time>2024-11-10T13:50:30.499Z</time>
      </trkpt>
      <trkpt lat="43.31338" lon="6.53506">
        <ele>211.1</ele>
        <time>2024-11-10T13:50:36Z</time>
      </trkpt>
      <trkpt lat="43.31337" lon="6.53497">
        <ele>211.2</ele>
        <time>2024-11-10T13:50:41.999Z</time>
      </trkpt>
      <trkpt lat="43.31335" lon="6.53487">
        <ele>211.2</ele>
        <time>2024-11-10T13:50:48Z</time>
      </trkpt>
      <trkpt lat="43.31333" lon="6.53477">
        <ele>211.5</ele>
        <time>2024-11-10T13:50:53.499Z</time>
      </trkpt>
      <trkpt lat="43.31331" lon="6.53466">
        <ele>212.2</ele>
        <time>2024-11-10T13:50:59Z</time>
      </trkpt>
      <trkpt lat="43.31332" lon="6.53459">
        <ele>211.7</ele>
        <time>2024-11-10T13:51:05.000Z</time>
      </trkpt>
      <trkpt lat="43.31332" lon="6.53451">
        <ele>211.1</ele>
        <time>2024-11-10T13:51:11Z</time>
      </trkpt>
      <trkpt lat="43.3133" lon="6.53442">
        <ele>212.9</ele>
        <time>2024-11-10T13:51:15.999Z</time>
      </trkpt>
      <trkpt lat="43.31328" lon="6.53433">
        <ele>216.7</ele>
        <time>2024-11-10T13:51:21Z</time>
      </trkpt>
      <trkpt lat="43.31332" lon="6.53427">
        <ele>216.7</ele>
        <time>2024-11-10T13:51:25.500Z</time>
      </trkpt>
      <trkpt lat="43.31335" lon="6.5342">
        <ele>217.2</ele>
        <time>2024-11-10T13:51:30Z</time>
      </trkpt>
      <trkpt lat="43.31339" lon="6.53416">
        <ele>216.8</ele>
        <time>2024-11-10T13:51:34.500Z</time>
      </trkpt>
      <trkpt lat="43.31343" lon="6.53412">
        <ele>216.5</ele>
        <time>2024-11-10T13:51:39Z</time>
      </trkpt>
      <trkpt lat="43.31347" lon="6.53409">
        <ele>216</ele>
        <time>2024-11-10T13:51:43.000Z</time>
      </trkpt>
      <trkpt lat="43.31351" lon="6.53405">
        <ele>215.6</ele>
        <time>2024-11-10T13:51:47Z</time>
      </trkpt>
      <trkpt lat="43.31356" lon="6.53396">
        <ele>216.6</ele>
        <time>2024-11-10T13:51:55Z</time>
      </trkpt>
      <trkpt lat="43.31357" lon="6.5339">
        <ele>218.8</ele>
        <time>2024-11-10T13:51:59.500Z</time>
      </trkpt>
      <trkpt lat="43.31357" lon="6.53383">
        <ele>220.6</ele>
        <time>2024-11-10T13:52:04Z</time>
      </trkpt>
      <trkpt lat="43.31363" lon="6.5338">
        <ele>219.6</ele>
        <time>2024-11-10T13:52:08.500Z</time>
      </trkpt>
      <trkpt lat="43.31368" lon="6.53376">
        <ele>219.2</ele>
        <time>2024-11-10T13:52:13Z</time>
      </trkpt>
      <trkpt lat="43.31374" lon="6.53373">
        <ele>218.6</ele>
        <time>2024-11-10T13:52:17.500Z</time>
      </trkpt>
      <trkpt lat="43.31379" lon="6.5337">
        <ele>218.2</ele>
        <time>2024-11-10T13:52:22Z</time>
      </trkpt>
      <trkpt lat="43.31385" lon="6.53363">
        <ele>219.3</ele>
        <time>2024-11-10T13:52:32Z</time>
      </trkpt>
      <trkpt lat="43.31391" lon="6.53358">
        <ele>219.5</ele>
        <time>2024-11-10T13:52:37.000Z</time>
      </trkpt>
      <trkpt lat="43.31396" lon="6.53353">
        <ele>219.5</ele>
        <time>2024-11-10T13:52:42Z</time>
      </trkpt>
      <trkpt lat="43.31401" lon="6.53349">
        <ele>219.5</ele>
        <time>2024-11-10T13:52:46.500Z</time>
      </trkpt>
      <trkpt lat="43.31405" lon="6.53344">
        <ele>219.5</ele>
        <time>2024-11-10T13:52:51Z</time>
      </trkpt>
      <trkpt lat="43.3141" lon="6.53337">
        <ele>220.1</ele>
        <time>2024-11-10T13:52:55.500Z</time>
      </trkpt>
      <trkpt lat="43.31414" lon="6.5333">
        <ele>220.4</ele>
        <time>2024-11-10T13:53:00Z</time>
      </trkpt>
      <trkpt lat="43.31418" lon="6.53325">
        <ele>220</ele>
        <time>2024-11-10T13:53:04.500Z</time>
      </trkpt>
      <trkpt lat="43.31422" lon="6.5332">
        <ele>219.7</ele>
        <time>2024-11-10T13:53:09Z</time>
      </trkpt>
      <trkpt lat="43.31426" lon="6.53314">
        <ele>219.6</ele>
        <time>2024-11-10T13:53:13.500Z</time>
      </trkpt>
      <trkpt lat="43.3143" lon="6.53308">
        <ele>219.6</ele>
        <time>2024-11-10T13:53:18Z</time>
      </trkpt>
      <trkpt lat="43.31435" lon="6.53298">
        <ele>220.3</ele>
        <time>2024-11-10T13:53:27Z</time>
      </trkpt>
      <trkpt lat="43.31439" lon="6.53294">
        <ele>220.1</ele>
        <time>2024-11-10T13:53:31.500Z</time>
      </trkpt>
      <trkpt lat="43.31443" lon="6.53289">
        <ele>220</ele>
        <time>2024-11-10T13:53:36Z</time>
      </trkpt>
      <trkpt lat="43.31448" lon="6.53279">
        <ele>220.6</ele>
        <time>2024-11-10T13:53:45Z</time>
      </trkpt>
      <trkpt lat="43.31452" lon="6.53273">
        <ele>220.4</ele>
        <time>2024-11-10T13:53:50.500Z</time>
      </trkpt>
      <trkpt lat="43.31456" lon="6.53267">
        <ele>220</ele>
        <time>2024-11-10T13:53:56Z</time>
      </trkpt>
      <trkpt lat="43.31458" lon="6.53259">
        <ele>220.7</ele>
        <time>2024-11-10T13:54:01.000Z</time>
      </trkpt>
      <trkpt lat="43.3146" lon="6.5325">
        <ele>221.4</ele>
        <time>2024-11-10T13:54:06Z</time>
      </trkpt>
      <trkpt lat="43.31461" lon="6.53243">
        <ele>222.4</ele>
        <time>2024-11-10T13:54:10.500Z</time>
      </trkpt>
      <trkpt lat="43.31461" lon="6.53236">
        <ele>223.5</ele>
        <time>2024-11-10T13:54:15Z</time>
      </trkpt>
      <trkpt lat="43.31463" lon="6.5323">
        <ele>223.9</ele>
        <time>2024-11-10T13:54:19.500Z</time>
      </trkpt>
      <trkpt lat="43.31465" lon="6.53224">
        <ele>224.5</ele>
        <time>2024-11-10T13:54:24Z</time>
      </trkpt>
      <trkpt lat="43.31468" lon="6.53218">
        <ele>224.9</ele>
        <time>2024-11-10T13:54:29.500Z</time>
      </trkpt>
      <trkpt lat="43.3147" lon="6.53211">
        <ele>225.2</ele>
        <time>2024-11-10T13:54:35Z</time>
      </trkpt>
      <trkpt lat="43.31472" lon="6.53205">
        <ele>225.7</ele>
        <time>2024-11-10T13:54:39.500Z</time>
      </trkpt>
      <trkpt lat="43.31473" lon="6.53199">
        <ele>226</ele>
        <time>2024-11-10T13:54:44Z</time>
      </trkpt>
      <trkpt lat="43.31476" lon="6.53193">
        <ele>225.8</ele>
        <time>2024-11-10T13:54:48.500Z</time>
      </trkpt>
      <trkpt lat="43.31478" lon="6.53186">
        <ele>225.5</ele>
        <time>2024-11-10T13:54:53Z</time>
      </trkpt>
      <trkpt lat="43.31479" lon="6.53179">
        <ele>226.1</ele>
        <time>2024-11-10T13:54:58.000Z</time>
      </trkpt>
      <trkpt lat="43.3148" lon="6.53171">
        <ele>226.6</ele>
        <time>2024-11-10T13:55:03Z</time>
      </trkpt>
      <trkpt lat="43.31481" lon="6.53164">
        <ele>227.1</ele>
        <time>2024-11-10T13:55:08.000Z</time>
      </trkpt>
      <trkpt lat="43.31482" lon="6.53157">
        <ele>227.4</ele>
        <time>2024-11-10T13:55:13Z</time>
      </trkpt>
      <trkpt lat="43.31484" lon="6.53149">
        <ele>227.4</ele>
        <time>2024-11-10T13:55:19.000Z</time>
      </trkpt>
      <trkpt lat="43.31486" lon="6.53141">
        <ele>227.4</ele>
        <time>2024-11-10T13:55:25Z</time>
      </trkpt>
      <trkpt lat="43.31487" lon="6.5313">
        <ele>227.5</ele>
        <time>2024-11-10T13:55:31.000Z</time>
      </trkpt>
      <trkpt lat="43.31488" lon="6.53119">
        <ele>227.5</ele>
        <time>2024-11-10T13:55:37Z</time>
      </trkpt>
      <trkpt lat="43.31488" lon="6.5311">
        <ele>227.9</ele>
        <time>2024-11-10T13:55:41.999Z</time>
      </trkpt>
      <trkpt lat="43.31487" lon="6.53101">
        <ele>227.8</ele>
        <time>2024-11-10T13:55:47Z</time>
      </trkpt>
      <trkpt lat="43.31487" lon="6.53093">
        <ele>227.5</ele>
        <time>2024-11-10T13:55:52.000Z</time>
      </trkpt>
      <trkpt lat="43.31487" lon="6.53085">
        <ele>227.1</ele>
        <time>2024-11-10T13:55:57Z</time>
      </trkpt>
      <trkpt lat="43.31486" lon="6.53078">
        <ele>227.6</ele>
        <time>2024-11-10T13:56:01.499Z</time>
      </trkpt>
      <trkpt lat="43.31485" lon="6.53071">
        <ele>228.3</ele>
        <time>2024-11-10T13:56:06Z</time>
      </trkpt>
      <trkpt lat="43.31484" lon="6.53064">
        <ele>229.1</ele>
        <time>2024-11-10T13:56:10.499Z</time>
      </trkpt>
      <trkpt lat="43.31482" lon="6.53056">
        <ele>230.1</ele>
        <time>2024-11-10T13:56:15Z</time>
      </trkpt>
      <trkpt lat="43.31482" lon="6.53049">
        <ele>230.1</ele>
        <time>2024-11-10T13:56:20.000Z</time>
      </trkpt>
      <trkpt lat="43.31482" lon="6.53041">
        <ele>230</ele>
        <time>2024-11-10T13:56:25Z</time>
      </trkpt>
      <trkpt lat="43.31482" lon="6.53033">
        <ele>230.3</ele>
        <time>2024-11-10T13:56:29.999Z</time>
      </trkpt>
      <trkpt lat="43.31481" lon="6.53024">
        <ele>230.4</ele>
        <time>2024-11-10T13:56:35Z</time>
      </trkpt>
      <trkpt lat="43.3148" lon="6.53015">
        <ele>230.6</ele>
        <time>2024-11-10T13:56:39.999Z</time>
      </trkpt>
      <trkpt lat="43.31478" lon="6.53006">
        <ele>230.9</ele>
        <time>2024-11-10T13:56:45Z</time>
      </trkpt>
      <trkpt lat="43.31477" lon="6.52999">
        <ele>231.3</ele>
        <time>2024-11-10T13:56:49.499Z</time>
      </trkpt>
      <trkpt lat="43.31475" lon="6.52992">
        <ele>231.7</ele>
        <time>2024-11-10T13:56:54Z</time>
      </trkpt>
      <trkpt lat="43.31473" lon="6.52986">
        <ele>232.5</ele>
        <time>2024-11-10T13:56:58.999Z</time>
      </trkpt>
      <trkpt lat="43.31471" lon="6.52979">
        <ele>233.3</ele>
        <time>2024-11-10T13:57:04Z</time>
      </trkpt>
      <trkpt lat="43.31468" lon="6.52973">
        <ele>234.9</ele>
        <time>2024-11-10T13:57:08.499Z</time>
      </trkpt>
      <trkpt lat="43.31464" lon="6.52966">
        <ele>235.4</ele>
        <time>2024-11-10T13:57:13Z</time>
      </trkpt>
      <trkpt lat="43.3146" lon="6.52961">
        <ele>236.3</ele>
        <time>2024-11-10T13:57:17.999Z</time>
      </trkpt>
      <trkpt lat="43.31456" lon="6.52956">
        <ele>237.1</ele>
        <time>2024-11-10T13:57:23Z</time>
      </trkpt>
      <trkpt lat="43.31453" lon="6.52951">
        <ele>236.9</ele>
        <time>2024-11-10T13:57:27.999Z</time>
      </trkpt>
      <trkpt lat="43.3145" lon="6.52945">
        <ele>236.6</ele>
        <time>2024-11-10T13:57:33Z</time>
      </trkpt>
      <trkpt lat="43.31446" lon="6.5294">
        <ele>237.7</ele>
        <time>2024-11-10T13:57:37.999Z</time>
      </trkpt>
      <trkpt lat="43.31442" lon="6.52934">
        <ele>238.8</ele>
        <time>2024-11-10T13:57:43Z</time>
      </trkpt>
      <trkpt lat="43.31442" lon="6.52926">
        <ele>238.2</ele>
        <time>2024-11-10T13:57:48.999Z</time>
      </trkpt>
      <trkpt lat="43.31441" lon="6.52917">
        <ele>237.6</ele>
        <time>2024-11-10T13:57:55Z</time>
      </trkpt>
      <trkpt lat="43.31442" lon="6.5291">
        <ele>237.9</ele>
        <time>2024-11-10T13:58:00.000Z</time>
      </trkpt>
      <trkpt lat="43.31443" lon="6.52902">
        <ele>238.3</ele>
        <time>2024-11-10T13:58:05Z</time>
      </trkpt>
      <trkpt lat="43.31445" lon="6.52894">
        <ele>238.4</ele>
        <time>2024-11-10T13:58:09.500Z</time>
      </trkpt>
      <trkpt lat="43.31446" lon="6.52886">
        <ele>238.4</ele>
        <time>2024-11-10T13:58:14Z</time>
      </trkpt>
      <trkpt lat="43.31446" lon="6.52879">
        <ele>238.3</ele>
        <time>2024-11-10T13:58:18.500Z</time>
      </trkpt>
      <trkpt lat="43.31446" lon="6.52871">
        <ele>238.3</ele>
        <time>2024-11-10T13:58:23Z</time>
      </trkpt>
      <trkpt lat="43.31443" lon="6.52864">
        <ele>239.9</ele>
        <time>2024-11-10T13:58:28.499Z</time>
      </trkpt>
      <trkpt lat="43.31439" lon="6.52857">
        <ele>241.3</ele>
        <time>2024-11-10T13:58:34Z</time>
      </trkpt>
      <trkpt lat="43.31437" lon="6.5285">
        <ele>241.6</ele>
        <time>2024-11-10T13:58:39.999Z</time>
      </trkpt>
      <trkpt lat="43.31435" lon="6.52842">
        <ele>242</ele>
        <time>2024-11-10T13:58:46Z</time>
      </trkpt>
      <trkpt lat="43.31433" lon="6.52833">
        <ele>242.3</ele>
        <time>2024-11-10T13:58:51.499Z</time>
      </trkpt>
      <trkpt lat="43.31431" lon="6.52824">
        <ele>242.8</ele>
        <time>2024-11-10T13:58:57Z</time>
      </trkpt>
      <trkpt lat="43.31429" lon="6.52816">
        <ele>243.3</ele>
        <time>2024-11-10T13:59:02.499Z</time>
      </trkpt>
      <trkpt lat="43.31427" lon="6.52808">
        <ele>243.9</ele>
        <time>2024-11-10T13:59:08Z</time>
      </trkpt>
      <trkpt lat="43.31425" lon="6.528">
        <ele>244.1</ele>
        <time>2024-11-10T13:59:12.999Z</time>
      </trkpt>
      <trkpt lat="43.31423" lon="6.52792">
        <ele>244.2</ele>
        <time>2024-11-10T13:59:18Z</time>
      </trkpt>
      <trkpt lat="43.31421" lon="6.52785">
        <ele>244.4</ele>
        <time>2024-11-10T13:59:23.499Z</time>
      </trkpt>
      <trkpt lat="43.31419" lon="6.52777">
        <ele>244.7</ele>
        <time>2024-11-10T13:59:29Z</time>
      </trkpt>
      <trkpt lat="43.31418" lon="6.5277">
        <ele>245.2</ele>
        <time>2024-11-10T13:59:33.999Z</time>
      </trkpt>
      <trkpt lat="43.31416" lon="6.52762">
        <ele>245.7</ele>
        <time>2024-11-10T13:59:39Z</time>
      </trkpt>
      <trkpt lat="43.31416" lon="6.52755">
        <ele>245.5</ele>
        <time>2024-11-10T13:59:45.000Z</time>
      </trkpt>
      <trkpt lat="43.31416" lon="6.52747">
        <ele>245.2</ele>
        <time>2024-11-10T13:59:51Z</time>
      </trkpt>
      <trkpt lat="43.31415" lon="6.52737">
        <ele>245.4</ele>
        <time>2024-11-10T13:59:56.499Z</time>
      </trkpt>
      <trkpt lat="43.31413" lon="6.52727">
        <ele>245.5</ele>
        <time>2024-11-10T14:00:02Z</time>
      </trkpt>
      <trkpt lat="43.31413" lon="6.52719">
        <ele>245.6</ele>
        <time>2024-11-10T14:00:06.999Z</time>
      </trkpt>
      <trkpt lat="43.31412" lon="6.52711">
        <ele>245.9</ele>
        <time>2024-11-10T14:00:12Z</time>
      </trkpt>
      <trkpt lat="43.31412" lon="6.52703">
        <ele>246</ele>
        <time>2024-11-10T14:00:17.500Z</time>
      </trkpt>
      <trkpt lat="43.31412" lon="6.52694">
        <ele>246.1</ele>
        <time>2024-11-10T14:00:23Z</time>
      </trkpt>
      <trkpt lat="43.3141" lon="6.52687">
        <ele>245.9</ele>
        <time>2024-11-10T14:00:27.499Z</time>
      </trkpt>
      <trkpt lat="43.31407" lon="6.5268">
        <ele>245.7</ele>
        <time>2024-11-10T14:00:32Z</time>
      </trkpt>
      <trkpt lat="43.31404" lon="6.52675">
        <ele>245.7</ele>
        <time>2024-11-10T14:00:36.499Z</time>
      </trkpt>
      <trkpt lat="43.31401" lon="6.52669">
        <ele>245.7</ele>
        <time>2024-11-10T14:00:41Z</time>
      </trkpt>
      <trkpt lat="43.31397" lon="6.52664">
        <ele>246.4</ele>
        <time>2024-11-10T14:00:45.999Z</time>
      </trkpt>
      <trkpt lat="43.31393" lon="6.52659">
        <ele>247.2</ele>
        <time>2024-11-10T14:00:51Z</time>
      </trkpt>
      <trkpt lat="43.31393" lon="6.52648">
        <ele>247.2</ele>
        <time>2024-11-10T14:01:17Z</time>
      </trkpt>
      <trkpt lat="43.31396" lon="6.52648">
        <ele>247.2</ele>
        <time>2024-11-10T14:05:08Z</time>
      </trkpt>
      <trkpt lat="43.31392" lon="6.52645">
        <ele>247.2</ele>
        <time>2024-11-10T14:05:12.999Z</time>
      </trkpt>
      <trkpt lat="43.31388" lon="6.52641">
        <ele>247</ele>
        <time>2024-11-10T14:05:18Z</time>
      </trkpt>
      <trkpt lat="43.31387" lon="6.52634">
        <ele>246.6</ele>
        <time>2024-11-10T14:05:22.999Z</time>
      </trkpt>
      <trkpt lat="43.31386" lon="6.52627">
        <ele>246.2</ele>
        <time>2024-11-10T14:05:28Z</time>
      </trkpt>
      <trkpt lat="43.31385" lon="6.5262">
        <ele>245.7</ele>
        <time>2024-11-10T14:05:32.999Z</time>
      </trkpt>
      <trkpt lat="43.31383" lon="6.52612">
        <ele>245.2</ele>
        <time>2024-11-10T14:05:38Z</time>
      </trkpt>
      <trkpt lat="43.31382" lon="6.52606">
        <ele>245.1</ele>
        <time>2024-11-10T14:05:49.499Z</time>
      </trkpt>
      <trkpt lat="43.31381" lon="6.52599">
        <ele>245</ele>
        <time>2024-11-10T14:06:01Z</time>
      </trkpt>
      <trkpt lat="43.31377" lon="6.52595">
        <ele>244.5</ele>
        <time>2024-11-10T14:06:06.499Z</time>
      </trkpt>
      <trkpt lat="43.31373" lon="6.5259">
        <ele>244.1</ele>
        <time>2024-11-10T14:06:12Z</time>
      </trkpt>
      <trkpt lat="43.31368" lon="6.52587">
        <ele>243.6</ele>
        <time>2024-11-10T14:06:17.499Z</time>
      </trkpt>
      <trkpt lat="43.31363" lon="6.52584">
        <ele>243.2</ele>
        <time>2024-11-10T14:06:23Z</time>
      </trkpt>
      <trkpt lat="43.31359" lon="6.52582">
        <ele>243.1</ele>
        <time>2024-11-10T14:06:28.499Z</time>
      </trkpt>
      <trkpt lat="43.31354" lon="6.52579">
        <ele>242.9</ele>
        <time>2024-11-10T14:06:34Z</time>
      </trkpt>
      <trkpt lat="43.3135" lon="6.52578">
        <ele>242.4</ele>
        <time>2024-11-10T14:06:42.000Z</time>
      </trkpt>
      <trkpt lat="43.31345" lon="6.52577">
        <ele>241.9</ele>
        <time>2024-11-10T14:06:50Z</time>
      </trkpt>
      <trkpt lat="43.31346" lon="6.52573">
        <ele>242.8</ele>
        <time>2024-11-10T14:07:24Z</time>
      </trkpt>
      <trkpt lat="43.31352" lon="6.52569">
        <ele>244.8</ele>
        <time>2024-11-10T14:08:07Z</time>
      </trkpt>
      <trkpt lat="43.31353" lon="6.52558">
        <ele>247.4</ele>
        <time>2024-11-10T14:08:33Z</time>
      </trkpt>
      <trkpt lat="43.31353" lon="6.52551">
        <ele>249</ele>
        <time>2024-11-10T14:08:43.000Z</time>
      </trkpt>
      <trkpt lat="43.31353" lon="6.52544">
        <ele>250.6</ele>
        <time>2024-11-10T14:08:53Z</time>
      </trkpt>
      <trkpt lat="43.31354" lon="6.52536">
        <ele>252.7</ele>
        <time>2024-11-10T14:09:03.500Z</time>
      </trkpt>
      <trkpt lat="43.31354" lon="6.52527">
        <ele>254.9</ele>
        <time>2024-11-10T14:09:14Z</time>
      </trkpt>
      <trkpt lat="43.31351" lon="6.52522">
        <ele>255.2</ele>
        <time>2024-11-10T14:09:24.499Z</time>
      </trkpt>
      <trkpt lat="43.31348" lon="6.52516">
        <ele>255.7</ele>
        <time>2024-11-10T14:09:35Z</time>
      </trkpt>
      <trkpt lat="43.31347" lon="6.52506">
        <ele>257.9</ele>
        <time>2024-11-10T14:10:00Z</time>
      </trkpt>
      <trkpt lat="43.3135" lon="6.52501">
        <ele>260.1</ele>
        <time>2024-11-10T14:10:09.500Z</time>
      </trkpt>
      <trkpt lat="43.31353" lon="6.52495">
        <ele>261.1</ele>
        <time>2024-11-10T14:10:19Z</time>
      </trkpt>
      <trkpt lat="43.31353" lon="6.52484">
        <ele>261.5</ele>
        <time>2024-11-10T14:10:48Z</time>
      </trkpt>
      <trkpt lat="43.31357" lon="6.52474">
        <ele>262.4</ele>
        <time>2024-11-10T14:11:06.500Z</time>
      </trkpt>
      <trkpt lat="43.31361" lon="6.52464">
        <ele>261.5</ele>
        <time>2024-11-10T14:11:25Z</time>
      </trkpt>
      <trkpt lat="43.31363" lon="6.52465">
        <ele>261.3</ele>
        <time>2024-11-10T14:11:53Z</time>
      </trkpt>
      <trkpt lat="43.31361" lon="6.52465">
        <ele>261.7</ele>
        <time>2024-11-10T14:13:11Z</time>
      </trkpt>
      <trkpt lat="43.31368" lon="6.5246">
        <ele>259.3</ele>
        <time>2024-11-10T14:13:33.500Z</time>
      </trkpt>
      <trkpt lat="43.31375" lon="6.52454">
        <ele>257</ele>
        <time>2024-11-10T14:13:56Z</time>
      </trkpt>
      <trkpt lat="43.3138" lon="6.52456">
        <ele>256.4</ele>
        <time>2024-11-10T14:14:07.500Z</time>
      </trkpt>
      <trkpt lat="43.31385" lon="6.52458">
        <ele>255.7</ele>
        <time>2024-11-10T14:14:19Z</time>
      </trkpt>
      <trkpt lat="43.31392" lon="6.52455">
        <ele>254</ele>
        <time>2024-11-10T14:14:40Z</time>
      </trkpt>
      <trkpt lat="43.314" lon="6.52453">
        <ele>252.5</ele>
        <time>2024-11-10T14:15:01Z</time>
      </trkpt>
      <trkpt lat="43.31405" lon="6.5245">
        <ele>251.2</ele>
        <time>2024-11-10T14:15:12.000Z</time>
      </trkpt>
      <trkpt lat="43.31409" lon="6.52447">
        <ele>249.9</ele>
        <time>2024-11-10T14:15:23Z</time>
      </trkpt>
      <trkpt lat="43.31415" lon="6.52439">
        <ele>247.1</ele>
        <time>2024-11-10T14:15:46Z</time>
      </trkpt>
      <trkpt lat="43.31415" lon="6.52432">
        <ele>245.6</ele>
        <time>2024-11-10T14:15:56.500Z</time>
      </trkpt>
      <trkpt lat="43.31415" lon="6.52425">
        <ele>244.1</ele>
        <time>2024-11-10T14:16:07Z</time>
      </trkpt>
      <trkpt lat="43.31419" lon="6.5242">
        <ele>243.2</ele>
        <time>2024-11-10T14:16:15.000Z</time>
      </trkpt>
      <trkpt lat="43.31422" lon="6.52415">
        <ele>243.1</ele>
        <time>2024-11-10T14:16:23Z</time>
      </trkpt>
      <trkpt lat="43.31426" lon="6.52412">
        <ele>243.4</ele>
        <time>2024-11-10T14:16:33.000Z</time>
      </trkpt>
      <trkpt lat="43.3143" lon="6.52408">
        <ele>243.8</ele>
        <time>2024-11-10T14:16:43Z</time>
      </trkpt>
      <trkpt lat="43.31434" lon="6.52404">
        <ele>243.9</ele>
        <time>2024-11-10T14:16:55.000Z</time>
      </trkpt>
      <trkpt lat="43.31437" lon="6.524">
        <ele>244.1</ele>
        <time>2024-11-10T14:17:07Z</time>
      </trkpt>
      <trkpt lat="43.31443" lon="6.52395">
        <ele>244.9</ele>
        <time>2024-11-10T14:17:25Z</time>
      </trkpt>
      <trkpt lat="43.31447" lon="6.52392">
        <ele>245</ele>
        <time>2024-11-10T14:17:31.500Z</time>
      </trkpt>
      <trkpt lat="43.31451" lon="6.52388">
        <ele>245</ele>
        <time>2024-11-10T14:17:38Z</time>
      </trkpt>
      <trkpt lat="43.31456" lon="6.52385">
        <ele>245.1</ele>
        <time>2024-11-10T14:17:44.000Z</time>
      </trkpt>
      <trkpt lat="43.3146" lon="6.52381">
        <ele>245.2</ele>
        <time>2024-11-10T14:17:50Z</time>
      </trkpt>
      <trkpt lat="43.31465" lon="6.52382">
        <ele>246.2</ele>
        <time>2024-11-10T14:17:58.500Z</time>
      </trkpt>
      <trkpt lat="43.3147" lon="6.52382">
        <ele>247.1</ele>
        <time>2024-11-10T14:18:07Z</time>
      </trkpt>
      <trkpt lat="43.31474" lon="6.52387">
        <ele>248.4</ele>
        <time>2024-11-10T14:18:13.000Z</time>
      </trkpt>
      <trkpt lat="43.31477" lon="6.52391">
        <ele>249.1</ele>
        <time>2024-11-10T14:18:19Z</time>
      </trkpt>
      <trkpt lat="43.31481" lon="6.52396">
        <ele>250</ele>
        <time>2024-11-10T14:18:25.000Z</time>
      </trkpt>
      <trkpt lat="43.31484" lon="6.524">
        <ele>250.9</ele>
        <time>2024-11-10T14:18:31Z</time>
      </trkpt>
      <trkpt lat="43.31488" lon="6.52404">
        <ele>251.6</ele>
        <time>2024-11-10T14:18:36.500Z</time>
      </trkpt>
      <trkpt lat="43.31492" lon="6.52407">
        <ele>252.4</ele>
        <time>2024-11-10T14:18:42Z</time>
      </trkpt>
      <trkpt lat="43.31496" lon="6.52411">
        <ele>253.4</ele>
        <time>2024-11-10T14:18:48.000Z</time>
      </trkpt>
      <trkpt lat="43.31499" lon="6.52415">
        <ele>254.5</ele>
        <time>2024-11-10T14:18:54Z</time>
      </trkpt>
      <trkpt lat="43.31504" lon="6.52418">
        <ele>254.9</ele>
        <time>2024-11-10T14:19:00.000Z</time>
      </trkpt>
      <trkpt lat="43.31509" lon="6.5242">
        <ele>255</ele>
        <time>2024-11-10T14:19:06Z</time>
      </trkpt>
      <trkpt lat="43.31514" lon="6.52422">
        <ele>255</ele>
        <time>2024-11-10T14:19:11.500Z</time>
      </trkpt>
      <trkpt lat="43.31518" lon="6.52424">
        <ele>254.9</ele>
        <time>2024-11-10T14:19:17Z</time>
      </trkpt>
      <trkpt lat="43.31523" lon="6.52426">
        <ele>254.7</ele>
        <time>2024-11-10T14:19:22.500Z</time>
      </trkpt>
      <trkpt lat="43.31528" lon="6.52427">
        <ele>254.5</ele>
        <time>2024-11-10T14:19:28Z</time>
      </trkpt>
      <trkpt lat="43.31533" lon="6.52428">
        <ele>255.3</ele>
        <time>2024-11-10T14:19:36.000Z</time>
      </trkpt>
      <trkpt lat="43.31538" lon="6.52428">
        <ele>256</ele>
        <time>2024-11-10T14:19:44Z</time>
      </trkpt>
      <trkpt lat="43.31543" lon="6.52431">
        <ele>257.3</ele>
        <time>2024-11-10T14:19:56.500Z</time>
      </trkpt>
      <trkpt lat="43.31548" lon="6.52434">
        <ele>258.6</ele>
        <time>2024-11-10T14:20:09Z</time>
      </trkpt>
      <trkpt lat="43.31548" lon="6.52446">
        <ele>260.9</ele>
        <time>2024-11-10T14:20:27Z</time>
      </trkpt>
      <trkpt lat="43.3155" lon="6.52458">
        <ele>263.7</ele>
        <time>2024-11-10T14:20:46Z</time>
      </trkpt>
      <trkpt lat="43.31549" lon="6.52465">
        <ele>264.9</ele>
        <time>2024-11-10T14:20:54.499Z</time>
      </trkpt>
      <trkpt lat="43.31548" lon="6.52472">
        <ele>266.1</ele>
        <time>2024-11-10T14:21:03Z</time>
      </trkpt>
      <trkpt lat="43.31549" lon="6.52479">
        <ele>266.5</ele>
        <time>2024-11-10T14:21:09.500Z</time>
      </trkpt>
      <trkpt lat="43.31549" lon="6.52486">
        <ele>267</ele>
        <time>2024-11-10T14:21:16Z</time>
      </trkpt>
      <trkpt lat="43.31549" lon="6.52493">
        <ele>267.3</ele>
        <time>2024-11-10T14:21:22.000Z</time>
      </trkpt>
      <trkpt lat="43.31549" lon="6.52499">
        <ele>267.5</ele>
        <time>2024-11-10T14:21:28Z</time>
      </trkpt>
      <trkpt lat="43.31552" lon="6.52504">
        <ele>268.1</ele>
        <time>2024-11-10T14:21:34.500Z</time>
      </trkpt>
      <trkpt lat="43.31555" lon="6.52509">
        <ele>268.6</ele>
        <time>2024-11-10T14:21:41Z</time>
      </trkpt>
      <trkpt lat="43.31558" lon="6.52514">
        <ele>269.2</ele>
        <time>2024-11-10T14:21:48.500Z</time>
      </trkpt>
      <trkpt lat="43.31561" lon="6.52519">
        <ele>269.7</ele>
        <time>2024-11-10T14:21:56Z</time>
      </trkpt>
      <trkpt lat="43.31569" lon="6.52524">
        <ele>271.2</ele>
        <time>2024-11-10T14:22:09Z</time>
      </trkpt>
      <trkpt lat="43.31574" lon="6.52527">
        <ele>272</ele>
        <time>2024-11-10T14:22:17.000Z</time>
      </trkpt>
      <trkpt lat="43.31578" lon="6.5253">
        <ele>272.4</ele>
        <time>2024-11-10T14:22:25Z</time>
      </trkpt>
      <trkpt lat="43.31585" lon="6.52533">
        <ele>273.2</ele>
        <time>2024-11-10T14:22:33.000Z</time>
      </trkpt>
      <trkpt lat="43.31592" lon="6.52536">
        <ele>274.1</ele>
        <time>2024-11-10T14:22:41Z</time>
      </trkpt>
      <trkpt lat="43.31598" lon="6.52539">
        <ele>274.7</ele>
        <time>2024-11-10T14:22:48.500Z</time>
      </trkpt>
      <trkpt lat="43.31603" lon="6.52541">
        <ele>275.4</ele>
        <time>2024-11-10T14:22:56Z</time>
      </trkpt>
      <trkpt lat="43.31609" lon="6.52544">
        <ele>276</ele>
        <time>2024-11-10T14:23:05.000Z</time>
      </trkpt>
      <trkpt lat="43.31614" lon="6.52546">
        <ele>276.6</ele>
        <time>2024-11-10T14:23:14Z</time>
      </trkpt>
      <trkpt lat="43.3162" lon="6.5255">
        <ele>277.1</ele>
        <time>2024-11-10T14:23:21.500Z</time>
      </trkpt>
      <trkpt lat="43.31625" lon="6.52554">
        <ele>277.7</ele>
        <time>2024-11-10T14:23:29Z</time>
      </trkpt>
      <trkpt lat="43.3163" lon="6.52555">
        <ele>278.7</ele>
        <time>2024-11-10T14:23:57.000Z</time>
      </trkpt>
      <trkpt lat="43.31634" lon="6.52556">
        <ele>279.7</ele>
        <time>2024-11-10T14:24:25Z</time>
      </trkpt>
      <trkpt lat="43.31638" lon="6.52554">
        <ele>280.9</ele>
        <time>2024-11-10T14:25:26Z</time>
      </trkpt>
      <trkpt lat="43.31638" lon="6.52552">
        <ele>281</ele>
        <time>2024-11-10T14:26:47Z</time>
      </trkpt>
      <trkpt lat="43.31638" lon="6.52546">
        <ele>281.4</ele>
        <time>2024-11-10T14:27:57.999Z</time>
      </trkpt>
      <trkpt lat="43.31637" lon="6.52539">
        <ele>281.9</ele>
        <time>2024-11-10T14:29:09Z</time>
      </trkpt>
      <trkpt lat="43.31635" lon="6.52532">
        <ele>282.2</ele>
        <time>2024-11-10T14:29:14.999Z</time>
      </trkpt>
      <trkpt lat="43.31633" lon="6.52524">
        <ele>282.8</ele>
        <time>2024-11-10T14:29:21Z</time>
      </trkpt>
      <trkpt lat="43.31631" lon="6.52518">
        <ele>283.5</ele>
        <time>2024-11-10T14:29:25.999Z</time>
      </trkpt>
      <trkpt lat="43.31629" lon="6.52511">
        <ele>284.2</ele>
        <time>2024-11-10T14:29:31Z</time>
      </trkpt>
      <trkpt lat="43.31631" lon="6.52505">
        <ele>285.1</ele>
        <time>2024-11-10T14:29:36.000Z</time>
      </trkpt>
      <trkpt lat="43.31633" lon="6.52499">
        <ele>285.8</ele>
        <time>2024-11-10T14:29:41Z</time>
      </trkpt>
      <trkpt lat="43.31638" lon="6.52497">
        <ele>285.9</ele>
        <time>2024-11-10T14:29:46.000Z</time>
      </trkpt>
      <trkpt lat="43.31642" lon="6.52495">
        <ele>286.4</ele>
        <time>2024-11-10T14:29:51Z</time>
      </trkpt>
      <trkpt lat="43.31648" lon="6.52497">
        <ele>287.2</ele>
        <time>2024-11-10T14:29:56.500Z</time>
      </trkpt>
      <trkpt lat="43.31653" lon="6.52498">
        <ele>288</ele>
        <time>2024-11-10T14:30:02Z</time>
      </trkpt>
      <trkpt lat="43.31658" lon="6.52499">
        <ele>288.6</ele>
        <time>2024-11-10T14:30:07.000Z</time>
      </trkpt>
      <trkpt lat="43.31662" lon="6.525">
        <ele>289.3</ele>
        <time>2024-11-10T14:30:12Z</time>
      </trkpt>
      <trkpt lat="43.31667" lon="6.525">
        <ele>290</ele>
        <time>2024-11-10T14:30:17.500Z</time>
      </trkpt>
      <trkpt lat="43.31672" lon="6.525">
        <ele>290.6</ele>
        <time>2024-11-10T14:30:23Z</time>
      </trkpt>
      <trkpt lat="43.31678" lon="6.52501">
        <ele>291.2</ele>
        <time>2024-11-10T14:30:28.500Z</time>
      </trkpt>
      <trkpt lat="43.31683" lon="6.52502">
        <ele>291.9</ele>
        <time>2024-11-10T14:30:34Z</time>
      </trkpt>
      <trkpt lat="43.31688" lon="6.52502">
        <ele>292.4</ele>
        <time>2024-11-10T14:30:39.000Z</time>
      </trkpt>
      <trkpt lat="43.31693" lon="6.52501">
        <ele>292.9</ele>
        <time>2024-11-10T14:30:44Z</time>
      </trkpt>
      <trkpt lat="43.31699" lon="6.525">
        <ele>293.2</ele>
        <time>2024-11-10T14:30:48.500Z</time>
      </trkpt>
      <trkpt lat="43.31704" lon="6.52498">
        <ele>293.5</ele>
        <time>2024-11-10T14:30:53Z</time>
      </trkpt>
      <trkpt lat="43.31709" lon="6.52498">
        <ele>293.9</ele>
        <time>2024-11-10T14:30:57.500Z</time>
      </trkpt>
      <trkpt lat="43.31713" lon="6.52498">
        <ele>294.2</ele>
        <time>2024-11-10T14:31:02Z</time>
      </trkpt>
      <trkpt lat="43.31718" lon="6.52497">
        <ele>294.6</ele>
        <time>2024-11-10T14:31:06.500Z</time>
      </trkpt>
      <trkpt lat="43.31723" lon="6.52496">
        <ele>294.9</ele>
        <time>2024-11-10T14:31:11Z</time>
      </trkpt>
      <trkpt lat="43.31728" lon="6.52494">
        <ele>295.3</ele>
        <time>2024-11-10T14:31:15.500Z</time>
      </trkpt>
      <trkpt lat="43.31733" lon="6.52491">
        <ele>295.8</ele>
        <time>2024-11-10T14:31:20Z</time>
      </trkpt>
      <trkpt lat="43.31741" lon="6.52486">
        <ele>296.9</ele>
        <time>2024-11-10T14:31:29Z</time>
      </trkpt>
      <trkpt lat="43.31746" lon="6.52483">
        <ele>297.6</ele>
        <time>2024-11-10T14:31:34.500Z</time>
      </trkpt>
      <trkpt lat="43.3175" lon="6.5248">
        <ele>298.4</ele>
        <time>2024-11-10T14:31:40Z</time>
      </trkpt>
      <trkpt lat="43.31758" lon="6.52475">
        <ele>299.3</ele>
        <time>2024-11-10T14:31:50Z</time>
      </trkpt>
      <trkpt lat="43.31763" lon="6.52474">
        <ele>299.7</ele>
        <time>2024-11-10T14:31:56.500Z</time>
      </trkpt>
      <trkpt lat="43.31768" lon="6.52473">
        <ele>300.2</ele>
        <time>2024-11-10T14:32:03Z</time>
      </trkpt>
      <trkpt lat="43.31774" lon="6.52472">
        <ele>300.8</ele>
        <time>2024-11-10T14:32:08.500Z</time>
      </trkpt>
      <trkpt lat="43.31779" lon="6.5247">
        <ele>301.5</ele>
        <time>2024-11-10T14:32:14Z</time>
      </trkpt>
      <trkpt lat="43.31784" lon="6.52469">
        <ele>302.1</ele>
        <time>2024-11-10T14:32:19.500Z</time>
      </trkpt>
      <trkpt lat="43.31789" lon="6.52467">
        <ele>302.6</ele>
        <time>2024-11-10T14:32:25Z</time>
      </trkpt>
      <trkpt lat="43.31794" lon="6.52465">
        <ele>303.2</ele>
        <time>2024-11-10T14:32:31.500Z</time>
      </trkpt>
      <trkpt lat="43.31799" lon="6.52463">
        <ele>303.7</ele>
        <time>2024-11-10T14:32:38Z</time>
      </trkpt>
      <trkpt lat="43.31804" lon="6.52462">
        <ele>304.1</ele>
        <time>2024-11-10T14:32:44.000Z</time>
      </trkpt>
      <trkpt lat="43.31809" lon="6.5246">
        <ele>304.4</ele>
        <time>2024-11-10T14:32:50Z</time>
      </trkpt>
      <trkpt lat="43.31816" lon="6.52459">
        <ele>304.6</ele>
        <time>2024-11-10T14:32:55.500Z</time>
      </trkpt>
      <trkpt lat="43.31822" lon="6.52458">
        <ele>304.8</ele>
        <time>2024-11-10T14:33:01Z</time>
      </trkpt>
      <trkpt lat="43.31827" lon="6.52458">
        <ele>304.9</ele>
        <time>2024-11-10T14:33:06.000Z</time>
      </trkpt>
      <trkpt lat="43.31832" lon="6.52457">
        <ele>304.9</ele>
        <time>2024-11-10T14:33:11Z</time>
      </trkpt>
      <trkpt lat="43.31838" lon="6.52455">
        <ele>305.1</ele>
        <time>2024-11-10T14:33:16.000Z</time>
      </trkpt>
      <trkpt lat="43.31843" lon="6.52453">
        <ele>305.3</ele>
        <time>2024-11-10T14:33:21Z</time>
      </trkpt>
      <trkpt lat="43.31849" lon="6.52455">
        <ele>305.8</ele>
        <time>2024-11-10T14:33:26.000Z</time>
      </trkpt>
      <trkpt lat="43.31854" lon="6.52456">
        <ele>306.3</ele>
        <time>2024-11-10T14:33:31Z</time>
      </trkpt>
      <trkpt lat="43.31859" lon="6.5246">
        <ele>306.9</ele>
        <time>2024-11-10T14:33:36.500Z</time>
      </trkpt>
      <trkpt lat="43.31864" lon="6.52463">
        <ele>307.8</ele>
        <time>2024-11-10T14:33:42Z</time>
      </trkpt>
      <trkpt lat="43.31869" lon="6.52463">
        <ele>308.5</ele>
        <time>2024-11-10T14:33:48.000Z</time>
      </trkpt>
      <trkpt lat="43.31873" lon="6.52463">
        <ele>309.2</ele>
        <time>2024-11-10T14:33:54Z</time>
      </trkpt>
      <trkpt lat="43.31878" lon="6.52464">
        <ele>310</ele>
        <time>2024-11-10T14:33:59.000Z</time>
      </trkpt>
      <trkpt lat="43.31882" lon="6.52464">
        <ele>310.7</ele>
        <time>2024-11-10T14:34:04Z</time>
      </trkpt>
      <trkpt lat="43.31887" lon="6.52467">
        <ele>311.9</ele>
        <time>2024-11-10T14:34:09.500Z</time>
      </trkpt>
      <trkpt lat="43.31891" lon="6.5247">
        <ele>313</ele>
        <time>2024-11-10T14:34:15Z</time>
      </trkpt>
      <trkpt lat="43.31896" lon="6.52474">
        <ele>314</ele>
        <time>2024-11-10T14:34:22.000Z</time>
      </trkpt>
      <trkpt lat="43.319" lon="6.52477">
        <ele>314.8</ele>
        <time>2024-11-10T14:34:29Z</time>
      </trkpt>
      <trkpt lat="43.31906" lon="6.5248">
        <ele>315.8</ele>
        <time>2024-11-10T14:34:35.500Z</time>
      </trkpt>
      <trkpt lat="43.31911" lon="6.52482">
        <ele>316.8</ele>
        <time>2024-11-10T14:34:42Z</time>
      </trkpt>
      <trkpt lat="43.31916" lon="6.52486">
        <ele>317.8</ele>
        <time>2024-11-10T14:34:49.000Z</time>
      </trkpt>
      <trkpt lat="43.3192" lon="6.52489">
        <ele>318.9</ele>
        <time>2024-11-10T14:34:56Z</time>
      </trkpt>
      <trkpt lat="43.31925" lon="6.52494">
        <ele>320.2</ele>
        <time>2024-11-10T14:35:03.000Z</time>
      </trkpt>
      <trkpt lat="43.3193" lon="6.52498">
        <ele>321.3</ele>
        <time>2024-11-10T14:35:10Z</time>
      </trkpt>
      <trkpt lat="43.31934" lon="6.52503">
        <ele>321.9</ele>
        <time>2024-11-10T14:35:16.000Z</time>
      </trkpt>
      <trkpt lat="43.31937" lon="6.52508">
        <ele>322.4</ele>
        <time>2024-11-10T14:35:22Z</time>
      </trkpt>
      <trkpt lat="43.31941" lon="6.52513">
        <ele>322.9</ele>
        <time>2024-11-10T14:35:28.000Z</time>
      </trkpt>
      <trkpt lat="43.31945" lon="6.52517">
        <ele>323.5</ele>
        <time>2024-11-10T14:35:34Z</time>
      </trkpt>
      <trkpt lat="43.31949" lon="6.52521">
        <ele>323.6</ele>
        <time>2024-11-10T14:35:39.500Z</time>
      </trkpt>
      <trkpt lat="43.31952" lon="6.52525">
        <ele>323.7</ele>
        <time>2024-11-10T14:35:45Z</time>
      </trkpt>
      <trkpt lat="43.31959" lon="6.52527">
        <ele>324.1</ele>
        <time>2024-11-10T14:40:13Z</time>
      </trkpt>
      <trkpt lat="43.31963" lon="6.52531">
        <ele>323.8</ele>
        <time>2024-11-10T14:40:18.000Z</time>
      </trkpt>
      <trkpt lat="43.31967" lon="6.52535">
        <ele>323.5</ele>
        <time>2024-11-10T14:40:23Z</time>
      </trkpt>
      <trkpt lat="43.31971" lon="6.5254">
        <ele>323.1</ele>
        <time>2024-11-10T14:40:28.000Z</time>
      </trkpt>
      <trkpt lat="43.31974" lon="6.52545">
        <ele>322.6</ele>
        <time>2024-11-10T14:40:33Z</time>
      </trkpt>
      <trkpt lat="43.31979" lon="6.52555">
        <ele>321.8</ele>
        <time>2024-11-10T14:40:42Z</time>
      </trkpt>
      <trkpt lat="43.31982" lon="6.52561">
        <ele>321.3</ele>
        <time>2024-11-10T14:40:47.000Z</time>
      </trkpt>
      <trkpt lat="43.31984" lon="6.52566">
        <ele>320.8</ele>
        <time>2024-11-10T14:40:52Z</time>
      </trkpt>
      <trkpt lat="43.31988" lon="6.52573">
        <ele>320.3</ele>
        <time>2024-11-10T14:40:58.500Z</time>
      </trkpt>
      <trkpt lat="43.31992" lon="6.52579">
        <ele>319.8</ele>
        <time>2024-11-10T14:41:05Z</time>
      </trkpt>
      <trkpt lat="43.31995" lon="6.52587">
        <ele>319.3</ele>
        <time>2024-11-10T14:41:10.000Z</time>
      </trkpt>
      <trkpt lat="43.31997" lon="6.52594">
        <ele>319.5</ele>
        <time>2024-11-10T14:41:15Z</time>
      </trkpt>
      <trkpt lat="43.32" lon="6.52601">
        <ele>319.9</ele>
        <time>2024-11-10T14:41:19.500Z</time>
      </trkpt>
      <trkpt lat="43.32002" lon="6.52608">
        <ele>320.5</ele>
        <time>2024-11-10T14:41:24Z</time>
      </trkpt>
      <trkpt lat="43.32003" lon="6.52615">
        <ele>320.9</ele>
        <time>2024-11-10T14:41:28.500Z</time>
      </trkpt>
      <trkpt lat="43.32004" lon="6.52621">
        <ele>321.4</ele>
        <time>2024-11-10T14:41:33Z</time>
      </trkpt>
      <trkpt lat="43.32005" lon="6.52628">
        <ele>322</ele>
        <time>2024-11-10T14:41:38.000Z</time>
      </trkpt>
      <trkpt lat="43.32006" lon="6.52635">
        <ele>322.6</ele>
        <time>2024-11-10T14:41:43Z</time>
      </trkpt>
      <trkpt lat="43.32007" lon="6.52644">
        <ele>323.2</ele>
        <time>2024-11-10T14:41:48.000Z</time>
      </trkpt>
      <trkpt lat="43.32007" lon="6.52652">
        <ele>324.1</ele>
        <time>2024-11-10T14:41:53Z</time>
      </trkpt>
      <trkpt lat="43.32008" lon="6.52659">
        <ele>324.8</ele>
        <time>2024-11-10T14:41:57.500Z</time>
      </trkpt>
      <trkpt lat="43.32008" lon="6.52666">
        <ele>325.5</ele>
        <time>2024-11-10T14:42:02Z</time>
      </trkpt>
      <trkpt lat="43.32008" lon="6.52673">
        <ele>326.4</ele>
        <time>2024-11-10T14:42:07.000Z</time>
      </trkpt>
      <trkpt lat="43.32008" lon="6.52679">
        <ele>327.2</ele>
        <time>2024-11-10T14:42:12Z</time>
      </trkpt>
      <trkpt lat="43.32008" lon="6.52686">
        <ele>328.1</ele>
        <time>2024-11-10T14:42:17.500Z</time>
      </trkpt>
      <trkpt lat="43.32008" lon="6.52692">
        <ele>329</ele>
        <time>2024-11-10T14:42:23Z</time>
      </trkpt>
      <trkpt lat="43.32008" lon="6.52699">
        <ele>329.1</ele>
        <time>2024-11-10T14:42:28.500Z</time>
      </trkpt>
      <trkpt lat="43.32008" lon="6.52706">
        <ele>328.9</ele>
        <time>2024-11-10T14:42:34Z</time>
      </trkpt>
      <trkpt lat="43.32009" lon="6.52714">
        <ele>328.9</ele>
        <time>2024-11-10T14:42:39.000Z</time>
      </trkpt>
      <trkpt lat="43.3201" lon="6.52722">
        <ele>328.9</ele>
        <time>2024-11-10T14:42:44Z</time>
      </trkpt>
      <trkpt lat="43.32012" lon="6.52734">
        <ele>328.1</ele>
        <time>2024-11-10T14:43:07Z</time>
      </trkpt>
      <trkpt lat="43.32015" lon="6.5274">
        <ele>327.9</ele>
        <time>2024-11-10T14:43:13.000Z</time>
      </trkpt>
      <trkpt lat="43.32017" lon="6.52746">
        <ele>327.6</ele>
        <time>2024-11-10T14:43:19Z</time>
      </trkpt>
      <trkpt lat="43.32022" lon="6.52751">
        <ele>327.8</ele>
        <time>2024-11-10T14:43:30.500Z</time>
      </trkpt>
      <trkpt lat="43.32027" lon="6.52756">
        <ele>327.8</ele>
        <time>2024-11-10T14:43:42Z</time>
      </trkpt>
      <trkpt lat="43.32031" lon="6.52763">
        <ele>326.8</ele>
        <time>2024-11-10T14:43:47.500Z</time>
      </trkpt>
      <trkpt lat="43.32034" lon="6.5277">
        <ele>325.8</ele>
        <time>2024-11-10T14:43:53Z</time>
      </trkpt>
      <trkpt lat="43.32036" lon="6.52776">
        <ele>324.9</ele>
        <time>2024-11-10T14:43:58.000Z</time>
      </trkpt>
      <trkpt lat="43.32038" lon="6.52782">
        <ele>324.3</ele>
        <time>2024-11-10T14:44:03Z</time>
      </trkpt>
      <trkpt lat="43.3204" lon="6.5279">
        <ele>323.6</ele>
        <time>2024-11-10T14:44:07.500Z</time>
      </trkpt>
      <trkpt lat="43.32041" lon="6.52797">
        <ele>322.9</ele>
        <time>2024-11-10T14:44:12Z</time>
      </trkpt>
      <trkpt lat="43.32044" lon="6.52804">
        <ele>322.4</ele>
        <time>2024-11-10T14:44:16.000Z</time>
      </trkpt>
      <trkpt lat="43.32046" lon="6.5281">
        <ele>321.9</ele>
        <time>2024-11-10T14:44:20Z</time>
      </trkpt>
      <trkpt lat="43.32052" lon="6.52819">
        <ele>321.7</ele>
        <time>2024-11-10T14:44:29Z</time>
      </trkpt>
      <trkpt lat="43.32056" lon="6.52826">
        <ele>321.5</ele>
        <time>2024-11-10T14:44:34.000Z</time>
      </trkpt>
      <trkpt lat="43.32059" lon="6.52833">
        <ele>321</ele>
        <time>2024-11-10T14:44:39Z</time>
      </trkpt>
      <trkpt lat="43.32063" lon="6.52838">
        <ele>320.2</ele>
        <time>2024-11-10T14:44:44.000Z</time>
      </trkpt>
      <trkpt lat="43.32066" lon="6.52843">
        <ele>319.3</ele>
        <time>2024-11-10T14:44:49Z</time>
      </trkpt>
      <trkpt lat="43.3207" lon="6.52848">
        <ele>318.4</ele>
        <time>2024-11-10T14:44:54.500Z</time>
      </trkpt>
      <trkpt lat="43.32074" lon="6.52852">
        <ele>317.4</ele>
        <time>2024-11-10T14:45:00Z</time>
      </trkpt>
      <trkpt lat="43.32078" lon="6.52857">
        <ele>316.3</ele>
        <time>2024-11-10T14:45:05.500Z</time>
      </trkpt>
      <trkpt lat="43.32082" lon="6.52861">
        <ele>315.1</ele>
        <time>2024-11-10T14:45:11Z</time>
      </trkpt>
      <trkpt lat="43.32085" lon="6.52867">
        <ele>313.7</ele>
        <time>2024-11-10T14:45:16.000Z</time>
      </trkpt>
      <trkpt lat="43.32088" lon="6.52873">
        <ele>312.5</ele>
        <time>2024-11-10T14:45:21Z</time>
      </trkpt>
      <trkpt lat="43.32094" lon="6.52876">
        <ele>312</ele>
        <time>2024-11-10T14:45:38Z</time>
      </trkpt>
      <trkpt lat="43.32093" lon="6.52882">
        <ele>310.7</ele>
        <time>2024-11-10T14:46:12Z</time>
      </trkpt>
      <trkpt lat="43.32097" lon="6.52885">
        <ele>310.3</ele>
        <time>2024-11-10T14:46:51Z</time>
      </trkpt>
      <trkpt lat="43.32102" lon="6.5289">
        <ele>309.5</ele>
        <time>2024-11-10T14:46:56.000Z</time>
      </trkpt>
      <trkpt lat="43.32106" lon="6.52894">
        <ele>308.8</ele>
        <time>2024-11-10T14:47:01Z</time>
      </trkpt>
      <trkpt lat="43.3211" lon="6.529">
        <ele>307.8</ele>
        <time>2024-11-10T14:47:06.500Z</time>
      </trkpt>
      <trkpt lat="43.32113" lon="6.52906">
        <ele>307.1</ele>
        <time>2024-11-10T14:47:12Z</time>
      </trkpt>
      <trkpt lat="43.32117" lon="6.5291">
        <ele>306.8</ele>
        <time>2024-11-10T14:47:19.500Z</time>
      </trkpt>
      <trkpt lat="43.32121" lon="6.52913">
        <ele>306.4</ele>
        <time>2024-11-10T14:47:27Z</time>
      </trkpt>
      <trkpt lat="43.32125" lon="6.52917">
        <ele>305.9</ele>
        <time>2024-11-10T14:47:31.500Z</time>
      </trkpt>
      <trkpt lat="43.32129" lon="6.52921">
        <ele>305.6</ele>
        <time>2024-11-10T14:47:36Z</time>
      </trkpt>
      <trkpt lat="43.32133" lon="6.52925">
        <ele>305.2</ele>
        <time>2024-11-10T14:47:41.000Z</time>
      </trkpt>
      <trkpt lat="43.32137" lon="6.52929">
        <ele>305</ele>
        <time>2024-11-10T14:47:46Z</time>
      </trkpt>
      <trkpt lat="43.32141" lon="6.52934">
        <ele>304.2</ele>
        <time>2024-11-10T14:47:52.000Z</time>
      </trkpt>
      <trkpt lat="43.32145" lon="6.52939">
        <ele>302.9</ele>
        <time>2024-11-10T14:47:58Z</time>
      </trkpt>
      <trkpt lat="43.32149" lon="6.52944">
        <ele>301.6</ele>
        <time>2024-11-10T14:48:04.000Z</time>
      </trkpt>
      <trkpt lat="43.32153" lon="6.52949">
        <ele>300.1</ele>
        <time>2024-11-10T14:48:10Z</time>
      </trkpt>
      <trkpt lat="43.32156" lon="6.52956">
        <ele>298.5</ele>
        <time>2024-11-10T14:48:17.000Z</time>
      </trkpt>
      <trkpt lat="43.32158" lon="6.52962">
        <ele>297.1</ele>
        <time>2024-11-10T14:48:24Z</time>
      </trkpt>
      <trkpt lat="43.32163" lon="6.52971">
        <ele>295.3</ele>
        <time>2024-11-10T14:48:38Z</time>
      </trkpt>
      <trkpt lat="43.32167" lon="6.52977">
        <ele>294.3</ele>
        <time>2024-11-10T14:48:44.000Z</time>
      </trkpt>
      <trkpt lat="43.3217" lon="6.52983">
        <ele>293.3</ele>
        <time>2024-11-10T14:48:50Z</time>
      </trkpt>
      <trkpt lat="43.32175" lon="6.52989">
        <ele>292.6</ele>
        <time>2024-11-10T14:48:55.500Z</time>
      </trkpt>
      <trkpt lat="43.32179" lon="6.52994">
        <ele>292</ele>
        <time>2024-11-10T14:49:01Z</time>
      </trkpt>
      <trkpt lat="43.32182" lon="6.53001">
        <ele>291.5</ele>
        <time>2024-11-10T14:49:06.000Z</time>
      </trkpt>
      <trkpt lat="43.32185" lon="6.53007">
        <ele>290.7</ele>
        <time>2024-11-10T14:49:11Z</time>
      </trkpt>
      <trkpt lat="43.32187" lon="6.53014">
        <ele>289.9</ele>
        <time>2024-11-10T14:49:16.000Z</time>
      </trkpt>
      <trkpt lat="43.32189" lon="6.53021">
        <ele>289.2</ele>
        <time>2024-11-10T14:49:21Z</time>
      </trkpt>
      <trkpt lat="43.32192" lon="6.53028">
        <ele>288.7</ele>
        <time>2024-11-10T14:49:26.000Z</time>
      </trkpt>
      <trkpt lat="43.32194" lon="6.53035">
        <ele>288.7</ele>
        <time>2024-11-10T14:49:31Z</time>
      </trkpt>
      <trkpt lat="43.3219" lon="6.53042">
        <ele>287.8</ele>
        <time>2024-11-10T14:50:02Z</time>
      </trkpt>
      <trkpt lat="43.32191" lon="6.53049">
        <ele>287.6</ele>
        <time>2024-11-10T14:50:31Z</time>
      </trkpt>
      <trkpt lat="43.32192" lon="6.53054">
        <ele>287.5</ele>
        <time>2024-11-10T14:50:59Z</time>
      </trkpt>
      <trkpt lat="43.32197" lon="6.53058">
        <ele>288.9</ele>
        <time>2024-11-10T14:51:31Z</time>
      </trkpt>
      <trkpt lat="43.32197" lon="6.53066">
        <ele>289.5</ele>
        <time>2024-11-10T14:51:37.500Z</time>
      </trkpt>
      <trkpt lat="43.32197" lon="6.53074">
        <ele>290</ele>
        <time>2024-11-10T14:51:44Z</time>
      </trkpt>
      <trkpt lat="43.32197" lon="6.53083">
        <ele>290.5</ele>
        <time>2024-11-10T14:51:49.999Z</time>
      </trkpt>
      <trkpt lat="43.32196" lon="6.53091">
        <ele>290.9</ele>
        <time>2024-11-10T14:51:56Z</time>
      </trkpt>
      <trkpt lat="43.32196" lon="6.531">
        <ele>291.3</ele>
        <time>2024-11-10T14:52:01.499Z</time>
      </trkpt>
      <trkpt lat="43.32195" lon="6.53108">
        <ele>291.8</ele>
        <time>2024-11-10T14:52:07Z</time>
      </trkpt>
      <trkpt lat="43.32195" lon="6.53116">
        <ele>292.2</ele>
        <time>2024-11-10T14:52:12.500Z</time>
      </trkpt>
      <trkpt lat="43.32195" lon="6.53123">
        <ele>292.4</ele>
        <time>2024-11-10T14:52:18Z</time>
      </trkpt>
      <trkpt lat="43.32197" lon="6.53131">
        <ele>292.7</ele>
        <time>2024-11-10T14:52:23.000Z</time>
      </trkpt>
      <trkpt lat="43.32198" lon="6.53139">
        <ele>292.9</ele>
        <time>2024-11-10T14:52:28Z</time>
      </trkpt>
      <trkpt lat="43.322" lon="6.53146">
        <ele>292.3</ele>
        <time>2024-11-10T14:52:32.500Z</time>
      </trkpt>
      <trkpt lat="43.32201" lon="6.53153">
        <ele>291.6</ele>
        <time>2024-11-10T14:52:37Z</time>
      </trkpt>
      <trkpt lat="43.32202" lon="6.5316">
        <ele>291.1</ele>
        <time>2024-11-10T14:52:42.000Z</time>
      </trkpt>
      <trkpt lat="43.32202" lon="6.53166">
        <ele>290.5</ele>
        <time>2024-11-10T14:52:47Z</time>
      </trkpt>
      <trkpt lat="43.32196" lon="6.53174">
        <ele>290.1</ele>
        <time>2024-11-10T14:53:03Z</time>
      </trkpt>
      <trkpt lat="43.32193" lon="6.53181">
        <ele>289</ele>
        <time>2024-11-10T14:53:09.999Z</time>
      </trkpt>
      <trkpt lat="43.3219" lon="6.53187">
        <ele>287.4</ele>
        <time>2024-11-10T14:53:17Z</time>
      </trkpt>
      <trkpt lat="43.32191" lon="6.53195">
        <ele>286.7</ele>
        <time>2024-11-10T14:53:22.000Z</time>
      </trkpt>
      <trkpt lat="43.32192" lon="6.53203">
        <ele>285</ele>
        <time>2024-11-10T14:53:27Z</time>
      </trkpt>
      <trkpt lat="43.32195" lon="6.53208">
        <ele>284.6</ele>
        <time>2024-11-10T14:53:32.000Z</time>
      </trkpt>
      <trkpt lat="43.32198" lon="6.53213">
        <ele>283.4</ele>
        <time>2024-11-10T14:53:37Z</time>
      </trkpt>
      <trkpt lat="43.32202" lon="6.53218">
        <ele>282.4</ele>
        <time>2024-11-10T14:53:42.500Z</time>
      </trkpt>
      <trkpt lat="43.32206" lon="6.53222">
        <ele>281.5</ele>
        <time>2024-11-10T14:53:48Z</time>
      </trkpt>
      <trkpt lat="43.3221" lon="6.53226">
        <ele>280.6</ele>
        <time>2024-11-10T14:53:54.000Z</time>
      </trkpt>
      <trkpt lat="43.32214" lon="6.5323">
        <ele>279.8</ele>
        <time>2024-11-10T14:54:00Z</time>
      </trkpt>
      <trkpt lat="43.32218" lon="6.53236">
        <ele>278.6</ele>
        <time>2024-11-10T14:54:06.000Z</time>
      </trkpt>
      <trkpt lat="43.32222" lon="6.53242">
        <ele>277.7</ele>
        <time>2024-11-10T14:54:12Z</time>
      </trkpt>
      <trkpt lat="43.32222" lon="6.53251">
        <ele>275.8</ele>
        <time>2024-11-10T14:54:17.999Z</time>
      </trkpt>
      <trkpt lat="43.32221" lon="6.53259">
        <ele>274.2</ele>
        <time>2024-11-10T14:54:24Z</time>
      </trkpt>
      <trkpt lat="43.3222" lon="6.53266">
        <ele>272.8</ele>
        <time>2024-11-10T14:54:43.499Z</time>
      </trkpt>
      <trkpt lat="43.32219" lon="6.53273">
        <ele>271.3</ele>
        <time>2024-11-10T14:55:02.999Z</time>
      </trkpt>
      <trkpt lat="43.32217" lon="6.53279">
        <ele>269.8</ele>
        <time>2024-11-10T14:55:22.499Z</time>
      </trkpt>
      <trkpt lat="43.32216" lon="6.53286">
        <ele>268.3</ele>
        <time>2024-11-10T14:55:42Z</time>
      </trkpt>
      <trkpt lat="43.32216" lon="6.53294">
        <ele>266.8</ele>
        <time>2024-11-10T14:55:49.000Z</time>
      </trkpt>
      <trkpt lat="43.32216" lon="6.53302">
        <ele>265.3</ele>
        <time>2024-11-10T14:55:56Z</time>
      </trkpt>
      <trkpt lat="43.32218" lon="6.53309">
        <ele>264.2</ele>
        <time>2024-11-10T14:56:03.000Z</time>
      </trkpt>
      <trkpt lat="43.3222" lon="6.53316">
        <ele>262.9</ele>
        <time>2024-11-10T14:56:10Z</time>
      </trkpt>
      <trkpt lat="43.32223" lon="6.53323">
        <ele>261.9</ele>
        <time>2024-11-10T14:56:17.500Z</time>
      </trkpt>
      <trkpt lat="43.32226" lon="6.53329">
        <ele>260.8</ele>
        <time>2024-11-10T14:56:25Z</time>
      </trkpt>
      <trkpt lat="43.32227" lon="6.53337">
        <ele>259.2</ele>
        <time>2024-11-10T14:56:32.000Z</time>
      </trkpt>
      <trkpt lat="43.32227" lon="6.53345">
        <ele>257.9</ele>
        <time>2024-11-10T14:56:39Z</time>
      </trkpt>
      <trkpt lat="43.32227" lon="6.53353">
        <ele>256.4</ele>
        <time>2024-11-10T14:56:43.500Z</time>
      </trkpt>
      <trkpt lat="43.32227" lon="6.53361">
        <ele>254.9</ele>
        <time>2024-11-10T14:56:48Z</time>
      </trkpt>
      <trkpt lat="43.32228" lon="6.53368">
        <ele>253.5</ele>
        <time>2024-11-10T14:56:54.000Z</time>
      </trkpt>
      <trkpt lat="43.32228" lon="6.53375">
        <ele>252.1</ele>
        <time>2024-11-10T14:57:00Z</time>
      </trkpt>
      <trkpt lat="43.32227" lon="6.53381">
        <ele>250.6</ele>
        <time>2024-11-10T14:57:04.999Z</time>
      </trkpt>
      <trkpt lat="43.32225" lon="6.53387">
        <ele>249</ele>
        <time>2024-11-10T14:57:10Z</time>
      </trkpt>
      <trkpt lat="43.32225" lon="6.53394">
        <ele>247.5</ele>
        <time>2024-11-10T14:57:14.499Z</time>
      </trkpt>
      <trkpt lat="43.32224" lon="6.534">
        <ele>246</ele>
        <time>2024-11-10T14:57:19Z</time>
      </trkpt>
      <trkpt lat="43.32226" lon="6.53412">
        <ele>243.9</ele>
        <time>2024-11-10T14:57:28Z</time>
      </trkpt>
      <trkpt lat="43.32231" lon="6.53422">
        <ele>242.8</ele>
        <time>2024-11-10T14:57:37Z</time>
      </trkpt>
      <trkpt lat="43.32232" lon="6.53429">
        <ele>241.3</ele>
        <time>2024-11-10T14:57:43.000Z</time>
      </trkpt>
      <trkpt lat="43.32233" lon="6.53435">
        <ele>239.8</ele>
        <time>2024-11-10T14:57:49Z</time>
      </trkpt>
      <trkpt lat="43.32234" lon="6.53442">
        <ele>238.3</ele>
        <time>2024-11-10T14:57:53.500Z</time>
      </trkpt>
      <trkpt lat="43.32235" lon="6.53448">
        <ele>236.7</ele>
        <time>2024-11-10T14:57:58Z</time>
      </trkpt>
      <trkpt lat="43.3224" lon="6.53458">
        <ele>234.6</ele>
        <time>2024-11-10T14:58:06Z</time>
      </trkpt>
      <trkpt lat="43.32244" lon="6.53463">
        <ele>234</ele>
        <time>2024-11-10T14:58:11.000Z</time>
      </trkpt>
      <trkpt lat="43.32248" lon="6.53467">
        <ele>233.3</ele>
        <time>2024-11-10T14:58:16Z</time>
      </trkpt>
      <trkpt lat="43.3225" lon="6.53473">
        <ele>231.8</ele>
        <time>2024-11-10T14:58:20.500Z</time>
      </trkpt>
      <trkpt lat="43.32252" lon="6.53479">
        <ele>230.3</ele>
        <time>2024-11-10T14:58:25Z</time>
      </trkpt>
      <trkpt lat="43.32258" lon="6.53484">
        <ele>229</ele>
        <time>2024-11-10T14:58:37Z</time>
      </trkpt>
      <trkpt lat="43.32263" lon="6.53488">
        <ele>228.1</ele>
        <time>2024-11-10T14:58:44.500Z</time>
      </trkpt>
      <trkpt lat="43.32267" lon="6.53492">
        <ele>227.3</ele>
        <time>2024-11-10T14:58:52Z</time>
      </trkpt>
      <trkpt lat="43.3227" lon="6.53499">
        <ele>226</ele>
        <time>2024-11-10T14:58:57.500Z</time>
      </trkpt>
      <trkpt lat="43.32272" lon="6.53505">
        <ele>224.9</ele>
        <time>2024-11-10T14:59:03Z</time>
      </trkpt>
      <trkpt lat="43.32277" lon="6.53515">
        <ele>223.3</ele>
        <time>2024-11-10T14:59:12Z</time>
      </trkpt>
      <trkpt lat="43.3228" lon="6.53521">
        <ele>221.9</ele>
        <time>2024-11-10T14:59:19.000Z</time>
      </trkpt>
      <trkpt lat="43.32282" lon="6.53527">
        <ele>220.4</ele>
        <time>2024-11-10T14:59:26Z</time>
      </trkpt>
      <trkpt lat="43.32288" lon="6.53528">
        <ele>219.2</ele>
        <time>2024-11-10T14:59:32.500Z</time>
      </trkpt>
      <trkpt lat="43.32293" lon="6.53529">
        <ele>217.9</ele>
        <time>2024-11-10T14:59:39Z</time>
      </trkpt>
      <trkpt lat="43.32298" lon="6.53527">
        <ele>217.7</ele>
        <time>2024-11-10T14:59:43.500Z</time>
      </trkpt>
      <trkpt lat="43.32303" lon="6.53524">
        <ele>217.4</ele>
        <time>2024-11-10T14:59:48Z</time>
      </trkpt>
      <trkpt lat="43.32308" lon="6.53524">
        <ele>216.6</ele>
        <time>2024-11-10T14:59:53.000Z</time>
      </trkpt>
      <trkpt lat="43.32313" lon="6.53523">
        <ele>215.8</ele>
        <time>2024-11-10T14:59:58Z</time>
      </trkpt>
      <trkpt lat="43.32321" lon="6.53525">
        <ele>213.8</ele>
        <time>2024-11-10T15:00:09Z</time>
      </trkpt>
      <trkpt lat="43.32327" lon="6.53524">
        <ele>213.1</ele>
        <time>2024-11-10T15:00:15.500Z</time>
      </trkpt>
      <trkpt lat="43.32332" lon="6.53522">
        <ele>212.3</ele>
        <time>2024-11-10T15:00:22Z</time>
      </trkpt>
      <trkpt lat="43.32337" lon="6.53526">
        <ele>210.5</ele>
        <time>2024-11-10T15:00:27.500Z</time>
      </trkpt>
      <trkpt lat="43.32342" lon="6.53529">
        <ele>208.7</ele>
        <time>2024-11-10T15:00:33Z</time>
      </trkpt>
      <trkpt lat="43.32345" lon="6.53537">
        <ele>206.9</ele>
        <time>2024-11-10T15:00:38.500Z</time>
      </trkpt>
      <trkpt lat="43.32348" lon="6.53544">
        <ele>205.3</ele>
        <time>2024-11-10T15:00:44Z</time>
      </trkpt>
      <trkpt lat="43.32349" lon="6.53552">
        <ele>204.2</ele>
        <time>2024-11-10T15:00:49.500Z</time>
      </trkpt>
      <trkpt lat="43.32349" lon="6.53559">
        <ele>203.2</ele>
        <time>2024-11-10T15:00:55Z</time>
      </trkpt>
      <trkpt lat="43.32349" lon="6.53567">
        <ele>202.3</ele>
        <time>2024-11-10T15:01:00.499Z</time>
      </trkpt>
      <trkpt lat="43.32348" lon="6.53575">
        <ele>201.4</ele>
        <time>2024-11-10T15:01:06Z</time>
      </trkpt>
      <trkpt lat="43.32347" lon="6.53584">
        <ele>200.5</ele>
        <time>2024-11-10T15:01:10.499Z</time>
      </trkpt>
      <trkpt lat="43.32345" lon="6.53593">
        <ele>199.1</ele>
        <time>2024-11-10T15:01:15Z</time>
      </trkpt>
      <trkpt lat="43.32342" lon="6.53598">
        <ele>198.7</ele>
        <time>2024-11-10T15:01:19.999Z</time>
      </trkpt>
      <trkpt lat="43.32338" lon="6.53603">
        <ele>198.1</ele>
        <time>2024-11-10T15:01:25Z</time>
      </trkpt>
      <trkpt lat="43.32336" lon="6.5361">
        <ele>197</ele>
        <time>2024-11-10T15:01:29.999Z</time>
      </trkpt>
      <trkpt lat="43.32334" lon="6.53616">
        <ele>196.2</ele>
        <time>2024-11-10T15:01:35Z</time>
      </trkpt>
      <trkpt lat="43.32332" lon="6.53624">
        <ele>195.1</ele>
        <time>2024-11-10T15:01:39.999Z</time>
      </trkpt>
      <trkpt lat="43.32329" lon="6.53632">
        <ele>193.9</ele>
        <time>2024-11-10T15:01:45Z</time>
      </trkpt>
      <trkpt lat="43.32328" lon="6.53639">
        <ele>192.9</ele>
        <time>2024-11-10T15:01:49.499Z</time>
      </trkpt>
      <trkpt lat="43.32326" lon="6.53645">
        <ele>192.2</ele>
        <time>2024-11-10T15:01:54Z</time>
      </trkpt>
      <trkpt lat="43.32326" lon="6.53653">
        <ele>191.6</ele>
        <time>2024-11-10T15:01:58.499Z</time>
      </trkpt>
      <trkpt lat="43.32325" lon="6.5366">
        <ele>191</ele>
        <time>2024-11-10T15:02:03Z</time>
      </trkpt>
      <trkpt lat="43.32322" lon="6.53671">
        <ele>189.9</ele>
        <time>2024-11-10T15:02:11Z</time>
      </trkpt>
      <trkpt lat="43.32321" lon="6.53677">
        <ele>189.3</ele>
        <time>2024-11-10T15:02:15.499Z</time>
      </trkpt>
      <trkpt lat="43.32319" lon="6.53683">
        <ele>188.8</ele>
        <time>2024-11-10T15:02:20Z</time>
      </trkpt>
      <trkpt lat="43.32319" lon="6.53691">
        <ele>188.2</ele>
        <time>2024-11-10T15:02:24.999Z</time>
      </trkpt>
      <trkpt lat="43.32318" lon="6.53699">
        <ele>187.6</ele>
        <time>2024-11-10T15:02:30Z</time>
      </trkpt>
      <trkpt lat="43.32317" lon="6.53708">
        <ele>186.8</ele>
        <time>2024-11-10T15:02:35.999Z</time>
      </trkpt>
      <trkpt lat="43.32316" lon="6.53717">
        <ele>185.9</ele>
        <time>2024-11-10T15:02:42Z</time>
      </trkpt>
      <trkpt lat="43.32314" lon="6.53726">
        <ele>185</ele>
        <time>2024-11-10T15:02:46.999Z</time>
      </trkpt>
      <trkpt lat="43.32311" lon="6.53735">
        <ele>184.2</ele>
        <time>2024-11-10T15:02:52Z</time>
      </trkpt>
      <trkpt lat="43.32308" lon="6.53743">
        <ele>183.1</ele>
        <time>2024-11-10T15:02:56.999Z</time>
      </trkpt>
      <trkpt lat="43.32305" lon="6.53751">
        <ele>181.9</ele>
        <time>2024-11-10T15:03:02Z</time>
      </trkpt>
      <trkpt lat="43.32303" lon="6.53759">
        <ele>181.3</ele>
        <time>2024-11-10T15:03:07.499Z</time>
      </trkpt>
      <trkpt lat="43.32301" lon="6.53767">
        <ele>180.5</ele>
        <time>2024-11-10T15:03:13Z</time>
      </trkpt>
      <trkpt lat="43.32301" lon="6.53775">
        <ele>180.1</ele>
        <time>2024-11-10T15:03:17.999Z</time>
      </trkpt>
      <trkpt lat="43.323" lon="6.53783">
        <ele>179.3</ele>
        <time>2024-11-10T15:03:23Z</time>
      </trkpt>
      <trkpt lat="43.32302" lon="6.53792">
        <ele>178.9</ele>
        <time>2024-11-10T15:03:28.500Z</time>
      </trkpt>
      <trkpt lat="43.32303" lon="6.538">
        <ele>178.2</ele>
        <time>2024-11-10T15:03:34Z</time>
      </trkpt>
      <trkpt lat="43.32305" lon="6.53807">
        <ele>177.8</ele>
        <time>2024-11-10T15:03:38.500Z</time>
      </trkpt>
      <trkpt lat="43.32307" lon="6.53813">
        <ele>177.3</ele>
        <time>2024-11-10T15:03:43Z</time>
      </trkpt>
      <trkpt lat="43.32308" lon="6.5382">
        <ele>176.6</ele>
        <time>2024-11-10T15:03:47.000Z</time>
      </trkpt>
      <trkpt lat="43.32309" lon="6.53827">
        <ele>175.9</ele>
        <time>2024-11-10T15:03:51Z</time>
      </trkpt>
      <trkpt lat="43.32311" lon="6.53834">
        <ele>175.5</ele>
        <time>2024-11-10T15:03:55.500Z</time>
      </trkpt>
      <trkpt lat="43.32313" lon="6.5384">
        <ele>175.3</ele>
        <time>2024-11-10T15:04:00Z</time>
      </trkpt>
      <trkpt lat="43.32315" lon="6.53847">
        <ele>174.8</ele>
        <time>2024-11-10T15:04:05.000Z</time>
      </trkpt>
      <trkpt lat="43.32316" lon="6.53853">
        <ele>174.4</ele>
        <time>2024-11-10T15:04:10Z</time>
      </trkpt>
      <trkpt lat="43.32317" lon="6.53861">
        <ele>173.5</ele>
        <time>2024-11-10T15:04:15.500Z</time>
      </trkpt>
      <trkpt lat="43.32318" lon="6.53869">
        <ele>171.7</ele>
        <time>2024-11-10T15:04:21Z</time>
      </trkpt>
      <trkpt lat="43.32322" lon="6.53875">
        <ele>170.9</ele>
        <time>2024-11-10T15:04:27.500Z</time>
      </trkpt>
      <trkpt lat="43.32325" lon="6.53881">
        <ele>169.9</ele>
        <time>2024-11-10T15:04:34Z</time>
      </trkpt>
      <trkpt lat="43.32331" lon="6.53884">
        <ele>170</ele>
        <time>2024-11-10T15:04:40.500Z</time>
      </trkpt>
      <trkpt lat="43.32337" lon="6.53887">
        <ele>169.8</ele>
        <time>2024-11-10T15:04:47Z</time>
      </trkpt>
      <trkpt lat="43.32342" lon="6.53891">
        <ele>169.1</ele>
        <time>2024-11-10T15:04:51.500Z</time>
      </trkpt>
      <trkpt lat="43.32346" lon="6.53894">
        <ele>168.5</ele>
        <time>2024-11-10T15:04:56Z</time>
      </trkpt>
      <trkpt lat="43.32353" lon="6.53901">
        <ele>167.4</ele>
        <time>2024-11-10T15:05:06Z</time>
      </trkpt>
      <trkpt lat="43.32357" lon="6.53907">
        <ele>166.5</ele>
        <time>2024-11-10T15:05:11.000Z</time>
      </trkpt>
      <trkpt lat="43.3236" lon="6.53912">
        <ele>165.8</ele>
        <time>2024-11-10T15:05:16Z</time>
      </trkpt>
      <trkpt lat="43.32364" lon="6.53923">
        <ele>164.5</ele>
        <time>2024-11-10T15:05:26Z</time>
      </trkpt>
      <trkpt lat="43.32365" lon="6.5393">
        <ele>163.7</ele>
        <time>2024-11-10T15:05:32.500Z</time>
      </trkpt>
      <trkpt lat="43.32366" lon="6.53936">
        <ele>162.7</ele>
        <time>2024-11-10T15:05:39Z</time>
      </trkpt>
      <trkpt lat="43.32367" lon="6.53943">
        <ele>161.6</ele>
        <time>2024-11-10T15:05:48.000Z</time>
      </trkpt>
      <trkpt lat="43.32367" lon="6.5395">
        <ele>160.4</ele>
        <time>2024-11-10T15:05:57Z</time>
      </trkpt>
      <trkpt lat="43.32366" lon="6.53959">
        <ele>158.7</ele>
        <time>2024-11-10T15:06:03.499Z</time>
      </trkpt>
      <trkpt lat="43.32365" lon="6.53967">
        <ele>157.1</ele>
        <time>2024-11-10T15:06:10Z</time>
      </trkpt>
      <trkpt lat="43.32365" lon="6.53975">
        <ele>155.8</ele>
        <time>2024-11-10T15:06:16.500Z</time>
      </trkpt>
      <trkpt lat="43.32365" lon="6.53982">
        <ele>154.6</ele>
        <time>2024-11-10T15:06:23Z</time>
      </trkpt>
      <trkpt lat="43.32364" lon="6.53991">
        <ele>153.3</ele>
        <time>2024-11-10T15:06:28.999Z</time>
      </trkpt>
      <trkpt lat="43.32363" lon="6.53999">
        <ele>152.1</ele>
        <time>2024-11-10T15:06:35Z</time>
      </trkpt>
      <trkpt lat="43.32362" lon="6.54008">
        <ele>150.5</ele>
        <time>2024-11-10T15:06:39.999Z</time>
      </trkpt>
      <trkpt lat="43.32361" lon="6.54017">
        <ele>148.9</ele>
        <time>2024-11-10T15:06:45Z</time>
      </trkpt>
      <trkpt lat="43.32361" lon="6.54024">
        <ele>147.8</ele>
        <time>2024-11-10T15:06:50.500Z</time>
      </trkpt>
      <trkpt lat="43.32361" lon="6.5403">
        <ele>146.8</ele>
        <time>2024-11-10T15:06:56Z</time>
      </trkpt>
      <trkpt lat="43.32363" lon="6.54037">
        <ele>146</ele>
        <time>2024-11-10T15:07:02.000Z</time>
      </trkpt>
      <trkpt lat="43.32364" lon="6.54044">
        <ele>145.2</ele>
        <time>2024-11-10T15:07:08Z</time>
      </trkpt>
      <trkpt lat="43.32367" lon="6.54052">
        <ele>144.4</ele>
        <time>2024-11-10T15:07:13.500Z</time>
      </trkpt>
      <trkpt lat="43.32369" lon="6.5406">
        <ele>143.6</ele>
        <time>2024-11-10T15:07:19Z</time>
      </trkpt>
      <trkpt lat="43.32371" lon="6.54066">
        <ele>143</ele>
        <time>2024-11-10T15:07:24.000Z</time>
      </trkpt>
      <trkpt lat="43.32372" lon="6.54072">
        <ele>142.4</ele>
        <time>2024-11-10T15:07:29Z</time>
      </trkpt>
      <trkpt lat="43.32373" lon="6.5408">
        <ele>141.6</ele>
        <time>2024-11-10T15:07:34.500Z</time>
      </trkpt>
      <trkpt lat="43.32373" lon="6.54087">
        <ele>140.9</ele>
        <time>2024-11-10T15:07:40Z</time>
      </trkpt>
      <trkpt lat="43.32372" lon="6.54097">
        <ele>140.5</ele>
        <time>2024-11-10T15:07:46.499Z</time>
      </trkpt>
      <trkpt lat="43.32371" lon="6.54106">
        <ele>139.9</ele>
        <time>2024-11-10T15:07:53Z</time>
      </trkpt>
      <trkpt lat="43.32368" lon="6.54117">
        <ele>139.4</ele>
        <time>2024-11-10T15:07:59.999Z</time>
      </trkpt>
      <trkpt lat="43.32364" lon="6.54127">
        <ele>138.8</ele>
        <time>2024-11-10T15:08:07Z</time>
      </trkpt>
      <trkpt lat="43.32361" lon="6.54136">
        <ele>138.3</ele>
        <time>2024-11-10T15:08:13.499Z</time>
      </trkpt>
      <trkpt lat="43.32357" lon="6.54144">
        <ele>137.8</ele>
        <time>2024-11-10T15:08:20Z</time>
      </trkpt>
      <trkpt lat="43.32355" lon="6.54156">
        <ele>137.1</ele>
        <time>2024-11-10T15:08:25.499Z</time>
      </trkpt>
      <trkpt lat="43.32353" lon="6.54168">
        <ele>136.5</ele>
        <time>2024-11-10T15:08:31Z</time>
      </trkpt>
      <trkpt lat="43.32353" lon="6.54178">
        <ele>136.1</ele>
        <time>2024-11-10T15:08:37.000Z</time>
      </trkpt>
      <trkpt lat="43.32353" lon="6.54187">
        <ele>135.6</ele>
        <time>2024-11-10T15:08:43Z</time>
      </trkpt>
      <trkpt lat="43.32349" lon="6.54196">
        <ele>135.3</ele>
        <time>2024-11-10T15:15:29Z</time>
      </trkpt>
      <trkpt lat="43.3235" lon="6.54204">
        <ele>134.7</ele>
        <time>2024-11-10T15:15:36.000Z</time>
      </trkpt>
      <trkpt lat="43.32351" lon="6.54212">
        <ele>134.1</ele>
        <time>2024-11-10T15:15:43Z</time>
      </trkpt>
      <trkpt lat="43.32354" lon="6.54219">
        <ele>133.5</ele>
        <time>2024-11-10T15:15:49.000Z</time>
      </trkpt>
      <trkpt lat="43.32356" lon="6.54226">
        <ele>133</ele>
        <time>2024-11-10T15:15:55Z</time>
      </trkpt>
      <trkpt lat="43.32359" lon="6.54234">
        <ele>132.7</ele>
        <time>2024-11-10T15:16:00.500Z</time>
      </trkpt>
      <trkpt lat="43.32361" lon="6.54241">
        <ele>132.3</ele>
        <time>2024-11-10T15:16:06Z</time>
      </trkpt>
      <trkpt lat="43.32364" lon="6.54251">
        <ele>131.8</ele>
        <time>2024-11-10T15:16:11.500Z</time>
      </trkpt>
      <trkpt lat="43.32366" lon="6.5426">
        <ele>131</ele>
        <time>2024-11-10T15:16:17Z</time>
      </trkpt>
      <trkpt lat="43.32368" lon="6.54268">
        <ele>130.4</ele>
        <time>2024-11-10T15:16:22.000Z</time>
      </trkpt>
      <trkpt lat="43.32369" lon="6.54275">
        <ele>129.9</ele>
        <time>2024-11-10T15:16:27Z</time>
      </trkpt>
      <trkpt lat="43.32371" lon="6.54282">
        <ele>129.5</ele>
        <time>2024-11-10T15:16:31.500Z</time>
      </trkpt>
      <trkpt lat="43.32372" lon="6.54289">
        <ele>129</ele>
        <time>2024-11-10T15:16:36Z</time>
      </trkpt>
      <trkpt lat="43.32374" lon="6.54296">
        <ele>128.6</ele>
        <time>2024-11-10T15:16:41.000Z</time>
      </trkpt>
      <trkpt lat="43.32375" lon="6.54303">
        <ele>128.1</ele>
        <time>2024-11-10T15:16:46Z</time>
      </trkpt>
      <trkpt lat="43.32376" lon="6.54311">
        <ele>127.8</ele>
        <time>2024-11-10T15:16:50.500Z</time>
      </trkpt>
      <trkpt lat="43.32377" lon="6.54318">
        <ele>127.7</ele>
        <time>2024-11-10T15:16:55Z</time>
      </trkpt>
      <trkpt lat="43.32379" lon="6.54326">
        <ele>127.5</ele>
        <time>2024-11-10T15:17:00.000Z</time>
      </trkpt>
      <trkpt lat="43.3238" lon="6.54334">
        <ele>127.3</ele>
        <time>2024-11-10T15:17:05Z</time>
      </trkpt>
      <trkpt lat="43.3238" lon="6.54343">
        <ele>127.4</ele>
        <time>2024-11-10T15:17:09.500Z</time>
      </trkpt>
      <trkpt lat="43.3238" lon="6.54352">
        <ele>127.6</ele>
        <time>2024-11-10T15:17:14Z</time>
      </trkpt>
      <trkpt lat="43.3238" lon="6.54359">
        <ele>127.7</ele>
        <time>2024-11-10T15:17:19.500Z</time>
      </trkpt>
      <trkpt lat="43.3238" lon="6.54366">
        <ele>127.7</ele>
        <time>2024-11-10T15:17:25Z</time>
      </trkpt>
      <trkpt lat="43.32381" lon="6.54375">
        <ele>127.7</ele>
        <time>2024-11-10T15:17:30.000Z</time>
      </trkpt>
      <trkpt lat="43.32382" lon="6.54383">
        <ele>127.8</ele>
        <time>2024-11-10T15:17:35Z</time>
      </trkpt>
      <trkpt lat="43.32383" lon="6.54391">
        <ele>127.7</ele>
        <time>2024-11-10T15:17:39.500Z</time>
      </trkpt>
      <trkpt lat="43.32384" lon="6.54398">
        <ele>127.2</ele>
        <time>2024-11-10T15:17:44Z</time>
      </trkpt>
      <trkpt lat="43.32387" lon="6.54406">
        <ele>126.7</ele>
        <time>2024-11-10T15:17:49.500Z</time>
      </trkpt>
      <trkpt lat="43.3239" lon="6.54413">
        <ele>126.2</ele>
        <time>2024-11-10T15:17:55Z</time>
      </trkpt>
      <trkpt lat="43.32391" lon="6.54422">
        <ele>125.5</ele>
        <time>2024-11-10T15:18:00.500Z</time>
      </trkpt>
      <trkpt lat="43.32391" lon="6.5443">
        <ele>124.9</ele>
        <time>2024-11-10T15:18:06Z</time>
      </trkpt>
      <trkpt lat="43.32394" lon="6.54439">
        <ele>124.2</ele>
        <time>2024-11-10T15:18:11.500Z</time>
      </trkpt>
      <trkpt lat="43.32396" lon="6.54447">
        <ele>123.5</ele>
        <time>2024-11-10T15:18:17Z</time>
      </trkpt>
      <trkpt lat="43.32397" lon="6.54456">
        <ele>122.5</ele>
        <time>2024-11-10T15:18:23.000Z</time>
      </trkpt>
      <trkpt lat="43.32397" lon="6.54465">
        <ele>121.5</ele>
        <time>2024-11-10T15:18:29Z</time>
      </trkpt>
      <trkpt lat="43.32398" lon="6.54473">
        <ele>120.6</ele>
        <time>2024-11-10T15:18:35.500Z</time>
      </trkpt>
      <trkpt lat="43.32399" lon="6.54481">
        <ele>119.8</ele>
        <time>2024-11-10T15:18:42Z</time>
      </trkpt>
      <trkpt lat="43.32399" lon="6.54489">
        <ele>119.1</ele>
        <time>2024-11-10T15:18:47.499Z</time>
      </trkpt>
      <trkpt lat="43.32398" lon="6.54497">
        <ele>118.3</ele>
        <time>2024-11-10T15:18:53Z</time>
      </trkpt>
      <trkpt lat="43.32396" lon="6.54505">
        <ele>117.6</ele>
        <time>2024-11-10T15:18:58.999Z</time>
      </trkpt>
      <trkpt lat="43.32393" lon="6.54513">
        <ele>117.1</ele>
        <time>2024-11-10T15:19:05Z</time>
      </trkpt>
      <trkpt lat="43.32392" lon="6.54522">
        <ele>116.5</ele>
        <time>2024-11-10T15:19:10.499Z</time>
      </trkpt>
      <trkpt lat="43.3239" lon="6.5453">
        <ele>115.8</ele>
        <time>2024-11-10T15:19:16Z</time>
      </trkpt>
      <trkpt lat="43.32391" lon="6.54538">
        <ele>114.9</ele>
        <time>2024-11-10T15:19:21.000Z</time>
      </trkpt>
      <trkpt lat="43.32392" lon="6.54546">
        <ele>114</ele>
        <time>2024-11-10T15:19:26Z</time>
      </trkpt>
      <trkpt lat="43.32393" lon="6.54553">
        <ele>113.3</ele>
        <time>2024-11-10T15:19:31.000Z</time>
      </trkpt>
      <trkpt lat="43.32394" lon="6.54559">
        <ele>112.7</ele>
        <time>2024-11-10T15:19:36Z</time>
      </trkpt>
      <trkpt lat="43.32394" lon="6.54569">
        <ele>111.8</ele>
        <time>2024-11-10T15:19:41.000Z</time>
      </trkpt>
      <trkpt lat="43.32394" lon="6.54578">
        <ele>110.9</ele>
        <time>2024-11-10T15:19:46Z</time>
      </trkpt>
      <trkpt lat="43.32397" lon="6.54585">
        <ele>110.3</ele>
        <time>2024-11-10T15:19:50.000Z</time>
      </trkpt>
      <trkpt lat="43.32399" lon="6.54592">
        <ele>109.7</ele>
        <time>2024-11-10T15:19:54Z</time>
      </trkpt>
      <trkpt lat="43.32402" lon="6.54599">
        <ele>109.2</ele>
        <time>2024-11-10T15:19:58.500Z</time>
      </trkpt>
      <trkpt lat="43.32404" lon="6.54605">
        <ele>108.8</ele>
        <time>2024-11-10T15:20:03Z</time>
      </trkpt>
      <trkpt lat="43.32409" lon="6.54615">
        <ele>108.8</ele>
        <time>2024-11-10T15:20:12Z</time>
      </trkpt>
      <trkpt lat="43.32414" lon="6.5462">
        <ele>109.3</ele>
        <time>2024-11-10T15:20:16.500Z</time>
      </trkpt>
      <trkpt lat="43.32419" lon="6.54624">
        <ele>109.5</ele>
        <time>2024-11-10T15:20:21Z</time>
      </trkpt>
      <trkpt lat="43.32423" lon="6.54631">
        <ele>109.2</ele>
        <time>2024-11-10T15:20:25.500Z</time>
      </trkpt>
      <trkpt lat="43.32426" lon="6.54637">
        <ele>108.8</ele>
        <time>2024-11-10T15:20:30Z</time>
      </trkpt>
      <trkpt lat="43.32429" lon="6.54644">
        <ele>108.5</ele>
        <time>2024-11-10T15:20:34.500Z</time>
      </trkpt>
      <trkpt lat="43.32432" lon="6.5465">
        <ele>108.3</ele>
        <time>2024-11-10T15:20:39Z</time>
      </trkpt>
      <trkpt lat="43.32436" lon="6.54656">
        <ele>108.1</ele>
        <time>2024-11-10T15:20:43.500Z</time>
      </trkpt>
      <trkpt lat="43.3244" lon="6.54662">
        <ele>108</ele>
        <time>2024-11-10T15:20:48Z</time>
      </trkpt>
      <trkpt lat="43.32446" lon="6.54669">
        <ele>107.8</ele>
        <time>2024-11-10T15:20:53.000Z</time>
      </trkpt>
      <trkpt lat="43.32451" lon="6.54675">
        <ele>107</ele>
        <time>2024-11-10T15:20:58Z</time>
      </trkpt>
      <trkpt lat="43.32452" lon="6.5468">
        <ele>106.7</ele>
        <time>2024-11-10T15:21:46Z</time>
      </trkpt>
      <trkpt lat="43.32455" lon="6.54686">
        <ele>106.2</ele>
        <time>2024-11-10T15:21:52.500Z</time>
      </trkpt>
      <trkpt lat="43.32458" lon="6.54691">
        <ele>105.7</ele>
        <time>2024-11-10T15:21:59Z</time>
      </trkpt>
      <trkpt lat="43.32463" lon="6.54696">
        <ele>105</ele>
        <time>2024-11-10T15:22:31.000Z</time>
      </trkpt>
      <trkpt lat="43.32467" lon="6.54701">
        <ele>104.2</ele>
        <time>2024-11-10T15:23:03.000Z</time>
      </trkpt>
      <trkpt lat="43.32472" lon="6.54705">
        <ele>103.7</ele>
        <time>2024-11-10T15:23:35.000Z</time>
      </trkpt>
      <trkpt lat="43.32476" lon="6.5471">
        <ele>103.4</ele>
        <time>2024-11-10T15:24:07Z</time>
      </trkpt>
      <trkpt lat="43.32481" lon="6.54717">
        <ele>103.1</ele>
        <time>2024-11-10T15:24:16.000Z</time>
      </trkpt>
      <trkpt lat="43.32485" lon="6.54723">
        <ele>103</ele>
        <time>2024-11-10T15:24:25Z</time>
      </trkpt>
      <trkpt lat="43.32488" lon="6.54731">
        <ele>102.7</ele>
        <time>2024-11-10T15:24:34.000Z</time>
      </trkpt>
      <trkpt lat="43.32491" lon="6.54739">
        <ele>102.4</ele>
        <time>2024-11-10T15:24:43Z</time>
      </trkpt>
      <trkpt lat="43.32495" lon="6.54747">
        <ele>102.1</ele>
        <time>2024-11-10T15:24:49.500Z</time>
      </trkpt>
      <trkpt lat="43.32498" lon="6.54755">
        <ele>101.8</ele>
        <time>2024-11-10T15:24:56Z</time>
      </trkpt>
      <trkpt lat="43.32503" lon="6.5476">
        <ele>101.6</ele>
        <time>2024-11-10T15:25:01.500Z</time>
      </trkpt>
      <trkpt lat="43.32507" lon="6.54764">
        <ele>101.4</ele>
        <time>2024-11-10T15:25:07Z</time>
      </trkpt>
      <trkpt lat="43.32507" lon="6.54772">
        <ele>101.2</ele>
        <time>2024-11-10T15:25:13.000Z</time>
      </trkpt>
      <trkpt lat="43.32507" lon="6.54779">
        <ele>100.9</ele>
        <time>2024-11-10T15:25:19Z</time>
      </trkpt>
      <trkpt lat="43.32509" lon="6.54786">
        <ele>100.4</ele>
        <time>2024-11-10T15:25:24.000Z</time>
      </trkpt>
      <trkpt lat="43.3251" lon="6.54793">
        <ele>99.9</ele>
        <time>2024-11-10T15:25:29Z</time>
      </trkpt>
      <trkpt lat="43.32514" lon="6.54797">
        <ele>99.7</ele>
        <time>2024-11-10T15:25:35.000Z</time>
      </trkpt>
      <trkpt lat="43.32518" lon="6.548">
        <ele>99.4</ele>
        <time>2024-11-10T15:25:41Z</time>
      </trkpt>
      <trkpt lat="43.32523" lon="6.54805">
        <ele>99</ele>
        <time>2024-11-10T15:25:49.000Z</time>
      </trkpt>
      <trkpt lat="43.32528" lon="6.5481">
        <ele>98.6</ele>
        <time>2024-11-10T15:25:57Z</time>
      </trkpt>
      <trkpt lat="43.32532" lon="6.54819">
        <ele>97.4</ele>
        <time>2024-11-10T15:26:05.000Z</time>
      </trkpt>
      <trkpt lat="43.32536" lon="6.54828">
        <ele>96.2</ele>
        <time>2024-11-10T15:26:13Z</time>
      </trkpt>
      <trkpt lat="43.3254" lon="6.54836">
        <ele>95</ele>
        <time>2024-11-10T15:26:21.500Z</time>
      </trkpt>
      <trkpt lat="43.32544" lon="6.54844">
        <ele>93.9</ele>
        <time>2024-11-10T15:26:30Z</time>
      </trkpt>
      <trkpt lat="43.32551" lon="6.5485">
        <ele>92.6</ele>
        <time>2024-11-10T15:26:37.000Z</time>
      </trkpt>
      <trkpt lat="43.32557" lon="6.54855">
        <ele>91.3</ele>
        <time>2024-11-10T15:26:44Z</time>
      </trkpt>
      <trkpt lat="43.32563" lon="6.54856">
        <ele>90.8</ele>
        <time>2024-11-10T15:26:50.500Z</time>
      </trkpt>
      <trkpt lat="43.32569" lon="6.54856">
        <ele>90.3</ele>
        <time>2024-11-10T15:26:57Z</time>
      </trkpt>
      <trkpt lat="43.32576" lon="6.54859">
        <ele>89.6</ele>
        <time>2024-11-10T15:27:04.500Z</time>
      </trkpt>
      <trkpt lat="43.32583" lon="6.54862">
        <ele>88.9</ele>
        <time>2024-11-10T15:27:12Z</time>
      </trkpt>
      <trkpt lat="43.32588" lon="6.54861">
        <ele>88.9</ele>
        <time>2024-11-10T15:27:18.000Z</time>
      </trkpt>
      <trkpt lat="43.32593" lon="6.54859">
        <ele>88.7</ele>
        <time>2024-11-10T15:27:24Z</time>
      </trkpt>
      <trkpt lat="43.32595" lon="6.54853">
        <ele>88.9</ele>
        <time>2024-11-10T15:27:30.500Z</time>
      </trkpt>
      <trkpt lat="43.32597" lon="6.54847">
        <ele>89</ele>
        <time>2024-11-10T15:27:37Z</time>
      </trkpt>
      <trkpt lat="43.32603" lon="6.54844">
        <ele>88.9</ele>
        <time>2024-11-10T15:27:43.500Z</time>
      </trkpt>
      <trkpt lat="43.32608" lon="6.54841">
        <ele>88.8</ele>
        <time>2024-11-10T15:27:50Z</time>
      </trkpt>
      <trkpt lat="43.32615" lon="6.54844">
        <ele>87.8</ele>
        <time>2024-11-10T15:27:55.500Z</time>
      </trkpt>
      <trkpt lat="43.32622" lon="6.54846">
        <ele>86.4</ele>
        <time>2024-11-10T15:28:01Z</time>
      </trkpt>
      <trkpt lat="43.32629" lon="6.54846">
        <ele>85.1</ele>
        <time>2024-11-10T15:28:08.500Z</time>
      </trkpt>
      <trkpt lat="43.32635" lon="6.54845">
        <ele>83.8</ele>
        <time>2024-11-10T15:28:16Z</time>
      </trkpt>
      <trkpt lat="43.3264" lon="6.54849">
        <ele>82.8</ele>
        <time>2024-11-10T15:28:23.500Z</time>
      </trkpt>
      <trkpt lat="43.32645" lon="6.54852">
        <ele>82</ele>
        <time>2024-11-10T15:28:31Z</time>
      </trkpt>
      <trkpt lat="43.32647" lon="6.54859">
        <ele>81.6</ele>
        <time>2024-11-10T15:28:37.000Z</time>
      </trkpt>
      <trkpt lat="43.32649" lon="6.54866">
        <ele>81</ele>
        <time>2024-11-10T15:28:43Z</time>
      </trkpt>
      <trkpt lat="43.32651" lon="6.54875">
        <ele>80.4</ele>
        <time>2024-11-10T15:28:50.000Z</time>
      </trkpt>
      <trkpt lat="43.32652" lon="6.54884">
        <ele>79.8</ele>
        <time>2024-11-10T15:28:57Z</time>
      </trkpt>
      <trkpt lat="43.32651" lon="6.54892">
        <ele>79.8</ele>
        <time>2024-11-10T15:29:03.499Z</time>
      </trkpt>
      <trkpt lat="43.32649" lon="6.54899">
        <ele>79.8</ele>
        <time>2024-11-10T15:29:10Z</time>
      </trkpt>
      <trkpt lat="43.32648" lon="6.54909">
        <ele>79.7</ele>
        <time>2024-11-10T15:29:16.499Z</time>
      </trkpt>
      <trkpt lat="43.32646" lon="6.54918">
        <ele>79.6</ele>
        <time>2024-11-10T15:29:23Z</time>
      </trkpt>
      <trkpt lat="43.32646" lon="6.54928">
        <ele>79.1</ele>
        <time>2024-11-10T15:29:29.000Z</time>
      </trkpt>
      <trkpt lat="43.32646" lon="6.54937">
        <ele>78.6</ele>
        <time>2024-11-10T15:29:35Z</time>
      </trkpt>
      <trkpt lat="43.32645" lon="6.54946">
        <ele>78.3</ele>
        <time>2024-11-10T15:29:40.499Z</time>
      </trkpt>
      <trkpt lat="43.32643" lon="6.54955">
        <ele>77.9</ele>
        <time>2024-11-10T15:29:46Z</time>
      </trkpt>
      <trkpt lat="43.32647" lon="6.54965">
        <ele>77.1</ele>
        <time>2024-11-10T15:29:58Z</time>
      </trkpt>
      <trkpt lat="43.32649" lon="6.54969">
        <ele>76.8</ele>
        <time>2024-11-10T15:30:03.835Z</time>
      </trkpt>
      <trkpt lat="43.32649" lon="6.54977">
        <ele>76.9</ele>
        <time>2024-11-10T15:30:13.453Z</time>
      </trkpt>
      <trkpt lat="43.32644" lon="6.54981">
        <ele>77.2</ele>
        <time>2024-11-10T15:30:22.726Z</time>
      </trkpt>
      <trkpt lat="43.32639" lon="6.54984">
        <ele>77.4</ele>
        <time>2024-11-10T15:30:32Z</time>
      </trkpt>
      <trkpt lat="43.32634" lon="6.54989">
        <ele>77.8</ele>
        <time>2024-11-10T15:30:36.999Z</time>
      </trkpt>
      <trkpt lat="43.32629" lon="6.54994">
        <ele>78.2</ele>
        <time>2024-11-10T15:30:42Z</time>
      </trkpt>
      <trkpt lat="43.32623" lon="6.54999">
        <ele>78.6</ele>
        <time>2024-11-10T15:30:49Z</time>
        <extensions>
          <visugpx:TrkExtension xmlns:visugpx="https://www.visugpx.com/editgpx/">
            <visugpx:node>1</visugpx:node>
            </visugpx:TrkExtension>
        </extensions>
      </trkpt>
    </trkseg>
  </trk>
</gpx>